<?xml version="1.0" encoding="UTF-8" standalone="no" ?>
<gpx xmlns="http://www.topografix.com/GPX/1/1" xmlns:xsi="http://www.w3.org/2001/XMLSchema-instance" xsi:schemaLocation="http://www.topografix.com/GPX/1/1 http://www.topografix.com/GPX/1/1/gpx.xsd" version="1.1" creator="VisuGPX - https://www.visugpx.com">
  <metadata>
    <name>Randonnée de la Licorne 60kms 2011</name>
    <desc><![CDATA[Randonnée de la Licorne 60kms 2011]]></desc>
  </metadata>
  <trk>
    <name><![CDATA[Mountain Biking 7/10/11 7:43 am]]></name>
    <trkseg>
      <trkpt lat="48.73079" lon="7.3539">
        <ele>238.3</ele>
        <time>2011-07-10T07:43:19Z</time>
      </trkpt>
      <trkpt lat="48.73096" lon="7.35377">
        <ele>239</ele>
        <time>2011-07-10T07:43:54Z</time>
      </trkpt>
      <trkpt lat="48.73101" lon="7.35355">
        <ele>239.4</ele>
        <time>2011-07-10T07:43:58Z</time>
      </trkpt>
      <trkpt lat="48.7311" lon="7.35337">
        <ele>239.7</ele>
        <time>2011-07-10T07:44:01Z</time>
      </trkpt>
      <trkpt lat="48.73114" lon="7.35318">
        <ele>239.9</ele>
        <time>2011-07-10T07:44:06Z</time>
      </trkpt>
      <trkpt lat="48.73119" lon="7.35305">
        <ele>240.1</ele>
        <time>2011-07-10T07:44:10Z</time>
      </trkpt>
      <trkpt lat="48.73123" lon="7.35293">
        <ele>240.7</ele>
        <time>2011-07-10T07:44:12Z</time>
      </trkpt>
      <trkpt lat="48.73127" lon="7.3528">
        <ele>241.4</ele>
        <time>2011-07-10T07:44:15Z</time>
      </trkpt>
      <trkpt lat="48.73131" lon="7.35269">
        <ele>241.9</ele>
        <time>2011-07-10T07:44:18Z</time>
      </trkpt>
      <trkpt lat="48.73134" lon="7.35257">
        <ele>242.5</ele>
        <time>2011-07-10T07:44:21Z</time>
      </trkpt>
      <trkpt lat="48.73138" lon="7.35246">
        <ele>243</ele>
        <time>2011-07-10T07:44:25Z</time>
      </trkpt>
      <trkpt lat="48.7314" lon="7.35233">
        <ele>243.5</ele>
        <time>2011-07-10T07:44:27Z</time>
      </trkpt>
      <trkpt lat="48.73143" lon="7.35221">
        <ele>243.8</ele>
        <time>2011-07-10T07:44:30Z</time>
      </trkpt>
      <trkpt lat="48.73147" lon="7.35209">
        <ele>244.2</ele>
        <time>2011-07-10T07:44:33Z</time>
      </trkpt>
      <trkpt lat="48.7315" lon="7.35193">
        <ele>245.1</ele>
        <time>2011-07-10T07:44:37Z</time>
      </trkpt>
      <trkpt lat="48.73154" lon="7.35175">
        <ele>246</ele>
        <time>2011-07-10T07:44:42Z</time>
      </trkpt>
      <trkpt lat="48.73158" lon="7.35162">
        <ele>247.1</ele>
        <time>2011-07-10T07:44:46Z</time>
      </trkpt>
      <trkpt lat="48.73162" lon="7.35151">
        <ele>248.2</ele>
        <time>2011-07-10T07:44:49Z</time>
      </trkpt>
      <trkpt lat="48.73169" lon="7.35139">
        <ele>249.3</ele>
        <time>2011-07-10T07:44:53Z</time>
      </trkpt>
      <trkpt lat="48.73179" lon="7.35127">
        <ele>250</ele>
        <time>2011-07-10T07:44:58Z</time>
      </trkpt>
      <trkpt lat="48.73199" lon="7.35125">
        <ele>250.7</ele>
        <time>2011-07-10T07:45:04Z</time>
      </trkpt>
      <trkpt lat="48.73211" lon="7.35127">
        <ele>251.5</ele>
        <time>2011-07-10T07:45:07Z</time>
      </trkpt>
      <trkpt lat="48.7322" lon="7.3512">
        <ele>252.2</ele>
        <time>2011-07-10T07:45:13Z</time>
      </trkpt>
      <trkpt lat="48.73222" lon="7.35106">
        <ele>253.5</ele>
        <time>2011-07-10T07:45:17Z</time>
      </trkpt>
      <trkpt lat="48.73223" lon="7.35094">
        <ele>254.9</ele>
        <time>2011-07-10T07:45:21Z</time>
      </trkpt>
      <trkpt lat="48.73228" lon="7.3508">
        <ele>255.7</ele>
        <time>2011-07-10T07:45:26Z</time>
      </trkpt>
      <trkpt lat="48.73232" lon="7.35066">
        <ele>256.5</ele>
        <time>2011-07-10T07:45:32Z</time>
      </trkpt>
      <trkpt lat="48.73236" lon="7.35055">
        <ele>257.2</ele>
        <time>2011-07-10T07:45:37Z</time>
      </trkpt>
      <trkpt lat="48.73241" lon="7.35044">
        <ele>257.8</ele>
        <time>2011-07-10T07:45:41Z</time>
      </trkpt>
      <trkpt lat="48.73244" lon="7.35033">
        <ele>258.5</ele>
        <time>2011-07-10T07:45:46Z</time>
      </trkpt>
      <trkpt lat="48.73248" lon="7.35021">
        <ele>260</ele>
        <time>2011-07-10T07:45:53Z</time>
      </trkpt>
      <trkpt lat="48.73251" lon="7.3501">
        <ele>261.5</ele>
        <time>2011-07-10T07:45:58Z</time>
      </trkpt>
      <trkpt lat="48.73256" lon="7.34997">
        <ele>263.1</ele>
        <time>2011-07-10T07:46:04Z</time>
      </trkpt>
      <trkpt lat="48.73259" lon="7.34983">
        <ele>264.6</ele>
        <time>2011-07-10T07:46:11Z</time>
      </trkpt>
      <trkpt lat="48.73263" lon="7.34972">
        <ele>265.5</ele>
        <time>2011-07-10T07:46:17Z</time>
      </trkpt>
      <trkpt lat="48.73265" lon="7.34958">
        <ele>266.5</ele>
        <time>2011-07-10T07:46:22Z</time>
      </trkpt>
      <trkpt lat="48.73264" lon="7.34946">
        <ele>267.4</ele>
        <time>2011-07-10T07:46:27Z</time>
      </trkpt>
      <trkpt lat="48.73255" lon="7.34944">
        <ele>267.5</ele>
        <time>2011-07-10T07:46:30Z</time>
      </trkpt>
      <trkpt lat="48.73244" lon="7.34939">
        <ele>267.7</ele>
        <time>2011-07-10T07:46:34Z</time>
      </trkpt>
      <trkpt lat="48.73236" lon="7.34933">
        <ele>267.9</ele>
        <time>2011-07-10T07:46:37Z</time>
      </trkpt>
      <trkpt lat="48.73225" lon="7.34927">
        <ele>269.5</ele>
        <time>2011-07-10T07:46:40Z</time>
      </trkpt>
      <trkpt lat="48.73213" lon="7.34916">
        <ele>270.1</ele>
        <time>2011-07-10T07:46:45Z</time>
      </trkpt>
      <trkpt lat="48.73199" lon="7.34903">
        <ele>270.7</ele>
        <time>2011-07-10T07:46:50Z</time>
      </trkpt>
      <trkpt lat="48.73191" lon="7.34895">
        <ele>270.5</ele>
        <time>2011-07-10T07:46:53Z</time>
      </trkpt>
      <trkpt lat="48.73178" lon="7.34887">
        <ele>270.4</ele>
        <time>2011-07-10T07:46:57Z</time>
      </trkpt>
      <trkpt lat="48.73161" lon="7.34878">
        <ele>270.2</ele>
        <time>2011-07-10T07:47:02Z</time>
      </trkpt>
      <trkpt lat="48.73146" lon="7.34867">
        <ele>271.8</ele>
        <time>2011-07-10T07:47:06Z</time>
      </trkpt>
      <trkpt lat="48.73134" lon="7.34851">
        <ele>272.5</ele>
        <time>2011-07-10T07:47:10Z</time>
      </trkpt>
      <trkpt lat="48.73111" lon="7.34842">
        <ele>274</ele>
        <time>2011-07-10T07:47:17Z</time>
      </trkpt>
      <trkpt lat="48.73088" lon="7.34828">
        <ele>275.5</ele>
        <time>2011-07-10T07:47:24Z</time>
      </trkpt>
      <trkpt lat="48.73069" lon="7.34812">
        <ele>276.9</ele>
        <time>2011-07-10T07:47:30Z</time>
      </trkpt>
      <trkpt lat="48.73049" lon="7.348">
        <ele>277</ele>
        <time>2011-07-10T07:47:36Z</time>
      </trkpt>
      <trkpt lat="48.73039" lon="7.34797">
        <ele>277.1</ele>
        <time>2011-07-10T07:47:41Z</time>
      </trkpt>
      <trkpt lat="48.73032" lon="7.34786">
        <ele>277.2</ele>
        <time>2011-07-10T07:47:46Z</time>
      </trkpt>
      <trkpt lat="48.73034" lon="7.34773">
        <ele>278.1</ele>
        <time>2011-07-10T07:47:51Z</time>
      </trkpt>
      <trkpt lat="48.73029" lon="7.3476">
        <ele>279</ele>
        <time>2011-07-10T07:47:56Z</time>
      </trkpt>
      <trkpt lat="48.73026" lon="7.34747">
        <ele>281.1</ele>
        <time>2011-07-10T07:48:01Z</time>
      </trkpt>
      <trkpt lat="48.73015" lon="7.34748">
        <ele>281.4</ele>
        <time>2011-07-10T07:48:06Z</time>
      </trkpt>
      <trkpt lat="48.73006" lon="7.34746">
        <ele>282.5</ele>
        <time>2011-07-10T07:48:11Z</time>
      </trkpt>
      <trkpt lat="48.73003" lon="7.34734">
        <ele>283.7</ele>
        <time>2011-07-10T07:48:15Z</time>
      </trkpt>
      <trkpt lat="48.72997" lon="7.34724">
        <ele>284.8</ele>
        <time>2011-07-10T07:48:20Z</time>
      </trkpt>
      <trkpt lat="48.7299" lon="7.34717">
        <ele>285.9</ele>
        <time>2011-07-10T07:48:24Z</time>
      </trkpt>
      <trkpt lat="48.72987" lon="7.34704">
        <ele>287</ele>
        <time>2011-07-10T07:48:29Z</time>
      </trkpt>
      <trkpt lat="48.72979" lon="7.34697">
        <ele>288.1</ele>
        <time>2011-07-10T07:48:33Z</time>
      </trkpt>
      <trkpt lat="48.72969" lon="7.34691">
        <ele>289.2</ele>
        <time>2011-07-10T07:48:38Z</time>
      </trkpt>
      <trkpt lat="48.72961" lon="7.34688">
        <ele>290.3</ele>
        <time>2011-07-10T07:48:41Z</time>
      </trkpt>
      <trkpt lat="48.7295" lon="7.34681">
        <ele>291.4</ele>
        <time>2011-07-10T07:48:46Z</time>
      </trkpt>
      <trkpt lat="48.72942" lon="7.34674">
        <ele>291.3</ele>
        <time>2011-07-10T07:48:49Z</time>
      </trkpt>
      <trkpt lat="48.72935" lon="7.34665">
        <ele>291.2</ele>
        <time>2011-07-10T07:48:54Z</time>
      </trkpt>
      <trkpt lat="48.7293" lon="7.34656">
        <ele>293</ele>
        <time>2011-07-10T07:48:57Z</time>
      </trkpt>
      <trkpt lat="48.72921" lon="7.34652">
        <ele>293.8</ele>
        <time>2011-07-10T07:49:00Z</time>
      </trkpt>
      <trkpt lat="48.72911" lon="7.3465">
        <ele>294.7</ele>
        <time>2011-07-10T07:49:04Z</time>
      </trkpt>
      <trkpt lat="48.72903" lon="7.34641">
        <ele>295.6</ele>
        <time>2011-07-10T07:49:08Z</time>
      </trkpt>
      <trkpt lat="48.72892" lon="7.34639">
        <ele>296.5</ele>
        <time>2011-07-10T07:49:11Z</time>
      </trkpt>
      <trkpt lat="48.72885" lon="7.34631">
        <ele>297.5</ele>
        <time>2011-07-10T07:49:14Z</time>
      </trkpt>
      <trkpt lat="48.72877" lon="7.34626">
        <ele>298.4</ele>
        <time>2011-07-10T07:49:18Z</time>
      </trkpt>
      <trkpt lat="48.72869" lon="7.34622">
        <ele>299.3</ele>
        <time>2011-07-10T07:49:23Z</time>
      </trkpt>
      <trkpt lat="48.72861" lon="7.34616">
        <ele>300.2</ele>
        <time>2011-07-10T07:49:28Z</time>
      </trkpt>
      <trkpt lat="48.72852" lon="7.34615">
        <ele>301.1</ele>
        <time>2011-07-10T07:49:31Z</time>
      </trkpt>
      <trkpt lat="48.72842" lon="7.3461">
        <ele>300.9</ele>
        <time>2011-07-10T07:49:34Z</time>
      </trkpt>
      <trkpt lat="48.72832" lon="7.34606">
        <ele>298.8</ele>
        <time>2011-07-10T07:49:40Z</time>
      </trkpt>
      <trkpt lat="48.72825" lon="7.34601">
        <ele>297.7</ele>
        <time>2011-07-10T07:49:43Z</time>
      </trkpt>
      <trkpt lat="48.72815" lon="7.34596">
        <ele>296.6</ele>
        <time>2011-07-10T07:49:48Z</time>
      </trkpt>
      <trkpt lat="48.72805" lon="7.34592">
        <ele>295.5</ele>
        <time>2011-07-10T07:49:51Z</time>
      </trkpt>
      <trkpt lat="48.72795" lon="7.34588">
        <ele>296.5</ele>
        <time>2011-07-10T07:49:54Z</time>
      </trkpt>
      <trkpt lat="48.72787" lon="7.34582">
        <ele>297.4</ele>
        <time>2011-07-10T07:49:57Z</time>
      </trkpt>
      <trkpt lat="48.72779" lon="7.34579">
        <ele>298.3</ele>
        <time>2011-07-10T07:50:00Z</time>
      </trkpt>
      <trkpt lat="48.72772" lon="7.34571">
        <ele>299.2</ele>
        <time>2011-07-10T07:50:05Z</time>
      </trkpt>
      <trkpt lat="48.72763" lon="7.34563">
        <ele>300.1</ele>
        <time>2011-07-10T07:50:09Z</time>
      </trkpt>
      <trkpt lat="48.72754" lon="7.34555">
        <ele>301</ele>
        <time>2011-07-10T07:50:13Z</time>
      </trkpt>
      <trkpt lat="48.72747" lon="7.34549">
        <ele>303</ele>
        <time>2011-07-10T07:50:16Z</time>
      </trkpt>
      <trkpt lat="48.72744" lon="7.34535">
        <ele>305</ele>
        <time>2011-07-10T07:50:21Z</time>
      </trkpt>
      <trkpt lat="48.72737" lon="7.34526">
        <ele>305.4</ele>
        <time>2011-07-10T07:50:24Z</time>
      </trkpt>
      <trkpt lat="48.7273" lon="7.34515">
        <ele>305.7</ele>
        <time>2011-07-10T07:50:30Z</time>
      </trkpt>
      <trkpt lat="48.72722" lon="7.3451">
        <ele>306.1</ele>
        <time>2011-07-10T07:50:34Z</time>
      </trkpt>
      <trkpt lat="48.72719" lon="7.34495">
        <ele>306.6</ele>
        <time>2011-07-10T07:50:40Z</time>
      </trkpt>
      <trkpt lat="48.72713" lon="7.34485">
        <ele>307.2</ele>
        <time>2011-07-10T07:50:44Z</time>
      </trkpt>
      <trkpt lat="48.72704" lon="7.34482">
        <ele>307.7</ele>
        <time>2011-07-10T07:50:46Z</time>
      </trkpt>
      <trkpt lat="48.72699" lon="7.34471">
        <ele>308.3</ele>
        <time>2011-07-10T07:50:50Z</time>
      </trkpt>
      <trkpt lat="48.7269" lon="7.34468">
        <ele>308.8</ele>
        <time>2011-07-10T07:50:54Z</time>
      </trkpt>
      <trkpt lat="48.72684" lon="7.34456">
        <ele>309.4</ele>
        <time>2011-07-10T07:50:59Z</time>
      </trkpt>
      <trkpt lat="48.72678" lon="7.34447">
        <ele>309.9</ele>
        <time>2011-07-10T07:51:04Z</time>
      </trkpt>
      <trkpt lat="48.7267" lon="7.34445">
        <ele>310.5</ele>
        <time>2011-07-10T07:51:07Z</time>
      </trkpt>
      <trkpt lat="48.72664" lon="7.34437">
        <ele>310.7</ele>
        <time>2011-07-10T07:51:12Z</time>
      </trkpt>
      <trkpt lat="48.72657" lon="7.3443">
        <ele>311</ele>
        <time>2011-07-10T07:51:17Z</time>
      </trkpt>
      <trkpt lat="48.72651" lon="7.34419">
        <ele>311.3</ele>
        <time>2011-07-10T07:51:22Z</time>
      </trkpt>
      <trkpt lat="48.72641" lon="7.34409">
        <ele>311.9</ele>
        <time>2011-07-10T07:51:27Z</time>
      </trkpt>
      <trkpt lat="48.72632" lon="7.34405">
        <ele>312.5</ele>
        <time>2011-07-10T07:51:31Z</time>
      </trkpt>
      <trkpt lat="48.72625" lon="7.34398">
        <ele>313.2</ele>
        <time>2011-07-10T07:51:36Z</time>
      </trkpt>
      <trkpt lat="48.72618" lon="7.34388">
        <ele>313.8</ele>
        <time>2011-07-10T07:51:40Z</time>
      </trkpt>
      <trkpt lat="48.72611" lon="7.34378">
        <ele>314.5</ele>
        <time>2011-07-10T07:51:46Z</time>
      </trkpt>
      <trkpt lat="48.72604" lon="7.34371">
        <ele>315.1</ele>
        <time>2011-07-10T07:51:52Z</time>
      </trkpt>
      <trkpt lat="48.72595" lon="7.34363">
        <ele>315.7</ele>
        <time>2011-07-10T07:51:57Z</time>
      </trkpt>
      <trkpt lat="48.72588" lon="7.34356">
        <ele>316.4</ele>
        <time>2011-07-10T07:52:01Z</time>
      </trkpt>
      <trkpt lat="48.72582" lon="7.34347">
        <ele>318.9</ele>
        <time>2011-07-10T07:52:05Z</time>
      </trkpt>
      <trkpt lat="48.72574" lon="7.34338">
        <ele>321.5</ele>
        <time>2011-07-10T07:52:09Z</time>
      </trkpt>
      <trkpt lat="48.72568" lon="7.34327">
        <ele>324</ele>
        <time>2011-07-10T07:52:12Z</time>
      </trkpt>
      <trkpt lat="48.72563" lon="7.34319">
        <ele>324</ele>
        <time>2011-07-10T07:52:16Z</time>
      </trkpt>
      <trkpt lat="48.72557" lon="7.34309">
        <ele>324</ele>
        <time>2011-07-10T07:52:21Z</time>
      </trkpt>
      <trkpt lat="48.72549" lon="7.343">
        <ele>324</ele>
        <time>2011-07-10T07:52:27Z</time>
      </trkpt>
      <trkpt lat="48.72541" lon="7.34291">
        <ele>324</ele>
        <time>2011-07-10T07:52:33Z</time>
      </trkpt>
      <trkpt lat="48.72532" lon="7.34282">
        <ele>324</ele>
        <time>2011-07-10T07:52:38Z</time>
      </trkpt>
      <trkpt lat="48.72527" lon="7.34271">
        <ele>324</ele>
        <time>2011-07-10T07:52:42Z</time>
      </trkpt>
      <trkpt lat="48.72521" lon="7.34262">
        <ele>324</ele>
        <time>2011-07-10T07:52:47Z</time>
      </trkpt>
      <trkpt lat="48.72512" lon="7.34258">
        <ele>324</ele>
        <time>2011-07-10T07:52:52Z</time>
      </trkpt>
      <trkpt lat="48.72504" lon="7.34251">
        <ele>324</ele>
        <time>2011-07-10T07:52:56Z</time>
      </trkpt>
      <trkpt lat="48.72497" lon="7.34244">
        <ele>324.7</ele>
        <time>2011-07-10T07:53:00Z</time>
      </trkpt>
      <trkpt lat="48.72491" lon="7.34235">
        <ele>325.5</ele>
        <time>2011-07-10T07:53:04Z</time>
      </trkpt>
      <trkpt lat="48.72483" lon="7.34228">
        <ele>326.2</ele>
        <time>2011-07-10T07:53:09Z</time>
      </trkpt>
      <trkpt lat="48.72474" lon="7.34221">
        <ele>326.9</ele>
        <time>2011-07-10T07:53:13Z</time>
      </trkpt>
      <trkpt lat="48.72468" lon="7.34213">
        <ele>327.6</ele>
        <time>2011-07-10T07:53:17Z</time>
      </trkpt>
      <trkpt lat="48.72459" lon="7.34206">
        <ele>328.4</ele>
        <time>2011-07-10T07:53:22Z</time>
      </trkpt>
      <trkpt lat="48.72454" lon="7.34197">
        <ele>329.1</ele>
        <time>2011-07-10T07:53:27Z</time>
      </trkpt>
      <trkpt lat="48.72446" lon="7.34191">
        <ele>329.8</ele>
        <time>2011-07-10T07:53:31Z</time>
      </trkpt>
      <trkpt lat="48.7244" lon="7.34181">
        <ele>330.5</ele>
        <time>2011-07-10T07:53:35Z</time>
      </trkpt>
      <trkpt lat="48.72432" lon="7.34175">
        <ele>331.3</ele>
        <time>2011-07-10T07:53:40Z</time>
      </trkpt>
      <trkpt lat="48.72425" lon="7.34169">
        <ele>334.4</ele>
        <time>2011-07-10T07:53:45Z</time>
      </trkpt>
      <trkpt lat="48.72419" lon="7.34159">
        <ele>336.7</ele>
        <time>2011-07-10T07:53:49Z</time>
      </trkpt>
      <trkpt lat="48.7241" lon="7.34151">
        <ele>337</ele>
        <time>2011-07-10T07:53:54Z</time>
      </trkpt>
      <trkpt lat="48.72401" lon="7.34147">
        <ele>337.3</ele>
        <time>2011-07-10T07:53:58Z</time>
      </trkpt>
      <trkpt lat="48.72395" lon="7.34138">
        <ele>337.5</ele>
        <time>2011-07-10T07:54:02Z</time>
      </trkpt>
      <trkpt lat="48.72389" lon="7.34125">
        <ele>337.8</ele>
        <time>2011-07-10T07:54:06Z</time>
      </trkpt>
      <trkpt lat="48.72383" lon="7.34118">
        <ele>338.1</ele>
        <time>2011-07-10T07:54:10Z</time>
      </trkpt>
      <trkpt lat="48.72375" lon="7.34114">
        <ele>338.4</ele>
        <time>2011-07-10T07:54:14Z</time>
      </trkpt>
      <trkpt lat="48.72366" lon="7.34105">
        <ele>338.6</ele>
        <time>2011-07-10T07:54:19Z</time>
      </trkpt>
      <trkpt lat="48.72359" lon="7.34094">
        <ele>338.9</ele>
        <time>2011-07-10T07:54:24Z</time>
      </trkpt>
      <trkpt lat="48.72353" lon="7.34086">
        <ele>341.5</ele>
        <time>2011-07-10T07:54:28Z</time>
      </trkpt>
      <trkpt lat="48.72345" lon="7.34076">
        <ele>341.8</ele>
        <time>2011-07-10T07:54:32Z</time>
      </trkpt>
      <trkpt lat="48.72341" lon="7.34065">
        <ele>342.1</ele>
        <time>2011-07-10T07:54:37Z</time>
      </trkpt>
      <trkpt lat="48.72331" lon="7.34058">
        <ele>342.7</ele>
        <time>2011-07-10T07:54:43Z</time>
      </trkpt>
      <trkpt lat="48.72323" lon="7.34051">
        <ele>343.4</ele>
        <time>2011-07-10T07:54:48Z</time>
      </trkpt>
      <trkpt lat="48.72317" lon="7.34041">
        <ele>344</ele>
        <time>2011-07-10T07:54:53Z</time>
      </trkpt>
      <trkpt lat="48.72311" lon="7.34032">
        <ele>344.6</ele>
        <time>2011-07-10T07:54:58Z</time>
      </trkpt>
      <trkpt lat="48.72305" lon="7.34024">
        <ele>345.3</ele>
        <time>2011-07-10T07:55:02Z</time>
      </trkpt>
      <trkpt lat="48.72296" lon="7.34018">
        <ele>345.9</ele>
        <time>2011-07-10T07:55:05Z</time>
      </trkpt>
      <trkpt lat="48.72288" lon="7.34008">
        <ele>346.5</ele>
        <time>2011-07-10T07:55:12Z</time>
      </trkpt>
      <trkpt lat="48.7228" lon="7.34">
        <ele>347.2</ele>
        <time>2011-07-10T07:55:16Z</time>
      </trkpt>
      <trkpt lat="48.72272" lon="7.33994">
        <ele>347.6</ele>
        <time>2011-07-10T07:55:19Z</time>
      </trkpt>
      <trkpt lat="48.72266" lon="7.33986">
        <ele>348.1</ele>
        <time>2011-07-10T07:55:22Z</time>
      </trkpt>
      <trkpt lat="48.72257" lon="7.3398">
        <ele>348.5</ele>
        <time>2011-07-10T07:55:25Z</time>
      </trkpt>
      <trkpt lat="48.72248" lon="7.33976">
        <ele>350.7</ele>
        <time>2011-07-10T07:55:28Z</time>
      </trkpt>
      <trkpt lat="48.72238" lon="7.33971">
        <ele>351.8</ele>
        <time>2011-07-10T07:55:31Z</time>
      </trkpt>
      <trkpt lat="48.72234" lon="7.33956">
        <ele>352.9</ele>
        <time>2011-07-10T07:55:35Z</time>
      </trkpt>
      <trkpt lat="48.72227" lon="7.33946">
        <ele>354</ele>
        <time>2011-07-10T07:55:38Z</time>
      </trkpt>
      <trkpt lat="48.72221" lon="7.33937">
        <ele>355.1</ele>
        <time>2011-07-10T07:55:41Z</time>
      </trkpt>
      <trkpt lat="48.72214" lon="7.33928">
        <ele>356.2</ele>
        <time>2011-07-10T07:55:44Z</time>
      </trkpt>
      <trkpt lat="48.72203" lon="7.33925">
        <ele>357.3</ele>
        <time>2011-07-10T07:55:47Z</time>
      </trkpt>
      <trkpt lat="48.72196" lon="7.33917">
        <ele>358.4</ele>
        <time>2011-07-10T07:55:50Z</time>
      </trkpt>
      <trkpt lat="48.72187" lon="7.33908">
        <ele>357.3</ele>
        <time>2011-07-10T07:55:54Z</time>
      </trkpt>
      <trkpt lat="48.72177" lon="7.33908">
        <ele>354.5</ele>
        <time>2011-07-10T07:55:57Z</time>
      </trkpt>
      <trkpt lat="48.72167" lon="7.33902">
        <ele>351.6</ele>
        <time>2011-07-10T07:56:01Z</time>
      </trkpt>
      <trkpt lat="48.72158" lon="7.33904">
        <ele>348.8</ele>
        <time>2011-07-10T07:56:05Z</time>
      </trkpt>
      <trkpt lat="48.72147" lon="7.33904">
        <ele>347.1</ele>
        <time>2011-07-10T07:56:07Z</time>
      </trkpt>
      <trkpt lat="48.72136" lon="7.33903">
        <ele>345.4</ele>
        <time>2011-07-10T07:56:09Z</time>
      </trkpt>
      <trkpt lat="48.72121" lon="7.33905">
        <ele>343.6</ele>
        <time>2011-07-10T07:56:12Z</time>
      </trkpt>
      <trkpt lat="48.72106" lon="7.33909">
        <ele>340.5</ele>
        <time>2011-07-10T07:56:14Z</time>
      </trkpt>
      <trkpt lat="48.72095" lon="7.3391">
        <ele>337.5</ele>
        <time>2011-07-10T07:56:16Z</time>
      </trkpt>
      <trkpt lat="48.72081" lon="7.33913">
        <ele>334.4</ele>
        <time>2011-07-10T07:56:18Z</time>
      </trkpt>
      <trkpt lat="48.72065" lon="7.33911">
        <ele>331.3</ele>
        <time>2011-07-10T07:56:21Z</time>
      </trkpt>
      <trkpt lat="48.72052" lon="7.33913">
        <ele>328.2</ele>
        <time>2011-07-10T07:56:23Z</time>
      </trkpt>
      <trkpt lat="48.7204" lon="7.33916">
        <ele>326.8</ele>
        <time>2011-07-10T07:56:25Z</time>
      </trkpt>
      <trkpt lat="48.72025" lon="7.33913">
        <ele>325.5</ele>
        <time>2011-07-10T07:56:28Z</time>
      </trkpt>
      <trkpt lat="48.72015" lon="7.33914">
        <ele>324.1</ele>
        <time>2011-07-10T07:56:29Z</time>
      </trkpt>
      <trkpt lat="48.72005" lon="7.33907">
        <ele>321.2</ele>
        <time>2011-07-10T07:56:32Z</time>
      </trkpt>
      <trkpt lat="48.71997" lon="7.33907">
        <ele>318.3</ele>
        <time>2011-07-10T07:56:33Z</time>
      </trkpt>
      <trkpt lat="48.71989" lon="7.33896">
        <ele>315.4</ele>
        <time>2011-07-10T07:56:37Z</time>
      </trkpt>
      <trkpt lat="48.71979" lon="7.33896">
        <ele>315.5</ele>
        <time>2011-07-10T07:56:39Z</time>
      </trkpt>
      <trkpt lat="48.71969" lon="7.33893">
        <ele>315.7</ele>
        <time>2011-07-10T07:56:41Z</time>
      </trkpt>
      <trkpt lat="48.71959" lon="7.3389">
        <ele>315.9</ele>
        <time>2011-07-10T07:56:43Z</time>
      </trkpt>
      <trkpt lat="48.71944" lon="7.33888">
        <ele>316.1</ele>
        <time>2011-07-10T07:56:45Z</time>
      </trkpt>
      <trkpt lat="48.7193" lon="7.33885">
        <ele>314.6</ele>
        <time>2011-07-10T07:56:47Z</time>
      </trkpt>
      <trkpt lat="48.71916" lon="7.33881">
        <ele>313.2</ele>
        <time>2011-07-10T07:56:49Z</time>
      </trkpt>
      <trkpt lat="48.71905" lon="7.33878">
        <ele>311.7</ele>
        <time>2011-07-10T07:56:51Z</time>
      </trkpt>
      <trkpt lat="48.71894" lon="7.33878">
        <ele>310.3</ele>
        <time>2011-07-10T07:56:53Z</time>
      </trkpt>
      <trkpt lat="48.71884" lon="7.33877">
        <ele>310.4</ele>
        <time>2011-07-10T07:56:55Z</time>
      </trkpt>
      <trkpt lat="48.71871" lon="7.33878">
        <ele>310.5</ele>
        <time>2011-07-10T07:56:58Z</time>
      </trkpt>
      <trkpt lat="48.71861" lon="7.33874">
        <ele>310.5</ele>
        <time>2011-07-10T07:57:00Z</time>
      </trkpt>
      <trkpt lat="48.71851" lon="7.33866">
        <ele>310.2</ele>
        <time>2011-07-10T07:57:02Z</time>
      </trkpt>
      <trkpt lat="48.71851" lon="7.3385">
        <ele>309.8</ele>
        <time>2011-07-10T07:57:05Z</time>
      </trkpt>
      <trkpt lat="48.7185" lon="7.33837">
        <ele>309.5</ele>
        <time>2011-07-10T07:57:10Z</time>
      </trkpt>
      <trkpt lat="48.71851" lon="7.33823">
        <ele>309.1</ele>
        <time>2011-07-10T07:57:15Z</time>
      </trkpt>
      <trkpt lat="48.71853" lon="7.33809">
        <ele>310.4</ele>
        <time>2011-07-10T07:57:20Z</time>
      </trkpt>
      <trkpt lat="48.71852" lon="7.33797">
        <ele>311.6</ele>
        <time>2011-07-10T07:57:24Z</time>
      </trkpt>
      <trkpt lat="48.71844" lon="7.33786">
        <ele>311.3</ele>
        <time>2011-07-10T07:57:28Z</time>
      </trkpt>
      <trkpt lat="48.71836" lon="7.33779">
        <ele>310.9</ele>
        <time>2011-07-10T07:57:30Z</time>
      </trkpt>
      <trkpt lat="48.71824" lon="7.33768">
        <ele>310.5</ele>
        <time>2011-07-10T07:57:33Z</time>
      </trkpt>
      <trkpt lat="48.71814" lon="7.33761">
        <ele>310.2</ele>
        <time>2011-07-10T07:57:35Z</time>
      </trkpt>
      <trkpt lat="48.71803" lon="7.33757">
        <ele>309.8</ele>
        <time>2011-07-10T07:57:37Z</time>
      </trkpt>
      <trkpt lat="48.71792" lon="7.33753">
        <ele>310.1</ele>
        <time>2011-07-10T07:57:40Z</time>
      </trkpt>
      <trkpt lat="48.71781" lon="7.3374">
        <ele>310.4</ele>
        <time>2011-07-10T07:57:43Z</time>
      </trkpt>
      <trkpt lat="48.7177" lon="7.33735">
        <ele>310.6</ele>
        <time>2011-07-10T07:57:45Z</time>
      </trkpt>
      <trkpt lat="48.71761" lon="7.33733">
        <ele>310.9</ele>
        <time>2011-07-10T07:57:47Z</time>
      </trkpt>
      <trkpt lat="48.71753" lon="7.33727">
        <ele>311.2</ele>
        <time>2011-07-10T07:57:50Z</time>
      </trkpt>
      <trkpt lat="48.71754" lon="7.33715">
        <ele>311.5</ele>
        <time>2011-07-10T07:57:56Z</time>
      </trkpt>
      <trkpt lat="48.71747" lon="7.33707">
        <ele>313.4</ele>
        <time>2011-07-10T07:58:03Z</time>
      </trkpt>
      <trkpt lat="48.71742" lon="7.33694">
        <ele>315.3</ele>
        <time>2011-07-10T07:58:07Z</time>
      </trkpt>
      <trkpt lat="48.71738" lon="7.33683">
        <ele>316.4</ele>
        <time>2011-07-10T07:58:13Z</time>
      </trkpt>
      <trkpt lat="48.71732" lon="7.33672">
        <ele>317.5</ele>
        <time>2011-07-10T07:58:20Z</time>
      </trkpt>
      <trkpt lat="48.71728" lon="7.33659">
        <ele>318.5</ele>
        <time>2011-07-10T07:58:26Z</time>
      </trkpt>
      <trkpt lat="48.71725" lon="7.33646">
        <ele>317.7</ele>
        <time>2011-07-10T07:58:31Z</time>
      </trkpt>
      <trkpt lat="48.71716" lon="7.33644">
        <ele>316.9</ele>
        <time>2011-07-10T07:58:35Z</time>
      </trkpt>
      <trkpt lat="48.71705" lon="7.33645">
        <ele>316.1</ele>
        <time>2011-07-10T07:58:40Z</time>
      </trkpt>
      <trkpt lat="48.71694" lon="7.33646">
        <ele>315.3</ele>
        <time>2011-07-10T07:58:44Z</time>
      </trkpt>
      <trkpt lat="48.71684" lon="7.33646">
        <ele>314.5</ele>
        <time>2011-07-10T07:58:47Z</time>
      </trkpt>
      <trkpt lat="48.71675" lon="7.3365">
        <ele>313.6</ele>
        <time>2011-07-10T07:58:50Z</time>
      </trkpt>
      <trkpt lat="48.71666" lon="7.33654">
        <ele>313.5</ele>
        <time>2011-07-10T07:58:53Z</time>
      </trkpt>
      <trkpt lat="48.71658" lon="7.33657">
        <ele>313.3</ele>
        <time>2011-07-10T07:58:55Z</time>
      </trkpt>
      <trkpt lat="48.71647" lon="7.33661">
        <ele>313.9</ele>
        <time>2011-07-10T07:58:59Z</time>
      </trkpt>
      <trkpt lat="48.71638" lon="7.33662">
        <ele>314.5</ele>
        <time>2011-07-10T07:59:02Z</time>
      </trkpt>
      <trkpt lat="48.71629" lon="7.33661">
        <ele>315.2</ele>
        <time>2011-07-10T07:59:05Z</time>
      </trkpt>
      <trkpt lat="48.7162" lon="7.33664">
        <ele>315.8</ele>
        <time>2011-07-10T07:59:08Z</time>
      </trkpt>
      <trkpt lat="48.71611" lon="7.33669">
        <ele>316.5</ele>
        <time>2011-07-10T07:59:10Z</time>
      </trkpt>
      <trkpt lat="48.71599" lon="7.33673">
        <ele>317.1</ele>
        <time>2011-07-10T07:59:13Z</time>
      </trkpt>
      <trkpt lat="48.71591" lon="7.33671">
        <ele>317.7</ele>
        <time>2011-07-10T07:59:16Z</time>
      </trkpt>
      <trkpt lat="48.71582" lon="7.33672">
        <ele>318.4</ele>
        <time>2011-07-10T07:59:19Z</time>
      </trkpt>
      <trkpt lat="48.71572" lon="7.33671">
        <ele>319</ele>
        <time>2011-07-10T07:59:22Z</time>
      </trkpt>
      <trkpt lat="48.71562" lon="7.33671">
        <ele>319</ele>
        <time>2011-07-10T07:59:25Z</time>
      </trkpt>
      <trkpt lat="48.71554" lon="7.33672">
        <ele>319</ele>
        <time>2011-07-10T07:59:28Z</time>
      </trkpt>
      <trkpt lat="48.71545" lon="7.33671">
        <ele>319</ele>
        <time>2011-07-10T07:59:30Z</time>
      </trkpt>
      <trkpt lat="48.71535" lon="7.33669">
        <ele>319</ele>
        <time>2011-07-10T07:59:32Z</time>
      </trkpt>
      <trkpt lat="48.71526" lon="7.3366">
        <ele>319</ele>
        <time>2011-07-10T07:59:35Z</time>
      </trkpt>
      <trkpt lat="48.71518" lon="7.33658">
        <ele>319</ele>
        <time>2011-07-10T07:59:38Z</time>
      </trkpt>
      <trkpt lat="48.7151" lon="7.33654">
        <ele>319.3</ele>
        <time>2011-07-10T07:59:43Z</time>
      </trkpt>
      <trkpt lat="48.715" lon="7.33657">
        <ele>319.5</ele>
        <time>2011-07-10T07:59:47Z</time>
      </trkpt>
      <trkpt lat="48.71491" lon="7.33663">
        <ele>319.8</ele>
        <time>2011-07-10T07:59:51Z</time>
      </trkpt>
      <trkpt lat="48.7148" lon="7.33667">
        <ele>320.1</ele>
        <time>2011-07-10T07:59:54Z</time>
      </trkpt>
      <trkpt lat="48.71469" lon="7.33667">
        <ele>320.4</ele>
        <time>2011-07-10T07:59:57Z</time>
      </trkpt>
      <trkpt lat="48.71459" lon="7.33667">
        <ele>320.6</ele>
        <time>2011-07-10T08:00:00Z</time>
      </trkpt>
      <trkpt lat="48.71448" lon="7.33669">
        <ele>320.9</ele>
        <time>2011-07-10T08:00:03Z</time>
      </trkpt>
      <trkpt lat="48.71439" lon="7.33671">
        <ele>321.2</ele>
        <time>2011-07-10T08:00:06Z</time>
      </trkpt>
      <trkpt lat="48.71431" lon="7.33673">
        <ele>321.5</ele>
        <time>2011-07-10T08:00:09Z</time>
      </trkpt>
      <trkpt lat="48.71421" lon="7.33674">
        <ele>321.4</ele>
        <time>2011-07-10T08:00:14Z</time>
      </trkpt>
      <trkpt lat="48.71412" lon="7.33673">
        <ele>321.3</ele>
        <time>2011-07-10T08:00:17Z</time>
      </trkpt>
      <trkpt lat="48.71404" lon="7.33665">
        <ele>320.9</ele>
        <time>2011-07-10T08:00:20Z</time>
      </trkpt>
      <trkpt lat="48.71394" lon="7.3366">
        <ele>320.5</ele>
        <time>2011-07-10T08:00:26Z</time>
      </trkpt>
      <trkpt lat="48.71385" lon="7.33659">
        <ele>320.2</ele>
        <time>2011-07-10T08:00:32Z</time>
      </trkpt>
      <trkpt lat="48.71377" lon="7.33656">
        <ele>319.8</ele>
        <time>2011-07-10T08:00:35Z</time>
      </trkpt>
      <trkpt lat="48.71364" lon="7.33654">
        <ele>318.9</ele>
        <time>2011-07-10T08:00:38Z</time>
      </trkpt>
      <trkpt lat="48.71356" lon="7.3365">
        <ele>318</ele>
        <time>2011-07-10T08:00:40Z</time>
      </trkpt>
      <trkpt lat="48.71337" lon="7.3365">
        <ele>317.1</ele>
        <time>2011-07-10T08:00:42Z</time>
      </trkpt>
      <trkpt lat="48.71326" lon="7.33649">
        <ele>316.2</ele>
        <time>2011-07-10T08:00:43Z</time>
      </trkpt>
      <trkpt lat="48.71308" lon="7.33647">
        <ele>315.3</ele>
        <time>2011-07-10T08:00:45Z</time>
      </trkpt>
      <trkpt lat="48.71294" lon="7.33649">
        <ele>314.7</ele>
        <time>2011-07-10T08:00:47Z</time>
      </trkpt>
      <trkpt lat="48.71283" lon="7.33657">
        <ele>314.2</ele>
        <time>2011-07-10T08:00:50Z</time>
      </trkpt>
      <trkpt lat="48.71278" lon="7.33667">
        <ele>313.6</ele>
        <time>2011-07-10T08:00:52Z</time>
      </trkpt>
      <trkpt lat="48.7127" lon="7.33674">
        <ele>313.1</ele>
        <time>2011-07-10T08:00:54Z</time>
      </trkpt>
      <trkpt lat="48.71262" lon="7.33679">
        <ele>312.6</ele>
        <time>2011-07-10T08:00:56Z</time>
      </trkpt>
      <trkpt lat="48.71249" lon="7.33682">
        <ele>312.2</ele>
        <time>2011-07-10T08:00:58Z</time>
      </trkpt>
      <trkpt lat="48.71235" lon="7.33687">
        <ele>310.9</ele>
        <time>2011-07-10T08:01:00Z</time>
      </trkpt>
      <trkpt lat="48.71227" lon="7.33698">
        <ele>309.6</ele>
        <time>2011-07-10T08:01:01Z</time>
      </trkpt>
      <trkpt lat="48.71216" lon="7.33702">
        <ele>308.4</ele>
        <time>2011-07-10T08:01:03Z</time>
      </trkpt>
      <trkpt lat="48.71208" lon="7.33706">
        <ele>307.1</ele>
        <time>2011-07-10T08:01:04Z</time>
      </trkpt>
      <trkpt lat="48.71198" lon="7.33714">
        <ele>305.8</ele>
        <time>2011-07-10T08:01:05Z</time>
      </trkpt>
      <trkpt lat="48.71189" lon="7.3372">
        <ele>304.5</ele>
        <time>2011-07-10T08:01:06Z</time>
      </trkpt>
      <trkpt lat="48.71181" lon="7.33725">
        <ele>303.3</ele>
        <time>2011-07-10T08:01:07Z</time>
      </trkpt>
      <trkpt lat="48.71173" lon="7.33727">
        <ele>301.6</ele>
        <time>2011-07-10T08:01:08Z</time>
      </trkpt>
      <trkpt lat="48.71163" lon="7.33722">
        <ele>300</ele>
        <time>2011-07-10T08:01:09Z</time>
      </trkpt>
      <trkpt lat="48.71152" lon="7.33722">
        <ele>298.3</ele>
        <time>2011-07-10T08:01:10Z</time>
      </trkpt>
      <trkpt lat="48.71143" lon="7.33722">
        <ele>296.5</ele>
        <time>2011-07-10T08:01:11Z</time>
      </trkpt>
      <trkpt lat="48.71135" lon="7.33723">
        <ele>296.2</ele>
        <time>2011-07-10T08:01:12Z</time>
      </trkpt>
      <trkpt lat="48.71121" lon="7.33722">
        <ele>297.2</ele>
        <time>2011-07-10T08:01:14Z</time>
      </trkpt>
      <trkpt lat="48.71112" lon="7.33725">
        <ele>298.2</ele>
        <time>2011-07-10T08:01:15Z</time>
      </trkpt>
      <trkpt lat="48.711" lon="7.33724">
        <ele>298.6</ele>
        <time>2011-07-10T08:01:17Z</time>
      </trkpt>
      <trkpt lat="48.71086" lon="7.33724">
        <ele>299.1</ele>
        <time>2011-07-10T08:01:19Z</time>
      </trkpt>
      <trkpt lat="48.71074" lon="7.33724">
        <ele>299.5</ele>
        <time>2011-07-10T08:01:21Z</time>
      </trkpt>
      <trkpt lat="48.71062" lon="7.33719">
        <ele>300</ele>
        <time>2011-07-10T08:01:23Z</time>
      </trkpt>
      <trkpt lat="48.71051" lon="7.33717">
        <ele>300.8</ele>
        <time>2011-07-10T08:01:25Z</time>
      </trkpt>
      <trkpt lat="48.71037" lon="7.33705">
        <ele>301.6</ele>
        <time>2011-07-10T08:01:27Z</time>
      </trkpt>
      <trkpt lat="48.71026" lon="7.3369">
        <ele>305</ele>
        <time>2011-07-10T08:01:29Z</time>
      </trkpt>
      <trkpt lat="48.7102" lon="7.3368">
        <ele>308.4</ele>
        <time>2011-07-10T08:01:31Z</time>
      </trkpt>
      <trkpt lat="48.71019" lon="7.33665">
        <ele>311.7</ele>
        <time>2011-07-10T08:01:34Z</time>
      </trkpt>
      <trkpt lat="48.71017" lon="7.33651">
        <ele>313.7</ele>
        <time>2011-07-10T08:01:38Z</time>
      </trkpt>
      <trkpt lat="48.71014" lon="7.33639">
        <ele>315.7</ele>
        <time>2011-07-10T08:01:43Z</time>
      </trkpt>
      <trkpt lat="48.71004" lon="7.33637">
        <ele>318.2</ele>
        <time>2011-07-10T08:01:47Z</time>
      </trkpt>
      <trkpt lat="48.70993" lon="7.33634">
        <ele>320.6</ele>
        <time>2011-07-10T08:01:50Z</time>
      </trkpt>
      <trkpt lat="48.70982" lon="7.33633">
        <ele>323.1</ele>
        <time>2011-07-10T08:01:54Z</time>
      </trkpt>
      <trkpt lat="48.70973" lon="7.33633">
        <ele>325.5</ele>
        <time>2011-07-10T08:01:56Z</time>
      </trkpt>
      <trkpt lat="48.70963" lon="7.33632">
        <ele>328</ele>
        <time>2011-07-10T08:01:59Z</time>
      </trkpt>
      <trkpt lat="48.70954" lon="7.33633">
        <ele>330.5</ele>
        <time>2011-07-10T08:02:02Z</time>
      </trkpt>
      <trkpt lat="48.70945" lon="7.33631">
        <ele>330.4</ele>
        <time>2011-07-10T08:02:05Z</time>
      </trkpt>
      <trkpt lat="48.70935" lon="7.33635">
        <ele>330.3</ele>
        <time>2011-07-10T08:02:09Z</time>
      </trkpt>
      <trkpt lat="48.70926" lon="7.33633">
        <ele>330.2</ele>
        <time>2011-07-10T08:02:12Z</time>
      </trkpt>
      <trkpt lat="48.70916" lon="7.33634">
        <ele>329.6</ele>
        <time>2011-07-10T08:02:16Z</time>
      </trkpt>
      <trkpt lat="48.70909" lon="7.33627">
        <ele>329.1</ele>
        <time>2011-07-10T08:02:20Z</time>
      </trkpt>
      <trkpt lat="48.70899" lon="7.33625">
        <ele>328.6</ele>
        <time>2011-07-10T08:02:23Z</time>
      </trkpt>
      <trkpt lat="48.7089" lon="7.3362">
        <ele>328.2</ele>
        <time>2011-07-10T08:02:26Z</time>
      </trkpt>
      <trkpt lat="48.70882" lon="7.33615">
        <ele>327.7</ele>
        <time>2011-07-10T08:02:29Z</time>
      </trkpt>
      <trkpt lat="48.70874" lon="7.33613">
        <ele>327.3</ele>
        <time>2011-07-10T08:02:32Z</time>
      </trkpt>
      <trkpt lat="48.70865" lon="7.3361">
        <ele>326.8</ele>
        <time>2011-07-10T08:02:35Z</time>
      </trkpt>
      <trkpt lat="48.70857" lon="7.33607">
        <ele>326.4</ele>
        <time>2011-07-10T08:02:38Z</time>
      </trkpt>
      <trkpt lat="48.70847" lon="7.33606">
        <ele>325.9</ele>
        <time>2011-07-10T08:02:41Z</time>
      </trkpt>
      <trkpt lat="48.70836" lon="7.33604">
        <ele>324.5</ele>
        <time>2011-07-10T08:02:44Z</time>
      </trkpt>
      <trkpt lat="48.70827" lon="7.33596">
        <ele>324.1</ele>
        <time>2011-07-10T08:02:49Z</time>
      </trkpt>
      <trkpt lat="48.70818" lon="7.33584">
        <ele>324.2</ele>
        <time>2011-07-10T08:02:53Z</time>
      </trkpt>
      <trkpt lat="48.70814" lon="7.33572">
        <ele>324.3</ele>
        <time>2011-07-10T08:02:56Z</time>
      </trkpt>
      <trkpt lat="48.70806" lon="7.33568">
        <ele>324.4</ele>
        <time>2011-07-10T08:02:59Z</time>
      </trkpt>
      <trkpt lat="48.70796" lon="7.33559">
        <ele>324.5</ele>
        <time>2011-07-10T08:03:03Z</time>
      </trkpt>
      <trkpt lat="48.70786" lon="7.33552">
        <ele>324.5</ele>
        <time>2011-07-10T08:03:06Z</time>
      </trkpt>
      <trkpt lat="48.70775" lon="7.3355">
        <ele>324.6</ele>
        <time>2011-07-10T08:03:08Z</time>
      </trkpt>
      <trkpt lat="48.70768" lon="7.33542">
        <ele>324.7</ele>
        <time>2011-07-10T08:03:11Z</time>
      </trkpt>
      <trkpt lat="48.7076" lon="7.33537">
        <ele>324.8</ele>
        <time>2011-07-10T08:03:13Z</time>
      </trkpt>
      <trkpt lat="48.7075" lon="7.3353">
        <ele>324.9</ele>
        <time>2011-07-10T08:03:16Z</time>
      </trkpt>
      <trkpt lat="48.70745" lon="7.33513">
        <ele>326</ele>
        <time>2011-07-10T08:03:19Z</time>
      </trkpt>
      <trkpt lat="48.70736" lon="7.33505">
        <ele>328.3</ele>
        <time>2011-07-10T08:03:21Z</time>
      </trkpt>
      <trkpt lat="48.70729" lon="7.33496">
        <ele>330.5</ele>
        <time>2011-07-10T08:03:26Z</time>
      </trkpt>
      <trkpt lat="48.70726" lon="7.33483">
        <ele>330.7</ele>
        <time>2011-07-10T08:03:32Z</time>
      </trkpt>
      <trkpt lat="48.70724" lon="7.33469">
        <ele>330.9</ele>
        <time>2011-07-10T08:03:38Z</time>
      </trkpt>
      <trkpt lat="48.70717" lon="7.33461">
        <ele>331.1</ele>
        <time>2011-07-10T08:03:48Z</time>
      </trkpt>
      <trkpt lat="48.7071" lon="7.33452">
        <ele>331.3</ele>
        <time>2011-07-10T08:03:53Z</time>
      </trkpt>
      <trkpt lat="48.70711" lon="7.33434">
        <ele>331.5</ele>
        <time>2011-07-10T08:03:56Z</time>
      </trkpt>
      <trkpt lat="48.70703" lon="7.33428">
        <ele>331.6</ele>
        <time>2011-07-10T08:04:00Z</time>
      </trkpt>
      <trkpt lat="48.70694" lon="7.3342">
        <ele>333.7</ele>
        <time>2011-07-10T08:04:04Z</time>
      </trkpt>
      <trkpt lat="48.7069" lon="7.33403">
        <ele>335.8</ele>
        <time>2011-07-10T08:04:08Z</time>
      </trkpt>
      <trkpt lat="48.70683" lon="7.33395">
        <ele>337.9</ele>
        <time>2011-07-10T08:04:11Z</time>
      </trkpt>
      <trkpt lat="48.70673" lon="7.33391">
        <ele>335.7</ele>
        <time>2011-07-10T08:04:14Z</time>
      </trkpt>
      <trkpt lat="48.70665" lon="7.33386">
        <ele>333.5</ele>
        <time>2011-07-10T08:04:17Z</time>
      </trkpt>
      <trkpt lat="48.70654" lon="7.33374">
        <ele>333.5</ele>
        <time>2011-07-10T08:04:20Z</time>
      </trkpt>
      <trkpt lat="48.70641" lon="7.33364">
        <ele>333.4</ele>
        <time>2011-07-10T08:04:23Z</time>
      </trkpt>
      <trkpt lat="48.70629" lon="7.33356">
        <ele>334.6</ele>
        <time>2011-07-10T08:04:25Z</time>
      </trkpt>
      <trkpt lat="48.70614" lon="7.33349">
        <ele>335.9</ele>
        <time>2011-07-10T08:04:27Z</time>
      </trkpt>
      <trkpt lat="48.70598" lon="7.33342">
        <ele>337.2</ele>
        <time>2011-07-10T08:04:29Z</time>
      </trkpt>
      <trkpt lat="48.70599" lon="7.3332">
        <ele>338.5</ele>
        <time>2011-07-10T08:04:31Z</time>
      </trkpt>
      <trkpt lat="48.70592" lon="7.33307">
        <ele>337.8</ele>
        <time>2011-07-10T08:04:34Z</time>
      </trkpt>
      <trkpt lat="48.70588" lon="7.33292">
        <ele>336.2</ele>
        <time>2011-07-10T08:04:37Z</time>
      </trkpt>
      <trkpt lat="48.70578" lon="7.33284">
        <ele>334.5</ele>
        <time>2011-07-10T08:04:40Z</time>
      </trkpt>
      <trkpt lat="48.70572" lon="7.33274">
        <ele>334.9</ele>
        <time>2011-07-10T08:04:43Z</time>
      </trkpt>
      <trkpt lat="48.70563" lon="7.33276">
        <ele>335.3</ele>
        <time>2011-07-10T08:04:45Z</time>
      </trkpt>
      <trkpt lat="48.70554" lon="7.33274">
        <ele>335.6</ele>
        <time>2011-07-10T08:04:48Z</time>
      </trkpt>
      <trkpt lat="48.70543" lon="7.33271">
        <ele>336</ele>
        <time>2011-07-10T08:04:52Z</time>
      </trkpt>
      <trkpt lat="48.70533" lon="7.33267">
        <ele>335</ele>
        <time>2011-07-10T08:04:56Z</time>
      </trkpt>
      <trkpt lat="48.70525" lon="7.33264">
        <ele>334</ele>
        <time>2011-07-10T08:05:00Z</time>
      </trkpt>
      <trkpt lat="48.70516" lon="7.33256">
        <ele>333</ele>
        <time>2011-07-10T08:05:06Z</time>
      </trkpt>
      <trkpt lat="48.70506" lon="7.33249">
        <ele>332</ele>
        <time>2011-07-10T08:05:09Z</time>
      </trkpt>
      <trkpt lat="48.70497" lon="7.3324">
        <ele>332.5</ele>
        <time>2011-07-10T08:05:14Z</time>
      </trkpt>
      <trkpt lat="48.70486" lon="7.33235">
        <ele>333.9</ele>
        <time>2011-07-10T08:05:19Z</time>
      </trkpt>
      <trkpt lat="48.70477" lon="7.3323">
        <ele>335.4</ele>
        <time>2011-07-10T08:05:23Z</time>
      </trkpt>
      <trkpt lat="48.70469" lon="7.33224">
        <ele>336.8</ele>
        <time>2011-07-10T08:05:28Z</time>
      </trkpt>
      <trkpt lat="48.70463" lon="7.33215">
        <ele>338.3</ele>
        <time>2011-07-10T08:05:33Z</time>
      </trkpt>
      <trkpt lat="48.70456" lon="7.33207">
        <ele>339.7</ele>
        <time>2011-07-10T08:05:38Z</time>
      </trkpt>
      <trkpt lat="48.70448" lon="7.33201">
        <ele>341.2</ele>
        <time>2011-07-10T08:05:43Z</time>
      </trkpt>
      <trkpt lat="48.70441" lon="7.33196">
        <ele>342.6</ele>
        <time>2011-07-10T08:05:49Z</time>
      </trkpt>
      <trkpt lat="48.70432" lon="7.33191">
        <ele>344.1</ele>
        <time>2011-07-10T08:05:58Z</time>
      </trkpt>
      <trkpt lat="48.70423" lon="7.33189">
        <ele>345.5</ele>
        <time>2011-07-10T08:06:10Z</time>
      </trkpt>
      <trkpt lat="48.70417" lon="7.33181">
        <ele>346.7</ele>
        <time>2011-07-10T08:06:16Z</time>
      </trkpt>
      <trkpt lat="48.70409" lon="7.33174">
        <ele>346.5</ele>
        <time>2011-07-10T08:06:23Z</time>
      </trkpt>
      <trkpt lat="48.70401" lon="7.33167">
        <ele>346.2</ele>
        <time>2011-07-10T08:06:30Z</time>
      </trkpt>
      <trkpt lat="48.70393" lon="7.33165">
        <ele>345.9</ele>
        <time>2011-07-10T08:06:36Z</time>
      </trkpt>
      <trkpt lat="48.70384" lon="7.33165">
        <ele>345.6</ele>
        <time>2011-07-10T08:06:40Z</time>
      </trkpt>
      <trkpt lat="48.70373" lon="7.33164">
        <ele>345.4</ele>
        <time>2011-07-10T08:06:44Z</time>
      </trkpt>
      <trkpt lat="48.70365" lon="7.33158">
        <ele>345.1</ele>
        <time>2011-07-10T08:06:53Z</time>
      </trkpt>
      <trkpt lat="48.70357" lon="7.33154">
        <ele>344.8</ele>
        <time>2011-07-10T08:07:01Z</time>
      </trkpt>
      <trkpt lat="48.70347" lon="7.33153">
        <ele>344.5</ele>
        <time>2011-07-10T08:07:05Z</time>
      </trkpt>
      <trkpt lat="48.70338" lon="7.33149">
        <ele>344.7</ele>
        <time>2011-07-10T08:07:09Z</time>
      </trkpt>
      <trkpt lat="48.7033" lon="7.33145">
        <ele>344.9</ele>
        <time>2011-07-10T08:07:15Z</time>
      </trkpt>
      <trkpt lat="48.7032" lon="7.33145">
        <ele>345.4</ele>
        <time>2011-07-10T08:07:20Z</time>
      </trkpt>
      <trkpt lat="48.70312" lon="7.33138">
        <ele>345.8</ele>
        <time>2011-07-10T08:07:24Z</time>
      </trkpt>
      <trkpt lat="48.70304" lon="7.33135">
        <ele>346.3</ele>
        <time>2011-07-10T08:07:29Z</time>
      </trkpt>
      <trkpt lat="48.70293" lon="7.33132">
        <ele>346.7</ele>
        <time>2011-07-10T08:07:33Z</time>
      </trkpt>
      <trkpt lat="48.70284" lon="7.33132">
        <ele>347.2</ele>
        <time>2011-07-10T08:07:37Z</time>
      </trkpt>
      <trkpt lat="48.70275" lon="7.33132">
        <ele>349.5</ele>
        <time>2011-07-10T08:07:41Z</time>
      </trkpt>
      <trkpt lat="48.70266" lon="7.33132">
        <ele>349.9</ele>
        <time>2011-07-10T08:07:45Z</time>
      </trkpt>
      <trkpt lat="48.70257" lon="7.33134">
        <ele>350.4</ele>
        <time>2011-07-10T08:07:50Z</time>
      </trkpt>
      <trkpt lat="48.70249" lon="7.33132">
        <ele>351.2</ele>
        <time>2011-07-10T08:07:54Z</time>
      </trkpt>
      <trkpt lat="48.70239" lon="7.33131">
        <ele>351.5</ele>
        <time>2011-07-10T08:07:59Z</time>
      </trkpt>
      <trkpt lat="48.70229" lon="7.3313">
        <ele>351.9</ele>
        <time>2011-07-10T08:08:04Z</time>
      </trkpt>
      <trkpt lat="48.7022" lon="7.33131">
        <ele>354.2</ele>
        <time>2011-07-10T08:08:07Z</time>
      </trkpt>
      <trkpt lat="48.70211" lon="7.33132">
        <ele>354.5</ele>
        <time>2011-07-10T08:08:10Z</time>
      </trkpt>
      <trkpt lat="48.70203" lon="7.33132">
        <ele>354.9</ele>
        <time>2011-07-10T08:08:14Z</time>
      </trkpt>
      <trkpt lat="48.70194" lon="7.33132">
        <ele>355.3</ele>
        <time>2011-07-10T08:08:17Z</time>
      </trkpt>
      <trkpt lat="48.70183" lon="7.33131">
        <ele>355.6</ele>
        <time>2011-07-10T08:08:20Z</time>
      </trkpt>
      <trkpt lat="48.70174" lon="7.3313">
        <ele>354.8</ele>
        <time>2011-07-10T08:08:26Z</time>
      </trkpt>
      <trkpt lat="48.70165" lon="7.33135">
        <ele>355.8</ele>
        <time>2011-07-10T08:08:29Z</time>
      </trkpt>
      <trkpt lat="48.70155" lon="7.3314">
        <ele>356.8</ele>
        <time>2011-07-10T08:08:32Z</time>
      </trkpt>
      <trkpt lat="48.70144" lon="7.33141">
        <ele>357.5</ele>
        <time>2011-07-10T08:08:36Z</time>
      </trkpt>
      <trkpt lat="48.70135" lon="7.33141">
        <ele>358.1</ele>
        <time>2011-07-10T08:08:38Z</time>
      </trkpt>
      <trkpt lat="48.70126" lon="7.33139">
        <ele>358.7</ele>
        <time>2011-07-10T08:08:40Z</time>
      </trkpt>
      <trkpt lat="48.70117" lon="7.33141">
        <ele>357.5</ele>
        <time>2011-07-10T08:08:42Z</time>
      </trkpt>
      <trkpt lat="48.70108" lon="7.33142">
        <ele>358.1</ele>
        <time>2011-07-10T08:08:44Z</time>
      </trkpt>
      <trkpt lat="48.70098" lon="7.33144">
        <ele>358.7</ele>
        <time>2011-07-10T08:08:46Z</time>
      </trkpt>
      <trkpt lat="48.7009" lon="7.33144">
        <ele>361.5</ele>
        <time>2011-07-10T08:08:48Z</time>
      </trkpt>
      <trkpt lat="48.70079" lon="7.33145">
        <ele>364.4</ele>
        <time>2011-07-10T08:08:50Z</time>
      </trkpt>
      <trkpt lat="48.7007" lon="7.33142">
        <ele>366.5</ele>
        <time>2011-07-10T08:08:52Z</time>
      </trkpt>
      <trkpt lat="48.70057" lon="7.33134">
        <ele>368.7</ele>
        <time>2011-07-10T08:08:55Z</time>
      </trkpt>
      <trkpt lat="48.70048" lon="7.33132">
        <ele>370.9</ele>
        <time>2011-07-10T08:08:57Z</time>
      </trkpt>
      <trkpt lat="48.7004" lon="7.3313">
        <ele>373.1</ele>
        <time>2011-07-10T08:09:01Z</time>
      </trkpt>
      <trkpt lat="48.70032" lon="7.33124">
        <ele>375.3</ele>
        <time>2011-07-10T08:09:07Z</time>
      </trkpt>
      <trkpt lat="48.70021" lon="7.33124">
        <ele>377.5</ele>
        <time>2011-07-10T08:09:13Z</time>
      </trkpt>
      <trkpt lat="48.70012" lon="7.33123">
        <ele>379.6</ele>
        <time>2011-07-10T08:09:17Z</time>
      </trkpt>
      <trkpt lat="48.70003" lon="7.33122">
        <ele>381.9</ele>
        <time>2011-07-10T08:09:21Z</time>
      </trkpt>
      <trkpt lat="48.69995" lon="7.33116">
        <ele>384.2</ele>
        <time>2011-07-10T08:09:26Z</time>
      </trkpt>
      <trkpt lat="48.69985" lon="7.33116">
        <ele>384.3</ele>
        <time>2011-07-10T08:09:30Z</time>
      </trkpt>
      <trkpt lat="48.69975" lon="7.33117">
        <ele>384.4</ele>
        <time>2011-07-10T08:09:34Z</time>
      </trkpt>
      <trkpt lat="48.69966" lon="7.33117">
        <ele>384.5</ele>
        <time>2011-07-10T08:09:39Z</time>
      </trkpt>
      <trkpt lat="48.69957" lon="7.33117">
        <ele>384.5</ele>
        <time>2011-07-10T08:09:45Z</time>
      </trkpt>
      <trkpt lat="48.69947" lon="7.33113">
        <ele>384.6</ele>
        <time>2011-07-10T08:09:48Z</time>
      </trkpt>
      <trkpt lat="48.69939" lon="7.33108">
        <ele>384.7</ele>
        <time>2011-07-10T08:09:52Z</time>
      </trkpt>
      <trkpt lat="48.69931" lon="7.33106">
        <ele>384.8</ele>
        <time>2011-07-10T08:09:56Z</time>
      </trkpt>
      <trkpt lat="48.69921" lon="7.33104">
        <ele>383.9</ele>
        <time>2011-07-10T08:10:02Z</time>
      </trkpt>
      <trkpt lat="48.69909" lon="7.331">
        <ele>383</ele>
        <time>2011-07-10T08:10:06Z</time>
      </trkpt>
      <trkpt lat="48.69899" lon="7.33101">
        <ele>382</ele>
        <time>2011-07-10T08:10:09Z</time>
      </trkpt>
      <trkpt lat="48.69889" lon="7.33101">
        <ele>381</ele>
        <time>2011-07-10T08:10:12Z</time>
      </trkpt>
      <trkpt lat="48.6988" lon="7.33099">
        <ele>380</ele>
        <time>2011-07-10T08:10:15Z</time>
      </trkpt>
      <trkpt lat="48.69871" lon="7.33095">
        <ele>379</ele>
        <time>2011-07-10T08:10:19Z</time>
      </trkpt>
      <trkpt lat="48.69862" lon="7.33088">
        <ele>380.2</ele>
        <time>2011-07-10T08:10:23Z</time>
      </trkpt>
      <trkpt lat="48.69855" lon="7.33077">
        <ele>381.4</ele>
        <time>2011-07-10T08:10:28Z</time>
      </trkpt>
      <trkpt lat="48.69846" lon="7.3307">
        <ele>382.5</ele>
        <time>2011-07-10T08:10:31Z</time>
      </trkpt>
      <trkpt lat="48.69839" lon="7.33064">
        <ele>383.7</ele>
        <time>2011-07-10T08:10:35Z</time>
      </trkpt>
      <trkpt lat="48.69828" lon="7.33056">
        <ele>383.3</ele>
        <time>2011-07-10T08:10:39Z</time>
      </trkpt>
      <trkpt lat="48.69818" lon="7.33045">
        <ele>383.8</ele>
        <time>2011-07-10T08:10:43Z</time>
      </trkpt>
      <trkpt lat="48.69816" lon="7.33028">
        <ele>384.4</ele>
        <time>2011-07-10T08:10:47Z</time>
      </trkpt>
      <trkpt lat="48.69811" lon="7.33017">
        <ele>384.9</ele>
        <time>2011-07-10T08:10:51Z</time>
      </trkpt>
      <trkpt lat="48.69802" lon="7.3301">
        <ele>386.6</ele>
        <time>2011-07-10T08:10:55Z</time>
      </trkpt>
      <trkpt lat="48.69792" lon="7.33008">
        <ele>388.4</ele>
        <time>2011-07-10T08:10:58Z</time>
      </trkpt>
      <trkpt lat="48.69787" lon="7.32995">
        <ele>390.1</ele>
        <time>2011-07-10T08:11:03Z</time>
      </trkpt>
      <trkpt lat="48.69785" lon="7.32982">
        <ele>389.6</ele>
        <time>2011-07-10T08:11:07Z</time>
      </trkpt>
      <trkpt lat="48.69779" lon="7.32971">
        <ele>389.2</ele>
        <time>2011-07-10T08:11:11Z</time>
      </trkpt>
      <trkpt lat="48.69774" lon="7.32959">
        <ele>388.7</ele>
        <time>2011-07-10T08:11:16Z</time>
      </trkpt>
      <trkpt lat="48.69771" lon="7.32944">
        <ele>388.3</ele>
        <time>2011-07-10T08:11:20Z</time>
      </trkpt>
      <trkpt lat="48.69773" lon="7.3293">
        <ele>389.5</ele>
        <time>2011-07-10T08:11:23Z</time>
      </trkpt>
      <trkpt lat="48.69763" lon="7.32929">
        <ele>391.5</ele>
        <time>2011-07-10T08:11:25Z</time>
      </trkpt>
      <trkpt lat="48.69758" lon="7.32917">
        <ele>393.5</ele>
        <time>2011-07-10T08:11:29Z</time>
      </trkpt>
      <trkpt lat="48.69752" lon="7.32908">
        <ele>395.5</ele>
        <time>2011-07-10T08:11:33Z</time>
      </trkpt>
      <trkpt lat="48.69746" lon="7.329">
        <ele>396.3</ele>
        <time>2011-07-10T08:11:38Z</time>
      </trkpt>
      <trkpt lat="48.69742" lon="7.32884">
        <ele>395.5</ele>
        <time>2011-07-10T08:11:43Z</time>
      </trkpt>
      <trkpt lat="48.69739" lon="7.32869">
        <ele>394.8</ele>
        <time>2011-07-10T08:11:47Z</time>
      </trkpt>
      <trkpt lat="48.69734" lon="7.32857">
        <ele>394.1</ele>
        <time>2011-07-10T08:11:50Z</time>
      </trkpt>
      <trkpt lat="48.69723" lon="7.32849">
        <ele>393.5</ele>
        <time>2011-07-10T08:11:52Z</time>
      </trkpt>
      <trkpt lat="48.69709" lon="7.32843">
        <ele>392.8</ele>
        <time>2011-07-10T08:11:54Z</time>
      </trkpt>
      <trkpt lat="48.69694" lon="7.32837">
        <ele>392.2</ele>
        <time>2011-07-10T08:11:56Z</time>
      </trkpt>
      <trkpt lat="48.69682" lon="7.32825">
        <ele>391.5</ele>
        <time>2011-07-10T08:11:58Z</time>
      </trkpt>
      <trkpt lat="48.69678" lon="7.32808">
        <ele>390.1</ele>
        <time>2011-07-10T08:12:00Z</time>
      </trkpt>
      <trkpt lat="48.69673" lon="7.32791">
        <ele>388.8</ele>
        <time>2011-07-10T08:12:02Z</time>
      </trkpt>
      <trkpt lat="48.69668" lon="7.32775">
        <ele>387.5</ele>
        <time>2011-07-10T08:12:04Z</time>
      </trkpt>
      <trkpt lat="48.69666" lon="7.32756">
        <ele>386.3</ele>
        <time>2011-07-10T08:12:06Z</time>
      </trkpt>
      <trkpt lat="48.69662" lon="7.32738">
        <ele>386.5</ele>
        <time>2011-07-10T08:12:08Z</time>
      </trkpt>
      <trkpt lat="48.6966" lon="7.3272">
        <ele>386.8</ele>
        <time>2011-07-10T08:12:10Z</time>
      </trkpt>
      <trkpt lat="48.69659" lon="7.32706">
        <ele>387.1</ele>
        <time>2011-07-10T08:12:12Z</time>
      </trkpt>
      <trkpt lat="48.69658" lon="7.3269">
        <ele>387.7</ele>
        <time>2011-07-10T08:12:14Z</time>
      </trkpt>
      <trkpt lat="48.69655" lon="7.32675">
        <ele>388.4</ele>
        <time>2011-07-10T08:12:16Z</time>
      </trkpt>
      <trkpt lat="48.69645" lon="7.32666">
        <ele>388.5</ele>
        <time>2011-07-10T08:12:18Z</time>
      </trkpt>
      <trkpt lat="48.69638" lon="7.32657">
        <ele>388.6</ele>
        <time>2011-07-10T08:12:20Z</time>
      </trkpt>
      <trkpt lat="48.69629" lon="7.32646">
        <ele>389.1</ele>
        <time>2011-07-10T08:12:22Z</time>
      </trkpt>
      <trkpt lat="48.69621" lon="7.32634">
        <ele>389.4</ele>
        <time>2011-07-10T08:12:24Z</time>
      </trkpt>
      <trkpt lat="48.69622" lon="7.32621">
        <ele>389.6</ele>
        <time>2011-07-10T08:12:26Z</time>
      </trkpt>
      <trkpt lat="48.69631" lon="7.32625">
        <ele>389.9</ele>
        <time>2011-07-10T08:12:31Z</time>
      </trkpt>
      <trkpt lat="48.69633" lon="7.32639">
        <ele>390.4</ele>
        <time>2011-07-10T08:12:34Z</time>
      </trkpt>
      <trkpt lat="48.69624" lon="7.32644">
        <ele>390.8</ele>
        <time>2011-07-10T08:12:36Z</time>
      </trkpt>
      <trkpt lat="48.69616" lon="7.32646">
        <ele>391.3</ele>
        <time>2011-07-10T08:12:38Z</time>
      </trkpt>
      <trkpt lat="48.69605" lon="7.32645">
        <ele>391.3</ele>
        <time>2011-07-10T08:12:41Z</time>
      </trkpt>
      <trkpt lat="48.69596" lon="7.32643">
        <ele>391.1</ele>
        <time>2011-07-10T08:12:44Z</time>
      </trkpt>
      <trkpt lat="48.69587" lon="7.32637">
        <ele>391.8</ele>
        <time>2011-07-10T08:12:47Z</time>
      </trkpt>
      <trkpt lat="48.69578" lon="7.32633">
        <ele>392.5</ele>
        <time>2011-07-10T08:12:50Z</time>
      </trkpt>
      <trkpt lat="48.6957" lon="7.32627">
        <ele>392.8</ele>
        <time>2011-07-10T08:12:53Z</time>
      </trkpt>
      <trkpt lat="48.69561" lon="7.32634">
        <ele>393.2</ele>
        <time>2011-07-10T08:12:58Z</time>
      </trkpt>
      <trkpt lat="48.69553" lon="7.32641">
        <ele>393.5</ele>
        <time>2011-07-10T08:13:02Z</time>
      </trkpt>
      <trkpt lat="48.69544" lon="7.32645">
        <ele>393.9</ele>
        <time>2011-07-10T08:13:05Z</time>
      </trkpt>
      <trkpt lat="48.69536" lon="7.32647">
        <ele>394.1</ele>
        <time>2011-07-10T08:13:07Z</time>
      </trkpt>
      <trkpt lat="48.69526" lon="7.32644">
        <ele>394.3</ele>
        <time>2011-07-10T08:13:10Z</time>
      </trkpt>
      <trkpt lat="48.69515" lon="7.3265">
        <ele>394.5</ele>
        <time>2011-07-10T08:13:13Z</time>
      </trkpt>
      <trkpt lat="48.69506" lon="7.3266">
        <ele>394.6</ele>
        <time>2011-07-10T08:13:18Z</time>
      </trkpt>
      <trkpt lat="48.69498" lon="7.32669">
        <ele>395.3</ele>
        <time>2011-07-10T08:13:21Z</time>
      </trkpt>
      <trkpt lat="48.69489" lon="7.32683">
        <ele>395.5</ele>
        <time>2011-07-10T08:13:26Z</time>
      </trkpt>
      <trkpt lat="48.69483" lon="7.32694">
        <ele>395.8</ele>
        <time>2011-07-10T08:13:28Z</time>
      </trkpt>
      <trkpt lat="48.69474" lon="7.327">
        <ele>396.1</ele>
        <time>2011-07-10T08:13:31Z</time>
      </trkpt>
      <trkpt lat="48.69464" lon="7.32697">
        <ele>396.4</ele>
        <time>2011-07-10T08:13:34Z</time>
      </trkpt>
      <trkpt lat="48.69455" lon="7.32699">
        <ele>396.6</ele>
        <time>2011-07-10T08:13:36Z</time>
      </trkpt>
      <trkpt lat="48.69445" lon="7.32702">
        <ele>396.9</ele>
        <time>2011-07-10T08:13:39Z</time>
      </trkpt>
      <trkpt lat="48.69436" lon="7.32702">
        <ele>397.2</ele>
        <time>2011-07-10T08:13:43Z</time>
      </trkpt>
      <trkpt lat="48.69425" lon="7.32706">
        <ele>397.3</ele>
        <time>2011-07-10T08:13:46Z</time>
      </trkpt>
      <trkpt lat="48.69415" lon="7.32702">
        <ele>397.4</ele>
        <time>2011-07-10T08:13:49Z</time>
      </trkpt>
      <trkpt lat="48.69407" lon="7.327">
        <ele>397.5</ele>
        <time>2011-07-10T08:13:52Z</time>
      </trkpt>
      <trkpt lat="48.69397" lon="7.32701">
        <ele>397.3</ele>
        <time>2011-07-10T08:13:56Z</time>
      </trkpt>
      <trkpt lat="48.69388" lon="7.32699">
        <ele>397.1</ele>
        <time>2011-07-10T08:13:59Z</time>
      </trkpt>
      <trkpt lat="48.69375" lon="7.32688">
        <ele>396.9</ele>
        <time>2011-07-10T08:14:02Z</time>
      </trkpt>
      <trkpt lat="48.69365" lon="7.32685">
        <ele>396.7</ele>
        <time>2011-07-10T08:14:05Z</time>
      </trkpt>
      <trkpt lat="48.69354" lon="7.32685">
        <ele>396.5</ele>
        <time>2011-07-10T08:14:08Z</time>
      </trkpt>
      <trkpt lat="48.69344" lon="7.32682">
        <ele>396.4</ele>
        <time>2011-07-10T08:14:11Z</time>
      </trkpt>
      <trkpt lat="48.69335" lon="7.32674">
        <ele>395.5</ele>
        <time>2011-07-10T08:14:14Z</time>
      </trkpt>
      <trkpt lat="48.69326" lon="7.32667">
        <ele>394.5</ele>
        <time>2011-07-10T08:14:17Z</time>
      </trkpt>
      <trkpt lat="48.69317" lon="7.32665">
        <ele>393.8</ele>
        <time>2011-07-10T08:14:20Z</time>
      </trkpt>
      <trkpt lat="48.6931" lon="7.32659">
        <ele>394.8</ele>
        <time>2011-07-10T08:14:23Z</time>
      </trkpt>
      <trkpt lat="48.69303" lon="7.32653">
        <ele>395.8</ele>
        <time>2011-07-10T08:14:26Z</time>
      </trkpt>
      <trkpt lat="48.69293" lon="7.32649">
        <ele>396.8</ele>
        <time>2011-07-10T08:14:30Z</time>
      </trkpt>
      <trkpt lat="48.69284" lon="7.32646">
        <ele>397.8</ele>
        <time>2011-07-10T08:14:33Z</time>
      </trkpt>
      <trkpt lat="48.69273" lon="7.32639">
        <ele>398.8</ele>
        <time>2011-07-10T08:14:37Z</time>
      </trkpt>
      <trkpt lat="48.69267" lon="7.32631">
        <ele>399.8</ele>
        <time>2011-07-10T08:14:40Z</time>
      </trkpt>
      <trkpt lat="48.69259" lon="7.32624">
        <ele>400.8</ele>
        <time>2011-07-10T08:14:44Z</time>
      </trkpt>
      <trkpt lat="48.69247" lon="7.32617">
        <ele>401.9</ele>
        <time>2011-07-10T08:14:49Z</time>
      </trkpt>
      <trkpt lat="48.69243" lon="7.32605">
        <ele>403.7</ele>
        <time>2011-07-10T08:14:51Z</time>
      </trkpt>
      <trkpt lat="48.69236" lon="7.32592">
        <ele>405.5</ele>
        <time>2011-07-10T08:14:57Z</time>
      </trkpt>
      <trkpt lat="48.69229" lon="7.32577">
        <ele>407.4</ele>
        <time>2011-07-10T08:15:01Z</time>
      </trkpt>
      <trkpt lat="48.69216" lon="7.32566">
        <ele>407.5</ele>
        <time>2011-07-10T08:15:06Z</time>
      </trkpt>
      <trkpt lat="48.69206" lon="7.32553">
        <ele>407.5</ele>
        <time>2011-07-10T08:15:10Z</time>
      </trkpt>
      <trkpt lat="48.69199" lon="7.32538">
        <ele>407.6</ele>
        <time>2011-07-10T08:15:14Z</time>
      </trkpt>
      <trkpt lat="48.69189" lon="7.32527">
        <ele>407.7</ele>
        <time>2011-07-10T08:15:18Z</time>
      </trkpt>
      <trkpt lat="48.69177" lon="7.32523">
        <ele>406.5</ele>
        <time>2011-07-10T08:15:21Z</time>
      </trkpt>
      <trkpt lat="48.69165" lon="7.32517">
        <ele>405.4</ele>
        <time>2011-07-10T08:15:24Z</time>
      </trkpt>
      <trkpt lat="48.69149" lon="7.32504">
        <ele>404.2</ele>
        <time>2011-07-10T08:15:29Z</time>
      </trkpt>
      <trkpt lat="48.69136" lon="7.32493">
        <ele>404.7</ele>
        <time>2011-07-10T08:15:34Z</time>
      </trkpt>
      <trkpt lat="48.69127" lon="7.32481">
        <ele>405.3</ele>
        <time>2011-07-10T08:15:40Z</time>
      </trkpt>
      <trkpt lat="48.69121" lon="7.32472">
        <ele>405.8</ele>
        <time>2011-07-10T08:15:43Z</time>
      </trkpt>
      <trkpt lat="48.69112" lon="7.32467">
        <ele>406.4</ele>
        <time>2011-07-10T08:15:47Z</time>
      </trkpt>
      <trkpt lat="48.69103" lon="7.32461">
        <ele>406.9</ele>
        <time>2011-07-10T08:15:51Z</time>
      </trkpt>
      <trkpt lat="48.69094" lon="7.32455">
        <ele>407.5</ele>
        <time>2011-07-10T08:15:55Z</time>
      </trkpt>
      <trkpt lat="48.69088" lon="7.32439">
        <ele>406.6</ele>
        <time>2011-07-10T08:16:00Z</time>
      </trkpt>
      <trkpt lat="48.69078" lon="7.32426">
        <ele>407.7</ele>
        <time>2011-07-10T08:16:06Z</time>
      </trkpt>
      <trkpt lat="48.69071" lon="7.32412">
        <ele>410.1</ele>
        <time>2011-07-10T08:16:13Z</time>
      </trkpt>
      <trkpt lat="48.69066" lon="7.32394">
        <ele>412.5</ele>
        <time>2011-07-10T08:16:19Z</time>
      </trkpt>
      <trkpt lat="48.69053" lon="7.32392">
        <ele>414.8</ele>
        <time>2011-07-10T08:16:23Z</time>
      </trkpt>
      <trkpt lat="48.69042" lon="7.32384">
        <ele>415.4</ele>
        <time>2011-07-10T08:16:28Z</time>
      </trkpt>
      <trkpt lat="48.69031" lon="7.32377">
        <ele>415.9</ele>
        <time>2011-07-10T08:16:34Z</time>
      </trkpt>
      <trkpt lat="48.6902" lon="7.32368">
        <ele>416.5</ele>
        <time>2011-07-10T08:16:39Z</time>
      </trkpt>
      <trkpt lat="48.6901" lon="7.32356">
        <ele>417</ele>
        <time>2011-07-10T08:16:46Z</time>
      </trkpt>
      <trkpt lat="48.69002" lon="7.32343">
        <ele>417.9</ele>
        <time>2011-07-10T08:16:52Z</time>
      </trkpt>
      <trkpt lat="48.6899" lon="7.32335">
        <ele>418.8</ele>
        <time>2011-07-10T08:16:57Z</time>
      </trkpt>
      <trkpt lat="48.6898" lon="7.32326">
        <ele>421.1</ele>
        <time>2011-07-10T08:17:00Z</time>
      </trkpt>
      <trkpt lat="48.68975" lon="7.32311">
        <ele>421.5</ele>
        <time>2011-07-10T08:17:05Z</time>
      </trkpt>
      <trkpt lat="48.68965" lon="7.32297">
        <ele>421.8</ele>
        <time>2011-07-10T08:17:10Z</time>
      </trkpt>
      <trkpt lat="48.68957" lon="7.32292">
        <ele>422.2</ele>
        <time>2011-07-10T08:17:14Z</time>
      </trkpt>
      <trkpt lat="48.68949" lon="7.32285">
        <ele>422.5</ele>
        <time>2011-07-10T08:17:18Z</time>
      </trkpt>
      <trkpt lat="48.68938" lon="7.32283">
        <ele>422.9</ele>
        <time>2011-07-10T08:17:22Z</time>
      </trkpt>
      <trkpt lat="48.68927" lon="7.32274">
        <ele>421.2</ele>
        <time>2011-07-10T08:17:27Z</time>
      </trkpt>
      <trkpt lat="48.68918" lon="7.32262">
        <ele>419.5</ele>
        <time>2011-07-10T08:17:31Z</time>
      </trkpt>
      <trkpt lat="48.68906" lon="7.32258">
        <ele>419.6</ele>
        <time>2011-07-10T08:17:35Z</time>
      </trkpt>
      <trkpt lat="48.68894" lon="7.32249">
        <ele>419.5</ele>
        <time>2011-07-10T08:17:40Z</time>
      </trkpt>
      <trkpt lat="48.68884" lon="7.32239">
        <ele>419.3</ele>
        <time>2011-07-10T08:17:45Z</time>
      </trkpt>
      <trkpt lat="48.68873" lon="7.32232">
        <ele>419.1</ele>
        <time>2011-07-10T08:17:49Z</time>
      </trkpt>
      <trkpt lat="48.68867" lon="7.32215">
        <ele>418.9</ele>
        <time>2011-07-10T08:17:55Z</time>
      </trkpt>
      <trkpt lat="48.68857" lon="7.32201">
        <ele>420.3</ele>
        <time>2011-07-10T08:18:00Z</time>
      </trkpt>
      <trkpt lat="48.68852" lon="7.32184">
        <ele>421.6</ele>
        <time>2011-07-10T08:18:04Z</time>
      </trkpt>
      <trkpt lat="48.68849" lon="7.32167">
        <ele>423</ele>
        <time>2011-07-10T08:18:10Z</time>
      </trkpt>
      <trkpt lat="48.68839" lon="7.32157">
        <ele>424.4</ele>
        <time>2011-07-10T08:18:15Z</time>
      </trkpt>
      <trkpt lat="48.68831" lon="7.32141">
        <ele>427.8</ele>
        <time>2011-07-10T08:18:20Z</time>
      </trkpt>
      <trkpt lat="48.68826" lon="7.32125">
        <ele>429.9</ele>
        <time>2011-07-10T08:18:26Z</time>
      </trkpt>
      <trkpt lat="48.68826" lon="7.32107">
        <ele>430.1</ele>
        <time>2011-07-10T08:18:31Z</time>
      </trkpt>
      <trkpt lat="48.68819" lon="7.32093">
        <ele>431.7</ele>
        <time>2011-07-10T08:18:35Z</time>
      </trkpt>
      <trkpt lat="48.6881" lon="7.32086">
        <ele>433.4</ele>
        <time>2011-07-10T08:18:40Z</time>
      </trkpt>
      <trkpt lat="48.68803" lon="7.32072">
        <ele>435</ele>
        <time>2011-07-10T08:18:47Z</time>
      </trkpt>
      <trkpt lat="48.68792" lon="7.32062">
        <ele>436.6</ele>
        <time>2011-07-10T08:18:53Z</time>
      </trkpt>
      <trkpt lat="48.68781" lon="7.32056">
        <ele>436.7</ele>
        <time>2011-07-10T08:18:58Z</time>
      </trkpt>
      <trkpt lat="48.68772" lon="7.32044">
        <ele>436.8</ele>
        <time>2011-07-10T08:19:04Z</time>
      </trkpt>
      <trkpt lat="48.68763" lon="7.32034">
        <ele>436.9</ele>
        <time>2011-07-10T08:19:08Z</time>
      </trkpt>
      <trkpt lat="48.68754" lon="7.32023">
        <ele>437</ele>
        <time>2011-07-10T08:19:14Z</time>
      </trkpt>
      <trkpt lat="48.68742" lon="7.32017">
        <ele>437.1</ele>
        <time>2011-07-10T08:19:20Z</time>
      </trkpt>
      <trkpt lat="48.68737" lon="7.32004">
        <ele>437.7</ele>
        <time>2011-07-10T08:19:24Z</time>
      </trkpt>
      <trkpt lat="48.68733" lon="7.31993">
        <ele>439.3</ele>
        <time>2011-07-10T08:19:29Z</time>
      </trkpt>
      <trkpt lat="48.68724" lon="7.31989">
        <ele>439.4</ele>
        <time>2011-07-10T08:19:34Z</time>
      </trkpt>
      <trkpt lat="48.68717" lon="7.31984">
        <ele>439.5</ele>
        <time>2011-07-10T08:19:38Z</time>
      </trkpt>
      <trkpt lat="48.6871" lon="7.31975">
        <ele>439.5</ele>
        <time>2011-07-10T08:19:43Z</time>
      </trkpt>
      <trkpt lat="48.68701" lon="7.31969">
        <ele>439.6</ele>
        <time>2011-07-10T08:19:48Z</time>
      </trkpt>
      <trkpt lat="48.68693" lon="7.3196">
        <ele>439.7</ele>
        <time>2011-07-10T08:19:53Z</time>
      </trkpt>
      <trkpt lat="48.68693" lon="7.31943">
        <ele>440.4</ele>
        <time>2011-07-10T08:19:56Z</time>
      </trkpt>
      <trkpt lat="48.68689" lon="7.31927">
        <ele>441</ele>
        <time>2011-07-10T08:20:00Z</time>
      </trkpt>
      <trkpt lat="48.68679" lon="7.31921">
        <ele>441.6</ele>
        <time>2011-07-10T08:20:04Z</time>
      </trkpt>
      <trkpt lat="48.68671" lon="7.3191">
        <ele>442.3</ele>
        <time>2011-07-10T08:20:10Z</time>
      </trkpt>
      <trkpt lat="48.68659" lon="7.31901">
        <ele>443.7</ele>
        <time>2011-07-10T08:20:14Z</time>
      </trkpt>
      <trkpt lat="48.68653" lon="7.31884">
        <ele>444.3</ele>
        <time>2011-07-10T08:20:20Z</time>
      </trkpt>
      <trkpt lat="48.68655" lon="7.31863">
        <ele>445.5</ele>
        <time>2011-07-10T08:20:24Z</time>
      </trkpt>
      <trkpt lat="48.68645" lon="7.3185">
        <ele>444.5</ele>
        <time>2011-07-10T08:20:28Z</time>
      </trkpt>
      <trkpt lat="48.68636" lon="7.31841">
        <ele>443.5</ele>
        <time>2011-07-10T08:20:31Z</time>
      </trkpt>
      <trkpt lat="48.68629" lon="7.31825">
        <ele>442.5</ele>
        <time>2011-07-10T08:20:36Z</time>
      </trkpt>
      <trkpt lat="48.68631" lon="7.31806">
        <ele>441.5</ele>
        <time>2011-07-10T08:20:40Z</time>
      </trkpt>
      <trkpt lat="48.68633" lon="7.3179">
        <ele>441.7</ele>
        <time>2011-07-10T08:20:45Z</time>
      </trkpt>
      <trkpt lat="48.68622" lon="7.31777">
        <ele>443.1</ele>
        <time>2011-07-10T08:20:51Z</time>
      </trkpt>
      <trkpt lat="48.68618" lon="7.31761">
        <ele>444.5</ele>
        <time>2011-07-10T08:20:56Z</time>
      </trkpt>
      <trkpt lat="48.68617" lon="7.31745">
        <ele>445.8</ele>
        <time>2011-07-10T08:21:02Z</time>
      </trkpt>
      <trkpt lat="48.68622" lon="7.31725">
        <ele>446</ele>
        <time>2011-07-10T08:21:07Z</time>
      </trkpt>
      <trkpt lat="48.68626" lon="7.3171">
        <ele>446.2</ele>
        <time>2011-07-10T08:21:10Z</time>
      </trkpt>
      <trkpt lat="48.68631" lon="7.31695">
        <ele>446.6</ele>
        <time>2011-07-10T08:21:14Z</time>
      </trkpt>
      <trkpt lat="48.68633" lon="7.31675">
        <ele>449.4</ele>
        <time>2011-07-10T08:21:19Z</time>
      </trkpt>
      <trkpt lat="48.68627" lon="7.31659">
        <ele>452.1</ele>
        <time>2011-07-10T08:21:27Z</time>
      </trkpt>
      <trkpt lat="48.68615" lon="7.31655">
        <ele>454.8</ele>
        <time>2011-07-10T08:21:29Z</time>
      </trkpt>
      <trkpt lat="48.68608" lon="7.31645">
        <ele>457.5</ele>
        <time>2011-07-10T08:21:34Z</time>
      </trkpt>
      <trkpt lat="48.68605" lon="7.31633">
        <ele>458.5</ele>
        <time>2011-07-10T08:22:07Z</time>
      </trkpt>
      <trkpt lat="48.68603" lon="7.31619">
        <ele>459.3</ele>
        <time>2011-07-10T08:22:16Z</time>
      </trkpt>
      <trkpt lat="48.68605" lon="7.31605">
        <ele>460.2</ele>
        <time>2011-07-10T08:22:22Z</time>
      </trkpt>
      <trkpt lat="48.6861" lon="7.31594">
        <ele>461.1</ele>
        <time>2011-07-10T08:22:26Z</time>
      </trkpt>
      <trkpt lat="48.68614" lon="7.31583">
        <ele>463</ele>
        <time>2011-07-10T08:22:31Z</time>
      </trkpt>
      <trkpt lat="48.68615" lon="7.3157">
        <ele>464.9</ele>
        <time>2011-07-10T08:22:42Z</time>
      </trkpt>
      <trkpt lat="48.6862" lon="7.31552">
        <ele>465.8</ele>
        <time>2011-07-10T08:22:51Z</time>
      </trkpt>
      <trkpt lat="48.68627" lon="7.31534">
        <ele>466.9</ele>
        <time>2011-07-10T08:22:55Z</time>
      </trkpt>
      <trkpt lat="48.68631" lon="7.31523">
        <ele>468</ele>
        <time>2011-07-10T08:23:01Z</time>
      </trkpt>
      <trkpt lat="48.68625" lon="7.31515">
        <ele>469.1</ele>
        <time>2011-07-10T08:23:07Z</time>
      </trkpt>
      <trkpt lat="48.68625" lon="7.31501">
        <ele>470.2</ele>
        <time>2011-07-10T08:23:12Z</time>
      </trkpt>
      <trkpt lat="48.68627" lon="7.31485">
        <ele>470.5</ele>
        <time>2011-07-10T08:23:18Z</time>
      </trkpt>
      <trkpt lat="48.68628" lon="7.31468">
        <ele>470</ele>
        <time>2011-07-10T08:23:22Z</time>
      </trkpt>
      <trkpt lat="48.68625" lon="7.3145">
        <ele>469.3</ele>
        <time>2011-07-10T08:23:26Z</time>
      </trkpt>
      <trkpt lat="48.68622" lon="7.31429">
        <ele>467.7</ele>
        <time>2011-07-10T08:23:30Z</time>
      </trkpt>
      <trkpt lat="48.68627" lon="7.31403">
        <ele>466.4</ele>
        <time>2011-07-10T08:23:33Z</time>
      </trkpt>
      <trkpt lat="48.6863" lon="7.31375">
        <ele>465</ele>
        <time>2011-07-10T08:23:36Z</time>
      </trkpt>
      <trkpt lat="48.68635" lon="7.31345">
        <ele>463.6</ele>
        <time>2011-07-10T08:23:39Z</time>
      </trkpt>
      <trkpt lat="48.68642" lon="7.31315">
        <ele>462.1</ele>
        <time>2011-07-10T08:23:42Z</time>
      </trkpt>
      <trkpt lat="48.6865" lon="7.31291">
        <ele>460.5</ele>
        <time>2011-07-10T08:23:44Z</time>
      </trkpt>
      <trkpt lat="48.68656" lon="7.31269">
        <ele>458.5</ele>
        <time>2011-07-10T08:23:46Z</time>
      </trkpt>
      <trkpt lat="48.68659" lon="7.31252">
        <ele>456.4</ele>
        <time>2011-07-10T08:23:49Z</time>
      </trkpt>
      <trkpt lat="48.68668" lon="7.31241">
        <ele>455</ele>
        <time>2011-07-10T08:23:53Z</time>
      </trkpt>
      <trkpt lat="48.68659" lon="7.31236">
        <ele>454.8</ele>
        <time>2011-07-10T08:24:00Z</time>
      </trkpt>
      <trkpt lat="48.68655" lon="7.31219">
        <ele>454.6</ele>
        <time>2011-07-10T08:24:08Z</time>
      </trkpt>
      <trkpt lat="48.68652" lon="7.31203">
        <ele>455.3</ele>
        <time>2011-07-10T08:24:16Z</time>
      </trkpt>
      <trkpt lat="48.68639" lon="7.31193">
        <ele>455.9</ele>
        <time>2011-07-10T08:24:22Z</time>
      </trkpt>
      <trkpt lat="48.68636" lon="7.31172">
        <ele>456.5</ele>
        <time>2011-07-10T08:24:27Z</time>
      </trkpt>
      <trkpt lat="48.68623" lon="7.31174">
        <ele>457.2</ele>
        <time>2011-07-10T08:24:31Z</time>
      </trkpt>
      <trkpt lat="48.68611" lon="7.31166">
        <ele>457.8</ele>
        <time>2011-07-10T08:24:37Z</time>
      </trkpt>
      <trkpt lat="48.68599" lon="7.31164">
        <ele>457.8</ele>
        <time>2011-07-10T08:24:41Z</time>
      </trkpt>
      <trkpt lat="48.68587" lon="7.31162">
        <ele>459.1</ele>
        <time>2011-07-10T08:24:46Z</time>
      </trkpt>
      <trkpt lat="48.6858" lon="7.31155">
        <ele>460.4</ele>
        <time>2011-07-10T08:24:51Z</time>
      </trkpt>
      <trkpt lat="48.68567" lon="7.31147">
        <ele>461.6</ele>
        <time>2011-07-10T08:24:57Z</time>
      </trkpt>
      <trkpt lat="48.68555" lon="7.31147">
        <ele>461.7</ele>
        <time>2011-07-10T08:25:02Z</time>
      </trkpt>
      <trkpt lat="48.68553" lon="7.31129">
        <ele>461.8</ele>
        <time>2011-07-10T08:25:06Z</time>
      </trkpt>
      <trkpt lat="48.68541" lon="7.31126">
        <ele>461.9</ele>
        <time>2011-07-10T08:25:10Z</time>
      </trkpt>
      <trkpt lat="48.68529" lon="7.31124">
        <ele>462</ele>
        <time>2011-07-10T08:25:15Z</time>
      </trkpt>
      <trkpt lat="48.68518" lon="7.31118">
        <ele>462.1</ele>
        <time>2011-07-10T08:25:19Z</time>
      </trkpt>
      <trkpt lat="48.68508" lon="7.3111">
        <ele>462.5</ele>
        <time>2011-07-10T08:25:26Z</time>
      </trkpt>
      <trkpt lat="48.68496" lon="7.31105">
        <ele>463</ele>
        <time>2011-07-10T08:25:30Z</time>
      </trkpt>
      <trkpt lat="48.68485" lon="7.31105">
        <ele>464.1</ele>
        <time>2011-07-10T08:25:34Z</time>
      </trkpt>
      <trkpt lat="48.68472" lon="7.31104">
        <ele>464.5</ele>
        <time>2011-07-10T08:25:39Z</time>
      </trkpt>
      <trkpt lat="48.68463" lon="7.31098">
        <ele>464.8</ele>
        <time>2011-07-10T08:25:43Z</time>
      </trkpt>
      <trkpt lat="48.68456" lon="7.31091">
        <ele>465.2</ele>
        <time>2011-07-10T08:25:47Z</time>
      </trkpt>
      <trkpt lat="48.68447" lon="7.31092">
        <ele>465.5</ele>
        <time>2011-07-10T08:25:51Z</time>
      </trkpt>
      <trkpt lat="48.68434" lon="7.31089">
        <ele>466.3</ele>
        <time>2011-07-10T08:25:55Z</time>
      </trkpt>
      <trkpt lat="48.6842" lon="7.31087">
        <ele>467</ele>
        <time>2011-07-10T08:26:00Z</time>
      </trkpt>
      <trkpt lat="48.68407" lon="7.3109">
        <ele>467.7</ele>
        <time>2011-07-10T08:26:02Z</time>
      </trkpt>
      <trkpt lat="48.68398" lon="7.31092">
        <ele>468.5</ele>
        <time>2011-07-10T08:26:05Z</time>
      </trkpt>
      <trkpt lat="48.68387" lon="7.31096">
        <ele>468.8</ele>
        <time>2011-07-10T08:26:08Z</time>
      </trkpt>
      <trkpt lat="48.68379" lon="7.311">
        <ele>469.2</ele>
        <time>2011-07-10T08:26:11Z</time>
      </trkpt>
      <trkpt lat="48.68369" lon="7.311">
        <ele>469.5</ele>
        <time>2011-07-10T08:26:16Z</time>
      </trkpt>
      <trkpt lat="48.68355" lon="7.31104">
        <ele>469.9</ele>
        <time>2011-07-10T08:26:21Z</time>
      </trkpt>
      <trkpt lat="48.68346" lon="7.31108">
        <ele>470.3</ele>
        <time>2011-07-10T08:26:24Z</time>
      </trkpt>
      <trkpt lat="48.68336" lon="7.31113">
        <ele>470.6</ele>
        <time>2011-07-10T08:26:27Z</time>
      </trkpt>
      <trkpt lat="48.68325" lon="7.31114">
        <ele>471</ele>
        <time>2011-07-10T08:26:31Z</time>
      </trkpt>
      <trkpt lat="48.68314" lon="7.31106">
        <ele>471</ele>
        <time>2011-07-10T08:26:40Z</time>
      </trkpt>
      <trkpt lat="48.68302" lon="7.31104">
        <ele>471</ele>
        <time>2011-07-10T08:26:45Z</time>
      </trkpt>
      <trkpt lat="48.68294" lon="7.31093">
        <ele>471</ele>
        <time>2011-07-10T08:26:54Z</time>
      </trkpt>
      <trkpt lat="48.68284" lon="7.31085">
        <ele>471</ele>
        <time>2011-07-10T08:26:59Z</time>
      </trkpt>
      <trkpt lat="48.68271" lon="7.31086">
        <ele>471</ele>
        <time>2011-07-10T08:27:03Z</time>
      </trkpt>
      <trkpt lat="48.68257" lon="7.31091">
        <ele>471</ele>
        <time>2011-07-10T08:27:05Z</time>
      </trkpt>
      <trkpt lat="48.6824" lon="7.31095">
        <ele>471</ele>
        <time>2011-07-10T08:27:07Z</time>
      </trkpt>
      <trkpt lat="48.68228" lon="7.31095">
        <ele>471</ele>
        <time>2011-07-10T08:27:10Z</time>
      </trkpt>
      <trkpt lat="48.6822" lon="7.31098">
        <ele>471.4</ele>
        <time>2011-07-10T08:27:13Z</time>
      </trkpt>
      <trkpt lat="48.68212" lon="7.31105">
        <ele>471.7</ele>
        <time>2011-07-10T08:27:18Z</time>
      </trkpt>
      <trkpt lat="48.68204" lon="7.31108">
        <ele>472.1</ele>
        <time>2011-07-10T08:27:22Z</time>
      </trkpt>
      <trkpt lat="48.68195" lon="7.31116">
        <ele>472.5</ele>
        <time>2011-07-10T08:27:26Z</time>
      </trkpt>
      <trkpt lat="48.68188" lon="7.31124">
        <ele>472.8</ele>
        <time>2011-07-10T08:27:28Z</time>
      </trkpt>
      <trkpt lat="48.68177" lon="7.31132">
        <ele>473.2</ele>
        <time>2011-07-10T08:27:31Z</time>
      </trkpt>
      <trkpt lat="48.68168" lon="7.31136">
        <ele>473.5</ele>
        <time>2011-07-10T08:27:36Z</time>
      </trkpt>
      <trkpt lat="48.68161" lon="7.31142">
        <ele>473.9</ele>
        <time>2011-07-10T08:27:46Z</time>
      </trkpt>
      <trkpt lat="48.68152" lon="7.31142">
        <ele>475.3</ele>
        <time>2011-07-10T08:28:11Z</time>
      </trkpt>
      <trkpt lat="48.68135" lon="7.31148">
        <ele>476.6</ele>
        <time>2011-07-10T08:29:45Z</time>
      </trkpt>
      <trkpt lat="48.68144" lon="7.31143">
        <ele>478</ele>
        <time>2011-07-10T08:30:33Z</time>
      </trkpt>
      <trkpt lat="48.68139" lon="7.31154">
        <ele>479</ele>
        <time>2011-07-10T08:30:40Z</time>
      </trkpt>
      <trkpt lat="48.6813" lon="7.31157">
        <ele>480</ele>
        <time>2011-07-10T08:30:44Z</time>
      </trkpt>
      <trkpt lat="48.6812" lon="7.31157">
        <ele>481</ele>
        <time>2011-07-10T08:30:48Z</time>
      </trkpt>
      <trkpt lat="48.68112" lon="7.31163">
        <ele>482</ele>
        <time>2011-07-10T08:30:52Z</time>
      </trkpt>
      <trkpt lat="48.68104" lon="7.31169">
        <ele>483</ele>
        <time>2011-07-10T08:30:57Z</time>
      </trkpt>
      <trkpt lat="48.68097" lon="7.31177">
        <ele>484</ele>
        <time>2011-07-10T08:31:03Z</time>
      </trkpt>
      <trkpt lat="48.68088" lon="7.31176">
        <ele>485.9</ele>
        <time>2011-07-10T08:31:08Z</time>
      </trkpt>
      <trkpt lat="48.68077" lon="7.31176">
        <ele>487.8</ele>
        <time>2011-07-10T08:31:14Z</time>
      </trkpt>
      <trkpt lat="48.68068" lon="7.31173">
        <ele>488.7</ele>
        <time>2011-07-10T08:31:16Z</time>
      </trkpt>
      <trkpt lat="48.6806" lon="7.31169">
        <ele>489.6</ele>
        <time>2011-07-10T08:31:21Z</time>
      </trkpt>
      <trkpt lat="48.68049" lon="7.31165">
        <ele>490.5</ele>
        <time>2011-07-10T08:31:25Z</time>
      </trkpt>
      <trkpt lat="48.68041" lon="7.31158">
        <ele>491.3</ele>
        <time>2011-07-10T08:31:28Z</time>
      </trkpt>
      <trkpt lat="48.68033" lon="7.31152">
        <ele>492.1</ele>
        <time>2011-07-10T08:31:31Z</time>
      </trkpt>
      <trkpt lat="48.68024" lon="7.31147">
        <ele>492.9</ele>
        <time>2011-07-10T08:31:36Z</time>
      </trkpt>
      <trkpt lat="48.68018" lon="7.31137">
        <ele>493.7</ele>
        <time>2011-07-10T08:31:41Z</time>
      </trkpt>
      <trkpt lat="48.68013" lon="7.31126">
        <ele>494.5</ele>
        <time>2011-07-10T08:31:46Z</time>
      </trkpt>
      <trkpt lat="48.6801" lon="7.31115">
        <ele>495.4</ele>
        <time>2011-07-10T08:31:51Z</time>
      </trkpt>
      <trkpt lat="48.68001" lon="7.31111">
        <ele>495.3</ele>
        <time>2011-07-10T08:31:55Z</time>
      </trkpt>
      <trkpt lat="48.67993" lon="7.31107">
        <ele>495.2</ele>
        <time>2011-07-10T08:32:00Z</time>
      </trkpt>
      <trkpt lat="48.67986" lon="7.31097">
        <ele>495.1</ele>
        <time>2011-07-10T08:32:04Z</time>
      </trkpt>
      <trkpt lat="48.67981" lon="7.31084">
        <ele>495</ele>
        <time>2011-07-10T08:32:10Z</time>
      </trkpt>
      <trkpt lat="48.67975" lon="7.3107">
        <ele>495</ele>
        <time>2011-07-10T08:32:14Z</time>
      </trkpt>
      <trkpt lat="48.67974" lon="7.31055">
        <ele>495</ele>
        <time>2011-07-10T08:32:25Z</time>
      </trkpt>
      <trkpt lat="48.67972" lon="7.31053">
        <ele>495</ele>
        <time>2011-07-10T08:32:38Z</time>
      </trkpt>
      <trkpt lat="48.67974" lon="7.31035">
        <ele>498.8</ele>
        <time>2011-07-10T08:36:43Z</time>
      </trkpt>
      <trkpt lat="48.67959" lon="7.31059">
        <ele>498.6</ele>
        <time>2011-07-10T08:36:45Z</time>
      </trkpt>
      <trkpt lat="48.67967" lon="7.31045">
        <ele>498.4</ele>
        <time>2011-07-10T08:36:48Z</time>
      </trkpt>
      <trkpt lat="48.67975" lon="7.31041">
        <ele>498.6</ele>
        <time>2011-07-10T08:37:15Z</time>
      </trkpt>
      <trkpt lat="48.67972" lon="7.31027">
        <ele>498.7</ele>
        <time>2011-07-10T08:37:22Z</time>
      </trkpt>
      <trkpt lat="48.67976" lon="7.3101">
        <ele>498.8</ele>
        <time>2011-07-10T08:37:26Z</time>
      </trkpt>
      <trkpt lat="48.67976" lon="7.30994">
        <ele>499.1</ele>
        <time>2011-07-10T08:37:29Z</time>
      </trkpt>
      <trkpt lat="48.67975" lon="7.30979">
        <ele>498.4</ele>
        <time>2011-07-10T08:37:33Z</time>
      </trkpt>
      <trkpt lat="48.67973" lon="7.30964">
        <ele>498.6</ele>
        <time>2011-07-10T08:37:38Z</time>
      </trkpt>
      <trkpt lat="48.67974" lon="7.3095">
        <ele>499.4</ele>
        <time>2011-07-10T08:37:42Z</time>
      </trkpt>
      <trkpt lat="48.67977" lon="7.30937">
        <ele>500.1</ele>
        <time>2011-07-10T08:37:46Z</time>
      </trkpt>
      <trkpt lat="48.67979" lon="7.30923">
        <ele>500.8</ele>
        <time>2011-07-10T08:37:50Z</time>
      </trkpt>
      <trkpt lat="48.67982" lon="7.30911">
        <ele>501.5</ele>
        <time>2011-07-10T08:37:54Z</time>
      </trkpt>
      <trkpt lat="48.6798" lon="7.30898">
        <ele>502.3</ele>
        <time>2011-07-10T08:37:58Z</time>
      </trkpt>
      <trkpt lat="48.67984" lon="7.30883">
        <ele>502.7</ele>
        <time>2011-07-10T08:38:01Z</time>
      </trkpt>
      <trkpt lat="48.6798" lon="7.30871">
        <ele>503.5</ele>
        <time>2011-07-10T08:38:06Z</time>
      </trkpt>
      <trkpt lat="48.6798" lon="7.30859">
        <ele>504.4</ele>
        <time>2011-07-10T08:38:10Z</time>
      </trkpt>
      <trkpt lat="48.67982" lon="7.30842">
        <ele>505.2</ele>
        <time>2011-07-10T08:38:15Z</time>
      </trkpt>
      <trkpt lat="48.67978" lon="7.30827">
        <ele>506</ele>
        <time>2011-07-10T08:38:20Z</time>
      </trkpt>
      <trkpt lat="48.6797" lon="7.30821">
        <ele>506.8</ele>
        <time>2011-07-10T08:38:23Z</time>
      </trkpt>
      <trkpt lat="48.67971" lon="7.30798">
        <ele>509.1</ele>
        <time>2011-07-10T08:38:30Z</time>
      </trkpt>
      <trkpt lat="48.67973" lon="7.30784">
        <ele>511.4</ele>
        <time>2011-07-10T08:38:33Z</time>
      </trkpt>
      <trkpt lat="48.67969" lon="7.30772">
        <ele>513.6</ele>
        <time>2011-07-10T08:38:38Z</time>
      </trkpt>
      <trkpt lat="48.67964" lon="7.3076">
        <ele>515.9</ele>
        <time>2011-07-10T08:38:41Z</time>
      </trkpt>
      <trkpt lat="48.67963" lon="7.30743">
        <ele>518.2</ele>
        <time>2011-07-10T08:38:46Z</time>
      </trkpt>
      <trkpt lat="48.67956" lon="7.30728">
        <ele>520.5</ele>
        <time>2011-07-10T08:38:51Z</time>
      </trkpt>
      <trkpt lat="48.67951" lon="7.30716">
        <ele>522.4</ele>
        <time>2011-07-10T08:38:55Z</time>
      </trkpt>
      <trkpt lat="48.67947" lon="7.30702">
        <ele>524.3</ele>
        <time>2011-07-10T08:38:59Z</time>
      </trkpt>
      <trkpt lat="48.67945" lon="7.30689">
        <ele>526.2</ele>
        <time>2011-07-10T08:39:04Z</time>
      </trkpt>
      <trkpt lat="48.67945" lon="7.30676">
        <ele>528.1</ele>
        <time>2011-07-10T08:39:07Z</time>
      </trkpt>
      <trkpt lat="48.6794" lon="7.30663">
        <ele>530</ele>
        <time>2011-07-10T08:39:12Z</time>
      </trkpt>
      <trkpt lat="48.67937" lon="7.30651">
        <ele>530</ele>
        <time>2011-07-10T08:39:16Z</time>
      </trkpt>
      <trkpt lat="48.67935" lon="7.30638">
        <ele>530</ele>
        <time>2011-07-10T08:39:20Z</time>
      </trkpt>
      <trkpt lat="48.67939" lon="7.30627">
        <ele>530</ele>
        <time>2011-07-10T08:39:23Z</time>
      </trkpt>
      <trkpt lat="48.67935" lon="7.30614">
        <ele>529.5</ele>
        <time>2011-07-10T08:39:27Z</time>
      </trkpt>
      <trkpt lat="48.6793" lon="7.30604">
        <ele>528.9</ele>
        <time>2011-07-10T08:39:32Z</time>
      </trkpt>
      <trkpt lat="48.67923" lon="7.30592">
        <ele>528.4</ele>
        <time>2011-07-10T08:39:35Z</time>
      </trkpt>
      <trkpt lat="48.67919" lon="7.30582">
        <ele>527.8</ele>
        <time>2011-07-10T08:39:38Z</time>
      </trkpt>
      <trkpt lat="48.67915" lon="7.30567">
        <ele>527.3</ele>
        <time>2011-07-10T08:39:42Z</time>
      </trkpt>
      <trkpt lat="48.67912" lon="7.30554">
        <ele>526.7</ele>
        <time>2011-07-10T08:39:46Z</time>
      </trkpt>
      <trkpt lat="48.67908" lon="7.30542">
        <ele>526.2</ele>
        <time>2011-07-10T08:39:50Z</time>
      </trkpt>
      <trkpt lat="48.67906" lon="7.3053">
        <ele>525.6</ele>
        <time>2011-07-10T08:39:54Z</time>
      </trkpt>
      <trkpt lat="48.679" lon="7.30518">
        <ele>526.5</ele>
        <time>2011-07-10T08:39:58Z</time>
      </trkpt>
      <trkpt lat="48.67895" lon="7.30504">
        <ele>527.5</ele>
        <time>2011-07-10T08:40:02Z</time>
      </trkpt>
      <trkpt lat="48.6789" lon="7.3049">
        <ele>528.4</ele>
        <time>2011-07-10T08:40:06Z</time>
      </trkpt>
      <trkpt lat="48.67885" lon="7.30478">
        <ele>529.8</ele>
        <time>2011-07-10T08:40:10Z</time>
      </trkpt>
      <trkpt lat="48.67881" lon="7.30466">
        <ele>531.3</ele>
        <time>2011-07-10T08:40:15Z</time>
      </trkpt>
      <trkpt lat="48.67874" lon="7.30455">
        <ele>532.7</ele>
        <time>2011-07-10T08:40:19Z</time>
      </trkpt>
      <trkpt lat="48.67869" lon="7.30444">
        <ele>534.2</ele>
        <time>2011-07-10T08:40:23Z</time>
      </trkpt>
      <trkpt lat="48.67863" lon="7.30435">
        <ele>535.6</ele>
        <time>2011-07-10T08:40:28Z</time>
      </trkpt>
      <trkpt lat="48.67858" lon="7.30422">
        <ele>536.1</ele>
        <time>2011-07-10T08:40:32Z</time>
      </trkpt>
      <trkpt lat="48.67852" lon="7.30412">
        <ele>536.5</ele>
        <time>2011-07-10T08:40:35Z</time>
      </trkpt>
      <trkpt lat="48.67844" lon="7.30401">
        <ele>537</ele>
        <time>2011-07-10T08:40:39Z</time>
      </trkpt>
      <trkpt lat="48.67837" lon="7.30392">
        <ele>536</ele>
        <time>2011-07-10T08:40:43Z</time>
      </trkpt>
      <trkpt lat="48.67827" lon="7.30382">
        <ele>537</ele>
        <time>2011-07-10T08:40:47Z</time>
      </trkpt>
      <trkpt lat="48.6782" lon="7.30372">
        <ele>538</ele>
        <time>2011-07-10T08:40:51Z</time>
      </trkpt>
      <trkpt lat="48.67813" lon="7.30363">
        <ele>539</ele>
        <time>2011-07-10T08:40:56Z</time>
      </trkpt>
      <trkpt lat="48.67808" lon="7.30355">
        <ele>540</ele>
        <time>2011-07-10T08:41:01Z</time>
      </trkpt>
      <trkpt lat="48.67798" lon="7.30348">
        <ele>541</ele>
        <time>2011-07-10T08:41:05Z</time>
      </trkpt>
      <trkpt lat="48.67791" lon="7.30339">
        <ele>542</ele>
        <time>2011-07-10T08:41:09Z</time>
      </trkpt>
      <trkpt lat="48.67782" lon="7.3033">
        <ele>541.8</ele>
        <time>2011-07-10T08:41:14Z</time>
      </trkpt>
      <trkpt lat="48.67774" lon="7.30322">
        <ele>542.6</ele>
        <time>2011-07-10T08:41:18Z</time>
      </trkpt>
      <trkpt lat="48.67764" lon="7.30312">
        <ele>543.5</ele>
        <time>2011-07-10T08:41:22Z</time>
      </trkpt>
      <trkpt lat="48.67756" lon="7.30306">
        <ele>544.3</ele>
        <time>2011-07-10T08:41:26Z</time>
      </trkpt>
      <trkpt lat="48.67749" lon="7.30297">
        <ele>546.9</ele>
        <time>2011-07-10T08:41:30Z</time>
      </trkpt>
      <trkpt lat="48.67739" lon="7.30292">
        <ele>547.5</ele>
        <time>2011-07-10T08:41:34Z</time>
      </trkpt>
      <trkpt lat="48.67729" lon="7.30284">
        <ele>548.2</ele>
        <time>2011-07-10T08:41:38Z</time>
      </trkpt>
      <trkpt lat="48.67721" lon="7.30278">
        <ele>548.8</ele>
        <time>2011-07-10T08:41:42Z</time>
      </trkpt>
      <trkpt lat="48.67715" lon="7.30268">
        <ele>549.5</ele>
        <time>2011-07-10T08:41:47Z</time>
      </trkpt>
      <trkpt lat="48.67708" lon="7.30258">
        <ele>549.3</ele>
        <time>2011-07-10T08:41:53Z</time>
      </trkpt>
      <trkpt lat="48.67701" lon="7.30247">
        <ele>549.1</ele>
        <time>2011-07-10T08:41:58Z</time>
      </trkpt>
      <trkpt lat="48.67696" lon="7.30237">
        <ele>550.1</ele>
        <time>2011-07-10T08:42:02Z</time>
      </trkpt>
      <trkpt lat="48.67688" lon="7.30227">
        <ele>551.1</ele>
        <time>2011-07-10T08:42:05Z</time>
      </trkpt>
      <trkpt lat="48.6768" lon="7.30219">
        <ele>552.1</ele>
        <time>2011-07-10T08:42:08Z</time>
      </trkpt>
      <trkpt lat="48.67672" lon="7.3021">
        <ele>553.1</ele>
        <time>2011-07-10T08:42:11Z</time>
      </trkpt>
      <trkpt lat="48.67665" lon="7.30199">
        <ele>552.3</ele>
        <time>2011-07-10T08:42:14Z</time>
      </trkpt>
      <trkpt lat="48.67658" lon="7.30188">
        <ele>550.7</ele>
        <time>2011-07-10T08:42:17Z</time>
      </trkpt>
      <trkpt lat="48.67651" lon="7.30179">
        <ele>549.2</ele>
        <time>2011-07-10T08:42:20Z</time>
      </trkpt>
      <trkpt lat="48.67644" lon="7.30166">
        <ele>550.1</ele>
        <time>2011-07-10T08:42:24Z</time>
      </trkpt>
      <trkpt lat="48.6764" lon="7.30154">
        <ele>551</ele>
        <time>2011-07-10T08:42:28Z</time>
      </trkpt>
      <trkpt lat="48.67637" lon="7.30139">
        <ele>552.7</ele>
        <time>2011-07-10T08:42:33Z</time>
      </trkpt>
      <trkpt lat="48.67636" lon="7.30124">
        <ele>554.5</ele>
        <time>2011-07-10T08:42:37Z</time>
      </trkpt>
      <trkpt lat="48.6763" lon="7.30112">
        <ele>556.2</ele>
        <time>2011-07-10T08:42:40Z</time>
      </trkpt>
      <trkpt lat="48.67624" lon="7.301">
        <ele>557.3</ele>
        <time>2011-07-10T08:42:43Z</time>
      </trkpt>
      <trkpt lat="48.67619" lon="7.30089">
        <ele>558.4</ele>
        <time>2011-07-10T08:42:46Z</time>
      </trkpt>
      <trkpt lat="48.67612" lon="7.30077">
        <ele>559.5</ele>
        <time>2011-07-10T08:42:49Z</time>
      </trkpt>
      <trkpt lat="48.67609" lon="7.30063">
        <ele>560.5</ele>
        <time>2011-07-10T08:42:53Z</time>
      </trkpt>
      <trkpt lat="48.67604" lon="7.30052">
        <ele>562.4</ele>
        <time>2011-07-10T08:42:56Z</time>
      </trkpt>
      <trkpt lat="48.676" lon="7.30041">
        <ele>564.2</ele>
        <time>2011-07-10T08:42:59Z</time>
      </trkpt>
      <trkpt lat="48.67594" lon="7.30026">
        <ele>563.5</ele>
        <time>2011-07-10T08:43:03Z</time>
      </trkpt>
      <trkpt lat="48.67588" lon="7.30017">
        <ele>562.9</ele>
        <time>2011-07-10T08:43:05Z</time>
      </trkpt>
      <trkpt lat="48.67582" lon="7.30008">
        <ele>561.2</ele>
        <time>2011-07-10T08:43:08Z</time>
      </trkpt>
      <trkpt lat="48.67576" lon="7.3">
        <ele>561.6</ele>
        <time>2011-07-10T08:43:11Z</time>
      </trkpt>
      <trkpt lat="48.67569" lon="7.29991">
        <ele>562.1</ele>
        <time>2011-07-10T08:43:14Z</time>
      </trkpt>
      <trkpt lat="48.67565" lon="7.2998">
        <ele>563.2</ele>
        <time>2011-07-10T08:43:17Z</time>
      </trkpt>
      <trkpt lat="48.67559" lon="7.2997">
        <ele>564.3</ele>
        <time>2011-07-10T08:43:22Z</time>
      </trkpt>
      <trkpt lat="48.67551" lon="7.2996">
        <ele>565.4</ele>
        <time>2011-07-10T08:43:25Z</time>
      </trkpt>
      <trkpt lat="48.67544" lon="7.29948">
        <ele>566.5</ele>
        <time>2011-07-10T08:43:29Z</time>
      </trkpt>
      <trkpt lat="48.67536" lon="7.29934">
        <ele>566.5</ele>
        <time>2011-07-10T08:43:33Z</time>
      </trkpt>
      <trkpt lat="48.67529" lon="7.29921">
        <ele>566.6</ele>
        <time>2011-07-10T08:43:37Z</time>
      </trkpt>
      <trkpt lat="48.67524" lon="7.29911">
        <ele>566.7</ele>
        <time>2011-07-10T08:43:41Z</time>
      </trkpt>
      <trkpt lat="48.67518" lon="7.29901">
        <ele>566.8</ele>
        <time>2011-07-10T08:43:44Z</time>
      </trkpt>
      <trkpt lat="48.6751" lon="7.29891">
        <ele>568</ele>
        <time>2011-07-10T08:43:47Z</time>
      </trkpt>
      <trkpt lat="48.67504" lon="7.29882">
        <ele>567</ele>
        <time>2011-07-10T08:43:50Z</time>
      </trkpt>
      <trkpt lat="48.67496" lon="7.29871">
        <ele>566</ele>
        <time>2011-07-10T08:43:54Z</time>
      </trkpt>
      <trkpt lat="48.6749" lon="7.2986">
        <ele>564.5</ele>
        <time>2011-07-10T08:43:57Z</time>
      </trkpt>
      <trkpt lat="48.67485" lon="7.29847">
        <ele>562.9</ele>
        <time>2011-07-10T08:44:00Z</time>
      </trkpt>
      <trkpt lat="48.6748" lon="7.29834">
        <ele>561.4</ele>
        <time>2011-07-10T08:44:04Z</time>
      </trkpt>
      <trkpt lat="48.67477" lon="7.29823">
        <ele>560.7</ele>
        <time>2011-07-10T08:44:07Z</time>
      </trkpt>
      <trkpt lat="48.67471" lon="7.29809">
        <ele>561.1</ele>
        <time>2011-07-10T08:44:11Z</time>
      </trkpt>
      <trkpt lat="48.67468" lon="7.29798">
        <ele>561.5</ele>
        <time>2011-07-10T08:44:14Z</time>
      </trkpt>
      <trkpt lat="48.67465" lon="7.29783">
        <ele>561.8</ele>
        <time>2011-07-10T08:44:18Z</time>
      </trkpt>
      <trkpt lat="48.67463" lon="7.29769">
        <ele>562.2</ele>
        <time>2011-07-10T08:44:22Z</time>
      </trkpt>
      <trkpt lat="48.67461" lon="7.29753">
        <ele>563.1</ele>
        <time>2011-07-10T08:44:27Z</time>
      </trkpt>
      <trkpt lat="48.67453" lon="7.29744">
        <ele>564</ele>
        <time>2011-07-10T08:44:30Z</time>
      </trkpt>
      <trkpt lat="48.67445" lon="7.29736">
        <ele>564.9</ele>
        <time>2011-07-10T08:44:33Z</time>
      </trkpt>
      <trkpt lat="48.67436" lon="7.29731">
        <ele>566.4</ele>
        <time>2011-07-10T08:44:37Z</time>
      </trkpt>
      <trkpt lat="48.67427" lon="7.29728">
        <ele>567.8</ele>
        <time>2011-07-10T08:44:41Z</time>
      </trkpt>
      <trkpt lat="48.6742" lon="7.29719">
        <ele>569.3</ele>
        <time>2011-07-10T08:44:45Z</time>
      </trkpt>
      <trkpt lat="48.67415" lon="7.29708">
        <ele>569.8</ele>
        <time>2011-07-10T08:44:48Z</time>
      </trkpt>
      <trkpt lat="48.67408" lon="7.29697">
        <ele>571.4</ele>
        <time>2011-07-10T08:44:51Z</time>
      </trkpt>
      <trkpt lat="48.67404" lon="7.29683">
        <ele>571.5</ele>
        <time>2011-07-10T08:44:55Z</time>
      </trkpt>
      <trkpt lat="48.67399" lon="7.29669">
        <ele>571.5</ele>
        <time>2011-07-10T08:44:58Z</time>
      </trkpt>
      <trkpt lat="48.67394" lon="7.29657">
        <ele>571.6</ele>
        <time>2011-07-10T08:45:00Z</time>
      </trkpt>
      <trkpt lat="48.67389" lon="7.29645">
        <ele>571.2</ele>
        <time>2011-07-10T08:45:02Z</time>
      </trkpt>
      <trkpt lat="48.67386" lon="7.29631">
        <ele>570.7</ele>
        <time>2011-07-10T08:45:04Z</time>
      </trkpt>
      <trkpt lat="48.67379" lon="7.29617">
        <ele>571.9</ele>
        <time>2011-07-10T08:45:07Z</time>
      </trkpt>
      <trkpt lat="48.67371" lon="7.29605">
        <ele>573.1</ele>
        <time>2011-07-10T08:45:10Z</time>
      </trkpt>
      <trkpt lat="48.67366" lon="7.29592">
        <ele>574.3</ele>
        <time>2011-07-10T08:45:13Z</time>
      </trkpt>
      <trkpt lat="48.67362" lon="7.29579">
        <ele>575.5</ele>
        <time>2011-07-10T08:45:16Z</time>
      </trkpt>
      <trkpt lat="48.67361" lon="7.29564">
        <ele>576.6</ele>
        <time>2011-07-10T08:45:20Z</time>
      </trkpt>
      <trkpt lat="48.67357" lon="7.29553">
        <ele>576.8</ele>
        <time>2011-07-10T08:45:22Z</time>
      </trkpt>
      <trkpt lat="48.67348" lon="7.29543">
        <ele>578.5</ele>
        <time>2011-07-10T08:45:25Z</time>
      </trkpt>
      <trkpt lat="48.67341" lon="7.2953">
        <ele>580.1</ele>
        <time>2011-07-10T08:45:28Z</time>
      </trkpt>
      <trkpt lat="48.67335" lon="7.2952">
        <ele>579.6</ele>
        <time>2011-07-10T08:45:31Z</time>
      </trkpt>
      <trkpt lat="48.6733" lon="7.2951">
        <ele>579.2</ele>
        <time>2011-07-10T08:45:34Z</time>
      </trkpt>
      <trkpt lat="48.67318" lon="7.29501">
        <ele>578.7</ele>
        <time>2011-07-10T08:45:37Z</time>
      </trkpt>
      <trkpt lat="48.67311" lon="7.29495">
        <ele>578.6</ele>
        <time>2011-07-10T08:45:38Z</time>
      </trkpt>
      <trkpt lat="48.673" lon="7.29488">
        <ele>578.5</ele>
        <time>2011-07-10T08:45:40Z</time>
      </trkpt>
      <trkpt lat="48.67286" lon="7.29482">
        <ele>578.5</ele>
        <time>2011-07-10T08:45:42Z</time>
      </trkpt>
      <trkpt lat="48.67274" lon="7.29473">
        <ele>578.4</ele>
        <time>2011-07-10T08:45:44Z</time>
      </trkpt>
      <trkpt lat="48.67264" lon="7.29466">
        <ele>578.3</ele>
        <time>2011-07-10T08:45:46Z</time>
      </trkpt>
      <trkpt lat="48.67251" lon="7.29459">
        <ele>576.5</ele>
        <time>2011-07-10T08:45:48Z</time>
      </trkpt>
      <trkpt lat="48.67244" lon="7.29454">
        <ele>574.6</ele>
        <time>2011-07-10T08:45:49Z</time>
      </trkpt>
      <trkpt lat="48.67232" lon="7.29448">
        <ele>572.8</ele>
        <time>2011-07-10T08:45:51Z</time>
      </trkpt>
      <trkpt lat="48.67219" lon="7.29443">
        <ele>573.1</ele>
        <time>2011-07-10T08:45:53Z</time>
      </trkpt>
      <trkpt lat="48.67212" lon="7.29436">
        <ele>573.4</ele>
        <time>2011-07-10T08:45:55Z</time>
      </trkpt>
      <trkpt lat="48.67199" lon="7.29428">
        <ele>573.6</ele>
        <time>2011-07-10T08:45:57Z</time>
      </trkpt>
      <trkpt lat="48.67191" lon="7.29415">
        <ele>571.9</ele>
        <time>2011-07-10T08:45:59Z</time>
      </trkpt>
      <trkpt lat="48.67183" lon="7.29409">
        <ele>572</ele>
        <time>2011-07-10T08:46:01Z</time>
      </trkpt>
      <trkpt lat="48.67175" lon="7.29403">
        <ele>572.1</ele>
        <time>2011-07-10T08:46:03Z</time>
      </trkpt>
      <trkpt lat="48.67167" lon="7.29396">
        <ele>572.2</ele>
        <time>2011-07-10T08:46:05Z</time>
      </trkpt>
      <trkpt lat="48.67159" lon="7.29388">
        <ele>569.9</ele>
        <time>2011-07-10T08:46:07Z</time>
      </trkpt>
      <trkpt lat="48.67151" lon="7.2938">
        <ele>569.4</ele>
        <time>2011-07-10T08:46:09Z</time>
      </trkpt>
      <trkpt lat="48.67144" lon="7.29371">
        <ele>568.8</ele>
        <time>2011-07-10T08:46:11Z</time>
      </trkpt>
      <trkpt lat="48.67136" lon="7.29362">
        <ele>568.3</ele>
        <time>2011-07-10T08:46:13Z</time>
      </trkpt>
      <trkpt lat="48.6713" lon="7.29351">
        <ele>567.7</ele>
        <time>2011-07-10T08:46:15Z</time>
      </trkpt>
      <trkpt lat="48.67123" lon="7.29339">
        <ele>568.3</ele>
        <time>2011-07-10T08:46:17Z</time>
      </trkpt>
      <trkpt lat="48.67117" lon="7.29329">
        <ele>568.8</ele>
        <time>2011-07-10T08:46:19Z</time>
      </trkpt>
      <trkpt lat="48.67112" lon="7.29318">
        <ele>569.4</ele>
        <time>2011-07-10T08:46:21Z</time>
      </trkpt>
      <trkpt lat="48.67107" lon="7.29307">
        <ele>568.1</ele>
        <time>2011-07-10T08:46:23Z</time>
      </trkpt>
      <trkpt lat="48.67102" lon="7.29296">
        <ele>566.8</ele>
        <time>2011-07-10T08:46:25Z</time>
      </trkpt>
      <trkpt lat="48.67097" lon="7.29285">
        <ele>565.5</ele>
        <time>2011-07-10T08:46:27Z</time>
      </trkpt>
      <trkpt lat="48.67092" lon="7.29274">
        <ele>566.9</ele>
        <time>2011-07-10T08:46:29Z</time>
      </trkpt>
      <trkpt lat="48.67088" lon="7.2926">
        <ele>568.3</ele>
        <time>2011-07-10T08:46:31Z</time>
      </trkpt>
      <trkpt lat="48.67083" lon="7.29246">
        <ele>569.6</ele>
        <time>2011-07-10T08:46:33Z</time>
      </trkpt>
      <trkpt lat="48.67079" lon="7.29231">
        <ele>571</ele>
        <time>2011-07-10T08:46:35Z</time>
      </trkpt>
      <trkpt lat="48.67073" lon="7.29215">
        <ele>571.5</ele>
        <time>2011-07-10T08:46:38Z</time>
      </trkpt>
      <trkpt lat="48.67065" lon="7.29198">
        <ele>571</ele>
        <time>2011-07-10T08:46:41Z</time>
      </trkpt>
      <trkpt lat="48.67062" lon="7.29176">
        <ele>570.5</ele>
        <time>2011-07-10T08:46:44Z</time>
      </trkpt>
      <trkpt lat="48.6706" lon="7.29164">
        <ele>569.9</ele>
        <time>2011-07-10T08:46:46Z</time>
      </trkpt>
      <trkpt lat="48.6706" lon="7.29146">
        <ele>569.4</ele>
        <time>2011-07-10T08:46:49Z</time>
      </trkpt>
      <trkpt lat="48.6706" lon="7.29123">
        <ele>568.8</ele>
        <time>2011-07-10T08:46:52Z</time>
      </trkpt>
      <trkpt lat="48.67056" lon="7.29109">
        <ele>567.3</ele>
        <time>2011-07-10T08:46:55Z</time>
      </trkpt>
      <trkpt lat="48.67054" lon="7.29094">
        <ele>565.5</ele>
        <time>2011-07-10T08:46:57Z</time>
      </trkpt>
      <trkpt lat="48.67058" lon="7.2908">
        <ele>563.6</ele>
        <time>2011-07-10T08:47:03Z</time>
      </trkpt>
      <trkpt lat="48.67058" lon="7.29065">
        <ele>561.8</ele>
        <time>2011-07-10T08:47:08Z</time>
      </trkpt>
      <trkpt lat="48.67061" lon="7.29053">
        <ele>560</ele>
        <time>2011-07-10T08:47:12Z</time>
      </trkpt>
      <trkpt lat="48.67064" lon="7.29041">
        <ele>559</ele>
        <time>2011-07-10T08:47:14Z</time>
      </trkpt>
      <trkpt lat="48.67062" lon="7.29028">
        <ele>558</ele>
        <time>2011-07-10T08:47:16Z</time>
      </trkpt>
      <trkpt lat="48.67064" lon="7.29013">
        <ele>555.8</ele>
        <time>2011-07-10T08:47:18Z</time>
      </trkpt>
      <trkpt lat="48.67068" lon="7.28998">
        <ele>553.6</ele>
        <time>2011-07-10T08:47:21Z</time>
      </trkpt>
      <trkpt lat="48.67067" lon="7.28985">
        <ele>551.5</ele>
        <time>2011-07-10T08:47:25Z</time>
      </trkpt>
      <trkpt lat="48.67058" lon="7.28984">
        <ele>549.3</ele>
        <time>2011-07-10T08:47:29Z</time>
      </trkpt>
      <trkpt lat="48.67049" lon="7.28988">
        <ele>548.1</ele>
        <time>2011-07-10T08:47:32Z</time>
      </trkpt>
      <trkpt lat="48.67035" lon="7.28987">
        <ele>546.9</ele>
        <time>2011-07-10T08:47:35Z</time>
      </trkpt>
      <trkpt lat="48.67026" lon="7.28984">
        <ele>545.1</ele>
        <time>2011-07-10T08:47:38Z</time>
      </trkpt>
      <trkpt lat="48.67018" lon="7.28978">
        <ele>543.3</ele>
        <time>2011-07-10T08:47:42Z</time>
      </trkpt>
      <trkpt lat="48.67009" lon="7.28971">
        <ele>541.5</ele>
        <time>2011-07-10T08:47:47Z</time>
      </trkpt>
      <trkpt lat="48.67" lon="7.28969">
        <ele>539.6</ele>
        <time>2011-07-10T08:47:50Z</time>
      </trkpt>
      <trkpt lat="48.66992" lon="7.28968">
        <ele>537</ele>
        <time>2011-07-10T08:47:53Z</time>
      </trkpt>
      <trkpt lat="48.66983" lon="7.28958">
        <ele>535.5</ele>
        <time>2011-07-10T08:47:58Z</time>
      </trkpt>
      <trkpt lat="48.66977" lon="7.2895">
        <ele>534.1</ele>
        <time>2011-07-10T08:48:02Z</time>
      </trkpt>
      <trkpt lat="48.66972" lon="7.28936">
        <ele>532.6</ele>
        <time>2011-07-10T08:48:07Z</time>
      </trkpt>
      <trkpt lat="48.66965" lon="7.28927">
        <ele>531.2</ele>
        <time>2011-07-10T08:48:10Z</time>
      </trkpt>
      <trkpt lat="48.66953" lon="7.28916">
        <ele>529.5</ele>
        <time>2011-07-10T08:48:13Z</time>
      </trkpt>
      <trkpt lat="48.66944" lon="7.28906">
        <ele>527.7</ele>
        <time>2011-07-10T08:48:15Z</time>
      </trkpt>
      <trkpt lat="48.66935" lon="7.28897">
        <ele>526.6</ele>
        <time>2011-07-10T08:48:18Z</time>
      </trkpt>
      <trkpt lat="48.66928" lon="7.2889">
        <ele>525.5</ele>
        <time>2011-07-10T08:48:20Z</time>
      </trkpt>
      <trkpt lat="48.6692" lon="7.28885">
        <ele>524.5</ele>
        <time>2011-07-10T08:48:23Z</time>
      </trkpt>
      <trkpt lat="48.66915" lon="7.28873">
        <ele>523.4</ele>
        <time>2011-07-10T08:48:38Z</time>
      </trkpt>
      <trkpt lat="48.66907" lon="7.28868">
        <ele>523.5</ele>
        <time>2011-07-10T08:48:40Z</time>
      </trkpt>
      <trkpt lat="48.669" lon="7.28862">
        <ele>523.5</ele>
        <time>2011-07-10T08:48:42Z</time>
      </trkpt>
      <trkpt lat="48.66895" lon="7.28851">
        <ele>524.1</ele>
        <time>2011-07-10T08:48:45Z</time>
      </trkpt>
      <trkpt lat="48.6689" lon="7.28841">
        <ele>524.6</ele>
        <time>2011-07-10T08:48:48Z</time>
      </trkpt>
      <trkpt lat="48.66884" lon="7.28826">
        <ele>525.2</ele>
        <time>2011-07-10T08:48:51Z</time>
      </trkpt>
      <trkpt lat="48.6688" lon="7.28816">
        <ele>526</ele>
        <time>2011-07-10T08:48:54Z</time>
      </trkpt>
      <trkpt lat="48.66878" lon="7.28802">
        <ele>526.8</ele>
        <time>2011-07-10T08:48:58Z</time>
      </trkpt>
      <trkpt lat="48.66874" lon="7.28789">
        <ele>527.6</ele>
        <time>2011-07-10T08:49:03Z</time>
      </trkpt>
      <trkpt lat="48.66866" lon="7.2878">
        <ele>528.5</ele>
        <time>2011-07-10T08:49:07Z</time>
      </trkpt>
      <trkpt lat="48.6686" lon="7.28769">
        <ele>529.3</ele>
        <time>2011-07-10T08:49:12Z</time>
      </trkpt>
      <trkpt lat="48.66854" lon="7.2876">
        <ele>530.1</ele>
        <time>2011-07-10T08:49:15Z</time>
      </trkpt>
      <trkpt lat="48.66847" lon="7.2875">
        <ele>530.5</ele>
        <time>2011-07-10T08:49:19Z</time>
      </trkpt>
      <trkpt lat="48.66841" lon="7.28741">
        <ele>531</ele>
        <time>2011-07-10T08:49:22Z</time>
      </trkpt>
      <trkpt lat="48.6684" lon="7.28728">
        <ele>531</ele>
        <time>2011-07-10T08:49:25Z</time>
      </trkpt>
      <trkpt lat="48.66839" lon="7.28715">
        <ele>531</ele>
        <time>2011-07-10T08:49:29Z</time>
      </trkpt>
      <trkpt lat="48.66836" lon="7.28704">
        <ele>530.9</ele>
        <time>2011-07-10T08:49:32Z</time>
      </trkpt>
      <trkpt lat="48.66831" lon="7.2869">
        <ele>530.8</ele>
        <time>2011-07-10T08:49:36Z</time>
      </trkpt>
      <trkpt lat="48.66828" lon="7.28678">
        <ele>530.7</ele>
        <time>2011-07-10T08:49:41Z</time>
      </trkpt>
      <trkpt lat="48.66829" lon="7.28664">
        <ele>530.6</ele>
        <time>2011-07-10T08:49:45Z</time>
      </trkpt>
      <trkpt lat="48.66825" lon="7.28647">
        <ele>530.5</ele>
        <time>2011-07-10T08:49:49Z</time>
      </trkpt>
      <trkpt lat="48.66822" lon="7.28636">
        <ele>530.5</ele>
        <time>2011-07-10T08:49:51Z</time>
      </trkpt>
      <trkpt lat="48.66821" lon="7.28622">
        <ele>530.4</ele>
        <time>2011-07-10T08:49:54Z</time>
      </trkpt>
      <trkpt lat="48.66817" lon="7.28607">
        <ele>530.3</ele>
        <time>2011-07-10T08:49:58Z</time>
      </trkpt>
      <trkpt lat="48.6681" lon="7.28594">
        <ele>530.2</ele>
        <time>2011-07-10T08:50:01Z</time>
      </trkpt>
      <trkpt lat="48.6681" lon="7.2858">
        <ele>531</ele>
        <time>2011-07-10T08:50:05Z</time>
      </trkpt>
      <trkpt lat="48.66808" lon="7.28565">
        <ele>531.8</ele>
        <time>2011-07-10T08:50:09Z</time>
      </trkpt>
      <trkpt lat="48.66805" lon="7.28552">
        <ele>532.7</ele>
        <time>2011-07-10T08:50:14Z</time>
      </trkpt>
      <trkpt lat="48.66804" lon="7.28539">
        <ele>533.6</ele>
        <time>2011-07-10T08:50:17Z</time>
      </trkpt>
      <trkpt lat="48.668" lon="7.28529">
        <ele>534.5</ele>
        <time>2011-07-10T08:50:21Z</time>
      </trkpt>
      <trkpt lat="48.66795" lon="7.28516">
        <ele>535.5</ele>
        <time>2011-07-10T08:50:25Z</time>
      </trkpt>
      <trkpt lat="48.66791" lon="7.28504">
        <ele>536.1</ele>
        <time>2011-07-10T08:50:28Z</time>
      </trkpt>
      <trkpt lat="48.66785" lon="7.28492">
        <ele>536.7</ele>
        <time>2011-07-10T08:50:31Z</time>
      </trkpt>
      <trkpt lat="48.66778" lon="7.28483">
        <ele>537.4</ele>
        <time>2011-07-10T08:50:34Z</time>
      </trkpt>
      <trkpt lat="48.66772" lon="7.28469">
        <ele>538</ele>
        <time>2011-07-10T08:50:38Z</time>
      </trkpt>
      <trkpt lat="48.66764" lon="7.28462">
        <ele>538.6</ele>
        <time>2011-07-10T08:50:40Z</time>
      </trkpt>
      <trkpt lat="48.66758" lon="7.2845">
        <ele>538.4</ele>
        <time>2011-07-10T08:50:43Z</time>
      </trkpt>
      <trkpt lat="48.66748" lon="7.28439">
        <ele>538.8</ele>
        <time>2011-07-10T08:50:46Z</time>
      </trkpt>
      <trkpt lat="48.66743" lon="7.28428">
        <ele>539.3</ele>
        <time>2011-07-10T08:50:49Z</time>
      </trkpt>
      <trkpt lat="48.66733" lon="7.28418">
        <ele>539.1</ele>
        <time>2011-07-10T08:50:52Z</time>
      </trkpt>
      <trkpt lat="48.66724" lon="7.2841">
        <ele>538.9</ele>
        <time>2011-07-10T08:50:54Z</time>
      </trkpt>
      <trkpt lat="48.66716" lon="7.28402">
        <ele>538.7</ele>
        <time>2011-07-10T08:50:57Z</time>
      </trkpt>
      <trkpt lat="48.66705" lon="7.28388">
        <ele>538.8</ele>
        <time>2011-07-10T08:51:00Z</time>
      </trkpt>
      <trkpt lat="48.66697" lon="7.28379">
        <ele>538.9</ele>
        <time>2011-07-10T08:51:02Z</time>
      </trkpt>
      <trkpt lat="48.66689" lon="7.28372">
        <ele>539</ele>
        <time>2011-07-10T08:51:04Z</time>
      </trkpt>
      <trkpt lat="48.66679" lon="7.28365">
        <ele>539.1</ele>
        <time>2011-07-10T08:51:07Z</time>
      </trkpt>
      <trkpt lat="48.6667" lon="7.28359">
        <ele>539.2</ele>
        <time>2011-07-10T08:51:09Z</time>
      </trkpt>
      <trkpt lat="48.66662" lon="7.28352">
        <ele>539.7</ele>
        <time>2011-07-10T08:51:11Z</time>
      </trkpt>
      <trkpt lat="48.66653" lon="7.28345">
        <ele>539.5</ele>
        <time>2011-07-10T08:51:13Z</time>
      </trkpt>
      <trkpt lat="48.66645" lon="7.28339">
        <ele>539.4</ele>
        <time>2011-07-10T08:51:15Z</time>
      </trkpt>
      <trkpt lat="48.66637" lon="7.28331">
        <ele>538.7</ele>
        <time>2011-07-10T08:51:17Z</time>
      </trkpt>
      <trkpt lat="48.66628" lon="7.28326">
        <ele>538.1</ele>
        <time>2011-07-10T08:51:19Z</time>
      </trkpt>
      <trkpt lat="48.66621" lon="7.28318">
        <ele>537.5</ele>
        <time>2011-07-10T08:51:21Z</time>
      </trkpt>
      <trkpt lat="48.66613" lon="7.28308">
        <ele>536.8</ele>
        <time>2011-07-10T08:51:23Z</time>
      </trkpt>
      <trkpt lat="48.66605" lon="7.28298">
        <ele>536.2</ele>
        <time>2011-07-10T08:51:25Z</time>
      </trkpt>
      <trkpt lat="48.66598" lon="7.28288">
        <ele>535.5</ele>
        <time>2011-07-10T08:51:27Z</time>
      </trkpt>
      <trkpt lat="48.66589" lon="7.28278">
        <ele>536</ele>
        <time>2011-07-10T08:51:29Z</time>
      </trkpt>
      <trkpt lat="48.66582" lon="7.28271">
        <ele>536.5</ele>
        <time>2011-07-10T08:51:31Z</time>
      </trkpt>
      <trkpt lat="48.66574" lon="7.28268">
        <ele>536.5</ele>
        <time>2011-07-10T08:51:33Z</time>
      </trkpt>
      <trkpt lat="48.66566" lon="7.28264">
        <ele>535.9</ele>
        <time>2011-07-10T08:51:35Z</time>
      </trkpt>
      <trkpt lat="48.66553" lon="7.28255">
        <ele>535.4</ele>
        <time>2011-07-10T08:51:37Z</time>
      </trkpt>
      <trkpt lat="48.66543" lon="7.28244">
        <ele>535.9</ele>
        <time>2011-07-10T08:51:39Z</time>
      </trkpt>
      <trkpt lat="48.66534" lon="7.28234">
        <ele>536.5</ele>
        <time>2011-07-10T08:51:41Z</time>
      </trkpt>
      <trkpt lat="48.66527" lon="7.28222">
        <ele>537</ele>
        <time>2011-07-10T08:51:43Z</time>
      </trkpt>
      <trkpt lat="48.66518" lon="7.28211">
        <ele>537.5</ele>
        <time>2011-07-10T08:51:45Z</time>
      </trkpt>
      <trkpt lat="48.66511" lon="7.28199">
        <ele>537.5</ele>
        <time>2011-07-10T08:51:47Z</time>
      </trkpt>
      <trkpt lat="48.66506" lon="7.28185">
        <ele>537.5</ele>
        <time>2011-07-10T08:51:49Z</time>
      </trkpt>
      <trkpt lat="48.66499" lon="7.28173">
        <ele>536.5</ele>
        <time>2011-07-10T08:51:51Z</time>
      </trkpt>
      <trkpt lat="48.66492" lon="7.28155">
        <ele>535.4</ele>
        <time>2011-07-10T08:51:53Z</time>
      </trkpt>
      <trkpt lat="48.66485" lon="7.28138">
        <ele>534.3</ele>
        <time>2011-07-10T08:51:55Z</time>
      </trkpt>
      <trkpt lat="48.66479" lon="7.28123">
        <ele>535.3</ele>
        <time>2011-07-10T08:51:57Z</time>
      </trkpt>
      <trkpt lat="48.66475" lon="7.28109">
        <ele>535.8</ele>
        <time>2011-07-10T08:51:59Z</time>
      </trkpt>
      <trkpt lat="48.66469" lon="7.28095">
        <ele>536.4</ele>
        <time>2011-07-10T08:52:01Z</time>
      </trkpt>
      <trkpt lat="48.66466" lon="7.2808">
        <ele>536.9</ele>
        <time>2011-07-10T08:52:03Z</time>
      </trkpt>
      <trkpt lat="48.66463" lon="7.28064">
        <ele>537.5</ele>
        <time>2011-07-10T08:52:05Z</time>
      </trkpt>
      <trkpt lat="48.66457" lon="7.28049">
        <ele>538</ele>
        <time>2011-07-10T08:52:07Z</time>
      </trkpt>
      <trkpt lat="48.66449" lon="7.28035">
        <ele>539.1</ele>
        <time>2011-07-10T08:52:10Z</time>
      </trkpt>
      <trkpt lat="48.66444" lon="7.28019">
        <ele>540.2</ele>
        <time>2011-07-10T08:52:13Z</time>
      </trkpt>
      <trkpt lat="48.66437" lon="7.2801">
        <ele>540.8</ele>
        <time>2011-07-10T08:52:15Z</time>
      </trkpt>
      <trkpt lat="48.66432" lon="7.27999">
        <ele>541.5</ele>
        <time>2011-07-10T08:52:17Z</time>
      </trkpt>
      <trkpt lat="48.66427" lon="7.27988">
        <ele>542.1</ele>
        <time>2011-07-10T08:52:19Z</time>
      </trkpt>
      <trkpt lat="48.66419" lon="7.27981">
        <ele>541.2</ele>
        <time>2011-07-10T08:52:21Z</time>
      </trkpt>
      <trkpt lat="48.66412" lon="7.27974">
        <ele>541.1</ele>
        <time>2011-07-10T08:52:23Z</time>
      </trkpt>
      <trkpt lat="48.66406" lon="7.27966">
        <ele>541</ele>
        <time>2011-07-10T08:52:25Z</time>
      </trkpt>
      <trkpt lat="48.66399" lon="7.27957">
        <ele>540.9</ele>
        <time>2011-07-10T08:52:28Z</time>
      </trkpt>
      <trkpt lat="48.66392" lon="7.27949">
        <ele>540.8</ele>
        <time>2011-07-10T08:52:30Z</time>
      </trkpt>
      <trkpt lat="48.66387" lon="7.2794">
        <ele>540.7</ele>
        <time>2011-07-10T08:52:32Z</time>
      </trkpt>
      <trkpt lat="48.66379" lon="7.27926">
        <ele>540.6</ele>
        <time>2011-07-10T08:52:35Z</time>
      </trkpt>
      <trkpt lat="48.66368" lon="7.27922">
        <ele>540.5</ele>
        <time>2011-07-10T08:52:39Z</time>
      </trkpt>
      <trkpt lat="48.66358" lon="7.27924">
        <ele>541.8</ele>
        <time>2011-07-10T08:52:44Z</time>
      </trkpt>
      <trkpt lat="48.66354" lon="7.27935">
        <ele>543.1</ele>
        <time>2011-07-10T08:52:50Z</time>
      </trkpt>
      <trkpt lat="48.66346" lon="7.27942">
        <ele>544.4</ele>
        <time>2011-07-10T08:52:56Z</time>
      </trkpt>
      <trkpt lat="48.66343" lon="7.27956">
        <ele>545.6</ele>
        <time>2011-07-10T08:53:02Z</time>
      </trkpt>
      <trkpt lat="48.66336" lon="7.27965">
        <ele>546.5</ele>
        <time>2011-07-10T08:53:07Z</time>
      </trkpt>
      <trkpt lat="48.6633" lon="7.27974">
        <ele>547.5</ele>
        <time>2011-07-10T08:53:16Z</time>
      </trkpt>
      <trkpt lat="48.66323" lon="7.27986">
        <ele>548.1</ele>
        <time>2011-07-10T08:53:22Z</time>
      </trkpt>
      <trkpt lat="48.66318" lon="7.27997">
        <ele>548.7</ele>
        <time>2011-07-10T08:53:29Z</time>
      </trkpt>
      <trkpt lat="48.66311" lon="7.28008">
        <ele>549.4</ele>
        <time>2011-07-10T08:53:36Z</time>
      </trkpt>
      <trkpt lat="48.66305" lon="7.28016">
        <ele>551</ele>
        <time>2011-07-10T08:53:42Z</time>
      </trkpt>
      <trkpt lat="48.66299" lon="7.28024">
        <ele>552.6</ele>
        <time>2011-07-10T08:53:48Z</time>
      </trkpt>
      <trkpt lat="48.66292" lon="7.28034">
        <ele>553.4</ele>
        <time>2011-07-10T08:53:55Z</time>
      </trkpt>
      <trkpt lat="48.66284" lon="7.28041">
        <ele>554.1</ele>
        <time>2011-07-10T08:54:00Z</time>
      </trkpt>
      <trkpt lat="48.66277" lon="7.28048">
        <ele>554.8</ele>
        <time>2011-07-10T08:54:06Z</time>
      </trkpt>
      <trkpt lat="48.6627" lon="7.28055">
        <ele>555.5</ele>
        <time>2011-07-10T08:54:11Z</time>
      </trkpt>
      <trkpt lat="48.66261" lon="7.28059">
        <ele>556.3</ele>
        <time>2011-07-10T08:54:16Z</time>
      </trkpt>
      <trkpt lat="48.66254" lon="7.28066">
        <ele>557</ele>
        <time>2011-07-10T08:54:22Z</time>
      </trkpt>
      <trkpt lat="48.66247" lon="7.28075">
        <ele>557.8</ele>
        <time>2011-07-10T08:54:26Z</time>
      </trkpt>
      <trkpt lat="48.6624" lon="7.28082">
        <ele>558.6</ele>
        <time>2011-07-10T08:54:33Z</time>
      </trkpt>
      <trkpt lat="48.66233" lon="7.28092">
        <ele>559.5</ele>
        <time>2011-07-10T08:54:38Z</time>
      </trkpt>
      <trkpt lat="48.66226" lon="7.28097">
        <ele>559.3</ele>
        <time>2011-07-10T08:54:42Z</time>
      </trkpt>
      <trkpt lat="48.66215" lon="7.28102">
        <ele>559.1</ele>
        <time>2011-07-10T08:54:45Z</time>
      </trkpt>
      <trkpt lat="48.66205" lon="7.28104">
        <ele>558.9</ele>
        <time>2011-07-10T08:54:48Z</time>
      </trkpt>
      <trkpt lat="48.66196" lon="7.28105">
        <ele>558.7</ele>
        <time>2011-07-10T08:54:51Z</time>
      </trkpt>
      <trkpt lat="48.66188" lon="7.28106">
        <ele>558.5</ele>
        <time>2011-07-10T08:54:54Z</time>
      </trkpt>
      <trkpt lat="48.66176" lon="7.28107">
        <ele>558.4</ele>
        <time>2011-07-10T08:54:57Z</time>
      </trkpt>
      <trkpt lat="48.66164" lon="7.28107">
        <ele>558.4</ele>
        <time>2011-07-10T08:55:00Z</time>
      </trkpt>
      <trkpt lat="48.66156" lon="7.28111">
        <ele>558.4</ele>
        <time>2011-07-10T08:55:03Z</time>
      </trkpt>
      <trkpt lat="48.66147" lon="7.28114">
        <ele>559.5</ele>
        <time>2011-07-10T08:55:05Z</time>
      </trkpt>
      <trkpt lat="48.66137" lon="7.28117">
        <ele>560.5</ele>
        <time>2011-07-10T08:55:08Z</time>
      </trkpt>
      <trkpt lat="48.66127" lon="7.28122">
        <ele>561.6</ele>
        <time>2011-07-10T08:55:11Z</time>
      </trkpt>
      <trkpt lat="48.66117" lon="7.28129">
        <ele>562.7</ele>
        <time>2011-07-10T08:55:16Z</time>
      </trkpt>
      <trkpt lat="48.66107" lon="7.28131">
        <ele>562.9</ele>
        <time>2011-07-10T08:55:19Z</time>
      </trkpt>
      <trkpt lat="48.66094" lon="7.28132">
        <ele>563.1</ele>
        <time>2011-07-10T08:55:23Z</time>
      </trkpt>
      <trkpt lat="48.66083" lon="7.28133">
        <ele>564.2</ele>
        <time>2011-07-10T08:55:27Z</time>
      </trkpt>
      <trkpt lat="48.66074" lon="7.28134">
        <ele>565.3</ele>
        <time>2011-07-10T08:55:31Z</time>
      </trkpt>
      <trkpt lat="48.66065" lon="7.28134">
        <ele>566.4</ele>
        <time>2011-07-10T08:55:35Z</time>
      </trkpt>
      <trkpt lat="48.66056" lon="7.28129">
        <ele>567.3</ele>
        <time>2011-07-10T08:55:39Z</time>
      </trkpt>
      <trkpt lat="48.66048" lon="7.28127">
        <ele>568.2</ele>
        <time>2011-07-10T08:55:42Z</time>
      </trkpt>
      <trkpt lat="48.6604" lon="7.28122">
        <ele>568.2</ele>
        <time>2011-07-10T08:55:45Z</time>
      </trkpt>
      <trkpt lat="48.66033" lon="7.28115">
        <ele>568.2</ele>
        <time>2011-07-10T08:55:48Z</time>
      </trkpt>
      <trkpt lat="48.66022" lon="7.28106">
        <ele>568.2</ele>
        <time>2011-07-10T08:55:52Z</time>
      </trkpt>
      <trkpt lat="48.6601" lon="7.281">
        <ele>568.2</ele>
        <time>2011-07-10T08:55:55Z</time>
      </trkpt>
      <trkpt lat="48.66002" lon="7.28093">
        <ele>569.6</ele>
        <time>2011-07-10T08:55:58Z</time>
      </trkpt>
      <trkpt lat="48.65993" lon="7.28084">
        <ele>571.1</ele>
        <time>2011-07-10T08:56:02Z</time>
      </trkpt>
      <trkpt lat="48.65985" lon="7.28078">
        <ele>571.6</ele>
        <time>2011-07-10T08:56:05Z</time>
      </trkpt>
      <trkpt lat="48.65978" lon="7.28073">
        <ele>572.2</ele>
        <time>2011-07-10T08:56:08Z</time>
      </trkpt>
      <trkpt lat="48.6597" lon="7.28066">
        <ele>572.7</ele>
        <time>2011-07-10T08:56:11Z</time>
      </trkpt>
      <trkpt lat="48.65962" lon="7.28063">
        <ele>573.3</ele>
        <time>2011-07-10T08:56:13Z</time>
      </trkpt>
      <trkpt lat="48.65954" lon="7.28059">
        <ele>573.8</ele>
        <time>2011-07-10T08:56:16Z</time>
      </trkpt>
      <trkpt lat="48.65945" lon="7.28053">
        <ele>574.4</ele>
        <time>2011-07-10T08:56:19Z</time>
      </trkpt>
      <trkpt lat="48.65936" lon="7.28052">
        <ele>574.9</ele>
        <time>2011-07-10T08:56:22Z</time>
      </trkpt>
      <trkpt lat="48.65927" lon="7.28054">
        <ele>575.9</ele>
        <time>2011-07-10T08:56:25Z</time>
      </trkpt>
      <trkpt lat="48.65913" lon="7.28053">
        <ele>576.9</ele>
        <time>2011-07-10T08:56:28Z</time>
      </trkpt>
      <trkpt lat="48.65904" lon="7.28052">
        <ele>577.4</ele>
        <time>2011-07-10T08:56:30Z</time>
      </trkpt>
      <trkpt lat="48.65894" lon="7.28054">
        <ele>577.8</ele>
        <time>2011-07-10T08:56:33Z</time>
      </trkpt>
      <trkpt lat="48.65884" lon="7.28056">
        <ele>578.3</ele>
        <time>2011-07-10T08:56:35Z</time>
      </trkpt>
      <trkpt lat="48.65875" lon="7.28057">
        <ele>578.7</ele>
        <time>2011-07-10T08:56:38Z</time>
      </trkpt>
      <trkpt lat="48.65865" lon="7.28057">
        <ele>579.2</ele>
        <time>2011-07-10T08:56:41Z</time>
      </trkpt>
      <trkpt lat="48.65856" lon="7.28059">
        <ele>579.6</ele>
        <time>2011-07-10T08:56:44Z</time>
      </trkpt>
      <trkpt lat="48.65847" lon="7.28063">
        <ele>579.7</ele>
        <time>2011-07-10T08:56:48Z</time>
      </trkpt>
      <trkpt lat="48.65837" lon="7.28064">
        <ele>579.8</ele>
        <time>2011-07-10T08:56:51Z</time>
      </trkpt>
      <trkpt lat="48.65826" lon="7.28065">
        <ele>579.9</ele>
        <time>2011-07-10T08:56:54Z</time>
      </trkpt>
      <trkpt lat="48.65814" lon="7.28064">
        <ele>579.5</ele>
        <time>2011-07-10T08:56:57Z</time>
      </trkpt>
      <trkpt lat="48.65802" lon="7.28066">
        <ele>579.2</ele>
        <time>2011-07-10T08:57:00Z</time>
      </trkpt>
      <trkpt lat="48.65793" lon="7.2807">
        <ele>578.8</ele>
        <time>2011-07-10T08:57:03Z</time>
      </trkpt>
      <trkpt lat="48.65785" lon="7.28075">
        <ele>578.5</ele>
        <time>2011-07-10T08:57:06Z</time>
      </trkpt>
      <trkpt lat="48.65776" lon="7.28082">
        <ele>578.1</ele>
        <time>2011-07-10T08:57:10Z</time>
      </trkpt>
      <trkpt lat="48.65765" lon="7.28086">
        <ele>577.7</ele>
        <time>2011-07-10T08:57:14Z</time>
      </trkpt>
      <trkpt lat="48.65756" lon="7.28093">
        <ele>577.4</ele>
        <time>2011-07-10T08:57:18Z</time>
      </trkpt>
      <trkpt lat="48.65748" lon="7.281">
        <ele>577.5</ele>
        <time>2011-07-10T08:57:21Z</time>
      </trkpt>
      <trkpt lat="48.6574" lon="7.28109">
        <ele>577.9</ele>
        <time>2011-07-10T08:57:24Z</time>
      </trkpt>
      <trkpt lat="48.65732" lon="7.28115">
        <ele>578.4</ele>
        <time>2011-07-10T08:57:27Z</time>
      </trkpt>
      <trkpt lat="48.65723" lon="7.28123">
        <ele>578.8</ele>
        <time>2011-07-10T08:57:30Z</time>
      </trkpt>
      <trkpt lat="48.65716" lon="7.2813">
        <ele>579.3</ele>
        <time>2011-07-10T08:57:33Z</time>
      </trkpt>
      <trkpt lat="48.65709" lon="7.28138">
        <ele>579.7</ele>
        <time>2011-07-10T08:57:35Z</time>
      </trkpt>
      <trkpt lat="48.65702" lon="7.28147">
        <ele>580.2</ele>
        <time>2011-07-10T08:57:38Z</time>
      </trkpt>
      <trkpt lat="48.65696" lon="7.28157">
        <ele>580.6</ele>
        <time>2011-07-10T08:57:41Z</time>
      </trkpt>
      <trkpt lat="48.65689" lon="7.28168">
        <ele>581.1</ele>
        <time>2011-07-10T08:57:45Z</time>
      </trkpt>
      <trkpt lat="48.65681" lon="7.28175">
        <ele>581.5</ele>
        <time>2011-07-10T08:57:48Z</time>
      </trkpt>
      <trkpt lat="48.65673" lon="7.28182">
        <ele>582</ele>
        <time>2011-07-10T08:57:51Z</time>
      </trkpt>
      <trkpt lat="48.65663" lon="7.28188">
        <ele>581.3</ele>
        <time>2011-07-10T08:57:55Z</time>
      </trkpt>
      <trkpt lat="48.65655" lon="7.28194">
        <ele>582.1</ele>
        <time>2011-07-10T08:57:58Z</time>
      </trkpt>
      <trkpt lat="48.65648" lon="7.282">
        <ele>582.9</ele>
        <time>2011-07-10T08:58:00Z</time>
      </trkpt>
      <trkpt lat="48.6564" lon="7.28205">
        <ele>583.7</ele>
        <time>2011-07-10T08:58:03Z</time>
      </trkpt>
      <trkpt lat="48.65632" lon="7.2821">
        <ele>584.5</ele>
        <time>2011-07-10T08:58:07Z</time>
      </trkpt>
      <trkpt lat="48.65624" lon="7.28212">
        <ele>585.4</ele>
        <time>2011-07-10T08:58:10Z</time>
      </trkpt>
      <trkpt lat="48.65611" lon="7.28215">
        <ele>586.2</ele>
        <time>2011-07-10T08:58:13Z</time>
      </trkpt>
      <trkpt lat="48.65602" lon="7.28218">
        <ele>587</ele>
        <time>2011-07-10T08:58:16Z</time>
      </trkpt>
      <trkpt lat="48.65594" lon="7.2822">
        <ele>587.8</ele>
        <time>2011-07-10T08:58:19Z</time>
      </trkpt>
      <trkpt lat="48.65586" lon="7.28222">
        <ele>588.7</ele>
        <time>2011-07-10T08:58:22Z</time>
      </trkpt>
      <trkpt lat="48.65578" lon="7.28227">
        <ele>589.6</ele>
        <time>2011-07-10T08:58:26Z</time>
      </trkpt>
      <trkpt lat="48.65568" lon="7.28232">
        <ele>591.3</ele>
        <time>2011-07-10T08:58:29Z</time>
      </trkpt>
      <trkpt lat="48.65558" lon="7.28233">
        <ele>591.4</ele>
        <time>2011-07-10T08:58:32Z</time>
      </trkpt>
      <trkpt lat="48.65546" lon="7.28235">
        <ele>591.5</ele>
        <time>2011-07-10T08:58:35Z</time>
      </trkpt>
      <trkpt lat="48.65536" lon="7.28235">
        <ele>591.5</ele>
        <time>2011-07-10T08:58:38Z</time>
      </trkpt>
      <trkpt lat="48.65527" lon="7.28236">
        <ele>591.6</ele>
        <time>2011-07-10T08:58:41Z</time>
      </trkpt>
      <trkpt lat="48.65516" lon="7.28234">
        <ele>591.7</ele>
        <time>2011-07-10T08:58:44Z</time>
      </trkpt>
      <trkpt lat="48.65508" lon="7.28238">
        <ele>591.8</ele>
        <time>2011-07-10T08:58:46Z</time>
      </trkpt>
      <trkpt lat="48.65497" lon="7.28242">
        <ele>592.4</ele>
        <time>2011-07-10T08:58:49Z</time>
      </trkpt>
      <trkpt lat="48.65489" lon="7.28244">
        <ele>592.9</ele>
        <time>2011-07-10T08:58:53Z</time>
      </trkpt>
      <trkpt lat="48.65479" lon="7.2824">
        <ele>593.4</ele>
        <time>2011-07-10T08:58:58Z</time>
      </trkpt>
      <trkpt lat="48.65471" lon="7.28244">
        <ele>593.8</ele>
        <time>2011-07-10T08:59:05Z</time>
      </trkpt>
      <trkpt lat="48.65463" lon="7.28246">
        <ele>594.3</ele>
        <time>2011-07-10T08:59:09Z</time>
      </trkpt>
      <trkpt lat="48.65455" lon="7.28248">
        <ele>594.7</ele>
        <time>2011-07-10T08:59:16Z</time>
      </trkpt>
      <trkpt lat="48.65446" lon="7.2825">
        <ele>595.2</ele>
        <time>2011-07-10T08:59:24Z</time>
      </trkpt>
      <trkpt lat="48.65436" lon="7.28249">
        <ele>595.6</ele>
        <time>2011-07-10T08:59:28Z</time>
      </trkpt>
      <trkpt lat="48.65428" lon="7.28251">
        <ele>596.1</ele>
        <time>2011-07-10T08:59:33Z</time>
      </trkpt>
      <trkpt lat="48.65419" lon="7.28254">
        <ele>596.5</ele>
        <time>2011-07-10T08:59:38Z</time>
      </trkpt>
      <trkpt lat="48.6541" lon="7.28259">
        <ele>596.8</ele>
        <time>2011-07-10T08:59:45Z</time>
      </trkpt>
      <trkpt lat="48.65402" lon="7.28262">
        <ele>596.7</ele>
        <time>2011-07-10T08:59:50Z</time>
      </trkpt>
      <trkpt lat="48.65394" lon="7.28265">
        <ele>596.6</ele>
        <time>2011-07-10T08:59:55Z</time>
      </trkpt>
      <trkpt lat="48.65386" lon="7.28267">
        <ele>596.5</ele>
        <time>2011-07-10T09:00:01Z</time>
      </trkpt>
      <trkpt lat="48.65377" lon="7.28269">
        <ele>596.5</ele>
        <time>2011-07-10T09:00:06Z</time>
      </trkpt>
      <trkpt lat="48.65369" lon="7.28274">
        <ele>596.4</ele>
        <time>2011-07-10T09:00:11Z</time>
      </trkpt>
      <trkpt lat="48.65361" lon="7.28279">
        <ele>596.3</ele>
        <time>2011-07-10T09:00:17Z</time>
      </trkpt>
      <trkpt lat="48.65352" lon="7.28282">
        <ele>596.2</ele>
        <time>2011-07-10T09:00:23Z</time>
      </trkpt>
      <trkpt lat="48.65342" lon="7.28281">
        <ele>596.6</ele>
        <time>2011-07-10T09:00:27Z</time>
      </trkpt>
      <trkpt lat="48.65333" lon="7.28283">
        <ele>597.1</ele>
        <time>2011-07-10T09:00:30Z</time>
      </trkpt>
      <trkpt lat="48.65324" lon="7.28285">
        <ele>597.6</ele>
        <time>2011-07-10T09:00:34Z</time>
      </trkpt>
      <trkpt lat="48.65313" lon="7.28287">
        <ele>598.2</ele>
        <time>2011-07-10T09:00:38Z</time>
      </trkpt>
      <trkpt lat="48.65305" lon="7.28291">
        <ele>598.7</ele>
        <time>2011-07-10T09:00:42Z</time>
      </trkpt>
      <trkpt lat="48.65295" lon="7.28295">
        <ele>599.3</ele>
        <time>2011-07-10T09:00:46Z</time>
      </trkpt>
      <trkpt lat="48.65287" lon="7.28304">
        <ele>599.8</ele>
        <time>2011-07-10T09:00:51Z</time>
      </trkpt>
      <trkpt lat="48.65278" lon="7.28311">
        <ele>600.4</ele>
        <time>2011-07-10T09:00:56Z</time>
      </trkpt>
      <trkpt lat="48.65272" lon="7.28322">
        <ele>600.9</ele>
        <time>2011-07-10T09:01:01Z</time>
      </trkpt>
      <trkpt lat="48.65267" lon="7.28333">
        <ele>602.6</ele>
        <time>2011-07-10T09:01:07Z</time>
      </trkpt>
      <trkpt lat="48.65261" lon="7.28344">
        <ele>604.4</ele>
        <time>2011-07-10T09:01:13Z</time>
      </trkpt>
      <trkpt lat="48.65255" lon="7.28352">
        <ele>605.5</ele>
        <time>2011-07-10T09:01:19Z</time>
      </trkpt>
      <trkpt lat="48.65247" lon="7.2836">
        <ele>606.7</ele>
        <time>2011-07-10T09:01:25Z</time>
      </trkpt>
      <trkpt lat="48.6524" lon="7.28372">
        <ele>607.9</ele>
        <time>2011-07-10T09:01:30Z</time>
      </trkpt>
      <trkpt lat="48.65234" lon="7.28381">
        <ele>609.1</ele>
        <time>2011-07-10T09:01:36Z</time>
      </trkpt>
      <trkpt lat="48.65229" lon="7.28391">
        <ele>610.3</ele>
        <time>2011-07-10T09:01:43Z</time>
      </trkpt>
      <trkpt lat="48.65231" lon="7.28408">
        <ele>611.5</ele>
        <time>2011-07-10T09:01:49Z</time>
      </trkpt>
      <trkpt lat="48.65238" lon="7.28414">
        <ele>612.6</ele>
        <time>2011-07-10T09:01:54Z</time>
      </trkpt>
      <trkpt lat="48.65246" lon="7.28411">
        <ele>613.8</ele>
        <time>2011-07-10T09:01:59Z</time>
      </trkpt>
      <trkpt lat="48.65256" lon="7.2841">
        <ele>615.9</ele>
        <time>2011-07-10T09:02:03Z</time>
      </trkpt>
      <trkpt lat="48.65265" lon="7.28406">
        <ele>616.8</ele>
        <time>2011-07-10T09:02:06Z</time>
      </trkpt>
      <trkpt lat="48.65272" lon="7.28399">
        <ele>617.7</ele>
        <time>2011-07-10T09:02:09Z</time>
      </trkpt>
      <trkpt lat="48.65282" lon="7.28396">
        <ele>618.6</ele>
        <time>2011-07-10T09:02:13Z</time>
      </trkpt>
      <trkpt lat="48.65293" lon="7.28389">
        <ele>619.5</ele>
        <time>2011-07-10T09:02:18Z</time>
      </trkpt>
      <trkpt lat="48.65303" lon="7.2839">
        <ele>620.5</ele>
        <time>2011-07-10T09:02:22Z</time>
      </trkpt>
      <trkpt lat="48.65312" lon="7.28387">
        <ele>621.4</ele>
        <time>2011-07-10T09:02:26Z</time>
      </trkpt>
      <trkpt lat="48.65321" lon="7.28383">
        <ele>622.3</ele>
        <time>2011-07-10T09:02:30Z</time>
      </trkpt>
      <trkpt lat="48.65331" lon="7.28386">
        <ele>623.2</ele>
        <time>2011-07-10T09:02:35Z</time>
      </trkpt>
      <trkpt lat="48.65338" lon="7.28391">
        <ele>624.2</ele>
        <time>2011-07-10T09:02:39Z</time>
      </trkpt>
      <trkpt lat="48.65346" lon="7.28389">
        <ele>625.2</ele>
        <time>2011-07-10T09:02:42Z</time>
      </trkpt>
      <trkpt lat="48.65355" lon="7.28396">
        <ele>625.3</ele>
        <time>2011-07-10T09:02:47Z</time>
      </trkpt>
      <trkpt lat="48.65362" lon="7.28403">
        <ele>625.4</ele>
        <time>2011-07-10T09:02:52Z</time>
      </trkpt>
      <trkpt lat="48.65373" lon="7.28404">
        <ele>625.5</ele>
        <time>2011-07-10T09:02:57Z</time>
      </trkpt>
      <trkpt lat="48.65381" lon="7.28405">
        <ele>625.5</ele>
        <time>2011-07-10T09:03:01Z</time>
      </trkpt>
      <trkpt lat="48.6539" lon="7.2841">
        <ele>625.6</ele>
        <time>2011-07-10T09:03:05Z</time>
      </trkpt>
      <trkpt lat="48.65398" lon="7.28418">
        <ele>625.7</ele>
        <time>2011-07-10T09:03:09Z</time>
      </trkpt>
      <trkpt lat="48.65405" lon="7.28425">
        <ele>625.8</ele>
        <time>2011-07-10T09:03:13Z</time>
      </trkpt>
      <trkpt lat="48.65413" lon="7.28432">
        <ele>627.1</ele>
        <time>2011-07-10T09:03:18Z</time>
      </trkpt>
      <trkpt lat="48.6542" lon="7.2844">
        <ele>628.4</ele>
        <time>2011-07-10T09:03:23Z</time>
      </trkpt>
      <trkpt lat="48.65428" lon="7.28445">
        <ele>629.1</ele>
        <time>2011-07-10T09:03:28Z</time>
      </trkpt>
      <trkpt lat="48.65435" lon="7.28451">
        <ele>629.8</ele>
        <time>2011-07-10T09:03:33Z</time>
      </trkpt>
      <trkpt lat="48.65442" lon="7.28459">
        <ele>630.5</ele>
        <time>2011-07-10T09:03:39Z</time>
      </trkpt>
      <trkpt lat="48.65453" lon="7.28464">
        <ele>631.3</ele>
        <time>2011-07-10T09:03:44Z</time>
      </trkpt>
      <trkpt lat="48.65461" lon="7.28469">
        <ele>632</ele>
        <time>2011-07-10T09:03:49Z</time>
      </trkpt>
      <trkpt lat="48.65468" lon="7.28478">
        <ele>632.7</ele>
        <time>2011-07-10T09:03:54Z</time>
      </trkpt>
      <trkpt lat="48.65473" lon="7.2849">
        <ele>633.5</ele>
        <time>2011-07-10T09:04:02Z</time>
      </trkpt>
      <trkpt lat="48.65479" lon="7.28499">
        <ele>634.2</ele>
        <time>2011-07-10T09:04:08Z</time>
      </trkpt>
      <trkpt lat="48.65487" lon="7.28506">
        <ele>635.9</ele>
        <time>2011-07-10T09:04:13Z</time>
      </trkpt>
      <trkpt lat="48.65492" lon="7.28517">
        <ele>636.5</ele>
        <time>2011-07-10T09:04:20Z</time>
      </trkpt>
      <trkpt lat="48.65502" lon="7.28523">
        <ele>637</ele>
        <time>2011-07-10T09:04:27Z</time>
      </trkpt>
      <trkpt lat="48.65509" lon="7.28531">
        <ele>638</ele>
        <time>2011-07-10T09:04:33Z</time>
      </trkpt>
      <trkpt lat="48.65516" lon="7.28538">
        <ele>639</ele>
        <time>2011-07-10T09:04:39Z</time>
      </trkpt>
      <trkpt lat="48.65524" lon="7.28547">
        <ele>640</ele>
        <time>2011-07-10T09:04:44Z</time>
      </trkpt>
      <trkpt lat="48.65528" lon="7.28559">
        <ele>641</ele>
        <time>2011-07-10T09:04:48Z</time>
      </trkpt>
      <trkpt lat="48.65531" lon="7.28571">
        <ele>642.1</ele>
        <time>2011-07-10T09:04:54Z</time>
      </trkpt>
      <trkpt lat="48.65531" lon="7.28583">
        <ele>643.2</ele>
        <time>2011-07-10T09:04:58Z</time>
      </trkpt>
      <trkpt lat="48.65528" lon="7.28595">
        <ele>644.3</ele>
        <time>2011-07-10T09:05:01Z</time>
      </trkpt>
      <trkpt lat="48.6552" lon="7.28611">
        <ele>645.4</ele>
        <time>2011-07-10T09:05:04Z</time>
      </trkpt>
      <trkpt lat="48.65512" lon="7.28624">
        <ele>645.5</ele>
        <time>2011-07-10T09:05:06Z</time>
      </trkpt>
      <trkpt lat="48.65504" lon="7.28639">
        <ele>645.5</ele>
        <time>2011-07-10T09:05:08Z</time>
      </trkpt>
      <trkpt lat="48.65498" lon="7.28659">
        <ele>644.5</ele>
        <time>2011-07-10T09:05:10Z</time>
      </trkpt>
      <trkpt lat="48.65491" lon="7.28673">
        <ele>644.7</ele>
        <time>2011-07-10T09:05:12Z</time>
      </trkpt>
      <trkpt lat="48.65486" lon="7.28689">
        <ele>645</ele>
        <time>2011-07-10T09:05:14Z</time>
      </trkpt>
      <trkpt lat="48.6548" lon="7.28704">
        <ele>645.3</ele>
        <time>2011-07-10T09:05:16Z</time>
      </trkpt>
      <trkpt lat="48.65474" lon="7.28716">
        <ele>645.5</ele>
        <time>2011-07-10T09:05:18Z</time>
      </trkpt>
      <trkpt lat="48.65464" lon="7.28723">
        <ele>645.7</ele>
        <time>2011-07-10T09:05:20Z</time>
      </trkpt>
      <trkpt lat="48.65454" lon="7.28735">
        <ele>645</ele>
        <time>2011-07-10T09:05:22Z</time>
      </trkpt>
      <trkpt lat="48.65443" lon="7.28751">
        <ele>644.3</ele>
        <time>2011-07-10T09:05:24Z</time>
      </trkpt>
      <trkpt lat="48.65433" lon="7.28766">
        <ele>643.5</ele>
        <time>2011-07-10T09:05:26Z</time>
      </trkpt>
      <trkpt lat="48.65423" lon="7.28782">
        <ele>642.8</ele>
        <time>2011-07-10T09:05:28Z</time>
      </trkpt>
      <trkpt lat="48.65415" lon="7.28796">
        <ele>641.5</ele>
        <time>2011-07-10T09:05:30Z</time>
      </trkpt>
      <trkpt lat="48.65408" lon="7.28813">
        <ele>641.3</ele>
        <time>2011-07-10T09:05:32Z</time>
      </trkpt>
      <trkpt lat="48.654" lon="7.2883">
        <ele>639.7</ele>
        <time>2011-07-10T09:05:34Z</time>
      </trkpt>
      <trkpt lat="48.65394" lon="7.28848">
        <ele>638.2</ele>
        <time>2011-07-10T09:05:36Z</time>
      </trkpt>
      <trkpt lat="48.65388" lon="7.28867">
        <ele>636.6</ele>
        <time>2011-07-10T09:05:38Z</time>
      </trkpt>
      <trkpt lat="48.65384" lon="7.28887">
        <ele>635.1</ele>
        <time>2011-07-10T09:05:40Z</time>
      </trkpt>
      <trkpt lat="48.65383" lon="7.28905">
        <ele>635.2</ele>
        <time>2011-07-10T09:05:42Z</time>
      </trkpt>
      <trkpt lat="48.65384" lon="7.28917">
        <ele>636.2</ele>
        <time>2011-07-10T09:05:43Z</time>
      </trkpt>
      <trkpt lat="48.65385" lon="7.28934">
        <ele>637.2</ele>
        <time>2011-07-10T09:05:45Z</time>
      </trkpt>
      <trkpt lat="48.65383" lon="7.2895">
        <ele>638.2</ele>
        <time>2011-07-10T09:05:47Z</time>
      </trkpt>
      <trkpt lat="48.65382" lon="7.28963">
        <ele>639.1</ele>
        <time>2011-07-10T09:05:49Z</time>
      </trkpt>
      <trkpt lat="48.6538" lon="7.28977">
        <ele>640.6</ele>
        <time>2011-07-10T09:05:51Z</time>
      </trkpt>
      <trkpt lat="48.65375" lon="7.28992">
        <ele>642.2</ele>
        <time>2011-07-10T09:05:53Z</time>
      </trkpt>
      <trkpt lat="48.65371" lon="7.2901">
        <ele>643.7</ele>
        <time>2011-07-10T09:05:55Z</time>
      </trkpt>
      <trkpt lat="48.65367" lon="7.29031">
        <ele>645.3</ele>
        <time>2011-07-10T09:05:57Z</time>
      </trkpt>
      <trkpt lat="48.65363" lon="7.29049">
        <ele>646.6</ele>
        <time>2011-07-10T09:05:59Z</time>
      </trkpt>
      <trkpt lat="48.65363" lon="7.29068">
        <ele>648</ele>
        <time>2011-07-10T09:06:01Z</time>
      </trkpt>
      <trkpt lat="48.65365" lon="7.29087">
        <ele>647.7</ele>
        <time>2011-07-10T09:06:03Z</time>
      </trkpt>
      <trkpt lat="48.65366" lon="7.29105">
        <ele>647.5</ele>
        <time>2011-07-10T09:06:05Z</time>
      </trkpt>
      <trkpt lat="48.65368" lon="7.29117">
        <ele>647.2</ele>
        <time>2011-07-10T09:06:06Z</time>
      </trkpt>
      <trkpt lat="48.65374" lon="7.29138">
        <ele>644.8</ele>
        <time>2011-07-10T09:06:08Z</time>
      </trkpt>
      <trkpt lat="48.6538" lon="7.29149">
        <ele>642.8</ele>
        <time>2011-07-10T09:06:10Z</time>
      </trkpt>
      <trkpt lat="48.65379" lon="7.29163">
        <ele>640.8</ele>
        <time>2011-07-10T09:06:14Z</time>
      </trkpt>
      <trkpt lat="48.65375" lon="7.29178">
        <ele>638.8</ele>
        <time>2011-07-10T09:06:17Z</time>
      </trkpt>
      <trkpt lat="48.65376" lon="7.29192">
        <ele>636.8</ele>
        <time>2011-07-10T09:06:20Z</time>
      </trkpt>
      <trkpt lat="48.65383" lon="7.29206">
        <ele>634.8</ele>
        <time>2011-07-10T09:06:22Z</time>
      </trkpt>
      <trkpt lat="48.65389" lon="7.29217">
        <ele>633</ele>
        <time>2011-07-10T09:06:24Z</time>
      </trkpt>
      <trkpt lat="48.65401" lon="7.29227">
        <ele>631.2</ele>
        <time>2011-07-10T09:06:27Z</time>
      </trkpt>
      <trkpt lat="48.6541" lon="7.29234">
        <ele>629.4</ele>
        <time>2011-07-10T09:06:28Z</time>
      </trkpt>
      <trkpt lat="48.6542" lon="7.29244">
        <ele>626.1</ele>
        <time>2011-07-10T09:06:30Z</time>
      </trkpt>
      <trkpt lat="48.65429" lon="7.29255">
        <ele>623.7</ele>
        <time>2011-07-10T09:06:32Z</time>
      </trkpt>
      <trkpt lat="48.65436" lon="7.29264">
        <ele>623.5</ele>
        <time>2011-07-10T09:06:34Z</time>
      </trkpt>
      <trkpt lat="48.65446" lon="7.29271">
        <ele>622.9</ele>
        <time>2011-07-10T09:06:36Z</time>
      </trkpt>
      <trkpt lat="48.65458" lon="7.29278">
        <ele>622.4</ele>
        <time>2011-07-10T09:06:38Z</time>
      </trkpt>
      <trkpt lat="48.65472" lon="7.29288">
        <ele>621.8</ele>
        <time>2011-07-10T09:06:40Z</time>
      </trkpt>
      <trkpt lat="48.65481" lon="7.29296">
        <ele>621.3</ele>
        <time>2011-07-10T09:06:43Z</time>
      </trkpt>
      <trkpt lat="48.65491" lon="7.29303">
        <ele>620.7</ele>
        <time>2011-07-10T09:06:46Z</time>
      </trkpt>
      <trkpt lat="48.65498" lon="7.2931">
        <ele>620.2</ele>
        <time>2011-07-10T09:06:48Z</time>
      </trkpt>
      <trkpt lat="48.65505" lon="7.29318">
        <ele>619.6</ele>
        <time>2011-07-10T09:06:50Z</time>
      </trkpt>
      <trkpt lat="48.65512" lon="7.29327">
        <ele>619.1</ele>
        <time>2011-07-10T09:06:52Z</time>
      </trkpt>
      <trkpt lat="48.65519" lon="7.29337">
        <ele>619.6</ele>
        <time>2011-07-10T09:06:54Z</time>
      </trkpt>
      <trkpt lat="48.65525" lon="7.29345">
        <ele>619.3</ele>
        <time>2011-07-10T09:06:56Z</time>
      </trkpt>
      <trkpt lat="48.65531" lon="7.29357">
        <ele>618.9</ele>
        <time>2011-07-10T09:06:59Z</time>
      </trkpt>
      <trkpt lat="48.65536" lon="7.29367">
        <ele>618.5</ele>
        <time>2011-07-10T09:07:01Z</time>
      </trkpt>
      <trkpt lat="48.65542" lon="7.29377">
        <ele>618.2</ele>
        <time>2011-07-10T09:07:04Z</time>
      </trkpt>
      <trkpt lat="48.65549" lon="7.29387">
        <ele>617.8</ele>
        <time>2011-07-10T09:07:07Z</time>
      </trkpt>
      <trkpt lat="48.65555" lon="7.29397">
        <ele>617.5</ele>
        <time>2011-07-10T09:07:10Z</time>
      </trkpt>
      <trkpt lat="48.65561" lon="7.29405">
        <ele>617.6</ele>
        <time>2011-07-10T09:07:13Z</time>
      </trkpt>
      <trkpt lat="48.6557" lon="7.29414">
        <ele>617.8</ele>
        <time>2011-07-10T09:07:15Z</time>
      </trkpt>
      <trkpt lat="48.65578" lon="7.29427">
        <ele>618</ele>
        <time>2011-07-10T09:07:18Z</time>
      </trkpt>
      <trkpt lat="48.65585" lon="7.29442">
        <ele>618.2</ele>
        <time>2011-07-10T09:07:21Z</time>
      </trkpt>
      <trkpt lat="48.65592" lon="7.29457">
        <ele>618.7</ele>
        <time>2011-07-10T09:07:23Z</time>
      </trkpt>
      <trkpt lat="48.65596" lon="7.29472">
        <ele>619.3</ele>
        <time>2011-07-10T09:07:25Z</time>
      </trkpt>
      <trkpt lat="48.65601" lon="7.29487">
        <ele>619.8</ele>
        <time>2011-07-10T09:07:27Z</time>
      </trkpt>
      <trkpt lat="48.65607" lon="7.29502">
        <ele>620.9</ele>
        <time>2011-07-10T09:07:29Z</time>
      </trkpt>
      <trkpt lat="48.6561" lon="7.29515">
        <ele>622</ele>
        <time>2011-07-10T09:07:31Z</time>
      </trkpt>
      <trkpt lat="48.65611" lon="7.29528">
        <ele>623.1</ele>
        <time>2011-07-10T09:07:33Z</time>
      </trkpt>
      <trkpt lat="48.65612" lon="7.2954">
        <ele>624.2</ele>
        <time>2011-07-10T09:07:35Z</time>
      </trkpt>
      <trkpt lat="48.65612" lon="7.29553">
        <ele>624.7</ele>
        <time>2011-07-10T09:07:37Z</time>
      </trkpt>
      <trkpt lat="48.65616" lon="7.29569">
        <ele>623.5</ele>
        <time>2011-07-10T09:07:39Z</time>
      </trkpt>
      <trkpt lat="48.6562" lon="7.29587">
        <ele>622.4</ele>
        <time>2011-07-10T09:07:41Z</time>
      </trkpt>
      <trkpt lat="48.65622" lon="7.29599">
        <ele>621.2</ele>
        <time>2011-07-10T09:07:43Z</time>
      </trkpt>
      <trkpt lat="48.65623" lon="7.29616">
        <ele>620</ele>
        <time>2011-07-10T09:07:46Z</time>
      </trkpt>
      <trkpt lat="48.65625" lon="7.29632">
        <ele>618.8</ele>
        <time>2011-07-10T09:07:48Z</time>
      </trkpt>
      <trkpt lat="48.65628" lon="7.29648">
        <ele>617.7</ele>
        <time>2011-07-10T09:07:51Z</time>
      </trkpt>
      <trkpt lat="48.65627" lon="7.29662">
        <ele>616.1</ele>
        <time>2011-07-10T09:07:54Z</time>
      </trkpt>
      <trkpt lat="48.65627" lon="7.29675">
        <ele>614.5</ele>
        <time>2011-07-10T09:07:56Z</time>
      </trkpt>
      <trkpt lat="48.65628" lon="7.2969">
        <ele>612.8</ele>
        <time>2011-07-10T09:07:58Z</time>
      </trkpt>
      <trkpt lat="48.65628" lon="7.29705">
        <ele>611.2</ele>
        <time>2011-07-10T09:08:00Z</time>
      </trkpt>
      <trkpt lat="48.65631" lon="7.29723">
        <ele>609.5</ele>
        <time>2011-07-10T09:08:03Z</time>
      </trkpt>
      <trkpt lat="48.65633" lon="7.2974">
        <ele>610.3</ele>
        <time>2011-07-10T09:08:06Z</time>
      </trkpt>
      <trkpt lat="48.65637" lon="7.29751">
        <ele>611</ele>
        <time>2011-07-10T09:08:08Z</time>
      </trkpt>
      <trkpt lat="48.65639" lon="7.29765">
        <ele>611.7</ele>
        <time>2011-07-10T09:08:10Z</time>
      </trkpt>
      <trkpt lat="48.65644" lon="7.2978">
        <ele>612.5</ele>
        <time>2011-07-10T09:08:12Z</time>
      </trkpt>
      <trkpt lat="48.65647" lon="7.29796">
        <ele>613.2</ele>
        <time>2011-07-10T09:08:14Z</time>
      </trkpt>
      <trkpt lat="48.6565" lon="7.29809">
        <ele>613.8</ele>
        <time>2011-07-10T09:08:16Z</time>
      </trkpt>
      <trkpt lat="48.65653" lon="7.29822">
        <ele>614.9</ele>
        <time>2011-07-10T09:08:18Z</time>
      </trkpt>
      <trkpt lat="48.65658" lon="7.29837">
        <ele>616</ele>
        <time>2011-07-10T09:08:20Z</time>
      </trkpt>
      <trkpt lat="48.65663" lon="7.29853">
        <ele>617.1</ele>
        <time>2011-07-10T09:08:23Z</time>
      </trkpt>
      <trkpt lat="48.65669" lon="7.29864">
        <ele>618.2</ele>
        <time>2011-07-10T09:08:25Z</time>
      </trkpt>
      <trkpt lat="48.65674" lon="7.29874">
        <ele>618</ele>
        <time>2011-07-10T09:08:27Z</time>
      </trkpt>
      <trkpt lat="48.65681" lon="7.29886">
        <ele>617.2</ele>
        <time>2011-07-10T09:08:29Z</time>
      </trkpt>
      <trkpt lat="48.65687" lon="7.29899">
        <ele>616.4</ele>
        <time>2011-07-10T09:08:31Z</time>
      </trkpt>
      <trkpt lat="48.65696" lon="7.29909">
        <ele>615.5</ele>
        <time>2011-07-10T09:08:33Z</time>
      </trkpt>
      <trkpt lat="48.65707" lon="7.29919">
        <ele>615.6</ele>
        <time>2011-07-10T09:08:35Z</time>
      </trkpt>
      <trkpt lat="48.65714" lon="7.2993">
        <ele>615.7</ele>
        <time>2011-07-10T09:08:37Z</time>
      </trkpt>
      <trkpt lat="48.65723" lon="7.29942">
        <ele>615.8</ele>
        <time>2011-07-10T09:08:39Z</time>
      </trkpt>
      <trkpt lat="48.65735" lon="7.29956">
        <ele>615.5</ele>
        <time>2011-07-10T09:08:41Z</time>
      </trkpt>
      <trkpt lat="48.65743" lon="7.29965">
        <ele>615.1</ele>
        <time>2011-07-10T09:08:43Z</time>
      </trkpt>
      <trkpt lat="48.65754" lon="7.29978">
        <ele>614.7</ele>
        <time>2011-07-10T09:08:45Z</time>
      </trkpt>
      <trkpt lat="48.65763" lon="7.29988">
        <ele>615</ele>
        <time>2011-07-10T09:08:47Z</time>
      </trkpt>
      <trkpt lat="48.65769" lon="7.30002">
        <ele>615.1</ele>
        <time>2011-07-10T09:08:50Z</time>
      </trkpt>
      <trkpt lat="48.65777" lon="7.30017">
        <ele>615.2</ele>
        <time>2011-07-10T09:08:53Z</time>
      </trkpt>
      <trkpt lat="48.65781" lon="7.30028">
        <ele>615.3</ele>
        <time>2011-07-10T09:08:55Z</time>
      </trkpt>
      <trkpt lat="48.65787" lon="7.30042">
        <ele>615.4</ele>
        <time>2011-07-10T09:08:57Z</time>
      </trkpt>
      <trkpt lat="48.65794" lon="7.30054">
        <ele>614.5</ele>
        <time>2011-07-10T09:08:59Z</time>
      </trkpt>
      <trkpt lat="48.65801" lon="7.30067">
        <ele>614.1</ele>
        <time>2011-07-10T09:09:01Z</time>
      </trkpt>
      <trkpt lat="48.65808" lon="7.3008">
        <ele>613.6</ele>
        <time>2011-07-10T09:09:03Z</time>
      </trkpt>
      <trkpt lat="48.65814" lon="7.30095">
        <ele>613.2</ele>
        <time>2011-07-10T09:09:05Z</time>
      </trkpt>
      <trkpt lat="48.65817" lon="7.3011">
        <ele>612.7</ele>
        <time>2011-07-10T09:09:07Z</time>
      </trkpt>
      <trkpt lat="48.65823" lon="7.30126">
        <ele>612.3</ele>
        <time>2011-07-10T09:09:09Z</time>
      </trkpt>
      <trkpt lat="48.65825" lon="7.30141">
        <ele>611.2</ele>
        <time>2011-07-10T09:09:11Z</time>
      </trkpt>
      <trkpt lat="48.65826" lon="7.30156">
        <ele>611.5</ele>
        <time>2011-07-10T09:09:13Z</time>
      </trkpt>
      <trkpt lat="48.65825" lon="7.3017">
        <ele>611.9</ele>
        <time>2011-07-10T09:09:15Z</time>
      </trkpt>
      <trkpt lat="48.65824" lon="7.30186">
        <ele>613</ele>
        <time>2011-07-10T09:09:17Z</time>
      </trkpt>
      <trkpt lat="48.65822" lon="7.30199">
        <ele>614.1</ele>
        <time>2011-07-10T09:09:19Z</time>
      </trkpt>
      <trkpt lat="48.65817" lon="7.30209">
        <ele>615.2</ele>
        <time>2011-07-10T09:09:21Z</time>
      </trkpt>
      <trkpt lat="48.6581" lon="7.30217">
        <ele>615.9</ele>
        <time>2011-07-10T09:09:23Z</time>
      </trkpt>
      <trkpt lat="48.65802" lon="7.30228">
        <ele>616.6</ele>
        <time>2011-07-10T09:09:26Z</time>
      </trkpt>
      <trkpt lat="48.65795" lon="7.30234">
        <ele>617.4</ele>
        <time>2011-07-10T09:09:29Z</time>
      </trkpt>
      <trkpt lat="48.65786" lon="7.3024">
        <ele>618.8</ele>
        <time>2011-07-10T09:09:33Z</time>
      </trkpt>
      <trkpt lat="48.65777" lon="7.30241">
        <ele>620.3</ele>
        <time>2011-07-10T09:09:37Z</time>
      </trkpt>
      <trkpt lat="48.65767" lon="7.30242">
        <ele>621.7</ele>
        <time>2011-07-10T09:09:41Z</time>
      </trkpt>
      <trkpt lat="48.65761" lon="7.30231">
        <ele>623.2</ele>
        <time>2011-07-10T09:09:49Z</time>
      </trkpt>
      <trkpt lat="48.65755" lon="7.30219">
        <ele>624.6</ele>
        <time>2011-07-10T09:09:54Z</time>
      </trkpt>
      <trkpt lat="48.6575" lon="7.30206">
        <ele>625.4</ele>
        <time>2011-07-10T09:10:01Z</time>
      </trkpt>
      <trkpt lat="48.65744" lon="7.30197">
        <ele>626.1</ele>
        <time>2011-07-10T09:10:07Z</time>
      </trkpt>
      <trkpt lat="48.6574" lon="7.30186">
        <ele>627.3</ele>
        <time>2011-07-10T09:10:11Z</time>
      </trkpt>
      <trkpt lat="48.65734" lon="7.30178">
        <ele>628.5</ele>
        <time>2011-07-10T09:10:16Z</time>
      </trkpt>
      <trkpt lat="48.65725" lon="7.30172">
        <ele>629.8</ele>
        <time>2011-07-10T09:10:20Z</time>
      </trkpt>
      <trkpt lat="48.65718" lon="7.30164">
        <ele>631.2</ele>
        <time>2011-07-10T09:10:25Z</time>
      </trkpt>
      <trkpt lat="48.6571" lon="7.30153">
        <ele>631.8</ele>
        <time>2011-07-10T09:10:30Z</time>
      </trkpt>
      <trkpt lat="48.65706" lon="7.30142">
        <ele>632.5</ele>
        <time>2011-07-10T09:10:39Z</time>
      </trkpt>
      <trkpt lat="48.657" lon="7.30133">
        <ele>633.1</ele>
        <time>2011-07-10T09:10:44Z</time>
      </trkpt>
      <trkpt lat="48.65693" lon="7.30124">
        <ele>633.7</ele>
        <time>2011-07-10T09:10:49Z</time>
      </trkpt>
      <trkpt lat="48.65685" lon="7.30117">
        <ele>634.4</ele>
        <time>2011-07-10T09:10:53Z</time>
      </trkpt>
      <trkpt lat="48.65676" lon="7.30112">
        <ele>635</ele>
        <time>2011-07-10T09:10:58Z</time>
      </trkpt>
      <trkpt lat="48.65666" lon="7.30108">
        <ele>636</ele>
        <time>2011-07-10T09:11:01Z</time>
      </trkpt>
      <trkpt lat="48.65658" lon="7.30104">
        <ele>636.5</ele>
        <time>2011-07-10T09:11:05Z</time>
      </trkpt>
      <trkpt lat="48.6565" lon="7.30099">
        <ele>637.1</ele>
        <time>2011-07-10T09:11:10Z</time>
      </trkpt>
      <trkpt lat="48.65642" lon="7.30094">
        <ele>637.5</ele>
        <time>2011-07-10T09:11:15Z</time>
      </trkpt>
      <trkpt lat="48.65636" lon="7.30085">
        <ele>638.2</ele>
        <time>2011-07-10T09:11:20Z</time>
      </trkpt>
      <trkpt lat="48.65625" lon="7.30074">
        <ele>638.9</ele>
        <time>2011-07-10T09:11:26Z</time>
      </trkpt>
      <trkpt lat="48.65616" lon="7.30069">
        <ele>639.6</ele>
        <time>2011-07-10T09:11:31Z</time>
      </trkpt>
      <trkpt lat="48.65608" lon="7.30061">
        <ele>640.4</ele>
        <time>2011-07-10T09:11:39Z</time>
      </trkpt>
      <trkpt lat="48.65601" lon="7.30053">
        <ele>641.1</ele>
        <time>2011-07-10T09:11:47Z</time>
      </trkpt>
      <trkpt lat="48.65592" lon="7.30046">
        <ele>641.8</ele>
        <time>2011-07-10T09:11:54Z</time>
      </trkpt>
      <trkpt lat="48.65586" lon="7.30035">
        <ele>642.5</ele>
        <time>2011-07-10T09:12:03Z</time>
      </trkpt>
      <trkpt lat="48.6558" lon="7.30025">
        <ele>642.9</ele>
        <time>2011-07-10T09:12:10Z</time>
      </trkpt>
      <trkpt lat="48.65573" lon="7.30018">
        <ele>643.3</ele>
        <time>2011-07-10T09:12:19Z</time>
      </trkpt>
      <trkpt lat="48.65566" lon="7.3001">
        <ele>644.5</ele>
        <time>2011-07-10T09:12:26Z</time>
      </trkpt>
      <trkpt lat="48.65564" lon="7.29999">
        <ele>645.6</ele>
        <time>2011-07-10T09:12:31Z</time>
      </trkpt>
      <trkpt lat="48.65558" lon="7.29988">
        <ele>646.5</ele>
        <time>2011-07-10T09:12:38Z</time>
      </trkpt>
      <trkpt lat="48.65551" lon="7.2998">
        <ele>647.3</ele>
        <time>2011-07-10T09:12:43Z</time>
      </trkpt>
      <trkpt lat="48.65545" lon="7.29969">
        <ele>648.1</ele>
        <time>2011-07-10T09:12:49Z</time>
      </trkpt>
      <trkpt lat="48.65542" lon="7.29955">
        <ele>648.9</ele>
        <time>2011-07-10T09:12:54Z</time>
      </trkpt>
      <trkpt lat="48.65535" lon="7.29947">
        <ele>649.7</ele>
        <time>2011-07-10T09:13:01Z</time>
      </trkpt>
      <trkpt lat="48.65528" lon="7.29941">
        <ele>650.5</ele>
        <time>2011-07-10T09:13:04Z</time>
      </trkpt>
      <trkpt lat="48.65521" lon="7.29934">
        <ele>651.4</ele>
        <time>2011-07-10T09:13:07Z</time>
      </trkpt>
      <trkpt lat="48.65518" lon="7.29922">
        <ele>652.2</ele>
        <time>2011-07-10T09:13:12Z</time>
      </trkpt>
      <trkpt lat="48.6552" lon="7.29909">
        <ele>653</ele>
        <time>2011-07-10T09:13:16Z</time>
      </trkpt>
      <trkpt lat="48.65513" lon="7.299">
        <ele>653</ele>
        <time>2011-07-10T09:13:21Z</time>
      </trkpt>
      <trkpt lat="48.65506" lon="7.29892">
        <ele>653</ele>
        <time>2011-07-10T09:13:27Z</time>
      </trkpt>
      <trkpt lat="48.655" lon="7.29882">
        <ele>653</ele>
        <time>2011-07-10T09:13:35Z</time>
      </trkpt>
      <trkpt lat="48.65494" lon="7.29871">
        <ele>653</ele>
        <time>2011-07-10T09:13:39Z</time>
      </trkpt>
      <trkpt lat="48.65489" lon="7.2986">
        <ele>653.6</ele>
        <time>2011-07-10T09:13:42Z</time>
      </trkpt>
      <trkpt lat="48.6548" lon="7.29848">
        <ele>655</ele>
        <time>2011-07-10T09:13:45Z</time>
      </trkpt>
      <trkpt lat="48.65478" lon="7.29835">
        <ele>656.4</ele>
        <time>2011-07-10T09:13:49Z</time>
      </trkpt>
      <trkpt lat="48.65475" lon="7.29823">
        <ele>657.7</ele>
        <time>2011-07-10T09:13:54Z</time>
      </trkpt>
      <trkpt lat="48.65465" lon="7.29815">
        <ele>659.1</ele>
        <time>2011-07-10T09:13:57Z</time>
      </trkpt>
      <trkpt lat="48.65458" lon="7.29807">
        <ele>660.5</ele>
        <time>2011-07-10T09:14:01Z</time>
      </trkpt>
      <trkpt lat="48.65452" lon="7.29798">
        <ele>661.8</ele>
        <time>2011-07-10T09:14:06Z</time>
      </trkpt>
      <trkpt lat="48.65443" lon="7.2979">
        <ele>663.2</ele>
        <time>2011-07-10T09:14:10Z</time>
      </trkpt>
      <trkpt lat="48.65435" lon="7.29787">
        <ele>664.5</ele>
        <time>2011-07-10T09:14:13Z</time>
      </trkpt>
      <trkpt lat="48.65434" lon="7.29774">
        <ele>665.8</ele>
        <time>2011-07-10T09:14:16Z</time>
      </trkpt>
      <trkpt lat="48.6543" lon="7.29763">
        <ele>667.1</ele>
        <time>2011-07-10T09:14:19Z</time>
      </trkpt>
      <trkpt lat="48.65428" lon="7.29749">
        <ele>667.7</ele>
        <time>2011-07-10T09:14:22Z</time>
      </trkpt>
      <trkpt lat="48.65426" lon="7.29734">
        <ele>667.6</ele>
        <time>2011-07-10T09:14:26Z</time>
      </trkpt>
      <trkpt lat="48.65426" lon="7.29721">
        <ele>667.5</ele>
        <time>2011-07-10T09:14:30Z</time>
      </trkpt>
      <trkpt lat="48.65424" lon="7.29708">
        <ele>667.5</ele>
        <time>2011-07-10T09:14:33Z</time>
      </trkpt>
      <trkpt lat="48.65417" lon="7.29693">
        <ele>666.8</ele>
        <time>2011-07-10T09:14:37Z</time>
      </trkpt>
      <trkpt lat="48.65409" lon="7.29681">
        <ele>666.2</ele>
        <time>2011-07-10T09:14:40Z</time>
      </trkpt>
      <trkpt lat="48.65405" lon="7.29665">
        <ele>665.5</ele>
        <time>2011-07-10T09:14:43Z</time>
      </trkpt>
      <trkpt lat="48.65401" lon="7.29652">
        <ele>665.4</ele>
        <time>2011-07-10T09:14:45Z</time>
      </trkpt>
      <trkpt lat="48.65393" lon="7.29638">
        <ele>665.2</ele>
        <time>2011-07-10T09:14:48Z</time>
      </trkpt>
      <trkpt lat="48.65387" lon="7.2962">
        <ele>665.1</ele>
        <time>2011-07-10T09:14:50Z</time>
      </trkpt>
      <trkpt lat="48.65386" lon="7.29603">
        <ele>664.6</ele>
        <time>2011-07-10T09:14:52Z</time>
      </trkpt>
      <trkpt lat="48.65381" lon="7.29593">
        <ele>664.2</ele>
        <time>2011-07-10T09:14:54Z</time>
      </trkpt>
      <trkpt lat="48.65374" lon="7.29582">
        <ele>663.7</ele>
        <time>2011-07-10T09:14:56Z</time>
      </trkpt>
      <trkpt lat="48.65367" lon="7.29571">
        <ele>663.3</ele>
        <time>2011-07-10T09:14:58Z</time>
      </trkpt>
      <trkpt lat="48.65357" lon="7.29558">
        <ele>662.8</ele>
        <time>2011-07-10T09:15:00Z</time>
      </trkpt>
      <trkpt lat="48.6535" lon="7.29544">
        <ele>662.9</ele>
        <time>2011-07-10T09:15:03Z</time>
      </trkpt>
      <trkpt lat="48.65342" lon="7.29537">
        <ele>662.8</ele>
        <time>2011-07-10T09:15:05Z</time>
      </trkpt>
      <trkpt lat="48.65332" lon="7.29527">
        <ele>662.7</ele>
        <time>2011-07-10T09:15:07Z</time>
      </trkpt>
      <trkpt lat="48.65326" lon="7.29515">
        <ele>662.2</ele>
        <time>2011-07-10T09:15:09Z</time>
      </trkpt>
      <trkpt lat="48.65316" lon="7.29508">
        <ele>661.6</ele>
        <time>2011-07-10T09:15:11Z</time>
      </trkpt>
      <trkpt lat="48.65306" lon="7.29502">
        <ele>661.1</ele>
        <time>2011-07-10T09:15:13Z</time>
      </trkpt>
      <trkpt lat="48.65296" lon="7.29496">
        <ele>660.9</ele>
        <time>2011-07-10T09:15:15Z</time>
      </trkpt>
      <trkpt lat="48.65287" lon="7.29491">
        <ele>660.7</ele>
        <time>2011-07-10T09:15:17Z</time>
      </trkpt>
      <trkpt lat="48.65274" lon="7.29488">
        <ele>660.5</ele>
        <time>2011-07-10T09:15:19Z</time>
      </trkpt>
      <trkpt lat="48.65261" lon="7.29486">
        <ele>660.4</ele>
        <time>2011-07-10T09:15:21Z</time>
      </trkpt>
      <trkpt lat="48.65251" lon="7.29484">
        <ele>659.6</ele>
        <time>2011-07-10T09:15:22Z</time>
      </trkpt>
      <trkpt lat="48.65239" lon="7.29479">
        <ele>658.9</ele>
        <time>2011-07-10T09:15:23Z</time>
      </trkpt>
      <trkpt lat="48.65228" lon="7.29474">
        <ele>658.4</ele>
        <time>2011-07-10T09:15:24Z</time>
      </trkpt>
      <trkpt lat="48.65219" lon="7.29469">
        <ele>657.8</ele>
        <time>2011-07-10T09:15:25Z</time>
      </trkpt>
      <trkpt lat="48.6521" lon="7.29464">
        <ele>657.3</ele>
        <time>2011-07-10T09:15:26Z</time>
      </trkpt>
      <trkpt lat="48.65202" lon="7.29459">
        <ele>656.7</ele>
        <time>2011-07-10T09:15:27Z</time>
      </trkpt>
      <trkpt lat="48.65185" lon="7.29451">
        <ele>656.2</ele>
        <time>2011-07-10T09:15:29Z</time>
      </trkpt>
      <trkpt lat="48.65175" lon="7.2945">
        <ele>655.8</ele>
        <time>2011-07-10T09:15:30Z</time>
      </trkpt>
      <trkpt lat="48.65159" lon="7.29448">
        <ele>655.5</ele>
        <time>2011-07-10T09:15:32Z</time>
      </trkpt>
      <trkpt lat="48.65151" lon="7.29448">
        <ele>655.1</ele>
        <time>2011-07-10T09:15:33Z</time>
      </trkpt>
      <trkpt lat="48.65138" lon="7.29446">
        <ele>654.7</ele>
        <time>2011-07-10T09:15:35Z</time>
      </trkpt>
      <trkpt lat="48.65128" lon="7.29438">
        <ele>654.9</ele>
        <time>2011-07-10T09:15:37Z</time>
      </trkpt>
      <trkpt lat="48.65121" lon="7.29428">
        <ele>655.1</ele>
        <time>2011-07-10T09:15:41Z</time>
      </trkpt>
      <trkpt lat="48.6511" lon="7.29425">
        <ele>655.3</ele>
        <time>2011-07-10T09:15:44Z</time>
      </trkpt>
      <trkpt lat="48.651" lon="7.29415">
        <ele>655.5</ele>
        <time>2011-07-10T09:15:47Z</time>
      </trkpt>
      <trkpt lat="48.65092" lon="7.29409">
        <ele>655.6</ele>
        <time>2011-07-10T09:15:49Z</time>
      </trkpt>
      <trkpt lat="48.65085" lon="7.29404">
        <ele>655.6</ele>
        <time>2011-07-10T09:15:51Z</time>
      </trkpt>
      <trkpt lat="48.65075" lon="7.294">
        <ele>655.6</ele>
        <time>2011-07-10T09:15:53Z</time>
      </trkpt>
      <trkpt lat="48.65066" lon="7.294">
        <ele>655.5</ele>
        <time>2011-07-10T09:15:55Z</time>
      </trkpt>
      <trkpt lat="48.65058" lon="7.294">
        <ele>655.3</ele>
        <time>2011-07-10T09:15:57Z</time>
      </trkpt>
      <trkpt lat="48.6505" lon="7.29403">
        <ele>655.1</ele>
        <time>2011-07-10T09:15:59Z</time>
      </trkpt>
      <trkpt lat="48.65041" lon="7.29406">
        <ele>654.9</ele>
        <time>2011-07-10T09:16:01Z</time>
      </trkpt>
      <trkpt lat="48.65031" lon="7.2941">
        <ele>654.7</ele>
        <time>2011-07-10T09:16:03Z</time>
      </trkpt>
      <trkpt lat="48.65022" lon="7.29416">
        <ele>654.5</ele>
        <time>2011-07-10T09:16:05Z</time>
      </trkpt>
      <trkpt lat="48.65012" lon="7.29421">
        <ele>654.7</ele>
        <time>2011-07-10T09:16:07Z</time>
      </trkpt>
      <trkpt lat="48.65002" lon="7.29424">
        <ele>654.9</ele>
        <time>2011-07-10T09:16:09Z</time>
      </trkpt>
      <trkpt lat="48.64992" lon="7.29428">
        <ele>655.1</ele>
        <time>2011-07-10T09:16:11Z</time>
      </trkpt>
      <trkpt lat="48.64983" lon="7.2943">
        <ele>655.5</ele>
        <time>2011-07-10T09:16:13Z</time>
      </trkpt>
      <trkpt lat="48.64974" lon="7.29431">
        <ele>655.8</ele>
        <time>2011-07-10T09:16:15Z</time>
      </trkpt>
      <trkpt lat="48.64962" lon="7.29429">
        <ele>656.2</ele>
        <time>2011-07-10T09:16:17Z</time>
      </trkpt>
      <trkpt lat="48.64953" lon="7.29428">
        <ele>656.5</ele>
        <time>2011-07-10T09:16:19Z</time>
      </trkpt>
      <trkpt lat="48.64944" lon="7.29427">
        <ele>656.9</ele>
        <time>2011-07-10T09:16:21Z</time>
      </trkpt>
      <trkpt lat="48.64933" lon="7.29425">
        <ele>657.3</ele>
        <time>2011-07-10T09:16:24Z</time>
      </trkpt>
      <trkpt lat="48.64924" lon="7.29422">
        <ele>657.6</ele>
        <time>2011-07-10T09:16:28Z</time>
      </trkpt>
      <trkpt lat="48.64913" lon="7.29419">
        <ele>658</ele>
        <time>2011-07-10T09:16:32Z</time>
      </trkpt>
      <trkpt lat="48.64905" lon="7.29413">
        <ele>658.6</ele>
        <time>2011-07-10T09:16:36Z</time>
      </trkpt>
      <trkpt lat="48.64897" lon="7.29409">
        <ele>659.3</ele>
        <time>2011-07-10T09:16:40Z</time>
      </trkpt>
      <trkpt lat="48.64887" lon="7.29408">
        <ele>659.9</ele>
        <time>2011-07-10T09:16:45Z</time>
      </trkpt>
      <trkpt lat="48.64883" lon="7.29396">
        <ele>660.5</ele>
        <time>2011-07-10T09:16:52Z</time>
      </trkpt>
      <trkpt lat="48.64883" lon="7.29382">
        <ele>661.2</ele>
        <time>2011-07-10T09:16:57Z</time>
      </trkpt>
      <trkpt lat="48.64884" lon="7.29369">
        <ele>661.8</ele>
        <time>2011-07-10T09:17:02Z</time>
      </trkpt>
      <trkpt lat="48.64882" lon="7.29357">
        <ele>663.5</ele>
        <time>2011-07-10T09:17:08Z</time>
      </trkpt>
      <trkpt lat="48.64883" lon="7.29344">
        <ele>665.2</ele>
        <time>2011-07-10T09:17:14Z</time>
      </trkpt>
      <trkpt lat="48.64883" lon="7.29331">
        <ele>666.9</ele>
        <time>2011-07-10T09:17:20Z</time>
      </trkpt>
      <trkpt lat="48.64881" lon="7.29318">
        <ele>668.6</ele>
        <time>2011-07-10T09:17:28Z</time>
      </trkpt>
      <trkpt lat="48.64882" lon="7.29306">
        <ele>670.4</ele>
        <time>2011-07-10T09:17:34Z</time>
      </trkpt>
      <trkpt lat="48.64881" lon="7.29293">
        <ele>671.5</ele>
        <time>2011-07-10T09:17:41Z</time>
      </trkpt>
      <trkpt lat="48.6488" lon="7.2928">
        <ele>673.1</ele>
        <time>2011-07-10T09:17:48Z</time>
      </trkpt>
      <trkpt lat="48.64879" lon="7.29266">
        <ele>674.7</ele>
        <time>2011-07-10T09:17:52Z</time>
      </trkpt>
      <trkpt lat="48.64877" lon="7.29251">
        <ele>676.2</ele>
        <time>2011-07-10T09:17:55Z</time>
      </trkpt>
      <trkpt lat="48.64878" lon="7.29237">
        <ele>677.8</ele>
        <time>2011-07-10T09:18:00Z</time>
      </trkpt>
      <trkpt lat="48.64876" lon="7.29225">
        <ele>679.3</ele>
        <time>2011-07-10T09:18:07Z</time>
      </trkpt>
      <trkpt lat="48.64876" lon="7.29212">
        <ele>679.7</ele>
        <time>2011-07-10T09:18:14Z</time>
      </trkpt>
      <trkpt lat="48.64879" lon="7.29199">
        <ele>680.1</ele>
        <time>2011-07-10T09:18:21Z</time>
      </trkpt>
      <trkpt lat="48.64881" lon="7.29186">
        <ele>680.9</ele>
        <time>2011-07-10T09:18:27Z</time>
      </trkpt>
      <trkpt lat="48.6488" lon="7.29172">
        <ele>681.7</ele>
        <time>2011-07-10T09:18:35Z</time>
      </trkpt>
      <trkpt lat="48.64883" lon="7.2916">
        <ele>682.5</ele>
        <time>2011-07-10T09:18:42Z</time>
      </trkpt>
      <trkpt lat="48.64884" lon="7.29147">
        <ele>683.4</ele>
        <time>2011-07-10T09:18:48Z</time>
      </trkpt>
      <trkpt lat="48.64886" lon="7.29134">
        <ele>683.6</ele>
        <time>2011-07-10T09:18:53Z</time>
      </trkpt>
      <trkpt lat="48.64885" lon="7.29119">
        <ele>683.9</ele>
        <time>2011-07-10T09:18:58Z</time>
      </trkpt>
      <trkpt lat="48.64884" lon="7.29105">
        <ele>684.5</ele>
        <time>2011-07-10T09:19:02Z</time>
      </trkpt>
      <trkpt lat="48.64885" lon="7.29093">
        <ele>685</ele>
        <time>2011-07-10T09:19:05Z</time>
      </trkpt>
      <trkpt lat="48.64886" lon="7.29081">
        <ele>685.6</ele>
        <time>2011-07-10T09:19:08Z</time>
      </trkpt>
      <trkpt lat="48.64887" lon="7.29066">
        <ele>686.3</ele>
        <time>2011-07-10T09:19:11Z</time>
      </trkpt>
      <trkpt lat="48.64888" lon="7.29052">
        <ele>686.9</ele>
        <time>2011-07-10T09:19:14Z</time>
      </trkpt>
      <trkpt lat="48.64889" lon="7.29038">
        <ele>687.1</ele>
        <time>2011-07-10T09:19:17Z</time>
      </trkpt>
      <trkpt lat="48.6489" lon="7.29025">
        <ele>686.9</ele>
        <time>2011-07-10T09:19:20Z</time>
      </trkpt>
      <trkpt lat="48.64893" lon="7.29009">
        <ele>686.7</ele>
        <time>2011-07-10T09:19:24Z</time>
      </trkpt>
      <trkpt lat="48.64892" lon="7.28994">
        <ele>686.5</ele>
        <time>2011-07-10T09:19:27Z</time>
      </trkpt>
      <trkpt lat="48.64887" lon="7.28981">
        <ele>686.4</ele>
        <time>2011-07-10T09:19:31Z</time>
      </trkpt>
      <trkpt lat="48.64882" lon="7.2897">
        <ele>686.2</ele>
        <time>2011-07-10T09:19:34Z</time>
      </trkpt>
      <trkpt lat="48.64876" lon="7.28958">
        <ele>685.8</ele>
        <time>2011-07-10T09:19:37Z</time>
      </trkpt>
      <trkpt lat="48.6487" lon="7.28947">
        <ele>685.5</ele>
        <time>2011-07-10T09:19:40Z</time>
      </trkpt>
      <trkpt lat="48.64861" lon="7.28941">
        <ele>685.1</ele>
        <time>2011-07-10T09:19:42Z</time>
      </trkpt>
      <trkpt lat="48.64854" lon="7.28932">
        <ele>683.5</ele>
        <time>2011-07-10T09:19:44Z</time>
      </trkpt>
      <trkpt lat="48.64848" lon="7.28921">
        <ele>682</ele>
        <time>2011-07-10T09:19:46Z</time>
      </trkpt>
      <trkpt lat="48.64842" lon="7.28909">
        <ele>680.5</ele>
        <time>2011-07-10T09:19:48Z</time>
      </trkpt>
      <trkpt lat="48.64835" lon="7.28898">
        <ele>679.3</ele>
        <time>2011-07-10T09:19:50Z</time>
      </trkpt>
      <trkpt lat="48.6483" lon="7.28885">
        <ele>678.1</ele>
        <time>2011-07-10T09:19:52Z</time>
      </trkpt>
      <trkpt lat="48.64826" lon="7.28873">
        <ele>678.3</ele>
        <time>2011-07-10T09:19:54Z</time>
      </trkpt>
      <trkpt lat="48.64821" lon="7.28859">
        <ele>677.6</ele>
        <time>2011-07-10T09:19:56Z</time>
      </trkpt>
      <trkpt lat="48.64816" lon="7.28846">
        <ele>677</ele>
        <time>2011-07-10T09:19:58Z</time>
      </trkpt>
      <trkpt lat="48.6481" lon="7.28833">
        <ele>676.4</ele>
        <time>2011-07-10T09:20:00Z</time>
      </trkpt>
      <trkpt lat="48.64804" lon="7.28822">
        <ele>675.7</ele>
        <time>2011-07-10T09:20:02Z</time>
      </trkpt>
      <trkpt lat="48.64794" lon="7.28811">
        <ele>675.1</ele>
        <time>2011-07-10T09:20:05Z</time>
      </trkpt>
      <trkpt lat="48.64787" lon="7.28801">
        <ele>675.6</ele>
        <time>2011-07-10T09:20:07Z</time>
      </trkpt>
      <trkpt lat="48.64779" lon="7.28794">
        <ele>676.2</ele>
        <time>2011-07-10T09:20:09Z</time>
      </trkpt>
      <trkpt lat="48.64774" lon="7.28784">
        <ele>676.7</ele>
        <time>2011-07-10T09:20:11Z</time>
      </trkpt>
      <trkpt lat="48.6477" lon="7.28772">
        <ele>676.4</ele>
        <time>2011-07-10T09:20:13Z</time>
      </trkpt>
      <trkpt lat="48.64764" lon="7.28763">
        <ele>676</ele>
        <time>2011-07-10T09:20:16Z</time>
      </trkpt>
      <trkpt lat="48.64761" lon="7.2875">
        <ele>674.3</ele>
        <time>2011-07-10T09:20:22Z</time>
      </trkpt>
      <trkpt lat="48.64755" lon="7.28741">
        <ele>673.4</ele>
        <time>2011-07-10T09:20:26Z</time>
      </trkpt>
      <trkpt lat="48.6475" lon="7.28728">
        <ele>672.5</ele>
        <time>2011-07-10T09:20:32Z</time>
      </trkpt>
      <trkpt lat="48.64747" lon="7.28716">
        <ele>671.5</ele>
        <time>2011-07-10T09:20:35Z</time>
      </trkpt>
      <trkpt lat="48.64744" lon="7.28701">
        <ele>670.3</ele>
        <time>2011-07-10T09:20:38Z</time>
      </trkpt>
      <trkpt lat="48.6474" lon="7.28688">
        <ele>669</ele>
        <time>2011-07-10T09:20:41Z</time>
      </trkpt>
      <trkpt lat="48.64736" lon="7.28674">
        <ele>667.7</ele>
        <time>2011-07-10T09:20:44Z</time>
      </trkpt>
      <trkpt lat="48.64729" lon="7.2866">
        <ele>666.5</ele>
        <time>2011-07-10T09:20:47Z</time>
      </trkpt>
      <trkpt lat="48.64726" lon="7.28643">
        <ele>665.2</ele>
        <time>2011-07-10T09:20:50Z</time>
      </trkpt>
      <trkpt lat="48.64727" lon="7.2863">
        <ele>664.8</ele>
        <time>2011-07-10T09:20:52Z</time>
      </trkpt>
      <trkpt lat="48.64723" lon="7.28619">
        <ele>666.3</ele>
        <time>2011-07-10T09:20:54Z</time>
      </trkpt>
      <trkpt lat="48.64722" lon="7.28606">
        <ele>667.2</ele>
        <time>2011-07-10T09:20:56Z</time>
      </trkpt>
      <trkpt lat="48.6472" lon="7.28594">
        <ele>668.1</ele>
        <time>2011-07-10T09:20:58Z</time>
      </trkpt>
      <trkpt lat="48.64717" lon="7.28581">
        <ele>669</ele>
        <time>2011-07-10T09:21:00Z</time>
      </trkpt>
      <trkpt lat="48.64711" lon="7.28567">
        <ele>669.9</ele>
        <time>2011-07-10T09:21:02Z</time>
      </trkpt>
      <trkpt lat="48.64706" lon="7.28554">
        <ele>671.2</ele>
        <time>2011-07-10T09:21:04Z</time>
      </trkpt>
      <trkpt lat="48.64702" lon="7.2854">
        <ele>672.5</ele>
        <time>2011-07-10T09:21:06Z</time>
      </trkpt>
      <trkpt lat="48.64699" lon="7.28527">
        <ele>673.7</ele>
        <time>2011-07-10T09:21:08Z</time>
      </trkpt>
      <trkpt lat="48.64696" lon="7.28513">
        <ele>674.2</ele>
        <time>2011-07-10T09:21:10Z</time>
      </trkpt>
      <trkpt lat="48.64692" lon="7.28502">
        <ele>674.6</ele>
        <time>2011-07-10T09:21:12Z</time>
      </trkpt>
      <trkpt lat="48.64689" lon="7.2849">
        <ele>675.1</ele>
        <time>2011-07-10T09:21:14Z</time>
      </trkpt>
      <trkpt lat="48.64687" lon="7.28478">
        <ele>673.7</ele>
        <time>2011-07-10T09:21:16Z</time>
      </trkpt>
      <trkpt lat="48.64683" lon="7.28464">
        <ele>672.9</ele>
        <time>2011-07-10T09:21:18Z</time>
      </trkpt>
      <trkpt lat="48.64676" lon="7.28454">
        <ele>671.6</ele>
        <time>2011-07-10T09:21:20Z</time>
      </trkpt>
      <trkpt lat="48.64671" lon="7.28438">
        <ele>670.4</ele>
        <time>2011-07-10T09:21:23Z</time>
      </trkpt>
      <trkpt lat="48.64667" lon="7.28422">
        <ele>669.1</ele>
        <time>2011-07-10T09:21:27Z</time>
      </trkpt>
      <trkpt lat="48.64665" lon="7.28406">
        <ele>667.8</ele>
        <time>2011-07-10T09:21:30Z</time>
      </trkpt>
      <trkpt lat="48.64662" lon="7.28388">
        <ele>666.5</ele>
        <time>2011-07-10T09:21:33Z</time>
      </trkpt>
      <trkpt lat="48.6466" lon="7.28375">
        <ele>665.3</ele>
        <time>2011-07-10T09:21:36Z</time>
      </trkpt>
      <trkpt lat="48.64652" lon="7.28366">
        <ele>664.8</ele>
        <time>2011-07-10T09:21:39Z</time>
      </trkpt>
      <trkpt lat="48.64651" lon="7.28351">
        <ele>662.9</ele>
        <time>2011-07-10T09:21:42Z</time>
      </trkpt>
      <trkpt lat="48.64647" lon="7.28335">
        <ele>663.2</ele>
        <time>2011-07-10T09:21:45Z</time>
      </trkpt>
      <trkpt lat="48.64642" lon="7.28322">
        <ele>663.5</ele>
        <time>2011-07-10T09:21:47Z</time>
      </trkpt>
      <trkpt lat="48.64637" lon="7.28308">
        <ele>663.7</ele>
        <time>2011-07-10T09:21:49Z</time>
      </trkpt>
      <trkpt lat="48.64632" lon="7.28296">
        <ele>664.5</ele>
        <time>2011-07-10T09:21:51Z</time>
      </trkpt>
      <trkpt lat="48.64627" lon="7.28283">
        <ele>665.2</ele>
        <time>2011-07-10T09:21:54Z</time>
      </trkpt>
      <trkpt lat="48.64621" lon="7.28271">
        <ele>665.2</ele>
        <time>2011-07-10T09:21:58Z</time>
      </trkpt>
      <trkpt lat="48.64616" lon="7.28258">
        <ele>665.2</ele>
        <time>2011-07-10T09:22:13Z</time>
      </trkpt>
      <trkpt lat="48.64613" lon="7.28243">
        <ele>665.2</ele>
        <time>2011-07-10T09:22:17Z</time>
      </trkpt>
      <trkpt lat="48.6461" lon="7.2823">
        <ele>665.2</ele>
        <time>2011-07-10T09:22:20Z</time>
      </trkpt>
      <trkpt lat="48.6461" lon="7.28215">
        <ele>665.2</ele>
        <time>2011-07-10T09:22:23Z</time>
      </trkpt>
      <trkpt lat="48.64609" lon="7.28203">
        <ele>665.5</ele>
        <time>2011-07-10T09:22:27Z</time>
      </trkpt>
      <trkpt lat="48.64609" lon="7.28189">
        <ele>663.7</ele>
        <time>2011-07-10T09:22:29Z</time>
      </trkpt>
      <trkpt lat="48.64609" lon="7.28175">
        <ele>661.9</ele>
        <time>2011-07-10T09:22:32Z</time>
      </trkpt>
      <trkpt lat="48.64609" lon="7.28159">
        <ele>660.1</ele>
        <time>2011-07-10T09:22:36Z</time>
      </trkpt>
      <trkpt lat="48.64606" lon="7.28144">
        <ele>658.3</ele>
        <time>2011-07-10T09:22:39Z</time>
      </trkpt>
      <trkpt lat="48.64602" lon="7.28128">
        <ele>656.5</ele>
        <time>2011-07-10T09:22:42Z</time>
      </trkpt>
      <trkpt lat="48.64604" lon="7.28115">
        <ele>655.4</ele>
        <time>2011-07-10T09:22:45Z</time>
      </trkpt>
      <trkpt lat="48.64612" lon="7.28105">
        <ele>653.5</ele>
        <time>2011-07-10T09:22:47Z</time>
      </trkpt>
      <trkpt lat="48.64615" lon="7.28092">
        <ele>651.5</ele>
        <time>2011-07-10T09:22:50Z</time>
      </trkpt>
      <trkpt lat="48.64617" lon="7.28079">
        <ele>649.6</ele>
        <time>2011-07-10T09:22:53Z</time>
      </trkpt>
      <trkpt lat="48.64619" lon="7.28066">
        <ele>647.7</ele>
        <time>2011-07-10T09:22:56Z</time>
      </trkpt>
      <trkpt lat="48.64618" lon="7.28049">
        <ele>646.9</ele>
        <time>2011-07-10T09:22:59Z</time>
      </trkpt>
      <trkpt lat="48.64611" lon="7.28035">
        <ele>646.1</ele>
        <time>2011-07-10T09:23:02Z</time>
      </trkpt>
      <trkpt lat="48.64602" lon="7.28021">
        <ele>644.9</ele>
        <time>2011-07-10T09:23:05Z</time>
      </trkpt>
      <trkpt lat="48.64595" lon="7.28013">
        <ele>643.7</ele>
        <time>2011-07-10T09:23:07Z</time>
      </trkpt>
      <trkpt lat="48.64589" lon="7.28004">
        <ele>642.5</ele>
        <time>2011-07-10T09:23:09Z</time>
      </trkpt>
      <trkpt lat="48.6458" lon="7.27992">
        <ele>641.4</ele>
        <time>2011-07-10T09:23:13Z</time>
      </trkpt>
      <trkpt lat="48.6458" lon="7.27972">
        <ele>640.2</ele>
        <time>2011-07-10T09:23:18Z</time>
      </trkpt>
      <trkpt lat="48.64577" lon="7.27959">
        <ele>639.8</ele>
        <time>2011-07-10T09:23:22Z</time>
      </trkpt>
      <trkpt lat="48.64573" lon="7.27947">
        <ele>639.1</ele>
        <time>2011-07-10T09:23:26Z</time>
      </trkpt>
      <trkpt lat="48.64565" lon="7.27934">
        <ele>638.4</ele>
        <time>2011-07-10T09:23:29Z</time>
      </trkpt>
      <trkpt lat="48.64559" lon="7.27919">
        <ele>640</ele>
        <time>2011-07-10T09:23:32Z</time>
      </trkpt>
      <trkpt lat="48.64559" lon="7.27901">
        <ele>640.8</ele>
        <time>2011-07-10T09:23:35Z</time>
      </trkpt>
      <trkpt lat="48.64554" lon="7.27886">
        <ele>641.6</ele>
        <time>2011-07-10T09:23:38Z</time>
      </trkpt>
      <trkpt lat="48.64552" lon="7.27869">
        <ele>642.8</ele>
        <time>2011-07-10T09:23:41Z</time>
      </trkpt>
      <trkpt lat="48.64545" lon="7.27844">
        <ele>644</ele>
        <time>2011-07-10T09:23:45Z</time>
      </trkpt>
      <trkpt lat="48.6454" lon="7.27822">
        <ele>644</ele>
        <time>2011-07-10T09:23:49Z</time>
      </trkpt>
      <trkpt lat="48.64536" lon="7.27796">
        <ele>644</ele>
        <time>2011-07-10T09:23:53Z</time>
      </trkpt>
      <trkpt lat="48.64528" lon="7.27777">
        <ele>644</ele>
        <time>2011-07-10T09:23:56Z</time>
      </trkpt>
      <trkpt lat="48.64519" lon="7.27759">
        <ele>644</ele>
        <time>2011-07-10T09:23:59Z</time>
      </trkpt>
      <trkpt lat="48.6451" lon="7.27733">
        <ele>644.4</ele>
        <time>2011-07-10T09:24:03Z</time>
      </trkpt>
      <trkpt lat="48.64503" lon="7.27713">
        <ele>644.3</ele>
        <time>2011-07-10T09:24:06Z</time>
      </trkpt>
      <trkpt lat="48.64491" lon="7.27697">
        <ele>641.8</ele>
        <time>2011-07-10T09:24:09Z</time>
      </trkpt>
      <trkpt lat="48.64492" lon="7.27682">
        <ele>640.2</ele>
        <time>2011-07-10T09:24:11Z</time>
      </trkpt>
      <trkpt lat="48.6449" lon="7.27665">
        <ele>639.8</ele>
        <time>2011-07-10T09:24:13Z</time>
      </trkpt>
      <trkpt lat="48.64486" lon="7.2765">
        <ele>639.5</ele>
        <time>2011-07-10T09:24:15Z</time>
      </trkpt>
      <trkpt lat="48.64479" lon="7.27626">
        <ele>639.1</ele>
        <time>2011-07-10T09:24:18Z</time>
      </trkpt>
      <trkpt lat="48.64472" lon="7.27613">
        <ele>639.9</ele>
        <time>2011-07-10T09:24:20Z</time>
      </trkpt>
      <trkpt lat="48.64468" lon="7.27585">
        <ele>640.7</ele>
        <time>2011-07-10T09:24:24Z</time>
      </trkpt>
      <trkpt lat="48.64457" lon="7.27567">
        <ele>641.5</ele>
        <time>2011-07-10T09:24:27Z</time>
      </trkpt>
      <trkpt lat="48.64443" lon="7.27555">
        <ele>642.4</ele>
        <time>2011-07-10T09:24:30Z</time>
      </trkpt>
      <trkpt lat="48.64435" lon="7.27545">
        <ele>643.2</ele>
        <time>2011-07-10T09:24:35Z</time>
      </trkpt>
      <trkpt lat="48.64426" lon="7.27547">
        <ele>644.5</ele>
        <time>2011-07-10T09:24:39Z</time>
      </trkpt>
      <trkpt lat="48.64419" lon="7.27554">
        <ele>645.8</ele>
        <time>2011-07-10T09:24:46Z</time>
      </trkpt>
      <trkpt lat="48.64412" lon="7.27563">
        <ele>647.2</ele>
        <time>2011-07-10T09:24:51Z</time>
      </trkpt>
      <trkpt lat="48.64403" lon="7.27567">
        <ele>647.3</ele>
        <time>2011-07-10T09:24:54Z</time>
      </trkpt>
      <trkpt lat="48.64394" lon="7.27574">
        <ele>647.4</ele>
        <time>2011-07-10T09:24:58Z</time>
      </trkpt>
      <trkpt lat="48.64387" lon="7.2758">
        <ele>647.5</ele>
        <time>2011-07-10T09:25:02Z</time>
      </trkpt>
      <trkpt lat="48.64379" lon="7.27586">
        <ele>647.5</ele>
        <time>2011-07-10T09:25:05Z</time>
      </trkpt>
      <trkpt lat="48.64371" lon="7.27593">
        <ele>647.6</ele>
        <time>2011-07-10T09:25:09Z</time>
      </trkpt>
      <trkpt lat="48.64363" lon="7.27601">
        <ele>647.7</ele>
        <time>2011-07-10T09:25:14Z</time>
      </trkpt>
      <trkpt lat="48.64355" lon="7.27608">
        <ele>649.3</ele>
        <time>2011-07-10T09:25:18Z</time>
      </trkpt>
      <trkpt lat="48.64348" lon="7.27614">
        <ele>650.8</ele>
        <time>2011-07-10T09:25:21Z</time>
      </trkpt>
      <trkpt lat="48.64341" lon="7.2762">
        <ele>652.4</ele>
        <time>2011-07-10T09:25:25Z</time>
      </trkpt>
      <trkpt lat="48.64331" lon="7.27625">
        <ele>653.8</ele>
        <time>2011-07-10T09:25:28Z</time>
      </trkpt>
      <trkpt lat="48.64324" lon="7.27632">
        <ele>654.7</ele>
        <time>2011-07-10T09:25:31Z</time>
      </trkpt>
      <trkpt lat="48.64316" lon="7.27639">
        <ele>655.6</ele>
        <time>2011-07-10T09:25:35Z</time>
      </trkpt>
      <trkpt lat="48.64312" lon="7.27652">
        <ele>656.5</ele>
        <time>2011-07-10T09:25:42Z</time>
      </trkpt>
      <trkpt lat="48.64306" lon="7.27664">
        <ele>657.5</ele>
        <time>2011-07-10T09:25:48Z</time>
      </trkpt>
      <trkpt lat="48.64299" lon="7.27675">
        <ele>659.7</ele>
        <time>2011-07-10T09:25:52Z</time>
      </trkpt>
      <trkpt lat="48.64294" lon="7.27685">
        <ele>662</ele>
        <time>2011-07-10T09:25:56Z</time>
      </trkpt>
      <trkpt lat="48.64287" lon="7.27697">
        <ele>664.3</ele>
        <time>2011-07-10T09:26:00Z</time>
      </trkpt>
      <trkpt lat="48.64278" lon="7.27704">
        <ele>665.1</ele>
        <time>2011-07-10T09:26:05Z</time>
      </trkpt>
      <trkpt lat="48.64274" lon="7.27715">
        <ele>665.9</ele>
        <time>2011-07-10T09:26:09Z</time>
      </trkpt>
      <trkpt lat="48.64265" lon="7.27727">
        <ele>666.7</ele>
        <time>2011-07-10T09:26:15Z</time>
      </trkpt>
      <trkpt lat="48.64256" lon="7.27734">
        <ele>667.5</ele>
        <time>2011-07-10T09:26:19Z</time>
      </trkpt>
      <trkpt lat="48.64247" lon="7.27741">
        <ele>668.9</ele>
        <time>2011-07-10T09:26:24Z</time>
      </trkpt>
      <trkpt lat="48.6424" lon="7.27749">
        <ele>669.5</ele>
        <time>2011-07-10T09:26:30Z</time>
      </trkpt>
      <trkpt lat="48.64232" lon="7.27751">
        <ele>670.2</ele>
        <time>2011-07-10T09:26:37Z</time>
      </trkpt>
      <trkpt lat="48.64225" lon="7.27758">
        <ele>670.8</ele>
        <time>2011-07-10T09:26:43Z</time>
      </trkpt>
      <trkpt lat="48.64218" lon="7.27765">
        <ele>671.5</ele>
        <time>2011-07-10T09:26:48Z</time>
      </trkpt>
      <trkpt lat="48.6421" lon="7.27771">
        <ele>672.1</ele>
        <time>2011-07-10T09:26:52Z</time>
      </trkpt>
      <trkpt lat="48.64204" lon="7.27778">
        <ele>672.7</ele>
        <time>2011-07-10T09:26:59Z</time>
      </trkpt>
      <trkpt lat="48.64198" lon="7.27788">
        <ele>673.4</ele>
        <time>2011-07-10T09:27:04Z</time>
      </trkpt>
      <trkpt lat="48.64192" lon="7.27799">
        <ele>674</ele>
        <time>2011-07-10T09:27:14Z</time>
      </trkpt>
      <trkpt lat="48.64186" lon="7.27806">
        <ele>674.6</ele>
        <time>2011-07-10T09:27:19Z</time>
      </trkpt>
      <trkpt lat="48.64179" lon="7.27813">
        <ele>675.3</ele>
        <time>2011-07-10T09:27:27Z</time>
      </trkpt>
      <trkpt lat="48.64172" lon="7.27821">
        <ele>675.9</ele>
        <time>2011-07-10T09:27:33Z</time>
      </trkpt>
      <trkpt lat="48.64164" lon="7.27828">
        <ele>677.3</ele>
        <time>2011-07-10T09:27:39Z</time>
      </trkpt>
      <trkpt lat="48.64158" lon="7.27838">
        <ele>678.7</ele>
        <time>2011-07-10T09:27:44Z</time>
      </trkpt>
      <trkpt lat="48.64151" lon="7.2785">
        <ele>680.2</ele>
        <time>2011-07-10T09:27:51Z</time>
      </trkpt>
      <trkpt lat="48.64142" lon="7.27856">
        <ele>681.7</ele>
        <time>2011-07-10T09:27:57Z</time>
      </trkpt>
      <trkpt lat="48.64136" lon="7.27864">
        <ele>683.3</ele>
        <time>2011-07-10T09:28:03Z</time>
      </trkpt>
      <trkpt lat="48.64129" lon="7.27871">
        <ele>684.8</ele>
        <time>2011-07-10T09:28:11Z</time>
      </trkpt>
      <trkpt lat="48.6412" lon="7.27875">
        <ele>686.4</ele>
        <time>2011-07-10T09:28:19Z</time>
      </trkpt>
      <trkpt lat="48.64112" lon="7.27881">
        <ele>687.9</ele>
        <time>2011-07-10T09:28:26Z</time>
      </trkpt>
      <trkpt lat="48.64107" lon="7.27892">
        <ele>689.5</ele>
        <time>2011-07-10T09:28:33Z</time>
      </trkpt>
      <trkpt lat="48.64096" lon="7.27895">
        <ele>691</ele>
        <time>2011-07-10T09:28:39Z</time>
      </trkpt>
      <trkpt lat="48.64087" lon="7.27899">
        <ele>692.4</ele>
        <time>2011-07-10T09:28:44Z</time>
      </trkpt>
      <trkpt lat="48.64077" lon="7.27901">
        <ele>693.7</ele>
        <time>2011-07-10T09:28:48Z</time>
      </trkpt>
      <trkpt lat="48.64068" lon="7.27907">
        <ele>695</ele>
        <time>2011-07-10T09:28:51Z</time>
      </trkpt>
      <trkpt lat="48.64058" lon="7.2791">
        <ele>696.3</ele>
        <time>2011-07-10T09:28:53Z</time>
      </trkpt>
      <trkpt lat="48.64048" lon="7.27913">
        <ele>696.1</ele>
        <time>2011-07-10T09:28:57Z</time>
      </trkpt>
      <trkpt lat="48.64036" lon="7.27914">
        <ele>695.9</ele>
        <time>2011-07-10T09:29:00Z</time>
      </trkpt>
      <trkpt lat="48.64028" lon="7.27917">
        <ele>695.7</ele>
        <time>2011-07-10T09:29:03Z</time>
      </trkpt>
      <trkpt lat="48.64019" lon="7.27925">
        <ele>695.5</ele>
        <time>2011-07-10T09:29:07Z</time>
      </trkpt>
      <trkpt lat="48.6401" lon="7.27927">
        <ele>695.4</ele>
        <time>2011-07-10T09:29:12Z</time>
      </trkpt>
      <trkpt lat="48.64002" lon="7.27935">
        <ele>696.4</ele>
        <time>2011-07-10T09:29:18Z</time>
      </trkpt>
      <trkpt lat="48.63994" lon="7.27941">
        <ele>697.4</ele>
        <time>2011-07-10T09:29:23Z</time>
      </trkpt>
      <trkpt lat="48.63986" lon="7.27942">
        <ele>698.5</ele>
        <time>2011-07-10T09:29:29Z</time>
      </trkpt>
      <trkpt lat="48.63978" lon="7.27944">
        <ele>699.7</ele>
        <time>2011-07-10T09:29:37Z</time>
      </trkpt>
      <trkpt lat="48.63968" lon="7.27946">
        <ele>700.9</ele>
        <time>2011-07-10T09:29:41Z</time>
      </trkpt>
      <trkpt lat="48.6396" lon="7.27941">
        <ele>702.1</ele>
        <time>2011-07-10T09:29:52Z</time>
      </trkpt>
      <trkpt lat="48.63951" lon="7.27935">
        <ele>703.3</ele>
        <time>2011-07-10T09:29:58Z</time>
      </trkpt>
      <trkpt lat="48.63939" lon="7.27932">
        <ele>704.5</ele>
        <time>2011-07-10T09:30:02Z</time>
      </trkpt>
      <trkpt lat="48.63929" lon="7.2793">
        <ele>705.6</ele>
        <time>2011-07-10T09:30:05Z</time>
      </trkpt>
      <trkpt lat="48.63923" lon="7.27921">
        <ele>708.1</ele>
        <time>2011-07-10T09:30:12Z</time>
      </trkpt>
      <trkpt lat="48.63915" lon="7.27914">
        <ele>710.5</ele>
        <time>2011-07-10T09:30:20Z</time>
      </trkpt>
      <trkpt lat="48.63904" lon="7.27912">
        <ele>711.8</ele>
        <time>2011-07-10T09:30:24Z</time>
      </trkpt>
      <trkpt lat="48.63894" lon="7.27906">
        <ele>713.1</ele>
        <time>2011-07-10T09:30:30Z</time>
      </trkpt>
      <trkpt lat="48.63883" lon="7.27901">
        <ele>714.4</ele>
        <time>2011-07-10T09:30:35Z</time>
      </trkpt>
      <trkpt lat="48.63875" lon="7.27897">
        <ele>715.6</ele>
        <time>2011-07-10T09:30:40Z</time>
      </trkpt>
      <trkpt lat="48.63864" lon="7.27893">
        <ele>715.8</ele>
        <time>2011-07-10T09:30:55Z</time>
      </trkpt>
      <trkpt lat="48.63856" lon="7.27889">
        <ele>716</ele>
        <time>2011-07-10T09:31:04Z</time>
      </trkpt>
      <trkpt lat="48.63846" lon="7.27884">
        <ele>717.6</ele>
        <time>2011-07-10T09:31:14Z</time>
      </trkpt>
      <trkpt lat="48.63834" lon="7.27884">
        <ele>719.3</ele>
        <time>2011-07-10T09:31:20Z</time>
      </trkpt>
      <trkpt lat="48.63815" lon="7.27887">
        <ele>720.9</ele>
        <time>2011-07-10T09:31:27Z</time>
      </trkpt>
      <trkpt lat="48.63815" lon="7.27873">
        <ele>721.3</ele>
        <time>2011-07-10T09:31:39Z</time>
      </trkpt>
      <trkpt lat="48.63804" lon="7.2786">
        <ele>721.6</ele>
        <time>2011-07-10T09:31:46Z</time>
      </trkpt>
      <trkpt lat="48.63796" lon="7.27856">
        <ele>721.5</ele>
        <time>2011-07-10T09:31:50Z</time>
      </trkpt>
      <trkpt lat="48.63789" lon="7.27849">
        <ele>721.5</ele>
        <time>2011-07-10T09:31:55Z</time>
      </trkpt>
      <trkpt lat="48.63781" lon="7.27837">
        <ele>721.4</ele>
        <time>2011-07-10T09:32:01Z</time>
      </trkpt>
      <trkpt lat="48.63776" lon="7.27825">
        <ele>721.3</ele>
        <time>2011-07-10T09:32:06Z</time>
      </trkpt>
      <trkpt lat="48.6377" lon="7.27813">
        <ele>722.3</ele>
        <time>2011-07-10T09:32:11Z</time>
      </trkpt>
      <trkpt lat="48.6376" lon="7.27802">
        <ele>724.5</ele>
        <time>2011-07-10T09:32:16Z</time>
      </trkpt>
      <trkpt lat="48.63749" lon="7.27796">
        <ele>725.4</ele>
        <time>2011-07-10T09:32:21Z</time>
      </trkpt>
      <trkpt lat="48.6374" lon="7.27785">
        <ele>726.6</ele>
        <time>2011-07-10T09:32:27Z</time>
      </trkpt>
      <trkpt lat="48.63732" lon="7.27773">
        <ele>727.9</ele>
        <time>2011-07-10T09:32:34Z</time>
      </trkpt>
      <trkpt lat="48.63711" lon="7.27771">
        <ele>729.2</ele>
        <time>2011-07-10T09:32:40Z</time>
      </trkpt>
      <trkpt lat="48.63701" lon="7.27749">
        <ele>730.5</ele>
        <time>2011-07-10T09:32:47Z</time>
      </trkpt>
      <trkpt lat="48.6369" lon="7.27728">
        <ele>732.6</ele>
        <time>2011-07-10T09:32:52Z</time>
      </trkpt>
      <trkpt lat="48.63693" lon="7.27715">
        <ele>734.8</ele>
        <time>2011-07-10T09:32:54Z</time>
      </trkpt>
      <trkpt lat="48.63695" lon="7.27696">
        <ele>733.9</ele>
        <time>2011-07-10T09:32:56Z</time>
      </trkpt>
      <trkpt lat="48.63689" lon="7.27681">
        <ele>733</ele>
        <time>2011-07-10T09:32:58Z</time>
      </trkpt>
      <trkpt lat="48.63691" lon="7.27653">
        <ele>731.7</ele>
        <time>2011-07-10T09:33:01Z</time>
      </trkpt>
      <trkpt lat="48.63696" lon="7.27631">
        <ele>729.2</ele>
        <time>2011-07-10T09:33:03Z</time>
      </trkpt>
      <trkpt lat="48.63702" lon="7.27607">
        <ele>726.6</ele>
        <time>2011-07-10T09:33:05Z</time>
      </trkpt>
      <trkpt lat="48.63711" lon="7.27581">
        <ele>723.6</ele>
        <time>2011-07-10T09:33:07Z</time>
      </trkpt>
      <trkpt lat="48.63714" lon="7.27558">
        <ele>723.7</ele>
        <time>2011-07-10T09:33:09Z</time>
      </trkpt>
      <trkpt lat="48.63721" lon="7.27534">
        <ele>723.8</ele>
        <time>2011-07-10T09:33:11Z</time>
      </trkpt>
      <trkpt lat="48.63727" lon="7.27509">
        <ele>723.9</ele>
        <time>2011-07-10T09:33:13Z</time>
      </trkpt>
      <trkpt lat="48.63723" lon="7.27484">
        <ele>723.5</ele>
        <time>2011-07-10T09:33:16Z</time>
      </trkpt>
      <trkpt lat="48.6371" lon="7.27472">
        <ele>723</ele>
        <time>2011-07-10T09:33:20Z</time>
      </trkpt>
      <trkpt lat="48.63698" lon="7.27442">
        <ele>725.6</ele>
        <time>2011-07-10T09:33:29Z</time>
      </trkpt>
      <trkpt lat="48.63695" lon="7.27427">
        <ele>728.3</ele>
        <time>2011-07-10T09:33:32Z</time>
      </trkpt>
      <trkpt lat="48.63687" lon="7.27407">
        <ele>731.3</ele>
        <time>2011-07-10T09:33:37Z</time>
      </trkpt>
      <trkpt lat="48.63678" lon="7.27374">
        <ele>734.3</ele>
        <time>2011-07-10T09:33:44Z</time>
      </trkpt>
      <trkpt lat="48.63678" lon="7.27341">
        <ele>737.3</ele>
        <time>2011-07-10T09:33:49Z</time>
      </trkpt>
      <trkpt lat="48.6368" lon="7.27305">
        <ele>740.5</ele>
        <time>2011-07-10T09:33:55Z</time>
      </trkpt>
      <trkpt lat="48.63681" lon="7.2729">
        <ele>740.7</ele>
        <time>2011-07-10T09:33:57Z</time>
      </trkpt>
      <trkpt lat="48.63686" lon="7.27272">
        <ele>740.9</ele>
        <time>2011-07-10T09:33:59Z</time>
      </trkpt>
      <trkpt lat="48.63686" lon="7.27255">
        <ele>741.1</ele>
        <time>2011-07-10T09:34:01Z</time>
      </trkpt>
      <trkpt lat="48.63688" lon="7.27236">
        <ele>741.4</ele>
        <time>2011-07-10T09:34:03Z</time>
      </trkpt>
      <trkpt lat="48.63696" lon="7.27212">
        <ele>741.6</ele>
        <time>2011-07-10T09:34:06Z</time>
      </trkpt>
      <trkpt lat="48.63697" lon="7.27192">
        <ele>742.5</ele>
        <time>2011-07-10T09:34:08Z</time>
      </trkpt>
      <trkpt lat="48.63699" lon="7.27174">
        <ele>743.3</ele>
        <time>2011-07-10T09:34:10Z</time>
      </trkpt>
      <trkpt lat="48.637" lon="7.27161">
        <ele>740</ele>
        <time>2011-07-10T09:34:12Z</time>
      </trkpt>
      <trkpt lat="48.63702" lon="7.27146">
        <ele>736.7</ele>
        <time>2011-07-10T09:34:14Z</time>
      </trkpt>
      <trkpt lat="48.63704" lon="7.27132">
        <ele>733.5</ele>
        <time>2011-07-10T09:34:16Z</time>
      </trkpt>
      <trkpt lat="48.63708" lon="7.27121">
        <ele>730.5</ele>
        <time>2011-07-10T09:34:18Z</time>
      </trkpt>
      <trkpt lat="48.63709" lon="7.27107">
        <ele>727.6</ele>
        <time>2011-07-10T09:34:20Z</time>
      </trkpt>
      <trkpt lat="48.63712" lon="7.27092">
        <ele>724.7</ele>
        <time>2011-07-10T09:34:22Z</time>
      </trkpt>
      <trkpt lat="48.63713" lon="7.27076">
        <ele>721.8</ele>
        <time>2011-07-10T09:34:24Z</time>
      </trkpt>
      <trkpt lat="48.63716" lon="7.27058">
        <ele>718.9</ele>
        <time>2011-07-10T09:34:26Z</time>
      </trkpt>
      <trkpt lat="48.63718" lon="7.27042">
        <ele>716.1</ele>
        <time>2011-07-10T09:34:28Z</time>
      </trkpt>
      <trkpt lat="48.63721" lon="7.27027">
        <ele>712.7</ele>
        <time>2011-07-10T09:34:30Z</time>
      </trkpt>
      <trkpt lat="48.63724" lon="7.27011">
        <ele>709.4</ele>
        <time>2011-07-10T09:34:32Z</time>
      </trkpt>
      <trkpt lat="48.63727" lon="7.26995">
        <ele>710.1</ele>
        <time>2011-07-10T09:34:34Z</time>
      </trkpt>
      <trkpt lat="48.63731" lon="7.26978">
        <ele>710.8</ele>
        <time>2011-07-10T09:34:36Z</time>
      </trkpt>
      <trkpt lat="48.63733" lon="7.2696">
        <ele>711.2</ele>
        <time>2011-07-10T09:34:38Z</time>
      </trkpt>
      <trkpt lat="48.63735" lon="7.26941">
        <ele>710.9</ele>
        <time>2011-07-10T09:34:40Z</time>
      </trkpt>
      <trkpt lat="48.63738" lon="7.26922">
        <ele>710.6</ele>
        <time>2011-07-10T09:34:42Z</time>
      </trkpt>
      <trkpt lat="48.63738" lon="7.26908">
        <ele>710.4</ele>
        <time>2011-07-10T09:34:45Z</time>
      </trkpt>
      <trkpt lat="48.63738" lon="7.26894">
        <ele>710.1</ele>
        <time>2011-07-10T09:34:52Z</time>
      </trkpt>
      <trkpt lat="48.63735" lon="7.26882">
        <ele>709.8</ele>
        <time>2011-07-10T09:34:59Z</time>
      </trkpt>
      <trkpt lat="48.63732" lon="7.26871">
        <ele>709.5</ele>
        <time>2011-07-10T09:35:03Z</time>
      </trkpt>
      <trkpt lat="48.63731" lon="7.26856">
        <ele>708.4</ele>
        <time>2011-07-10T09:35:07Z</time>
      </trkpt>
      <trkpt lat="48.63728" lon="7.26841">
        <ele>707.3</ele>
        <time>2011-07-10T09:35:10Z</time>
      </trkpt>
      <trkpt lat="48.63721" lon="7.26829">
        <ele>706.2</ele>
        <time>2011-07-10T09:35:12Z</time>
      </trkpt>
      <trkpt lat="48.63717" lon="7.26818">
        <ele>705.1</ele>
        <time>2011-07-10T09:35:14Z</time>
      </trkpt>
      <trkpt lat="48.63715" lon="7.26805">
        <ele>704.4</ele>
        <time>2011-07-10T09:35:16Z</time>
      </trkpt>
      <trkpt lat="48.63712" lon="7.26791">
        <ele>705.8</ele>
        <time>2011-07-10T09:35:18Z</time>
      </trkpt>
      <trkpt lat="48.63717" lon="7.2678">
        <ele>705.4</ele>
        <time>2011-07-10T09:35:30Z</time>
      </trkpt>
      <trkpt lat="48.63717" lon="7.26765">
        <ele>704.9</ele>
        <time>2011-07-10T09:35:35Z</time>
      </trkpt>
      <trkpt lat="48.63717" lon="7.26751">
        <ele>704.5</ele>
        <time>2011-07-10T09:35:38Z</time>
      </trkpt>
      <trkpt lat="48.63714" lon="7.26739">
        <ele>704</ele>
        <time>2011-07-10T09:35:40Z</time>
      </trkpt>
      <trkpt lat="48.63707" lon="7.26725">
        <ele>703.5</ele>
        <time>2011-07-10T09:35:43Z</time>
      </trkpt>
      <trkpt lat="48.63699" lon="7.2671">
        <ele>703.8</ele>
        <time>2011-07-10T09:35:46Z</time>
      </trkpt>
      <trkpt lat="48.63691" lon="7.26694">
        <ele>702.3</ele>
        <time>2011-07-10T09:35:49Z</time>
      </trkpt>
      <trkpt lat="48.63681" lon="7.26679">
        <ele>700.7</ele>
        <time>2011-07-10T09:35:52Z</time>
      </trkpt>
      <trkpt lat="48.63673" lon="7.2667">
        <ele>701.2</ele>
        <time>2011-07-10T09:35:54Z</time>
      </trkpt>
      <trkpt lat="48.63662" lon="7.2666">
        <ele>701.6</ele>
        <time>2011-07-10T09:35:56Z</time>
      </trkpt>
      <trkpt lat="48.63653" lon="7.26646">
        <ele>699.9</ele>
        <time>2011-07-10T09:35:58Z</time>
      </trkpt>
      <trkpt lat="48.63643" lon="7.26632">
        <ele>700.1</ele>
        <time>2011-07-10T09:36:00Z</time>
      </trkpt>
      <trkpt lat="48.63631" lon="7.26611">
        <ele>700.3</ele>
        <time>2011-07-10T09:36:02Z</time>
      </trkpt>
      <trkpt lat="48.63622" lon="7.26596">
        <ele>700.5</ele>
        <time>2011-07-10T09:36:04Z</time>
      </trkpt>
      <trkpt lat="48.63615" lon="7.26582">
        <ele>700.6</ele>
        <time>2011-07-10T09:36:06Z</time>
      </trkpt>
      <trkpt lat="48.63607" lon="7.2657">
        <ele>699.5</ele>
        <time>2011-07-10T09:36:08Z</time>
      </trkpt>
      <trkpt lat="48.63596" lon="7.26561">
        <ele>698.3</ele>
        <time>2011-07-10T09:36:11Z</time>
      </trkpt>
      <trkpt lat="48.63583" lon="7.26562">
        <ele>698.9</ele>
        <time>2011-07-10T09:36:13Z</time>
      </trkpt>
      <trkpt lat="48.63575" lon="7.26565">
        <ele>699.5</ele>
        <time>2011-07-10T09:36:17Z</time>
      </trkpt>
      <trkpt lat="48.6357" lon="7.26552">
        <ele>698.2</ele>
        <time>2011-07-10T09:36:34Z</time>
      </trkpt>
      <trkpt lat="48.63569" lon="7.26536">
        <ele>695.8</ele>
        <time>2011-07-10T09:36:37Z</time>
      </trkpt>
      <trkpt lat="48.63565" lon="7.26523">
        <ele>693.5</ele>
        <time>2011-07-10T09:36:40Z</time>
      </trkpt>
      <trkpt lat="48.63561" lon="7.26506">
        <ele>691.1</ele>
        <time>2011-07-10T09:36:43Z</time>
      </trkpt>
      <trkpt lat="48.63558" lon="7.26491">
        <ele>691.6</ele>
        <time>2011-07-10T09:36:45Z</time>
      </trkpt>
      <trkpt lat="48.63556" lon="7.26472">
        <ele>692.2</ele>
        <time>2011-07-10T09:36:47Z</time>
      </trkpt>
      <trkpt lat="48.63555" lon="7.26458">
        <ele>692.7</ele>
        <time>2011-07-10T09:36:49Z</time>
      </trkpt>
      <trkpt lat="48.6355" lon="7.26446">
        <ele>694.1</ele>
        <time>2011-07-10T09:36:53Z</time>
      </trkpt>
      <trkpt lat="48.63545" lon="7.26433">
        <ele>695.5</ele>
        <time>2011-07-10T09:37:05Z</time>
      </trkpt>
      <trkpt lat="48.63543" lon="7.26418">
        <ele>696.8</ele>
        <time>2011-07-10T09:37:07Z</time>
      </trkpt>
      <trkpt lat="48.63543" lon="7.26399">
        <ele>698.2</ele>
        <time>2011-07-10T09:37:09Z</time>
      </trkpt>
      <trkpt lat="48.63541" lon="7.26384">
        <ele>698.6</ele>
        <time>2011-07-10T09:37:11Z</time>
      </trkpt>
      <trkpt lat="48.63542" lon="7.2637">
        <ele>700.1</ele>
        <time>2011-07-10T09:37:13Z</time>
      </trkpt>
      <trkpt lat="48.63541" lon="7.26357">
        <ele>701.5</ele>
        <time>2011-07-10T09:37:16Z</time>
      </trkpt>
      <trkpt lat="48.6354" lon="7.2634">
        <ele>703</ele>
        <time>2011-07-10T09:37:21Z</time>
      </trkpt>
      <trkpt lat="48.6354" lon="7.26321">
        <ele>701.5</ele>
        <time>2011-07-10T09:37:25Z</time>
      </trkpt>
      <trkpt lat="48.63541" lon="7.26295">
        <ele>699.4</ele>
        <time>2011-07-10T09:37:28Z</time>
      </trkpt>
      <trkpt lat="48.63542" lon="7.26274">
        <ele>697.2</ele>
        <time>2011-07-10T09:37:30Z</time>
      </trkpt>
      <trkpt lat="48.63538" lon="7.26258">
        <ele>695.5</ele>
        <time>2011-07-10T09:37:32Z</time>
      </trkpt>
      <trkpt lat="48.63535" lon="7.2624">
        <ele>693.9</ele>
        <time>2011-07-10T09:37:35Z</time>
      </trkpt>
      <trkpt lat="48.6353" lon="7.26223">
        <ele>692.3</ele>
        <time>2011-07-10T09:37:38Z</time>
      </trkpt>
      <trkpt lat="48.63527" lon="7.26201">
        <ele>690.6</ele>
        <time>2011-07-10T09:37:41Z</time>
      </trkpt>
      <trkpt lat="48.63522" lon="7.26184">
        <ele>689.9</ele>
        <time>2011-07-10T09:37:44Z</time>
      </trkpt>
      <trkpt lat="48.63512" lon="7.26168">
        <ele>689.9</ele>
        <time>2011-07-10T09:37:48Z</time>
      </trkpt>
      <trkpt lat="48.63502" lon="7.26157">
        <ele>689.9</ele>
        <time>2011-07-10T09:37:52Z</time>
      </trkpt>
      <trkpt lat="48.63491" lon="7.26147">
        <ele>689.9</ele>
        <time>2011-07-10T09:37:55Z</time>
      </trkpt>
      <trkpt lat="48.63478" lon="7.26142">
        <ele>689.9</ele>
        <time>2011-07-10T09:37:58Z</time>
      </trkpt>
      <trkpt lat="48.63467" lon="7.26143">
        <ele>690.6</ele>
        <time>2011-07-10T09:38:01Z</time>
      </trkpt>
      <trkpt lat="48.63457" lon="7.26138">
        <ele>691.4</ele>
        <time>2011-07-10T09:38:05Z</time>
      </trkpt>
      <trkpt lat="48.63443" lon="7.26141">
        <ele>692.1</ele>
        <time>2011-07-10T09:38:10Z</time>
      </trkpt>
      <trkpt lat="48.63435" lon="7.26139">
        <ele>692.8</ele>
        <time>2011-07-10T09:38:19Z</time>
      </trkpt>
      <trkpt lat="48.63426" lon="7.26136">
        <ele>694</ele>
        <time>2011-07-10T09:38:34Z</time>
      </trkpt>
      <trkpt lat="48.63412" lon="7.26137">
        <ele>695.2</ele>
        <time>2011-07-10T09:38:39Z</time>
      </trkpt>
      <trkpt lat="48.63402" lon="7.26138">
        <ele>696.4</ele>
        <time>2011-07-10T09:38:43Z</time>
      </trkpt>
      <trkpt lat="48.63394" lon="7.26136">
        <ele>694.8</ele>
        <time>2011-07-10T09:38:48Z</time>
      </trkpt>
      <trkpt lat="48.63386" lon="7.26134">
        <ele>693.3</ele>
        <time>2011-07-10T09:38:51Z</time>
      </trkpt>
      <trkpt lat="48.63377" lon="7.26134">
        <ele>691.7</ele>
        <time>2011-07-10T09:38:54Z</time>
      </trkpt>
      <trkpt lat="48.63368" lon="7.26133">
        <ele>690.2</ele>
        <time>2011-07-10T09:38:58Z</time>
      </trkpt>
      <trkpt lat="48.63358" lon="7.26132">
        <ele>688.6</ele>
        <time>2011-07-10T09:39:02Z</time>
      </trkpt>
      <trkpt lat="48.63349" lon="7.26129">
        <ele>687.1</ele>
        <time>2011-07-10T09:39:07Z</time>
      </trkpt>
      <trkpt lat="48.63339" lon="7.26126">
        <ele>685.5</ele>
        <time>2011-07-10T09:39:11Z</time>
      </trkpt>
      <trkpt lat="48.63326" lon="7.26123">
        <ele>684</ele>
        <time>2011-07-10T09:39:14Z</time>
      </trkpt>
      <trkpt lat="48.63314" lon="7.26119">
        <ele>682</ele>
        <time>2011-07-10T09:39:19Z</time>
      </trkpt>
      <trkpt lat="48.63323" lon="7.26124">
        <ele>680</ele>
        <time>2011-07-10T09:39:37Z</time>
      </trkpt>
      <trkpt lat="48.63332" lon="7.26124">
        <ele>677.8</ele>
        <time>2011-07-10T09:39:42Z</time>
      </trkpt>
      <trkpt lat="48.63341" lon="7.26121">
        <ele>677.6</ele>
        <time>2011-07-10T09:39:45Z</time>
      </trkpt>
      <trkpt lat="48.6335" lon="7.26118">
        <ele>677.5</ele>
        <time>2011-07-10T09:39:49Z</time>
      </trkpt>
      <trkpt lat="48.6336" lon="7.26116">
        <ele>677.3</ele>
        <time>2011-07-10T09:39:53Z</time>
      </trkpt>
      <trkpt lat="48.63372" lon="7.2611">
        <ele>677.1</ele>
        <time>2011-07-10T09:39:57Z</time>
      </trkpt>
      <trkpt lat="48.63382" lon="7.26109">
        <ele>676.9</ele>
        <time>2011-07-10T09:40:00Z</time>
      </trkpt>
      <trkpt lat="48.63392" lon="7.26109">
        <ele>676.7</ele>
        <time>2011-07-10T09:40:03Z</time>
      </trkpt>
      <trkpt lat="48.63402" lon="7.26107">
        <ele>676.5</ele>
        <time>2011-07-10T09:40:06Z</time>
      </trkpt>
      <trkpt lat="48.63413" lon="7.26105">
        <ele>676.4</ele>
        <time>2011-07-10T09:40:09Z</time>
      </trkpt>
      <trkpt lat="48.63421" lon="7.26099">
        <ele>676.3</ele>
        <time>2011-07-10T09:40:17Z</time>
      </trkpt>
      <trkpt lat="48.63429" lon="7.26101">
        <ele>676.2</ele>
        <time>2011-07-10T09:40:22Z</time>
      </trkpt>
      <trkpt lat="48.63438" lon="7.26098">
        <ele>676.3</ele>
        <time>2011-07-10T09:40:25Z</time>
      </trkpt>
      <trkpt lat="48.63448" lon="7.26096">
        <ele>676.4</ele>
        <time>2011-07-10T09:40:28Z</time>
      </trkpt>
      <trkpt lat="48.63458" lon="7.26093">
        <ele>675.5</ele>
        <time>2011-07-10T09:40:30Z</time>
      </trkpt>
      <trkpt lat="48.6347" lon="7.26088">
        <ele>674.5</ele>
        <time>2011-07-10T09:40:33Z</time>
      </trkpt>
      <trkpt lat="48.63477" lon="7.2608">
        <ele>673.6</ele>
        <time>2011-07-10T09:40:35Z</time>
      </trkpt>
      <trkpt lat="48.63486" lon="7.2607">
        <ele>672.7</ele>
        <time>2011-07-10T09:40:37Z</time>
      </trkpt>
      <trkpt lat="48.63496" lon="7.26057">
        <ele>671.8</ele>
        <time>2011-07-10T09:40:39Z</time>
      </trkpt>
      <trkpt lat="48.63502" lon="7.26047">
        <ele>670.9</ele>
        <time>2011-07-10T09:40:41Z</time>
      </trkpt>
      <trkpt lat="48.63509" lon="7.26037">
        <ele>670</ele>
        <time>2011-07-10T09:40:44Z</time>
      </trkpt>
      <trkpt lat="48.63519" lon="7.26035">
        <ele>669</ele>
        <time>2011-07-10T09:40:55Z</time>
      </trkpt>
      <trkpt lat="48.63527" lon="7.26032">
        <ele>668</ele>
        <time>2011-07-10T09:40:59Z</time>
      </trkpt>
      <trkpt lat="48.63531" lon="7.2602">
        <ele>665.5</ele>
        <time>2011-07-10T09:41:03Z</time>
      </trkpt>
      <trkpt lat="48.63532" lon="7.26007">
        <ele>662.9</ele>
        <time>2011-07-10T09:41:06Z</time>
      </trkpt>
      <trkpt lat="48.63537" lon="7.25994">
        <ele>661.4</ele>
        <time>2011-07-10T09:41:09Z</time>
      </trkpt>
      <trkpt lat="48.63542" lon="7.25981">
        <ele>659.8</ele>
        <time>2011-07-10T09:41:11Z</time>
      </trkpt>
      <trkpt lat="48.63544" lon="7.25967">
        <ele>658.3</ele>
        <time>2011-07-10T09:41:13Z</time>
      </trkpt>
      <trkpt lat="48.63545" lon="7.25949">
        <ele>656.8</ele>
        <time>2011-07-10T09:41:16Z</time>
      </trkpt>
      <trkpt lat="48.63546" lon="7.25935">
        <ele>655.4</ele>
        <time>2011-07-10T09:41:18Z</time>
      </trkpt>
      <trkpt lat="48.63546" lon="7.2592">
        <ele>653.9</ele>
        <time>2011-07-10T09:41:21Z</time>
      </trkpt>
      <trkpt lat="48.63548" lon="7.25904">
        <ele>652.5</ele>
        <time>2011-07-10T09:41:24Z</time>
      </trkpt>
      <trkpt lat="48.63553" lon="7.25891">
        <ele>651</ele>
        <time>2011-07-10T09:41:27Z</time>
      </trkpt>
      <trkpt lat="48.63562" lon="7.25877">
        <ele>649.5</ele>
        <time>2011-07-10T09:41:30Z</time>
      </trkpt>
      <trkpt lat="48.63572" lon="7.25862">
        <ele>649.4</ele>
        <time>2011-07-10T09:41:33Z</time>
      </trkpt>
      <trkpt lat="48.6358" lon="7.25851">
        <ele>649.2</ele>
        <time>2011-07-10T09:41:35Z</time>
      </trkpt>
      <trkpt lat="48.63588" lon="7.25842">
        <ele>649</ele>
        <time>2011-07-10T09:41:37Z</time>
      </trkpt>
      <trkpt lat="48.63598" lon="7.25827">
        <ele>648.8</ele>
        <time>2011-07-10T09:41:39Z</time>
      </trkpt>
      <trkpt lat="48.63606" lon="7.25814">
        <ele>648.8</ele>
        <time>2011-07-10T09:41:41Z</time>
      </trkpt>
      <trkpt lat="48.63612" lon="7.258">
        <ele>648.7</ele>
        <time>2011-07-10T09:41:43Z</time>
      </trkpt>
      <trkpt lat="48.63617" lon="7.25787">
        <ele>649</ele>
        <time>2011-07-10T09:41:45Z</time>
      </trkpt>
      <trkpt lat="48.63621" lon="7.25775">
        <ele>649.3</ele>
        <time>2011-07-10T09:41:47Z</time>
      </trkpt>
      <trkpt lat="48.63624" lon="7.2576">
        <ele>649.5</ele>
        <time>2011-07-10T09:41:49Z</time>
      </trkpt>
      <trkpt lat="48.63629" lon="7.25746">
        <ele>649.8</ele>
        <time>2011-07-10T09:41:51Z</time>
      </trkpt>
      <trkpt lat="48.63632" lon="7.2573">
        <ele>650.1</ele>
        <time>2011-07-10T09:41:53Z</time>
      </trkpt>
      <trkpt lat="48.63635" lon="7.25717">
        <ele>650.6</ele>
        <time>2011-07-10T09:41:56Z</time>
      </trkpt>
      <trkpt lat="48.63639" lon="7.257">
        <ele>650.9</ele>
        <time>2011-07-10T09:41:59Z</time>
      </trkpt>
      <trkpt lat="48.63643" lon="7.25685">
        <ele>651.2</ele>
        <time>2011-07-10T09:42:02Z</time>
      </trkpt>
      <trkpt lat="48.63645" lon="7.25671">
        <ele>651.5</ele>
        <time>2011-07-10T09:42:04Z</time>
      </trkpt>
      <trkpt lat="48.63649" lon="7.25654">
        <ele>651.5</ele>
        <time>2011-07-10T09:42:07Z</time>
      </trkpt>
      <trkpt lat="48.63652" lon="7.25641">
        <ele>651.6</ele>
        <time>2011-07-10T09:42:09Z</time>
      </trkpt>
      <trkpt lat="48.63658" lon="7.25626">
        <ele>651.4</ele>
        <time>2011-07-10T09:42:12Z</time>
      </trkpt>
      <trkpt lat="48.63661" lon="7.25612">
        <ele>651.1</ele>
        <time>2011-07-10T09:42:14Z</time>
      </trkpt>
      <trkpt lat="48.63666" lon="7.25601">
        <ele>650.2</ele>
        <time>2011-07-10T09:42:16Z</time>
      </trkpt>
      <trkpt lat="48.63669" lon="7.25587">
        <ele>649.3</ele>
        <time>2011-07-10T09:42:18Z</time>
      </trkpt>
      <trkpt lat="48.63673" lon="7.25576">
        <ele>648.4</ele>
        <time>2011-07-10T09:42:20Z</time>
      </trkpt>
      <trkpt lat="48.63676" lon="7.25561">
        <ele>647.5</ele>
        <time>2011-07-10T09:42:22Z</time>
      </trkpt>
      <trkpt lat="48.63681" lon="7.25549">
        <ele>646.8</ele>
        <time>2011-07-10T09:42:24Z</time>
      </trkpt>
      <trkpt lat="48.63686" lon="7.25538">
        <ele>646.2</ele>
        <time>2011-07-10T09:42:27Z</time>
      </trkpt>
      <trkpt lat="48.6369" lon="7.25526">
        <ele>646.5</ele>
        <time>2011-07-10T09:42:30Z</time>
      </trkpt>
      <trkpt lat="48.63693" lon="7.25514">
        <ele>646.9</ele>
        <time>2011-07-10T09:42:32Z</time>
      </trkpt>
      <trkpt lat="48.63697" lon="7.25499">
        <ele>647.3</ele>
        <time>2011-07-10T09:42:36Z</time>
      </trkpt>
      <trkpt lat="48.63701" lon="7.25486">
        <ele>647.6</ele>
        <time>2011-07-10T09:42:38Z</time>
      </trkpt>
      <trkpt lat="48.63706" lon="7.25472">
        <ele>648</ele>
        <time>2011-07-10T09:42:40Z</time>
      </trkpt>
      <trkpt lat="48.63712" lon="7.25455">
        <ele>647.8</ele>
        <time>2011-07-10T09:42:42Z</time>
      </trkpt>
      <trkpt lat="48.63718" lon="7.2544">
        <ele>647.6</ele>
        <time>2011-07-10T09:42:44Z</time>
      </trkpt>
      <trkpt lat="48.63723" lon="7.25428">
        <ele>647.5</ele>
        <time>2011-07-10T09:42:46Z</time>
      </trkpt>
      <trkpt lat="48.6373" lon="7.2541">
        <ele>647.3</ele>
        <time>2011-07-10T09:42:48Z</time>
      </trkpt>
      <trkpt lat="48.63735" lon="7.25391">
        <ele>647.1</ele>
        <time>2011-07-10T09:42:50Z</time>
      </trkpt>
      <trkpt lat="48.63743" lon="7.2537">
        <ele>646.3</ele>
        <time>2011-07-10T09:42:52Z</time>
      </trkpt>
      <trkpt lat="48.6375" lon="7.25352">
        <ele>644.5</ele>
        <time>2011-07-10T09:42:54Z</time>
      </trkpt>
      <trkpt lat="48.63756" lon="7.25333">
        <ele>642.6</ele>
        <time>2011-07-10T09:42:56Z</time>
      </trkpt>
      <trkpt lat="48.63759" lon="7.25319">
        <ele>640.8</ele>
        <time>2011-07-10T09:42:58Z</time>
      </trkpt>
      <trkpt lat="48.63762" lon="7.25304">
        <ele>639</ele>
        <time>2011-07-10T09:43:01Z</time>
      </trkpt>
      <trkpt lat="48.63765" lon="7.25292">
        <ele>636.3</ele>
        <time>2011-07-10T09:43:03Z</time>
      </trkpt>
      <trkpt lat="48.63769" lon="7.2528">
        <ele>635.9</ele>
        <time>2011-07-10T09:43:05Z</time>
      </trkpt>
      <trkpt lat="48.63774" lon="7.25263">
        <ele>635.5</ele>
        <time>2011-07-10T09:43:08Z</time>
      </trkpt>
      <trkpt lat="48.63782" lon="7.25239">
        <ele>635.2</ele>
        <time>2011-07-10T09:43:10Z</time>
      </trkpt>
      <trkpt lat="48.63787" lon="7.25223">
        <ele>633.9</ele>
        <time>2011-07-10T09:43:12Z</time>
      </trkpt>
      <trkpt lat="48.63793" lon="7.25207">
        <ele>632.6</ele>
        <time>2011-07-10T09:43:14Z</time>
      </trkpt>
      <trkpt lat="48.63801" lon="7.25192">
        <ele>632</ele>
        <time>2011-07-10T09:43:16Z</time>
      </trkpt>
      <trkpt lat="48.63812" lon="7.25166">
        <ele>631.4</ele>
        <time>2011-07-10T09:43:18Z</time>
      </trkpt>
      <trkpt lat="48.63819" lon="7.25146">
        <ele>630.7</ele>
        <time>2011-07-10T09:43:20Z</time>
      </trkpt>
      <trkpt lat="48.63827" lon="7.25129">
        <ele>630.1</ele>
        <time>2011-07-10T09:43:22Z</time>
      </trkpt>
      <trkpt lat="48.63834" lon="7.25115">
        <ele>628.6</ele>
        <time>2011-07-10T09:43:24Z</time>
      </trkpt>
      <trkpt lat="48.6384" lon="7.25104">
        <ele>628.8</ele>
        <time>2011-07-10T09:43:25Z</time>
      </trkpt>
      <trkpt lat="48.6385" lon="7.25089">
        <ele>627.8</ele>
        <time>2011-07-10T09:43:27Z</time>
      </trkpt>
      <trkpt lat="48.63862" lon="7.25075">
        <ele>626.8</ele>
        <time>2011-07-10T09:43:29Z</time>
      </trkpt>
      <trkpt lat="48.63871" lon="7.2506">
        <ele>625.8</ele>
        <time>2011-07-10T09:43:31Z</time>
      </trkpt>
      <trkpt lat="48.6388" lon="7.25043">
        <ele>625.7</ele>
        <time>2011-07-10T09:43:33Z</time>
      </trkpt>
      <trkpt lat="48.6389" lon="7.25027">
        <ele>625.4</ele>
        <time>2011-07-10T09:43:35Z</time>
      </trkpt>
      <trkpt lat="48.63898" lon="7.25014">
        <ele>625</ele>
        <time>2011-07-10T09:43:37Z</time>
      </trkpt>
      <trkpt lat="48.63907" lon="7.24999">
        <ele>624.6</ele>
        <time>2011-07-10T09:43:39Z</time>
      </trkpt>
      <trkpt lat="48.63915" lon="7.24988">
        <ele>624.3</ele>
        <time>2011-07-10T09:43:41Z</time>
      </trkpt>
      <trkpt lat="48.63925" lon="7.24968">
        <ele>623.2</ele>
        <time>2011-07-10T09:43:43Z</time>
      </trkpt>
      <trkpt lat="48.63929" lon="7.24957">
        <ele>622.9</ele>
        <time>2011-07-10T09:43:44Z</time>
      </trkpt>
      <trkpt lat="48.63934" lon="7.24936">
        <ele>621.9</ele>
        <time>2011-07-10T09:43:46Z</time>
      </trkpt>
      <trkpt lat="48.63937" lon="7.24915">
        <ele>620.9</ele>
        <time>2011-07-10T09:43:48Z</time>
      </trkpt>
      <trkpt lat="48.6394" lon="7.24893">
        <ele>618.6</ele>
        <time>2011-07-10T09:43:50Z</time>
      </trkpt>
      <trkpt lat="48.63944" lon="7.24872">
        <ele>617.5</ele>
        <time>2011-07-10T09:43:52Z</time>
      </trkpt>
      <trkpt lat="48.63948" lon="7.24851">
        <ele>616.5</ele>
        <time>2011-07-10T09:43:54Z</time>
      </trkpt>
      <trkpt lat="48.63951" lon="7.24833">
        <ele>615.6</ele>
        <time>2011-07-10T09:43:56Z</time>
      </trkpt>
      <trkpt lat="48.63956" lon="7.24811">
        <ele>614.8</ele>
        <time>2011-07-10T09:43:58Z</time>
      </trkpt>
      <trkpt lat="48.63958" lon="7.24798">
        <ele>612.7</ele>
        <time>2011-07-10T09:43:59Z</time>
      </trkpt>
      <trkpt lat="48.63964" lon="7.24778">
        <ele>610.6</ele>
        <time>2011-07-10T09:44:01Z</time>
      </trkpt>
      <trkpt lat="48.63968" lon="7.24765">
        <ele>609.3</ele>
        <time>2011-07-10T09:44:03Z</time>
      </trkpt>
      <trkpt lat="48.63974" lon="7.24748">
        <ele>607.9</ele>
        <time>2011-07-10T09:44:05Z</time>
      </trkpt>
      <trkpt lat="48.63981" lon="7.24729">
        <ele>606.5</ele>
        <time>2011-07-10T09:44:07Z</time>
      </trkpt>
      <trkpt lat="48.63986" lon="7.24716">
        <ele>605.2</ele>
        <time>2011-07-10T09:44:09Z</time>
      </trkpt>
      <trkpt lat="48.63994" lon="7.24703">
        <ele>605.1</ele>
        <time>2011-07-10T09:44:11Z</time>
      </trkpt>
      <trkpt lat="48.63999" lon="7.24693">
        <ele>603.8</ele>
        <time>2011-07-10T09:44:12Z</time>
      </trkpt>
      <trkpt lat="48.64005" lon="7.24682">
        <ele>601.7</ele>
        <time>2011-07-10T09:44:13Z</time>
      </trkpt>
      <trkpt lat="48.6401" lon="7.24673">
        <ele>599.6</ele>
        <time>2011-07-10T09:44:14Z</time>
      </trkpt>
      <trkpt lat="48.64017" lon="7.24665">
        <ele>597.5</ele>
        <time>2011-07-10T09:44:15Z</time>
      </trkpt>
      <trkpt lat="48.64026" lon="7.24652">
        <ele>596.7</ele>
        <time>2011-07-10T09:44:17Z</time>
      </trkpt>
      <trkpt lat="48.64036" lon="7.24638">
        <ele>595.9</ele>
        <time>2011-07-10T09:44:19Z</time>
      </trkpt>
      <trkpt lat="48.64046" lon="7.24627">
        <ele>595.1</ele>
        <time>2011-07-10T09:44:21Z</time>
      </trkpt>
      <trkpt lat="48.64055" lon="7.24623">
        <ele>594.3</ele>
        <time>2011-07-10T09:44:24Z</time>
      </trkpt>
      <trkpt lat="48.64067" lon="7.24616">
        <ele>593.5</ele>
        <time>2011-07-10T09:44:26Z</time>
      </trkpt>
      <trkpt lat="48.64076" lon="7.2461">
        <ele>592.6</ele>
        <time>2011-07-10T09:44:28Z</time>
      </trkpt>
      <trkpt lat="48.64084" lon="7.24607">
        <ele>591.2</ele>
        <time>2011-07-10T09:44:30Z</time>
      </trkpt>
      <trkpt lat="48.64092" lon="7.24602">
        <ele>589.7</ele>
        <time>2011-07-10T09:44:32Z</time>
      </trkpt>
      <trkpt lat="48.64101" lon="7.24597">
        <ele>589.1</ele>
        <time>2011-07-10T09:44:34Z</time>
      </trkpt>
      <trkpt lat="48.64111" lon="7.24596">
        <ele>588.5</ele>
        <time>2011-07-10T09:44:36Z</time>
      </trkpt>
      <trkpt lat="48.64122" lon="7.24592">
        <ele>587.6</ele>
        <time>2011-07-10T09:44:38Z</time>
      </trkpt>
      <trkpt lat="48.64133" lon="7.24587">
        <ele>586.8</ele>
        <time>2011-07-10T09:44:40Z</time>
      </trkpt>
      <trkpt lat="48.64142" lon="7.24579">
        <ele>586</ele>
        <time>2011-07-10T09:44:42Z</time>
      </trkpt>
      <trkpt lat="48.64154" lon="7.24565">
        <ele>585.2</ele>
        <time>2011-07-10T09:44:45Z</time>
      </trkpt>
      <trkpt lat="48.64157" lon="7.24552">
        <ele>584.4</ele>
        <time>2011-07-10T09:44:47Z</time>
      </trkpt>
      <trkpt lat="48.64157" lon="7.24534">
        <ele>583.7</ele>
        <time>2011-07-10T09:44:50Z</time>
      </trkpt>
      <trkpt lat="48.64153" lon="7.24513">
        <ele>583.1</ele>
        <time>2011-07-10T09:44:53Z</time>
      </trkpt>
      <trkpt lat="48.64156" lon="7.24497">
        <ele>583.1</ele>
        <time>2011-07-10T09:44:55Z</time>
      </trkpt>
      <trkpt lat="48.64159" lon="7.24479">
        <ele>583.1</ele>
        <time>2011-07-10T09:44:58Z</time>
      </trkpt>
      <trkpt lat="48.64165" lon="7.24463">
        <ele>583.1</ele>
        <time>2011-07-10T09:45:00Z</time>
      </trkpt>
      <trkpt lat="48.64169" lon="7.24451">
        <ele>583.1</ele>
        <time>2011-07-10T09:45:01Z</time>
      </trkpt>
      <trkpt lat="48.64173" lon="7.24438">
        <ele>583.3</ele>
        <time>2011-07-10T09:45:02Z</time>
      </trkpt>
      <trkpt lat="48.64176" lon="7.24427">
        <ele>583.5</ele>
        <time>2011-07-10T09:45:03Z</time>
      </trkpt>
      <trkpt lat="48.64181" lon="7.24415">
        <ele>583.6</ele>
        <time>2011-07-10T09:45:04Z</time>
      </trkpt>
      <trkpt lat="48.64184" lon="7.24392">
        <ele>583.5</ele>
        <time>2011-07-10T09:45:06Z</time>
      </trkpt>
      <trkpt lat="48.64188" lon="7.24371">
        <ele>583.3</ele>
        <time>2011-07-10T09:45:08Z</time>
      </trkpt>
      <trkpt lat="48.64191" lon="7.2435">
        <ele>582.9</ele>
        <time>2011-07-10T09:45:10Z</time>
      </trkpt>
      <trkpt lat="48.64191" lon="7.24329">
        <ele>582.5</ele>
        <time>2011-07-10T09:45:12Z</time>
      </trkpt>
      <trkpt lat="48.64191" lon="7.2431">
        <ele>582.2</ele>
        <time>2011-07-10T09:45:14Z</time>
      </trkpt>
      <trkpt lat="48.64192" lon="7.24291">
        <ele>581.4</ele>
        <time>2011-07-10T09:45:16Z</time>
      </trkpt>
      <trkpt lat="48.64189" lon="7.24275">
        <ele>580.5</ele>
        <time>2011-07-10T09:45:18Z</time>
      </trkpt>
      <trkpt lat="48.64186" lon="7.24258">
        <ele>579.7</ele>
        <time>2011-07-10T09:45:20Z</time>
      </trkpt>
      <trkpt lat="48.6418" lon="7.24245">
        <ele>578.9</ele>
        <time>2011-07-10T09:45:22Z</time>
      </trkpt>
      <trkpt lat="48.64174" lon="7.2423">
        <ele>578.1</ele>
        <time>2011-07-10T09:45:24Z</time>
      </trkpt>
      <trkpt lat="48.64169" lon="7.24213">
        <ele>577.1</ele>
        <time>2011-07-10T09:45:26Z</time>
      </trkpt>
      <trkpt lat="48.64169" lon="7.24186">
        <ele>576.5</ele>
        <time>2011-07-10T09:45:29Z</time>
      </trkpt>
      <trkpt lat="48.64168" lon="7.24168">
        <ele>575.8</ele>
        <time>2011-07-10T09:45:31Z</time>
      </trkpt>
      <trkpt lat="48.64169" lon="7.2415">
        <ele>575.2</ele>
        <time>2011-07-10T09:45:33Z</time>
      </trkpt>
      <trkpt lat="48.64169" lon="7.24132">
        <ele>574.5</ele>
        <time>2011-07-10T09:45:35Z</time>
      </trkpt>
      <trkpt lat="48.64164" lon="7.24116">
        <ele>573.5</ele>
        <time>2011-07-10T09:45:37Z</time>
      </trkpt>
      <trkpt lat="48.6416" lon="7.24101">
        <ele>572.8</ele>
        <time>2011-07-10T09:45:39Z</time>
      </trkpt>
      <trkpt lat="48.64159" lon="7.24085">
        <ele>572.2</ele>
        <time>2011-07-10T09:45:41Z</time>
      </trkpt>
      <trkpt lat="48.64159" lon="7.24072">
        <ele>571.5</ele>
        <time>2011-07-10T09:45:43Z</time>
      </trkpt>
      <trkpt lat="48.64161" lon="7.24053">
        <ele>570.7</ele>
        <time>2011-07-10T09:45:45Z</time>
      </trkpt>
      <trkpt lat="48.64166" lon="7.24033">
        <ele>569.9</ele>
        <time>2011-07-10T09:45:47Z</time>
      </trkpt>
      <trkpt lat="48.6417" lon="7.24013">
        <ele>569.3</ele>
        <time>2011-07-10T09:45:49Z</time>
      </trkpt>
      <trkpt lat="48.64172" lon="7.23995">
        <ele>568.6</ele>
        <time>2011-07-10T09:45:51Z</time>
      </trkpt>
      <trkpt lat="48.64173" lon="7.2398">
        <ele>568</ele>
        <time>2011-07-10T09:45:53Z</time>
      </trkpt>
      <trkpt lat="48.64174" lon="7.23966">
        <ele>567.2</ele>
        <time>2011-07-10T09:45:55Z</time>
      </trkpt>
      <trkpt lat="48.64173" lon="7.23946">
        <ele>566.4</ele>
        <time>2011-07-10T09:45:58Z</time>
      </trkpt>
      <trkpt lat="48.64176" lon="7.23928">
        <ele>566</ele>
        <time>2011-07-10T09:46:00Z</time>
      </trkpt>
      <trkpt lat="48.64175" lon="7.23909">
        <ele>565.6</ele>
        <time>2011-07-10T09:46:02Z</time>
      </trkpt>
      <trkpt lat="48.64175" lon="7.23891">
        <ele>565.4</ele>
        <time>2011-07-10T09:46:04Z</time>
      </trkpt>
      <trkpt lat="48.64175" lon="7.2387">
        <ele>565.1</ele>
        <time>2011-07-10T09:46:06Z</time>
      </trkpt>
      <trkpt lat="48.64173" lon="7.23851">
        <ele>565</ele>
        <time>2011-07-10T09:46:08Z</time>
      </trkpt>
      <trkpt lat="48.64171" lon="7.23832">
        <ele>564.9</ele>
        <time>2011-07-10T09:46:10Z</time>
      </trkpt>
      <trkpt lat="48.64167" lon="7.23814">
        <ele>564.8</ele>
        <time>2011-07-10T09:46:12Z</time>
      </trkpt>
      <trkpt lat="48.64163" lon="7.23799">
        <ele>565</ele>
        <time>2011-07-10T09:46:14Z</time>
      </trkpt>
      <trkpt lat="48.6416" lon="7.23782">
        <ele>565.2</ele>
        <time>2011-07-10T09:46:16Z</time>
      </trkpt>
      <trkpt lat="48.64158" lon="7.23761">
        <ele>565.5</ele>
        <time>2011-07-10T09:46:18Z</time>
      </trkpt>
      <trkpt lat="48.64154" lon="7.23743">
        <ele>564</ele>
        <time>2011-07-10T09:46:20Z</time>
      </trkpt>
      <trkpt lat="48.6415" lon="7.23728">
        <ele>562.5</ele>
        <time>2011-07-10T09:46:22Z</time>
      </trkpt>
      <trkpt lat="48.64142" lon="7.23716">
        <ele>560.9</ele>
        <time>2011-07-10T09:46:24Z</time>
      </trkpt>
      <trkpt lat="48.64135" lon="7.23703">
        <ele>559.5</ele>
        <time>2011-07-10T09:46:26Z</time>
      </trkpt>
      <trkpt lat="48.64128" lon="7.23693">
        <ele>558.2</ele>
        <time>2011-07-10T09:46:28Z</time>
      </trkpt>
      <trkpt lat="48.64123" lon="7.23679">
        <ele>556.8</ele>
        <time>2011-07-10T09:46:30Z</time>
      </trkpt>
      <trkpt lat="48.64118" lon="7.23663">
        <ele>555.5</ele>
        <time>2011-07-10T09:46:32Z</time>
      </trkpt>
      <trkpt lat="48.64111" lon="7.23645">
        <ele>554.1</ele>
        <time>2011-07-10T09:46:34Z</time>
      </trkpt>
      <trkpt lat="48.64107" lon="7.23634">
        <ele>552.3</ele>
        <time>2011-07-10T09:46:35Z</time>
      </trkpt>
      <trkpt lat="48.64103" lon="7.23615">
        <ele>550.5</ele>
        <time>2011-07-10T09:46:37Z</time>
      </trkpt>
      <trkpt lat="48.64099" lon="7.23595">
        <ele>548.6</ele>
        <time>2011-07-10T09:46:39Z</time>
      </trkpt>
      <trkpt lat="48.64095" lon="7.23575">
        <ele>548.7</ele>
        <time>2011-07-10T09:46:41Z</time>
      </trkpt>
      <trkpt lat="48.64091" lon="7.23555">
        <ele>548.8</ele>
        <time>2011-07-10T09:46:43Z</time>
      </trkpt>
      <trkpt lat="48.64088" lon="7.23536">
        <ele>548.5</ele>
        <time>2011-07-10T09:46:45Z</time>
      </trkpt>
      <trkpt lat="48.64085" lon="7.23519">
        <ele>548</ele>
        <time>2011-07-10T09:46:47Z</time>
      </trkpt>
      <trkpt lat="48.64084" lon="7.23502">
        <ele>547.5</ele>
        <time>2011-07-10T09:46:49Z</time>
      </trkpt>
      <trkpt lat="48.64084" lon="7.23487">
        <ele>546.9</ele>
        <time>2011-07-10T09:46:51Z</time>
      </trkpt>
      <trkpt lat="48.64081" lon="7.23472">
        <ele>545.9</ele>
        <time>2011-07-10T09:46:53Z</time>
      </trkpt>
      <trkpt lat="48.6408" lon="7.23457">
        <ele>544.9</ele>
        <time>2011-07-10T09:46:55Z</time>
      </trkpt>
      <trkpt lat="48.64081" lon="7.23437">
        <ele>544.1</ele>
        <time>2011-07-10T09:46:57Z</time>
      </trkpt>
      <trkpt lat="48.64084" lon="7.23416">
        <ele>543.3</ele>
        <time>2011-07-10T09:46:59Z</time>
      </trkpt>
      <trkpt lat="48.64083" lon="7.23396">
        <ele>542.5</ele>
        <time>2011-07-10T09:47:01Z</time>
      </trkpt>
      <trkpt lat="48.64084" lon="7.23377">
        <ele>541</ele>
        <time>2011-07-10T09:47:03Z</time>
      </trkpt>
      <trkpt lat="48.64084" lon="7.23363">
        <ele>539.5</ele>
        <time>2011-07-10T09:47:05Z</time>
      </trkpt>
      <trkpt lat="48.64086" lon="7.23346">
        <ele>538.5</ele>
        <time>2011-07-10T09:47:07Z</time>
      </trkpt>
      <trkpt lat="48.64087" lon="7.23328">
        <ele>537.4</ele>
        <time>2011-07-10T09:47:09Z</time>
      </trkpt>
      <trkpt lat="48.64089" lon="7.23312">
        <ele>536.3</ele>
        <time>2011-07-10T09:47:11Z</time>
      </trkpt>
      <trkpt lat="48.64092" lon="7.23295">
        <ele>534.6</ele>
        <time>2011-07-10T09:47:13Z</time>
      </trkpt>
      <trkpt lat="48.64096" lon="7.23275">
        <ele>533.5</ele>
        <time>2011-07-10T09:47:15Z</time>
      </trkpt>
      <trkpt lat="48.641" lon="7.23254">
        <ele>532.3</ele>
        <time>2011-07-10T09:47:17Z</time>
      </trkpt>
      <trkpt lat="48.64105" lon="7.23235">
        <ele>531.1</ele>
        <time>2011-07-10T09:47:19Z</time>
      </trkpt>
      <trkpt lat="48.64106" lon="7.23215">
        <ele>529.9</ele>
        <time>2011-07-10T09:47:21Z</time>
      </trkpt>
      <trkpt lat="48.64108" lon="7.232">
        <ele>530.6</ele>
        <time>2011-07-10T09:47:23Z</time>
      </trkpt>
      <trkpt lat="48.64111" lon="7.23181">
        <ele>532</ele>
        <time>2011-07-10T09:47:25Z</time>
      </trkpt>
      <trkpt lat="48.64114" lon="7.23164">
        <ele>533.4</ele>
        <time>2011-07-10T09:47:27Z</time>
      </trkpt>
      <trkpt lat="48.64117" lon="7.2315">
        <ele>534.7</ele>
        <time>2011-07-10T09:47:29Z</time>
      </trkpt>
      <trkpt lat="48.64123" lon="7.23134">
        <ele>533.8</ele>
        <time>2011-07-10T09:47:31Z</time>
      </trkpt>
      <trkpt lat="48.64128" lon="7.2312">
        <ele>533.5</ele>
        <time>2011-07-10T09:47:34Z</time>
      </trkpt>
      <trkpt lat="48.64133" lon="7.23098">
        <ele>533.6</ele>
        <time>2011-07-10T09:47:36Z</time>
      </trkpt>
      <trkpt lat="48.64132" lon="7.23086">
        <ele>533.8</ele>
        <time>2011-07-10T09:47:38Z</time>
      </trkpt>
      <trkpt lat="48.64129" lon="7.2307">
        <ele>534</ele>
        <time>2011-07-10T09:47:40Z</time>
      </trkpt>
      <trkpt lat="48.64125" lon="7.23053">
        <ele>534.2</ele>
        <time>2011-07-10T09:47:42Z</time>
      </trkpt>
      <trkpt lat="48.6412" lon="7.23038">
        <ele>535</ele>
        <time>2011-07-10T09:47:44Z</time>
      </trkpt>
      <trkpt lat="48.64114" lon="7.23024">
        <ele>533.9</ele>
        <time>2011-07-10T09:47:46Z</time>
      </trkpt>
      <trkpt lat="48.64109" lon="7.23008">
        <ele>532.8</ele>
        <time>2011-07-10T09:47:48Z</time>
      </trkpt>
      <trkpt lat="48.64107" lon="7.22988">
        <ele>531.7</ele>
        <time>2011-07-10T09:47:50Z</time>
      </trkpt>
      <trkpt lat="48.641" lon="7.22974">
        <ele>530.6</ele>
        <time>2011-07-10T09:47:52Z</time>
      </trkpt>
      <trkpt lat="48.64096" lon="7.22957">
        <ele>532.2</ele>
        <time>2011-07-10T09:47:54Z</time>
      </trkpt>
      <trkpt lat="48.64091" lon="7.22943">
        <ele>533.2</ele>
        <time>2011-07-10T09:47:56Z</time>
      </trkpt>
      <trkpt lat="48.64085" lon="7.22932">
        <ele>534.2</ele>
        <time>2011-07-10T09:47:58Z</time>
      </trkpt>
      <trkpt lat="48.64078" lon="7.22916">
        <ele>535.2</ele>
        <time>2011-07-10T09:48:00Z</time>
      </trkpt>
      <trkpt lat="48.64071" lon="7.22901">
        <ele>534.4</ele>
        <time>2011-07-10T09:48:02Z</time>
      </trkpt>
      <trkpt lat="48.64063" lon="7.22884">
        <ele>533.5</ele>
        <time>2011-07-10T09:48:04Z</time>
      </trkpt>
      <trkpt lat="48.64056" lon="7.22868">
        <ele>532.1</ele>
        <time>2011-07-10T09:48:06Z</time>
      </trkpt>
      <trkpt lat="48.6405" lon="7.2285">
        <ele>530.6</ele>
        <time>2011-07-10T09:48:08Z</time>
      </trkpt>
      <trkpt lat="48.64047" lon="7.22839">
        <ele>529.2</ele>
        <time>2011-07-10T09:48:09Z</time>
      </trkpt>
      <trkpt lat="48.64042" lon="7.2282">
        <ele>527.7</ele>
        <time>2011-07-10T09:48:11Z</time>
      </trkpt>
      <trkpt lat="48.64034" lon="7.22803">
        <ele>526.1</ele>
        <time>2011-07-10T09:48:13Z</time>
      </trkpt>
      <trkpt lat="48.6403" lon="7.22781">
        <ele>524.1</ele>
        <time>2011-07-10T09:48:15Z</time>
      </trkpt>
      <trkpt lat="48.64027" lon="7.22759">
        <ele>522.1</ele>
        <time>2011-07-10T09:48:17Z</time>
      </trkpt>
      <trkpt lat="48.64023" lon="7.22743">
        <ele>520.1</ele>
        <time>2011-07-10T09:48:19Z</time>
      </trkpt>
      <trkpt lat="48.64024" lon="7.22729">
        <ele>518.1</ele>
        <time>2011-07-10T09:48:21Z</time>
      </trkpt>
      <trkpt lat="48.64024" lon="7.22712">
        <ele>517.3</ele>
        <time>2011-07-10T09:48:23Z</time>
      </trkpt>
      <trkpt lat="48.64025" lon="7.22692">
        <ele>516.5</ele>
        <time>2011-07-10T09:48:25Z</time>
      </trkpt>
      <trkpt lat="48.64024" lon="7.22672">
        <ele>515.6</ele>
        <time>2011-07-10T09:48:27Z</time>
      </trkpt>
      <trkpt lat="48.64022" lon="7.22656">
        <ele>514.8</ele>
        <time>2011-07-10T09:48:29Z</time>
      </trkpt>
      <trkpt lat="48.64024" lon="7.22643">
        <ele>514</ele>
        <time>2011-07-10T09:48:30Z</time>
      </trkpt>
      <trkpt lat="48.64022" lon="7.22624">
        <ele>512.7</ele>
        <time>2011-07-10T09:48:32Z</time>
      </trkpt>
      <trkpt lat="48.64022" lon="7.22604">
        <ele>511.6</ele>
        <time>2011-07-10T09:48:34Z</time>
      </trkpt>
      <trkpt lat="48.64022" lon="7.22581">
        <ele>510.5</ele>
        <time>2011-07-10T09:48:36Z</time>
      </trkpt>
      <trkpt lat="48.6402" lon="7.22561">
        <ele>509.5</ele>
        <time>2011-07-10T09:48:38Z</time>
      </trkpt>
      <trkpt lat="48.64019" lon="7.22545">
        <ele>508.4</ele>
        <time>2011-07-10T09:48:40Z</time>
      </trkpt>
      <trkpt lat="48.64017" lon="7.22529">
        <ele>507</ele>
        <time>2011-07-10T09:48:42Z</time>
      </trkpt>
      <trkpt lat="48.64017" lon="7.22513">
        <ele>506.3</ele>
        <time>2011-07-10T09:48:44Z</time>
      </trkpt>
      <trkpt lat="48.64017" lon="7.22498">
        <ele>505.5</ele>
        <time>2011-07-10T09:48:47Z</time>
      </trkpt>
      <trkpt lat="48.64021" lon="7.22479">
        <ele>504.8</ele>
        <time>2011-07-10T09:48:49Z</time>
      </trkpt>
      <trkpt lat="48.64023" lon="7.22464">
        <ele>503.7</ele>
        <time>2011-07-10T09:48:51Z</time>
      </trkpt>
      <trkpt lat="48.64022" lon="7.22448">
        <ele>502.6</ele>
        <time>2011-07-10T09:48:53Z</time>
      </trkpt>
      <trkpt lat="48.64024" lon="7.22429">
        <ele>502</ele>
        <time>2011-07-10T09:48:56Z</time>
      </trkpt>
      <trkpt lat="48.64026" lon="7.22411">
        <ele>501.4</ele>
        <time>2011-07-10T09:48:58Z</time>
      </trkpt>
      <trkpt lat="48.64027" lon="7.22391">
        <ele>500.7</ele>
        <time>2011-07-10T09:49:00Z</time>
      </trkpt>
      <trkpt lat="48.64026" lon="7.22369">
        <ele>499.4</ele>
        <time>2011-07-10T09:49:02Z</time>
      </trkpt>
      <trkpt lat="48.64028" lon="7.22355">
        <ele>498</ele>
        <time>2011-07-10T09:49:03Z</time>
      </trkpt>
      <trkpt lat="48.6403" lon="7.22343">
        <ele>496.9</ele>
        <time>2011-07-10T09:49:04Z</time>
      </trkpt>
      <trkpt lat="48.6403" lon="7.2233">
        <ele>497.3</ele>
        <time>2011-07-10T09:49:05Z</time>
      </trkpt>
      <trkpt lat="48.64032" lon="7.2231">
        <ele>497.6</ele>
        <time>2011-07-10T09:49:07Z</time>
      </trkpt>
      <trkpt lat="48.64035" lon="7.22286">
        <ele>497.2</ele>
        <time>2011-07-10T09:49:09Z</time>
      </trkpt>
      <trkpt lat="48.64039" lon="7.22264">
        <ele>497.1</ele>
        <time>2011-07-10T09:49:11Z</time>
      </trkpt>
      <trkpt lat="48.64044" lon="7.22244">
        <ele>497</ele>
        <time>2011-07-10T09:49:13Z</time>
      </trkpt>
      <trkpt lat="48.64049" lon="7.2223">
        <ele>496.9</ele>
        <time>2011-07-10T09:49:15Z</time>
      </trkpt>
      <trkpt lat="48.64054" lon="7.22216">
        <ele>496.8</ele>
        <time>2011-07-10T09:49:17Z</time>
      </trkpt>
      <trkpt lat="48.64061" lon="7.222">
        <ele>496.7</ele>
        <time>2011-07-10T09:49:19Z</time>
      </trkpt>
      <trkpt lat="48.64067" lon="7.22187">
        <ele>496.2</ele>
        <time>2011-07-10T09:49:21Z</time>
      </trkpt>
      <trkpt lat="48.64076" lon="7.22175">
        <ele>496.4</ele>
        <time>2011-07-10T09:49:23Z</time>
      </trkpt>
      <trkpt lat="48.64086" lon="7.22165">
        <ele>496.5</ele>
        <time>2011-07-10T09:49:25Z</time>
      </trkpt>
      <trkpt lat="48.64093" lon="7.22158">
        <ele>495.3</ele>
        <time>2011-07-10T09:49:26Z</time>
      </trkpt>
      <trkpt lat="48.6411" lon="7.22138">
        <ele>494</ele>
        <time>2011-07-10T09:49:29Z</time>
      </trkpt>
      <trkpt lat="48.64117" lon="7.22131">
        <ele>493.5</ele>
        <time>2011-07-10T09:49:30Z</time>
      </trkpt>
      <trkpt lat="48.64129" lon="7.22121">
        <ele>493.1</ele>
        <time>2011-07-10T09:49:32Z</time>
      </trkpt>
      <trkpt lat="48.64142" lon="7.22109">
        <ele>492.6</ele>
        <time>2011-07-10T09:49:34Z</time>
      </trkpt>
      <trkpt lat="48.64154" lon="7.22098">
        <ele>492.2</ele>
        <time>2011-07-10T09:49:36Z</time>
      </trkpt>
      <trkpt lat="48.64169" lon="7.22087">
        <ele>490.7</ele>
        <time>2011-07-10T09:49:38Z</time>
      </trkpt>
      <trkpt lat="48.64176" lon="7.22081">
        <ele>489.3</ele>
        <time>2011-07-10T09:49:39Z</time>
      </trkpt>
      <trkpt lat="48.64184" lon="7.22075">
        <ele>489</ele>
        <time>2011-07-10T09:49:40Z</time>
      </trkpt>
      <trkpt lat="48.64196" lon="7.22065">
        <ele>488</ele>
        <time>2011-07-10T09:49:42Z</time>
      </trkpt>
      <trkpt lat="48.6421" lon="7.22054">
        <ele>487</ele>
        <time>2011-07-10T09:49:44Z</time>
      </trkpt>
      <trkpt lat="48.64217" lon="7.22046">
        <ele>486</ele>
        <time>2011-07-10T09:49:45Z</time>
      </trkpt>
      <trkpt lat="48.6423" lon="7.22036">
        <ele>484.9</ele>
        <time>2011-07-10T09:49:47Z</time>
      </trkpt>
      <trkpt lat="48.64245" lon="7.22035">
        <ele>483.8</ele>
        <time>2011-07-10T09:49:49Z</time>
      </trkpt>
      <trkpt lat="48.6426" lon="7.22036">
        <ele>482.7</ele>
        <time>2011-07-10T09:49:51Z</time>
      </trkpt>
      <trkpt lat="48.64275" lon="7.22038">
        <ele>481.6</ele>
        <time>2011-07-10T09:49:53Z</time>
      </trkpt>
      <trkpt lat="48.64292" lon="7.22039">
        <ele>480.5</ele>
        <time>2011-07-10T09:49:55Z</time>
      </trkpt>
      <trkpt lat="48.64301" lon="7.22038">
        <ele>480.5</ele>
        <time>2011-07-10T09:49:56Z</time>
      </trkpt>
      <trkpt lat="48.64316" lon="7.22038">
        <ele>480.4</ele>
        <time>2011-07-10T09:49:58Z</time>
      </trkpt>
      <trkpt lat="48.64324" lon="7.2204">
        <ele>480.5</ele>
        <time>2011-07-10T09:49:59Z</time>
      </trkpt>
      <trkpt lat="48.64334" lon="7.22042">
        <ele>480.7</ele>
        <time>2011-07-10T09:50:01Z</time>
      </trkpt>
      <trkpt lat="48.64343" lon="7.2204">
        <ele>480.9</ele>
        <time>2011-07-10T09:50:03Z</time>
      </trkpt>
      <trkpt lat="48.64353" lon="7.22039">
        <ele>481.1</ele>
        <time>2011-07-10T09:50:06Z</time>
      </trkpt>
      <trkpt lat="48.6436" lon="7.22047">
        <ele>481.4</ele>
        <time>2011-07-10T09:50:12Z</time>
      </trkpt>
      <trkpt lat="48.64363" lon="7.2206">
        <ele>482.2</ele>
        <time>2011-07-10T09:50:18Z</time>
      </trkpt>
      <trkpt lat="48.6436" lon="7.22074">
        <ele>483</ele>
        <time>2011-07-10T09:50:22Z</time>
      </trkpt>
      <trkpt lat="48.6436" lon="7.22088">
        <ele>483.8</ele>
        <time>2011-07-10T09:50:25Z</time>
      </trkpt>
      <trkpt lat="48.64363" lon="7.22103">
        <ele>484.6</ele>
        <time>2011-07-10T09:50:28Z</time>
      </trkpt>
      <trkpt lat="48.64364" lon="7.22117">
        <ele>485.5</ele>
        <time>2011-07-10T09:50:31Z</time>
      </trkpt>
      <trkpt lat="48.64361" lon="7.22133">
        <ele>486.5</ele>
        <time>2011-07-10T09:50:35Z</time>
      </trkpt>
      <trkpt lat="48.64365" lon="7.22149">
        <ele>487.4</ele>
        <time>2011-07-10T09:50:39Z</time>
      </trkpt>
      <trkpt lat="48.64367" lon="7.22168">
        <ele>488.2</ele>
        <time>2011-07-10T09:50:43Z</time>
      </trkpt>
      <trkpt lat="48.64363" lon="7.22185">
        <ele>489</ele>
        <time>2011-07-10T09:50:46Z</time>
      </trkpt>
      <trkpt lat="48.64363" lon="7.22199">
        <ele>489.8</ele>
        <time>2011-07-10T09:50:48Z</time>
      </trkpt>
      <trkpt lat="48.64364" lon="7.22215">
        <ele>489.2</ele>
        <time>2011-07-10T09:50:51Z</time>
      </trkpt>
      <trkpt lat="48.64368" lon="7.22226">
        <ele>489.7</ele>
        <time>2011-07-10T09:50:52Z</time>
      </trkpt>
      <trkpt lat="48.6437" lon="7.22247">
        <ele>489</ele>
        <time>2011-07-10T09:50:55Z</time>
      </trkpt>
      <trkpt lat="48.64373" lon="7.22266">
        <ele>488.3</ele>
        <time>2011-07-10T09:50:58Z</time>
      </trkpt>
      <trkpt lat="48.64379" lon="7.22282">
        <ele>487.5</ele>
        <time>2011-07-10T09:51:01Z</time>
      </trkpt>
      <trkpt lat="48.64381" lon="7.22295">
        <ele>486.8</ele>
        <time>2011-07-10T09:51:03Z</time>
      </trkpt>
      <trkpt lat="48.6438" lon="7.22308">
        <ele>486.4</ele>
        <time>2011-07-10T09:51:05Z</time>
      </trkpt>
      <trkpt lat="48.64383" lon="7.22323">
        <ele>485.9</ele>
        <time>2011-07-10T09:51:08Z</time>
      </trkpt>
      <trkpt lat="48.64385" lon="7.22337">
        <ele>485.5</ele>
        <time>2011-07-10T09:51:10Z</time>
      </trkpt>
      <trkpt lat="48.64389" lon="7.22353">
        <ele>485</ele>
        <time>2011-07-10T09:51:12Z</time>
      </trkpt>
      <trkpt lat="48.64396" lon="7.22368">
        <ele>484.5</ele>
        <time>2011-07-10T09:51:14Z</time>
      </trkpt>
      <trkpt lat="48.64403" lon="7.22381">
        <ele>485.5</ele>
        <time>2011-07-10T09:51:16Z</time>
      </trkpt>
      <trkpt lat="48.6441" lon="7.2239">
        <ele>484.8</ele>
        <time>2011-07-10T09:51:18Z</time>
      </trkpt>
      <trkpt lat="48.64419" lon="7.22401">
        <ele>484.5</ele>
        <time>2011-07-10T09:51:20Z</time>
      </trkpt>
      <trkpt lat="48.64427" lon="7.22406">
        <ele>484.1</ele>
        <time>2011-07-10T09:51:22Z</time>
      </trkpt>
      <trkpt lat="48.64435" lon="7.22411">
        <ele>483.7</ele>
        <time>2011-07-10T09:51:24Z</time>
      </trkpt>
      <trkpt lat="48.64445" lon="7.22419">
        <ele>483.4</ele>
        <time>2011-07-10T09:51:27Z</time>
      </trkpt>
      <trkpt lat="48.64454" lon="7.22427">
        <ele>482.5</ele>
        <time>2011-07-10T09:51:30Z</time>
      </trkpt>
      <trkpt lat="48.64464" lon="7.22434">
        <ele>481.5</ele>
        <time>2011-07-10T09:51:35Z</time>
      </trkpt>
      <trkpt lat="48.64471" lon="7.22439">
        <ele>481.5</ele>
        <time>2011-07-10T09:51:38Z</time>
      </trkpt>
      <trkpt lat="48.64479" lon="7.22447">
        <ele>481.5</ele>
        <time>2011-07-10T09:51:42Z</time>
      </trkpt>
      <trkpt lat="48.64488" lon="7.22455">
        <ele>481.5</ele>
        <time>2011-07-10T09:51:46Z</time>
      </trkpt>
      <trkpt lat="48.64496" lon="7.22457">
        <ele>481.5</ele>
        <time>2011-07-10T09:51:48Z</time>
      </trkpt>
      <trkpt lat="48.64505" lon="7.22456">
        <ele>481.3</ele>
        <time>2011-07-10T09:51:51Z</time>
      </trkpt>
      <trkpt lat="48.64515" lon="7.22461">
        <ele>481.9</ele>
        <time>2011-07-10T09:51:54Z</time>
      </trkpt>
      <trkpt lat="48.64525" lon="7.22465">
        <ele>482.5</ele>
        <time>2011-07-10T09:51:57Z</time>
      </trkpt>
      <trkpt lat="48.64534" lon="7.22467">
        <ele>483.2</ele>
        <time>2011-07-10T09:52:00Z</time>
      </trkpt>
      <trkpt lat="48.64542" lon="7.22472">
        <ele>483.8</ele>
        <time>2011-07-10T09:52:03Z</time>
      </trkpt>
      <trkpt lat="48.6455" lon="7.22478">
        <ele>484.5</ele>
        <time>2011-07-10T09:52:07Z</time>
      </trkpt>
      <trkpt lat="48.64562" lon="7.22486">
        <ele>485.1</ele>
        <time>2011-07-10T09:52:11Z</time>
      </trkpt>
      <trkpt lat="48.64569" lon="7.22492">
        <ele>484.8</ele>
        <time>2011-07-10T09:52:13Z</time>
      </trkpt>
      <trkpt lat="48.64578" lon="7.22498">
        <ele>484.5</ele>
        <time>2011-07-10T09:52:16Z</time>
      </trkpt>
      <trkpt lat="48.64588" lon="7.22507">
        <ele>483.9</ele>
        <time>2011-07-10T09:52:20Z</time>
      </trkpt>
      <trkpt lat="48.64598" lon="7.22514">
        <ele>484.1</ele>
        <time>2011-07-10T09:52:23Z</time>
      </trkpt>
      <trkpt lat="48.64607" lon="7.22521">
        <ele>484.5</ele>
        <time>2011-07-10T09:52:26Z</time>
      </trkpt>
      <trkpt lat="48.64617" lon="7.22524">
        <ele>485</ele>
        <time>2011-07-10T09:52:29Z</time>
      </trkpt>
      <trkpt lat="48.64625" lon="7.22529">
        <ele>485.5</ele>
        <time>2011-07-10T09:52:32Z</time>
      </trkpt>
      <trkpt lat="48.64633" lon="7.22535">
        <ele>485.9</ele>
        <time>2011-07-10T09:52:35Z</time>
      </trkpt>
      <trkpt lat="48.64643" lon="7.22543">
        <ele>486.4</ele>
        <time>2011-07-10T09:52:38Z</time>
      </trkpt>
      <trkpt lat="48.64651" lon="7.2255">
        <ele>486.8</ele>
        <time>2011-07-10T09:52:40Z</time>
      </trkpt>
      <trkpt lat="48.6466" lon="7.22559">
        <ele>487.3</ele>
        <time>2011-07-10T09:52:43Z</time>
      </trkpt>
      <trkpt lat="48.64667" lon="7.22567">
        <ele>487.7</ele>
        <time>2011-07-10T09:52:46Z</time>
      </trkpt>
      <trkpt lat="48.64676" lon="7.2257">
        <ele>488.2</ele>
        <time>2011-07-10T09:52:49Z</time>
      </trkpt>
      <trkpt lat="48.64684" lon="7.22579">
        <ele>488.2</ele>
        <time>2011-07-10T09:52:52Z</time>
      </trkpt>
      <trkpt lat="48.64691" lon="7.22591">
        <ele>487.9</ele>
        <time>2011-07-10T09:52:55Z</time>
      </trkpt>
      <trkpt lat="48.64698" lon="7.22603">
        <ele>487.6</ele>
        <time>2011-07-10T09:52:58Z</time>
      </trkpt>
      <trkpt lat="48.64703" lon="7.22613">
        <ele>487.4</ele>
        <time>2011-07-10T09:53:01Z</time>
      </trkpt>
      <trkpt lat="48.64709" lon="7.22625">
        <ele>487.1</ele>
        <time>2011-07-10T09:53:04Z</time>
      </trkpt>
      <trkpt lat="48.64717" lon="7.22635">
        <ele>486.8</ele>
        <time>2011-07-10T09:53:07Z</time>
      </trkpt>
      <trkpt lat="48.64723" lon="7.22645">
        <ele>486.5</ele>
        <time>2011-07-10T09:53:10Z</time>
      </trkpt>
      <trkpt lat="48.64728" lon="7.22656">
        <ele>486.3</ele>
        <time>2011-07-10T09:53:13Z</time>
      </trkpt>
      <trkpt lat="48.64736" lon="7.22667">
        <ele>486</ele>
        <time>2011-07-10T09:53:17Z</time>
      </trkpt>
      <trkpt lat="48.64742" lon="7.22677">
        <ele>486.7</ele>
        <time>2011-07-10T09:53:19Z</time>
      </trkpt>
      <trkpt lat="48.64748" lon="7.22686">
        <ele>487.5</ele>
        <time>2011-07-10T09:53:21Z</time>
      </trkpt>
      <trkpt lat="48.64756" lon="7.22699">
        <ele>489</ele>
        <time>2011-07-10T09:53:24Z</time>
      </trkpt>
      <trkpt lat="48.64763" lon="7.22708">
        <ele>490</ele>
        <time>2011-07-10T09:53:26Z</time>
      </trkpt>
      <trkpt lat="48.6477" lon="7.22717">
        <ele>490</ele>
        <time>2011-07-10T09:53:28Z</time>
      </trkpt>
      <trkpt lat="48.64777" lon="7.22727">
        <ele>490</ele>
        <time>2011-07-10T09:53:30Z</time>
      </trkpt>
      <trkpt lat="48.64784" lon="7.22741">
        <ele>490.6</ele>
        <time>2011-07-10T09:53:33Z</time>
      </trkpt>
      <trkpt lat="48.64789" lon="7.22751">
        <ele>491.3</ele>
        <time>2011-07-10T09:53:35Z</time>
      </trkpt>
      <trkpt lat="48.64797" lon="7.22764">
        <ele>491.9</ele>
        <time>2011-07-10T09:53:38Z</time>
      </trkpt>
      <trkpt lat="48.64803" lon="7.22778">
        <ele>492.5</ele>
        <time>2011-07-10T09:53:41Z</time>
      </trkpt>
      <trkpt lat="48.6481" lon="7.22792">
        <ele>493.2</ele>
        <time>2011-07-10T09:53:44Z</time>
      </trkpt>
      <trkpt lat="48.64817" lon="7.22804">
        <ele>492.8</ele>
        <time>2011-07-10T09:53:47Z</time>
      </trkpt>
      <trkpt lat="48.64823" lon="7.22819">
        <ele>492.5</ele>
        <time>2011-07-10T09:53:50Z</time>
      </trkpt>
      <trkpt lat="48.6483" lon="7.22832">
        <ele>492.1</ele>
        <time>2011-07-10T09:53:53Z</time>
      </trkpt>
      <trkpt lat="48.64833" lon="7.22847">
        <ele>491.7</ele>
        <time>2011-07-10T09:53:56Z</time>
      </trkpt>
      <trkpt lat="48.64836" lon="7.22858">
        <ele>492.4</ele>
        <time>2011-07-10T09:53:58Z</time>
      </trkpt>
      <trkpt lat="48.64838" lon="7.22871">
        <ele>493</ele>
        <time>2011-07-10T09:54:00Z</time>
      </trkpt>
      <trkpt lat="48.64841" lon="7.22889">
        <ele>493</ele>
        <time>2011-07-10T09:54:03Z</time>
      </trkpt>
      <trkpt lat="48.64838" lon="7.22901">
        <ele>493.3</ele>
        <time>2011-07-10T09:54:06Z</time>
      </trkpt>
      <trkpt lat="48.64841" lon="7.22918">
        <ele>493.5</ele>
        <time>2011-07-10T09:54:09Z</time>
      </trkpt>
      <trkpt lat="48.64844" lon="7.22933">
        <ele>493.8</ele>
        <time>2011-07-10T09:54:12Z</time>
      </trkpt>
      <trkpt lat="48.64845" lon="7.22948">
        <ele>494.1</ele>
        <time>2011-07-10T09:54:16Z</time>
      </trkpt>
      <trkpt lat="48.64846" lon="7.22961">
        <ele>494.4</ele>
        <time>2011-07-10T09:54:18Z</time>
      </trkpt>
      <trkpt lat="48.64845" lon="7.22974">
        <ele>494.4</ele>
        <time>2011-07-10T09:54:21Z</time>
      </trkpt>
      <trkpt lat="48.64848" lon="7.22986">
        <ele>494.4</ele>
        <time>2011-07-10T09:54:23Z</time>
      </trkpt>
      <trkpt lat="48.6485" lon="7.23">
        <ele>494.4</ele>
        <time>2011-07-10T09:54:25Z</time>
      </trkpt>
      <trkpt lat="48.64853" lon="7.23017">
        <ele>494.4</ele>
        <time>2011-07-10T09:54:28Z</time>
      </trkpt>
      <trkpt lat="48.64855" lon="7.23032">
        <ele>494.4</ele>
        <time>2011-07-10T09:54:30Z</time>
      </trkpt>
      <trkpt lat="48.64854" lon="7.2305">
        <ele>493.6</ele>
        <time>2011-07-10T09:54:33Z</time>
      </trkpt>
      <trkpt lat="48.64853" lon="7.2307">
        <ele>492.6</ele>
        <time>2011-07-10T09:54:35Z</time>
      </trkpt>
      <trkpt lat="48.64854" lon="7.23093">
        <ele>491.6</ele>
        <time>2011-07-10T09:54:37Z</time>
      </trkpt>
      <trkpt lat="48.64856" lon="7.23108">
        <ele>490.6</ele>
        <time>2011-07-10T09:54:38Z</time>
      </trkpt>
      <trkpt lat="48.64853" lon="7.23121">
        <ele>489.6</ele>
        <time>2011-07-10T09:54:39Z</time>
      </trkpt>
      <trkpt lat="48.64847" lon="7.23136">
        <ele>488.6</ele>
        <time>2011-07-10T09:54:40Z</time>
      </trkpt>
      <trkpt lat="48.64843" lon="7.23148">
        <ele>487.9</ele>
        <time>2011-07-10T09:54:41Z</time>
      </trkpt>
      <trkpt lat="48.64837" lon="7.23159">
        <ele>488.4</ele>
        <time>2011-07-10T09:54:42Z</time>
      </trkpt>
      <trkpt lat="48.64828" lon="7.23165">
        <ele>488.8</ele>
        <time>2011-07-10T09:54:43Z</time>
      </trkpt>
      <trkpt lat="48.64816" lon="7.23177">
        <ele>488</ele>
        <time>2011-07-10T09:54:45Z</time>
      </trkpt>
      <trkpt lat="48.64809" lon="7.23183">
        <ele>487.2</ele>
        <time>2011-07-10T09:54:46Z</time>
      </trkpt>
      <trkpt lat="48.64801" lon="7.23189">
        <ele>487.1</ele>
        <time>2011-07-10T09:54:47Z</time>
      </trkpt>
      <trkpt lat="48.64786" lon="7.232">
        <ele>487</ele>
        <time>2011-07-10T09:54:49Z</time>
      </trkpt>
      <trkpt lat="48.64775" lon="7.23208">
        <ele>486.9</ele>
        <time>2011-07-10T09:54:51Z</time>
      </trkpt>
      <trkpt lat="48.64767" lon="7.23215">
        <ele>486.8</ele>
        <time>2011-07-10T09:54:53Z</time>
      </trkpt>
      <trkpt lat="48.64756" lon="7.23222">
        <ele>486.5</ele>
        <time>2011-07-10T09:55:00Z</time>
      </trkpt>
      <trkpt lat="48.64744" lon="7.23245">
        <ele>486.3</ele>
        <time>2011-07-10T09:55:03Z</time>
      </trkpt>
      <trkpt lat="48.64745" lon="7.23257">
        <ele>486</ele>
        <time>2011-07-10T09:55:05Z</time>
      </trkpt>
      <trkpt lat="48.64749" lon="7.23277">
        <ele>484.5</ele>
        <time>2011-07-10T09:55:08Z</time>
      </trkpt>
      <trkpt lat="48.64754" lon="7.23292">
        <ele>483.1</ele>
        <time>2011-07-10T09:55:10Z</time>
      </trkpt>
      <trkpt lat="48.64758" lon="7.23306">
        <ele>482.4</ele>
        <time>2011-07-10T09:55:12Z</time>
      </trkpt>
      <trkpt lat="48.64765" lon="7.23321">
        <ele>481.6</ele>
        <time>2011-07-10T09:55:15Z</time>
      </trkpt>
      <trkpt lat="48.64771" lon="7.23333">
        <ele>480.9</ele>
        <time>2011-07-10T09:55:18Z</time>
      </trkpt>
      <trkpt lat="48.64772" lon="7.23346">
        <ele>480.2</ele>
        <time>2011-07-10T09:55:20Z</time>
      </trkpt>
      <trkpt lat="48.64774" lon="7.23361">
        <ele>479.5</ele>
        <time>2011-07-10T09:55:22Z</time>
      </trkpt>
      <trkpt lat="48.64773" lon="7.23378">
        <ele>477.8</ele>
        <time>2011-07-10T09:55:24Z</time>
      </trkpt>
      <trkpt lat="48.64772" lon="7.23394">
        <ele>476.4</ele>
        <time>2011-07-10T09:55:26Z</time>
      </trkpt>
      <trkpt lat="48.64765" lon="7.23411">
        <ele>474.9</ele>
        <time>2011-07-10T09:55:29Z</time>
      </trkpt>
      <trkpt lat="48.64766" lon="7.2343">
        <ele>473.5</ele>
        <time>2011-07-10T09:55:30Z</time>
      </trkpt>
      <trkpt lat="48.64765" lon="7.23448">
        <ele>471.4</ele>
        <time>2011-07-10T09:55:31Z</time>
      </trkpt>
      <trkpt lat="48.64766" lon="7.23465">
        <ele>469.3</ele>
        <time>2011-07-10T09:55:32Z</time>
      </trkpt>
      <trkpt lat="48.64763" lon="7.2349">
        <ele>467.7</ele>
        <time>2011-07-10T09:55:34Z</time>
      </trkpt>
      <trkpt lat="48.64758" lon="7.23515">
        <ele>466.2</ele>
        <time>2011-07-10T09:55:36Z</time>
      </trkpt>
      <trkpt lat="48.64751" lon="7.23538">
        <ele>467.9</ele>
        <time>2011-07-10T09:55:38Z</time>
      </trkpt>
      <trkpt lat="48.64743" lon="7.23559">
        <ele>468.4</ele>
        <time>2011-07-10T09:55:40Z</time>
      </trkpt>
      <trkpt lat="48.64736" lon="7.23574">
        <ele>468.8</ele>
        <time>2011-07-10T09:55:42Z</time>
      </trkpt>
      <trkpt lat="48.64727" lon="7.23589">
        <ele>470.2</ele>
        <time>2011-07-10T09:55:44Z</time>
      </trkpt>
      <trkpt lat="48.64717" lon="7.23607">
        <ele>469.9</ele>
        <time>2011-07-10T09:55:46Z</time>
      </trkpt>
      <trkpt lat="48.64705" lon="7.23625">
        <ele>469.6</ele>
        <time>2011-07-10T09:55:48Z</time>
      </trkpt>
      <trkpt lat="48.64702" lon="7.23646">
        <ele>469.4</ele>
        <time>2011-07-10T09:55:50Z</time>
      </trkpt>
      <trkpt lat="48.64703" lon="7.23669">
        <ele>469.7</ele>
        <time>2011-07-10T09:55:52Z</time>
      </trkpt>
      <trkpt lat="48.647" lon="7.2369">
        <ele>470.1</ele>
        <time>2011-07-10T09:55:54Z</time>
      </trkpt>
      <trkpt lat="48.64712" lon="7.23683">
        <ele>470.5</ele>
        <time>2011-07-10T09:55:57Z</time>
      </trkpt>
      <trkpt lat="48.64722" lon="7.23677">
        <ele>470.8</ele>
        <time>2011-07-10T09:55:59Z</time>
      </trkpt>
      <trkpt lat="48.64733" lon="7.23674">
        <ele>467.5</ele>
        <time>2011-07-10T09:56:01Z</time>
      </trkpt>
      <trkpt lat="48.64745" lon="7.23666">
        <ele>465.5</ele>
        <time>2011-07-10T09:56:04Z</time>
      </trkpt>
      <trkpt lat="48.64754" lon="7.23658">
        <ele>463.5</ele>
        <time>2011-07-10T09:56:06Z</time>
      </trkpt>
      <trkpt lat="48.64761" lon="7.23651">
        <ele>462</ele>
        <time>2011-07-10T09:56:08Z</time>
      </trkpt>
      <trkpt lat="48.64768" lon="7.23642">
        <ele>462.1</ele>
        <time>2011-07-10T09:56:10Z</time>
      </trkpt>
      <trkpt lat="48.64775" lon="7.23633">
        <ele>462.2</ele>
        <time>2011-07-10T09:56:13Z</time>
      </trkpt>
      <trkpt lat="48.64783" lon="7.23623">
        <ele>462.3</ele>
        <time>2011-07-10T09:56:16Z</time>
      </trkpt>
      <trkpt lat="48.64793" lon="7.23624">
        <ele>462.4</ele>
        <time>2011-07-10T09:56:21Z</time>
      </trkpt>
      <trkpt lat="48.64801" lon="7.23617">
        <ele>462.5</ele>
        <time>2011-07-10T09:56:25Z</time>
      </trkpt>
      <trkpt lat="48.64808" lon="7.2361">
        <ele>462.5</ele>
        <time>2011-07-10T09:56:28Z</time>
      </trkpt>
      <trkpt lat="48.64814" lon="7.23598">
        <ele>461.6</ele>
        <time>2011-07-10T09:56:34Z</time>
      </trkpt>
      <trkpt lat="48.6482" lon="7.23583">
        <ele>461.1</ele>
        <time>2011-07-10T09:56:37Z</time>
      </trkpt>
      <trkpt lat="48.64825" lon="7.23572">
        <ele>460.5</ele>
        <time>2011-07-10T09:56:40Z</time>
      </trkpt>
      <trkpt lat="48.6483" lon="7.23561">
        <ele>460</ele>
        <time>2011-07-10T09:56:43Z</time>
      </trkpt>
      <trkpt lat="48.64837" lon="7.23554">
        <ele>459</ele>
        <time>2011-07-10T09:56:48Z</time>
      </trkpt>
      <trkpt lat="48.64843" lon="7.23541">
        <ele>458.5</ele>
        <time>2011-07-10T09:56:51Z</time>
      </trkpt>
      <trkpt lat="48.6485" lon="7.23532">
        <ele>458.1</ele>
        <time>2011-07-10T09:56:54Z</time>
      </trkpt>
      <trkpt lat="48.64857" lon="7.23524">
        <ele>457.6</ele>
        <time>2011-07-10T09:56:58Z</time>
      </trkpt>
      <trkpt lat="48.64864" lon="7.23516">
        <ele>457.2</ele>
        <time>2011-07-10T09:57:01Z</time>
      </trkpt>
      <trkpt lat="48.64872" lon="7.23509">
        <ele>456.7</ele>
        <time>2011-07-10T09:57:04Z</time>
      </trkpt>
      <trkpt lat="48.64882" lon="7.23502">
        <ele>456.3</ele>
        <time>2011-07-10T09:57:08Z</time>
      </trkpt>
      <trkpt lat="48.6489" lon="7.23496">
        <ele>456.8</ele>
        <time>2011-07-10T09:57:11Z</time>
      </trkpt>
      <trkpt lat="48.649" lon="7.2349">
        <ele>457.4</ele>
        <time>2011-07-10T09:57:15Z</time>
      </trkpt>
      <trkpt lat="48.64909" lon="7.23488">
        <ele>457.9</ele>
        <time>2011-07-10T09:57:18Z</time>
      </trkpt>
      <trkpt lat="48.64918" lon="7.23486">
        <ele>458.7</ele>
        <time>2011-07-10T09:57:21Z</time>
      </trkpt>
      <trkpt lat="48.64928" lon="7.23483">
        <ele>458.2</ele>
        <time>2011-07-10T09:57:24Z</time>
      </trkpt>
      <trkpt lat="48.64942" lon="7.23482">
        <ele>457.1</ele>
        <time>2011-07-10T09:57:27Z</time>
      </trkpt>
      <trkpt lat="48.64951" lon="7.23479">
        <ele>456</ele>
        <time>2011-07-10T09:57:29Z</time>
      </trkpt>
      <trkpt lat="48.64959" lon="7.23475">
        <ele>454.9</ele>
        <time>2011-07-10T09:57:31Z</time>
      </trkpt>
      <trkpt lat="48.64969" lon="7.2347">
        <ele>453.8</ele>
        <time>2011-07-10T09:57:34Z</time>
      </trkpt>
      <trkpt lat="48.64977" lon="7.23459">
        <ele>452.7</ele>
        <time>2011-07-10T09:57:37Z</time>
      </trkpt>
      <trkpt lat="48.64986" lon="7.23449">
        <ele>451.6</ele>
        <time>2011-07-10T09:57:40Z</time>
      </trkpt>
      <trkpt lat="48.64994" lon="7.23442">
        <ele>450.5</ele>
        <time>2011-07-10T09:57:43Z</time>
      </trkpt>
      <trkpt lat="48.65003" lon="7.23437">
        <ele>449.2</ele>
        <time>2011-07-10T09:57:46Z</time>
      </trkpt>
      <trkpt lat="48.65012" lon="7.23435">
        <ele>447.8</ele>
        <time>2011-07-10T09:57:49Z</time>
      </trkpt>
      <trkpt lat="48.65023" lon="7.23433">
        <ele>446.2</ele>
        <time>2011-07-10T09:57:52Z</time>
      </trkpt>
      <trkpt lat="48.65031" lon="7.2343">
        <ele>446.9</ele>
        <time>2011-07-10T09:57:54Z</time>
      </trkpt>
      <trkpt lat="48.65042" lon="7.23431">
        <ele>447.6</ele>
        <time>2011-07-10T09:57:56Z</time>
      </trkpt>
      <trkpt lat="48.65055" lon="7.23435">
        <ele>448.4</ele>
        <time>2011-07-10T09:57:58Z</time>
      </trkpt>
      <trkpt lat="48.65068" lon="7.23442">
        <ele>449.1</ele>
        <time>2011-07-10T09:58:00Z</time>
      </trkpt>
      <trkpt lat="48.65084" lon="7.23451">
        <ele>449.4</ele>
        <time>2011-07-10T09:58:02Z</time>
      </trkpt>
      <trkpt lat="48.65095" lon="7.23463">
        <ele>449.6</ele>
        <time>2011-07-10T09:58:04Z</time>
      </trkpt>
      <trkpt lat="48.65106" lon="7.23473">
        <ele>449.9</ele>
        <time>2011-07-10T09:58:06Z</time>
      </trkpt>
      <trkpt lat="48.65115" lon="7.23481">
        <ele>450.2</ele>
        <time>2011-07-10T09:58:08Z</time>
      </trkpt>
      <trkpt lat="48.65123" lon="7.23488">
        <ele>450.7</ele>
        <time>2011-07-10T09:58:10Z</time>
      </trkpt>
      <trkpt lat="48.6513" lon="7.23494">
        <ele>451.3</ele>
        <time>2011-07-10T09:58:12Z</time>
      </trkpt>
      <trkpt lat="48.65138" lon="7.235">
        <ele>451.8</ele>
        <time>2011-07-10T09:58:14Z</time>
      </trkpt>
      <trkpt lat="48.65148" lon="7.23505">
        <ele>451.4</ele>
        <time>2011-07-10T09:58:17Z</time>
      </trkpt>
      <trkpt lat="48.65159" lon="7.2351">
        <ele>450.9</ele>
        <time>2011-07-10T09:58:20Z</time>
      </trkpt>
      <trkpt lat="48.65167" lon="7.23511">
        <ele>450.7</ele>
        <time>2011-07-10T09:58:22Z</time>
      </trkpt>
      <trkpt lat="48.65177" lon="7.23516">
        <ele>450.5</ele>
        <time>2011-07-10T09:58:25Z</time>
      </trkpt>
      <trkpt lat="48.65186" lon="7.23521">
        <ele>450.8</ele>
        <time>2011-07-10T09:58:28Z</time>
      </trkpt>
      <trkpt lat="48.65196" lon="7.23525">
        <ele>452.3</ele>
        <time>2011-07-10T09:58:31Z</time>
      </trkpt>
      <trkpt lat="48.65206" lon="7.23529">
        <ele>453.7</ele>
        <time>2011-07-10T09:58:34Z</time>
      </trkpt>
      <trkpt lat="48.65217" lon="7.23532">
        <ele>455.2</ele>
        <time>2011-07-10T09:58:37Z</time>
      </trkpt>
      <trkpt lat="48.65227" lon="7.23536">
        <ele>456.6</ele>
        <time>2011-07-10T09:58:40Z</time>
      </trkpt>
      <trkpt lat="48.65237" lon="7.23541">
        <ele>458.1</ele>
        <time>2011-07-10T09:58:43Z</time>
      </trkpt>
      <trkpt lat="48.65247" lon="7.23547">
        <ele>459.5</ele>
        <time>2011-07-10T09:58:46Z</time>
      </trkpt>
      <trkpt lat="48.65256" lon="7.23552">
        <ele>460.9</ele>
        <time>2011-07-10T09:58:49Z</time>
      </trkpt>
      <trkpt lat="48.65265" lon="7.23557">
        <ele>462.3</ele>
        <time>2011-07-10T09:58:52Z</time>
      </trkpt>
      <trkpt lat="48.65272" lon="7.23562">
        <ele>463.4</ele>
        <time>2011-07-10T09:58:55Z</time>
      </trkpt>
      <trkpt lat="48.6528" lon="7.23565">
        <ele>464.5</ele>
        <time>2011-07-10T09:58:58Z</time>
      </trkpt>
      <trkpt lat="48.6529" lon="7.23571">
        <ele>465.5</ele>
        <time>2011-07-10T09:59:02Z</time>
      </trkpt>
      <trkpt lat="48.65299" lon="7.23576">
        <ele>465.5</ele>
        <time>2011-07-10T09:59:06Z</time>
      </trkpt>
      <trkpt lat="48.65306" lon="7.23584">
        <ele>465.4</ele>
        <time>2011-07-10T09:59:10Z</time>
      </trkpt>
      <trkpt lat="48.65313" lon="7.2359">
        <ele>465.3</ele>
        <time>2011-07-10T09:59:15Z</time>
      </trkpt>
      <trkpt lat="48.65322" lon="7.23589">
        <ele>464.7</ele>
        <time>2011-07-10T09:59:19Z</time>
      </trkpt>
      <trkpt lat="48.6533" lon="7.23582">
        <ele>464.2</ele>
        <time>2011-07-10T09:59:22Z</time>
      </trkpt>
      <trkpt lat="48.65339" lon="7.23575">
        <ele>463.6</ele>
        <time>2011-07-10T09:59:24Z</time>
      </trkpt>
      <trkpt lat="48.65345" lon="7.23566">
        <ele>463.7</ele>
        <time>2011-07-10T09:59:25Z</time>
      </trkpt>
      <trkpt lat="48.65355" lon="7.23548">
        <ele>463.8</ele>
        <time>2011-07-10T09:59:27Z</time>
      </trkpt>
      <trkpt lat="48.65361" lon="7.23536">
        <ele>463.9</ele>
        <time>2011-07-10T09:59:29Z</time>
      </trkpt>
      <trkpt lat="48.65364" lon="7.23524">
        <ele>464</ele>
        <time>2011-07-10T09:59:32Z</time>
      </trkpt>
      <trkpt lat="48.65374" lon="7.23518">
        <ele>464.1</ele>
        <time>2011-07-10T09:59:36Z</time>
      </trkpt>
      <trkpt lat="48.65383" lon="7.23517">
        <ele>464.1</ele>
        <time>2011-07-10T09:59:40Z</time>
      </trkpt>
      <trkpt lat="48.65391" lon="7.23515">
        <ele>464.1</ele>
        <time>2011-07-10T09:59:44Z</time>
      </trkpt>
      <trkpt lat="48.65396" lon="7.23502">
        <ele>464.1</ele>
        <time>2011-07-10T09:59:49Z</time>
      </trkpt>
      <trkpt lat="48.65396" lon="7.23489">
        <ele>464.5</ele>
        <time>2011-07-10T09:59:52Z</time>
      </trkpt>
      <trkpt lat="48.65397" lon="7.23473">
        <ele>465</ele>
        <time>2011-07-10T09:59:55Z</time>
      </trkpt>
      <trkpt lat="48.65398" lon="7.23456">
        <ele>465.5</ele>
        <time>2011-07-10T09:59:58Z</time>
      </trkpt>
      <trkpt lat="48.65398" lon="7.23444">
        <ele>465.2</ele>
        <time>2011-07-10T10:00:00Z</time>
      </trkpt>
      <trkpt lat="48.65398" lon="7.23431">
        <ele>464.9</ele>
        <time>2011-07-10T10:00:02Z</time>
      </trkpt>
      <trkpt lat="48.65399" lon="7.23417">
        <ele>464.6</ele>
        <time>2011-07-10T10:00:04Z</time>
      </trkpt>
      <trkpt lat="48.65399" lon="7.23404">
        <ele>464.4</ele>
        <time>2011-07-10T10:00:06Z</time>
      </trkpt>
      <trkpt lat="48.65402" lon="7.2339">
        <ele>464.1</ele>
        <time>2011-07-10T10:00:08Z</time>
      </trkpt>
      <trkpt lat="48.65404" lon="7.23375">
        <ele>463.9</ele>
        <time>2011-07-10T10:00:11Z</time>
      </trkpt>
      <trkpt lat="48.65406" lon="7.23362">
        <ele>463.7</ele>
        <time>2011-07-10T10:00:15Z</time>
      </trkpt>
      <trkpt lat="48.65413" lon="7.23357">
        <ele>463.5</ele>
        <time>2011-07-10T10:00:22Z</time>
      </trkpt>
      <trkpt lat="48.65421" lon="7.23363">
        <ele>463.4</ele>
        <time>2011-07-10T10:00:27Z</time>
      </trkpt>
      <trkpt lat="48.65429" lon="7.23356">
        <ele>463.2</ele>
        <time>2011-07-10T10:00:32Z</time>
      </trkpt>
      <trkpt lat="48.65436" lon="7.23348">
        <ele>465.1</ele>
        <time>2011-07-10T10:00:38Z</time>
      </trkpt>
      <trkpt lat="48.65443" lon="7.23343">
        <ele>466.8</ele>
        <time>2011-07-10T10:00:44Z</time>
      </trkpt>
      <trkpt lat="48.6545" lon="7.23335">
        <ele>468.5</ele>
        <time>2011-07-10T10:00:50Z</time>
      </trkpt>
      <trkpt lat="48.65455" lon="7.23325">
        <ele>470.3</ele>
        <time>2011-07-10T10:00:56Z</time>
      </trkpt>
      <trkpt lat="48.65461" lon="7.23317">
        <ele>472</ele>
        <time>2011-07-10T10:01:01Z</time>
      </trkpt>
      <trkpt lat="48.65465" lon="7.23303">
        <ele>473.7</ele>
        <time>2011-07-10T10:01:07Z</time>
      </trkpt>
      <trkpt lat="48.65468" lon="7.2329">
        <ele>475.5</ele>
        <time>2011-07-10T10:01:11Z</time>
      </trkpt>
      <trkpt lat="48.6547" lon="7.23276">
        <ele>476.9</ele>
        <time>2011-07-10T10:01:15Z</time>
      </trkpt>
      <trkpt lat="48.65476" lon="7.23265">
        <ele>478.4</ele>
        <time>2011-07-10T10:01:20Z</time>
      </trkpt>
      <trkpt lat="48.6548" lon="7.23251">
        <ele>479.8</ele>
        <time>2011-07-10T10:01:25Z</time>
      </trkpt>
      <trkpt lat="48.65482" lon="7.23238">
        <ele>481.3</ele>
        <time>2011-07-10T10:01:28Z</time>
      </trkpt>
      <trkpt lat="48.65484" lon="7.23223">
        <ele>480.6</ele>
        <time>2011-07-10T10:01:31Z</time>
      </trkpt>
      <trkpt lat="48.65486" lon="7.23208">
        <ele>480.5</ele>
        <time>2011-07-10T10:01:34Z</time>
      </trkpt>
      <trkpt lat="48.65489" lon="7.23191">
        <ele>480.3</ele>
        <time>2011-07-10T10:01:37Z</time>
      </trkpt>
      <trkpt lat="48.65491" lon="7.23176">
        <ele>480.1</ele>
        <time>2011-07-10T10:01:40Z</time>
      </trkpt>
      <trkpt lat="48.65493" lon="7.23161">
        <ele>479.9</ele>
        <time>2011-07-10T10:01:43Z</time>
      </trkpt>
      <trkpt lat="48.65494" lon="7.23146">
        <ele>479.7</ele>
        <time>2011-07-10T10:01:46Z</time>
      </trkpt>
      <trkpt lat="48.65497" lon="7.23131">
        <ele>479.5</ele>
        <time>2011-07-10T10:01:49Z</time>
      </trkpt>
      <trkpt lat="48.65498" lon="7.23114">
        <ele>479.2</ele>
        <time>2011-07-10T10:01:52Z</time>
      </trkpt>
      <trkpt lat="48.65499" lon="7.23102">
        <ele>478.8</ele>
        <time>2011-07-10T10:01:55Z</time>
      </trkpt>
      <trkpt lat="48.655" lon="7.23087">
        <ele>478.5</ele>
        <time>2011-07-10T10:01:59Z</time>
      </trkpt>
      <trkpt lat="48.655" lon="7.23073">
        <ele>478.1</ele>
        <time>2011-07-10T10:02:02Z</time>
      </trkpt>
      <trkpt lat="48.655" lon="7.2306">
        <ele>477.7</ele>
        <time>2011-07-10T10:02:05Z</time>
      </trkpt>
      <trkpt lat="48.65501" lon="7.23048">
        <ele>477.3</ele>
        <time>2011-07-10T10:02:08Z</time>
      </trkpt>
      <trkpt lat="48.65503" lon="7.23032">
        <ele>476.1</ele>
        <time>2011-07-10T10:02:12Z</time>
      </trkpt>
      <trkpt lat="48.65504" lon="7.23018">
        <ele>474.9</ele>
        <time>2011-07-10T10:02:15Z</time>
      </trkpt>
      <trkpt lat="48.65507" lon="7.23005">
        <ele>473.7</ele>
        <time>2011-07-10T10:02:18Z</time>
      </trkpt>
      <trkpt lat="48.65511" lon="7.22991">
        <ele>472.5</ele>
        <time>2011-07-10T10:02:21Z</time>
      </trkpt>
      <trkpt lat="48.65515" lon="7.22975">
        <ele>471.4</ele>
        <time>2011-07-10T10:02:24Z</time>
      </trkpt>
      <trkpt lat="48.65519" lon="7.22963">
        <ele>472.4</ele>
        <time>2011-07-10T10:02:26Z</time>
      </trkpt>
      <trkpt lat="48.65525" lon="7.22949">
        <ele>473.4</ele>
        <time>2011-07-10T10:02:29Z</time>
      </trkpt>
      <trkpt lat="48.6553" lon="7.22934">
        <ele>472.8</ele>
        <time>2011-07-10T10:02:32Z</time>
      </trkpt>
      <trkpt lat="48.65535" lon="7.22923">
        <ele>472.3</ele>
        <time>2011-07-10T10:02:34Z</time>
      </trkpt>
      <trkpt lat="48.65541" lon="7.22911">
        <ele>471.7</ele>
        <time>2011-07-10T10:02:36Z</time>
      </trkpt>
      <trkpt lat="48.65549" lon="7.22898">
        <ele>471.2</ele>
        <time>2011-07-10T10:02:39Z</time>
      </trkpt>
      <trkpt lat="48.65559" lon="7.22886">
        <ele>471.4</ele>
        <time>2011-07-10T10:02:40Z</time>
      </trkpt>
      <trkpt lat="48.65571" lon="7.22875">
        <ele>471.5</ele>
        <time>2011-07-10T10:02:42Z</time>
      </trkpt>
      <trkpt lat="48.65582" lon="7.22863">
        <ele>472.4</ele>
        <time>2011-07-10T10:02:44Z</time>
      </trkpt>
      <trkpt lat="48.65593" lon="7.22853">
        <ele>473.2</ele>
        <time>2011-07-10T10:02:46Z</time>
      </trkpt>
      <trkpt lat="48.65606" lon="7.22845">
        <ele>474</ele>
        <time>2011-07-10T10:02:48Z</time>
      </trkpt>
      <trkpt lat="48.65617" lon="7.22842">
        <ele>473.1</ele>
        <time>2011-07-10T10:02:50Z</time>
      </trkpt>
      <trkpt lat="48.65626" lon="7.22841">
        <ele>472.2</ele>
        <time>2011-07-10T10:02:52Z</time>
      </trkpt>
      <trkpt lat="48.65638" lon="7.22842">
        <ele>472.8</ele>
        <time>2011-07-10T10:02:55Z</time>
      </trkpt>
      <trkpt lat="48.65649" lon="7.22842">
        <ele>473.5</ele>
        <time>2011-07-10T10:02:58Z</time>
      </trkpt>
      <trkpt lat="48.6566" lon="7.22841">
        <ele>474.1</ele>
        <time>2011-07-10T10:03:01Z</time>
      </trkpt>
      <trkpt lat="48.65669" lon="7.22839">
        <ele>475.5</ele>
        <time>2011-07-10T10:03:03Z</time>
      </trkpt>
      <trkpt lat="48.6568" lon="7.22833">
        <ele>477</ele>
        <time>2011-07-10T10:03:05Z</time>
      </trkpt>
      <trkpt lat="48.65689" lon="7.22823">
        <ele>478.5</ele>
        <time>2011-07-10T10:03:07Z</time>
      </trkpt>
      <trkpt lat="48.65698" lon="7.22812">
        <ele>477.9</ele>
        <time>2011-07-10T10:03:09Z</time>
      </trkpt>
      <trkpt lat="48.65705" lon="7.22802">
        <ele>478.7</ele>
        <time>2011-07-10T10:03:11Z</time>
      </trkpt>
      <trkpt lat="48.6571" lon="7.22791">
        <ele>479.5</ele>
        <time>2011-07-10T10:03:31Z</time>
      </trkpt>
      <trkpt lat="48.65718" lon="7.22785">
        <ele>480.4</ele>
        <time>2011-07-10T10:04:16Z</time>
      </trkpt>
      <trkpt lat="48.65711" lon="7.22797">
        <ele>481.2</ele>
        <time>2011-07-10T10:05:02Z</time>
      </trkpt>
      <trkpt lat="48.65719" lon="7.22804">
        <ele>482</ele>
        <time>2011-07-10T10:08:16Z</time>
      </trkpt>
      <trkpt lat="48.65727" lon="7.22798">
        <ele>482.8</ele>
        <time>2011-07-10T10:08:19Z</time>
      </trkpt>
      <trkpt lat="48.65736" lon="7.22793">
        <ele>483.6</ele>
        <time>2011-07-10T10:08:22Z</time>
      </trkpt>
      <trkpt lat="48.65744" lon="7.22789">
        <ele>483.6</ele>
        <time>2011-07-10T10:08:25Z</time>
      </trkpt>
      <trkpt lat="48.65754" lon="7.22784">
        <ele>483.6</ele>
        <time>2011-07-10T10:08:28Z</time>
      </trkpt>
      <trkpt lat="48.65764" lon="7.22777">
        <ele>482.3</ele>
        <time>2011-07-10T10:08:31Z</time>
      </trkpt>
      <trkpt lat="48.65774" lon="7.22772">
        <ele>482.3</ele>
        <time>2011-07-10T10:08:33Z</time>
      </trkpt>
      <trkpt lat="48.65782" lon="7.22766">
        <ele>482.4</ele>
        <time>2011-07-10T10:08:35Z</time>
      </trkpt>
      <trkpt lat="48.65791" lon="7.22756">
        <ele>482.5</ele>
        <time>2011-07-10T10:08:37Z</time>
      </trkpt>
      <trkpt lat="48.65796" lon="7.22746">
        <ele>482.5</ele>
        <time>2011-07-10T10:08:38Z</time>
      </trkpt>
      <trkpt lat="48.65802" lon="7.22737">
        <ele>482.6</ele>
        <time>2011-07-10T10:08:39Z</time>
      </trkpt>
      <trkpt lat="48.65808" lon="7.22721">
        <ele>482.7</ele>
        <time>2011-07-10T10:08:40Z</time>
      </trkpt>
      <trkpt lat="48.65813" lon="7.22708">
        <ele>482.8</ele>
        <time>2011-07-10T10:08:41Z</time>
      </trkpt>
      <trkpt lat="48.65822" lon="7.22689">
        <ele>483.4</ele>
        <time>2011-07-10T10:08:43Z</time>
      </trkpt>
      <trkpt lat="48.65829" lon="7.22679">
        <ele>483.9</ele>
        <time>2011-07-10T10:08:44Z</time>
      </trkpt>
      <trkpt lat="48.65833" lon="7.22669">
        <ele>484.5</ele>
        <time>2011-07-10T10:08:45Z</time>
      </trkpt>
      <trkpt lat="48.65842" lon="7.22653">
        <ele>486.4</ele>
        <time>2011-07-10T10:08:47Z</time>
      </trkpt>
      <trkpt lat="48.6585" lon="7.22641">
        <ele>486</ele>
        <time>2011-07-10T10:08:49Z</time>
      </trkpt>
      <trkpt lat="48.65857" lon="7.22628">
        <ele>484.8</ele>
        <time>2011-07-10T10:08:51Z</time>
      </trkpt>
      <trkpt lat="48.65863" lon="7.22613">
        <ele>483.6</ele>
        <time>2011-07-10T10:08:53Z</time>
      </trkpt>
      <trkpt lat="48.6587" lon="7.22594">
        <ele>482.5</ele>
        <time>2011-07-10T10:08:55Z</time>
      </trkpt>
      <trkpt lat="48.65877" lon="7.22573">
        <ele>481.3</ele>
        <time>2011-07-10T10:08:57Z</time>
      </trkpt>
      <trkpt lat="48.65884" lon="7.22548">
        <ele>480.1</ele>
        <time>2011-07-10T10:08:59Z</time>
      </trkpt>
      <trkpt lat="48.65889" lon="7.22528">
        <ele>479</ele>
        <time>2011-07-10T10:09:01Z</time>
      </trkpt>
      <trkpt lat="48.65892" lon="7.22515">
        <ele>477.5</ele>
        <time>2011-07-10T10:09:02Z</time>
      </trkpt>
      <trkpt lat="48.65893" lon="7.22502">
        <ele>475.9</ele>
        <time>2011-07-10T10:09:03Z</time>
      </trkpt>
      <trkpt lat="48.65896" lon="7.22489">
        <ele>474.4</ele>
        <time>2011-07-10T10:09:04Z</time>
      </trkpt>
      <trkpt lat="48.65896" lon="7.22466">
        <ele>472.8</ele>
        <time>2011-07-10T10:09:06Z</time>
      </trkpt>
      <trkpt lat="48.65895" lon="7.22446">
        <ele>473.8</ele>
        <time>2011-07-10T10:09:08Z</time>
      </trkpt>
      <trkpt lat="48.65894" lon="7.22429">
        <ele>474.2</ele>
        <time>2011-07-10T10:09:10Z</time>
      </trkpt>
      <trkpt lat="48.65894" lon="7.22415">
        <ele>474.5</ele>
        <time>2011-07-10T10:09:12Z</time>
      </trkpt>
      <trkpt lat="48.6589" lon="7.22403">
        <ele>474.9</ele>
        <time>2011-07-10T10:09:15Z</time>
      </trkpt>
      <trkpt lat="48.65885" lon="7.22388">
        <ele>475.3</ele>
        <time>2011-07-10T10:09:20Z</time>
      </trkpt>
      <trkpt lat="48.65886" lon="7.22376">
        <ele>475.6</ele>
        <time>2011-07-10T10:09:23Z</time>
      </trkpt>
      <trkpt lat="48.65888" lon="7.22362">
        <ele>475.9</ele>
        <time>2011-07-10T10:09:26Z</time>
      </trkpt>
      <trkpt lat="48.65888" lon="7.22348">
        <ele>477.3</ele>
        <time>2011-07-10T10:09:29Z</time>
      </trkpt>
      <trkpt lat="48.65885" lon="7.22336">
        <ele>478.6</ele>
        <time>2011-07-10T10:09:33Z</time>
      </trkpt>
      <trkpt lat="48.65893" lon="7.22324">
        <ele>480</ele>
        <time>2011-07-10T10:09:36Z</time>
      </trkpt>
      <trkpt lat="48.65898" lon="7.22312">
        <ele>481.4</ele>
        <time>2011-07-10T10:09:40Z</time>
      </trkpt>
      <trkpt lat="48.65904" lon="7.22303">
        <ele>482.5</ele>
        <time>2011-07-10T10:09:43Z</time>
      </trkpt>
      <trkpt lat="48.65909" lon="7.22293">
        <ele>483.5</ele>
        <time>2011-07-10T10:09:46Z</time>
      </trkpt>
      <trkpt lat="48.65914" lon="7.2228">
        <ele>484.6</ele>
        <time>2011-07-10T10:09:50Z</time>
      </trkpt>
      <trkpt lat="48.65919" lon="7.2227">
        <ele>485.7</ele>
        <time>2011-07-10T10:09:54Z</time>
      </trkpt>
      <trkpt lat="48.65925" lon="7.2226">
        <ele>488.7</ele>
        <time>2011-07-10T10:10:00Z</time>
      </trkpt>
      <trkpt lat="48.65928" lon="7.22249">
        <ele>491.7</ele>
        <time>2011-07-10T10:10:06Z</time>
      </trkpt>
      <trkpt lat="48.65934" lon="7.22239">
        <ele>493.5</ele>
        <time>2011-07-10T10:10:14Z</time>
      </trkpt>
      <trkpt lat="48.65935" lon="7.22226">
        <ele>494.1</ele>
        <time>2011-07-10T10:10:22Z</time>
      </trkpt>
      <trkpt lat="48.65942" lon="7.22216">
        <ele>494.7</ele>
        <time>2011-07-10T10:10:33Z</time>
      </trkpt>
      <trkpt lat="48.65951" lon="7.22208">
        <ele>495.4</ele>
        <time>2011-07-10T10:10:41Z</time>
      </trkpt>
      <trkpt lat="48.65959" lon="7.22201">
        <ele>496</ele>
        <time>2011-07-10T10:10:46Z</time>
      </trkpt>
      <trkpt lat="48.65968" lon="7.22194">
        <ele>496.6</ele>
        <time>2011-07-10T10:10:51Z</time>
      </trkpt>
      <trkpt lat="48.65975" lon="7.22186">
        <ele>497.3</ele>
        <time>2011-07-10T10:10:55Z</time>
      </trkpt>
      <trkpt lat="48.65979" lon="7.22175">
        <ele>497.9</ele>
        <time>2011-07-10T10:10:58Z</time>
      </trkpt>
      <trkpt lat="48.65987" lon="7.2217">
        <ele>498.5</ele>
        <time>2011-07-10T10:11:03Z</time>
      </trkpt>
      <trkpt lat="48.65995" lon="7.22167">
        <ele>497.3</ele>
        <time>2011-07-10T10:11:06Z</time>
      </trkpt>
      <trkpt lat="48.66004" lon="7.22161">
        <ele>498</ele>
        <time>2011-07-10T10:11:10Z</time>
      </trkpt>
      <trkpt lat="48.66013" lon="7.22155">
        <ele>499.2</ele>
        <time>2011-07-10T10:11:15Z</time>
      </trkpt>
      <trkpt lat="48.66019" lon="7.22147">
        <ele>500.4</ele>
        <time>2011-07-10T10:11:19Z</time>
      </trkpt>
      <trkpt lat="48.66026" lon="7.2214">
        <ele>501.5</ele>
        <time>2011-07-10T10:11:25Z</time>
      </trkpt>
      <trkpt lat="48.66034" lon="7.22136">
        <ele>502.7</ele>
        <time>2011-07-10T10:11:29Z</time>
      </trkpt>
      <trkpt lat="48.66042" lon="7.2213">
        <ele>503.9</ele>
        <time>2011-07-10T10:11:33Z</time>
      </trkpt>
      <trkpt lat="48.66051" lon="7.22131">
        <ele>505.1</ele>
        <time>2011-07-10T10:11:36Z</time>
      </trkpt>
      <trkpt lat="48.66064" lon="7.22127">
        <ele>506.3</ele>
        <time>2011-07-10T10:11:39Z</time>
      </trkpt>
      <trkpt lat="48.66074" lon="7.22124">
        <ele>507.5</ele>
        <time>2011-07-10T10:11:41Z</time>
      </trkpt>
      <trkpt lat="48.66088" lon="7.22118">
        <ele>507.5</ele>
        <time>2011-07-10T10:11:43Z</time>
      </trkpt>
      <trkpt lat="48.66101" lon="7.22099">
        <ele>507.5</ele>
        <time>2011-07-10T10:11:45Z</time>
      </trkpt>
      <trkpt lat="48.66112" lon="7.22087">
        <ele>505.5</ele>
        <time>2011-07-10T10:11:47Z</time>
      </trkpt>
      <trkpt lat="48.6612" lon="7.22077">
        <ele>504.3</ele>
        <time>2011-07-10T10:11:49Z</time>
      </trkpt>
      <trkpt lat="48.66124" lon="7.22065">
        <ele>503.1</ele>
        <time>2011-07-10T10:11:50Z</time>
      </trkpt>
      <trkpt lat="48.66129" lon="7.22048">
        <ele>501.9</ele>
        <time>2011-07-10T10:11:52Z</time>
      </trkpt>
      <trkpt lat="48.66134" lon="7.22029">
        <ele>501.5</ele>
        <time>2011-07-10T10:11:54Z</time>
      </trkpt>
      <trkpt lat="48.66139" lon="7.22015">
        <ele>501.2</ele>
        <time>2011-07-10T10:11:56Z</time>
      </trkpt>
      <trkpt lat="48.66146" lon="7.22">
        <ele>500.8</ele>
        <time>2011-07-10T10:11:58Z</time>
      </trkpt>
      <trkpt lat="48.66155" lon="7.21983">
        <ele>500.5</ele>
        <time>2011-07-10T10:12:00Z</time>
      </trkpt>
      <trkpt lat="48.66159" lon="7.21969">
        <ele>500.1</ele>
        <time>2011-07-10T10:12:01Z</time>
      </trkpt>
      <trkpt lat="48.66163" lon="7.21951">
        <ele>501.6</ele>
        <time>2011-07-10T10:12:03Z</time>
      </trkpt>
      <trkpt lat="48.66168" lon="7.21933">
        <ele>503.2</ele>
        <time>2011-07-10T10:12:05Z</time>
      </trkpt>
      <trkpt lat="48.66174" lon="7.21915">
        <ele>502.5</ele>
        <time>2011-07-10T10:12:07Z</time>
      </trkpt>
      <trkpt lat="48.66181" lon="7.21903">
        <ele>501.7</ele>
        <time>2011-07-10T10:12:09Z</time>
      </trkpt>
      <trkpt lat="48.66188" lon="7.21889">
        <ele>501</ele>
        <time>2011-07-10T10:12:11Z</time>
      </trkpt>
      <trkpt lat="48.66196" lon="7.21875">
        <ele>500.3</ele>
        <time>2011-07-10T10:12:13Z</time>
      </trkpt>
      <trkpt lat="48.66203" lon="7.21863">
        <ele>498.7</ele>
        <time>2011-07-10T10:12:15Z</time>
      </trkpt>
      <trkpt lat="48.6621" lon="7.21852">
        <ele>497.2</ele>
        <time>2011-07-10T10:12:17Z</time>
      </trkpt>
      <trkpt lat="48.66219" lon="7.21841">
        <ele>497</ele>
        <time>2011-07-10T10:12:19Z</time>
      </trkpt>
      <trkpt lat="48.66228" lon="7.21835">
        <ele>496.8</ele>
        <time>2011-07-10T10:12:21Z</time>
      </trkpt>
      <trkpt lat="48.66235" lon="7.21826">
        <ele>496.6</ele>
        <time>2011-07-10T10:12:23Z</time>
      </trkpt>
      <trkpt lat="48.66245" lon="7.21813">
        <ele>495.7</ele>
        <time>2011-07-10T10:12:25Z</time>
      </trkpt>
      <trkpt lat="48.66253" lon="7.21807">
        <ele>494.8</ele>
        <time>2011-07-10T10:12:27Z</time>
      </trkpt>
      <trkpt lat="48.66262" lon="7.21797">
        <ele>494.2</ele>
        <time>2011-07-10T10:12:29Z</time>
      </trkpt>
      <trkpt lat="48.6627" lon="7.21787">
        <ele>493.5</ele>
        <time>2011-07-10T10:12:31Z</time>
      </trkpt>
      <trkpt lat="48.66277" lon="7.21776">
        <ele>494.1</ele>
        <time>2011-07-10T10:12:33Z</time>
      </trkpt>
      <trkpt lat="48.66288" lon="7.21762">
        <ele>494.6</ele>
        <time>2011-07-10T10:12:36Z</time>
      </trkpt>
      <trkpt lat="48.66297" lon="7.21753">
        <ele>495.2</ele>
        <time>2011-07-10T10:12:38Z</time>
      </trkpt>
      <trkpt lat="48.66306" lon="7.2174">
        <ele>495.7</ele>
        <time>2011-07-10T10:12:40Z</time>
      </trkpt>
      <trkpt lat="48.66315" lon="7.21726">
        <ele>494.9</ele>
        <time>2011-07-10T10:12:42Z</time>
      </trkpt>
      <trkpt lat="48.66323" lon="7.21707">
        <ele>494.9</ele>
        <time>2011-07-10T10:12:44Z</time>
      </trkpt>
      <trkpt lat="48.6633" lon="7.21693">
        <ele>494.9</ele>
        <time>2011-07-10T10:12:46Z</time>
      </trkpt>
      <trkpt lat="48.66334" lon="7.21675">
        <ele>494.9</ele>
        <time>2011-07-10T10:12:48Z</time>
      </trkpt>
      <trkpt lat="48.66339" lon="7.21657">
        <ele>494.9</ele>
        <time>2011-07-10T10:12:50Z</time>
      </trkpt>
      <trkpt lat="48.66343" lon="7.21644">
        <ele>496.9</ele>
        <time>2011-07-10T10:12:52Z</time>
      </trkpt>
      <trkpt lat="48.66346" lon="7.21628">
        <ele>498.9</ele>
        <time>2011-07-10T10:12:55Z</time>
      </trkpt>
      <trkpt lat="48.6635" lon="7.21617">
        <ele>499.7</ele>
        <time>2011-07-10T10:12:57Z</time>
      </trkpt>
      <trkpt lat="48.66355" lon="7.21602">
        <ele>501</ele>
        <time>2011-07-10T10:13:00Z</time>
      </trkpt>
      <trkpt lat="48.66354" lon="7.21588">
        <ele>502.3</ele>
        <time>2011-07-10T10:13:05Z</time>
      </trkpt>
      <trkpt lat="48.66358" lon="7.21573">
        <ele>503.5</ele>
        <time>2011-07-10T10:13:08Z</time>
      </trkpt>
      <trkpt lat="48.66361" lon="7.21559">
        <ele>503.5</ele>
        <time>2011-07-10T10:13:10Z</time>
      </trkpt>
      <trkpt lat="48.66366" lon="7.21546">
        <ele>502.7</ele>
        <time>2011-07-10T10:13:14Z</time>
      </trkpt>
      <trkpt lat="48.66371" lon="7.21534">
        <ele>501.9</ele>
        <time>2011-07-10T10:13:19Z</time>
      </trkpt>
      <trkpt lat="48.66376" lon="7.21522">
        <ele>501.1</ele>
        <time>2011-07-10T10:13:25Z</time>
      </trkpt>
      <trkpt lat="48.6638" lon="7.2151">
        <ele>501.7</ele>
        <time>2011-07-10T10:13:30Z</time>
      </trkpt>
      <trkpt lat="48.66385" lon="7.21501">
        <ele>502.4</ele>
        <time>2011-07-10T10:13:35Z</time>
      </trkpt>
      <trkpt lat="48.66391" lon="7.2149">
        <ele>503</ele>
        <time>2011-07-10T10:13:40Z</time>
      </trkpt>
      <trkpt lat="48.66395" lon="7.21477">
        <ele>503.6</ele>
        <time>2011-07-10T10:13:47Z</time>
      </trkpt>
      <trkpt lat="48.66401" lon="7.21467">
        <ele>503.8</ele>
        <time>2011-07-10T10:13:56Z</time>
      </trkpt>
      <trkpt lat="48.66408" lon="7.21459">
        <ele>504</ele>
        <time>2011-07-10T10:14:01Z</time>
      </trkpt>
      <trkpt lat="48.66414" lon="7.21448">
        <ele>504.2</ele>
        <time>2011-07-10T10:14:06Z</time>
      </trkpt>
      <trkpt lat="48.66421" lon="7.21439">
        <ele>503.1</ele>
        <time>2011-07-10T10:14:09Z</time>
      </trkpt>
      <trkpt lat="48.66428" lon="7.21432">
        <ele>503.7</ele>
        <time>2011-07-10T10:14:11Z</time>
      </trkpt>
      <trkpt lat="48.66435" lon="7.21421">
        <ele>504.4</ele>
        <time>2011-07-10T10:14:13Z</time>
      </trkpt>
      <trkpt lat="48.66444" lon="7.21409">
        <ele>505</ele>
        <time>2011-07-10T10:14:15Z</time>
      </trkpt>
      <trkpt lat="48.66456" lon="7.21397">
        <ele>504.2</ele>
        <time>2011-07-10T10:14:17Z</time>
      </trkpt>
      <trkpt lat="48.66466" lon="7.21385">
        <ele>503.4</ele>
        <time>2011-07-10T10:14:19Z</time>
      </trkpt>
      <trkpt lat="48.66473" lon="7.21376">
        <ele>502.5</ele>
        <time>2011-07-10T10:14:21Z</time>
      </trkpt>
      <trkpt lat="48.66481" lon="7.21362">
        <ele>501.7</ele>
        <time>2011-07-10T10:14:24Z</time>
      </trkpt>
      <trkpt lat="48.66486" lon="7.21351">
        <ele>500.9</ele>
        <time>2011-07-10T10:14:26Z</time>
      </trkpt>
      <trkpt lat="48.66495" lon="7.21338">
        <ele>500.1</ele>
        <time>2011-07-10T10:14:29Z</time>
      </trkpt>
      <trkpt lat="48.66503" lon="7.21334">
        <ele>497.5</ele>
        <time>2011-07-10T10:14:31Z</time>
      </trkpt>
      <trkpt lat="48.66512" lon="7.21325">
        <ele>499</ele>
        <time>2011-07-10T10:14:33Z</time>
      </trkpt>
      <trkpt lat="48.66522" lon="7.21316">
        <ele>497.3</ele>
        <time>2011-07-10T10:14:35Z</time>
      </trkpt>
      <trkpt lat="48.66532" lon="7.21308">
        <ele>495.5</ele>
        <time>2011-07-10T10:14:37Z</time>
      </trkpt>
      <trkpt lat="48.66544" lon="7.21302">
        <ele>493.8</ele>
        <time>2011-07-10T10:14:39Z</time>
      </trkpt>
      <trkpt lat="48.66553" lon="7.21296">
        <ele>492.1</ele>
        <time>2011-07-10T10:14:42Z</time>
      </trkpt>
      <trkpt lat="48.66562" lon="7.21294">
        <ele>491.8</ele>
        <time>2011-07-10T10:14:49Z</time>
      </trkpt>
      <trkpt lat="48.66572" lon="7.21298">
        <ele>491.5</ele>
        <time>2011-07-10T10:14:53Z</time>
      </trkpt>
      <trkpt lat="48.66582" lon="7.21298">
        <ele>490.3</ele>
        <time>2011-07-10T10:14:55Z</time>
      </trkpt>
      <trkpt lat="48.66591" lon="7.213">
        <ele>489</ele>
        <time>2011-07-10T10:14:57Z</time>
      </trkpt>
      <trkpt lat="48.666" lon="7.21296">
        <ele>487.7</ele>
        <time>2011-07-10T10:15:02Z</time>
      </trkpt>
      <trkpt lat="48.66611" lon="7.21292">
        <ele>488.2</ele>
        <time>2011-07-10T10:15:07Z</time>
      </trkpt>
      <trkpt lat="48.66623" lon="7.2129">
        <ele>487.2</ele>
        <time>2011-07-10T10:15:10Z</time>
      </trkpt>
      <trkpt lat="48.66633" lon="7.21286">
        <ele>487.6</ele>
        <time>2011-07-10T10:15:12Z</time>
      </trkpt>
      <trkpt lat="48.66645" lon="7.21284">
        <ele>488.1</ele>
        <time>2011-07-10T10:15:15Z</time>
      </trkpt>
      <trkpt lat="48.66654" lon="7.21279">
        <ele>488.5</ele>
        <time>2011-07-10T10:15:17Z</time>
      </trkpt>
      <trkpt lat="48.66665" lon="7.21274">
        <ele>488.7</ele>
        <time>2011-07-10T10:15:19Z</time>
      </trkpt>
      <trkpt lat="48.66676" lon="7.21264">
        <ele>487.5</ele>
        <time>2011-07-10T10:15:21Z</time>
      </trkpt>
      <trkpt lat="48.66686" lon="7.21252">
        <ele>484.4</ele>
        <time>2011-07-10T10:15:23Z</time>
      </trkpt>
      <trkpt lat="48.66694" lon="7.21237">
        <ele>482.3</ele>
        <time>2011-07-10T10:15:25Z</time>
      </trkpt>
      <trkpt lat="48.66701" lon="7.21221">
        <ele>480.2</ele>
        <time>2011-07-10T10:15:27Z</time>
      </trkpt>
      <trkpt lat="48.66705" lon="7.21204">
        <ele>478.5</ele>
        <time>2011-07-10T10:15:29Z</time>
      </trkpt>
      <trkpt lat="48.66708" lon="7.21183">
        <ele>476.7</ele>
        <time>2011-07-10T10:15:31Z</time>
      </trkpt>
      <trkpt lat="48.66712" lon="7.21163">
        <ele>475</ele>
        <time>2011-07-10T10:15:33Z</time>
      </trkpt>
      <trkpt lat="48.66714" lon="7.2115">
        <ele>473.3</ele>
        <time>2011-07-10T10:15:35Z</time>
      </trkpt>
      <trkpt lat="48.66719" lon="7.21133">
        <ele>471.8</ele>
        <time>2011-07-10T10:15:37Z</time>
      </trkpt>
      <trkpt lat="48.66721" lon="7.21117">
        <ele>470.4</ele>
        <time>2011-07-10T10:15:39Z</time>
      </trkpt>
      <trkpt lat="48.66724" lon="7.21099">
        <ele>469.2</ele>
        <time>2011-07-10T10:15:41Z</time>
      </trkpt>
      <trkpt lat="48.66729" lon="7.2108">
        <ele>468</ele>
        <time>2011-07-10T10:15:43Z</time>
      </trkpt>
      <trkpt lat="48.66733" lon="7.21063">
        <ele>468.6</ele>
        <time>2011-07-10T10:15:45Z</time>
      </trkpt>
      <trkpt lat="48.66737" lon="7.21045">
        <ele>469.4</ele>
        <time>2011-07-10T10:15:47Z</time>
      </trkpt>
      <trkpt lat="48.66742" lon="7.21024">
        <ele>470.1</ele>
        <time>2011-07-10T10:15:49Z</time>
      </trkpt>
      <trkpt lat="48.66744" lon="7.21006">
        <ele>470.5</ele>
        <time>2011-07-10T10:15:52Z</time>
      </trkpt>
      <trkpt lat="48.66744" lon="7.20993">
        <ele>470.8</ele>
        <time>2011-07-10T10:15:54Z</time>
      </trkpt>
      <trkpt lat="48.66743" lon="7.20977">
        <ele>471.2</ele>
        <time>2011-07-10T10:15:56Z</time>
      </trkpt>
      <trkpt lat="48.66743" lon="7.20957">
        <ele>470.9</ele>
        <time>2011-07-10T10:15:58Z</time>
      </trkpt>
      <trkpt lat="48.66744" lon="7.2094">
        <ele>470.4</ele>
        <time>2011-07-10T10:16:00Z</time>
      </trkpt>
      <trkpt lat="48.66748" lon="7.20926">
        <ele>469.8</ele>
        <time>2011-07-10T10:16:02Z</time>
      </trkpt>
      <trkpt lat="48.6675" lon="7.20912">
        <ele>469.3</ele>
        <time>2011-07-10T10:16:04Z</time>
      </trkpt>
      <trkpt lat="48.66753" lon="7.20896">
        <ele>468.7</ele>
        <time>2011-07-10T10:16:06Z</time>
      </trkpt>
      <trkpt lat="48.66759" lon="7.20881">
        <ele>468.2</ele>
        <time>2011-07-10T10:16:08Z</time>
      </trkpt>
      <trkpt lat="48.66765" lon="7.20867">
        <ele>466.5</ele>
        <time>2011-07-10T10:16:10Z</time>
      </trkpt>
      <trkpt lat="48.6677" lon="7.2085">
        <ele>464.9</ele>
        <time>2011-07-10T10:16:12Z</time>
      </trkpt>
      <trkpt lat="48.66774" lon="7.20833">
        <ele>463.3</ele>
        <time>2011-07-10T10:16:14Z</time>
      </trkpt>
      <trkpt lat="48.66778" lon="7.20817">
        <ele>462.7</ele>
        <time>2011-07-10T10:16:16Z</time>
      </trkpt>
      <trkpt lat="48.66781" lon="7.20806">
        <ele>462.2</ele>
        <time>2011-07-10T10:16:18Z</time>
      </trkpt>
      <trkpt lat="48.66787" lon="7.20791">
        <ele>462.3</ele>
        <time>2011-07-10T10:16:20Z</time>
      </trkpt>
      <trkpt lat="48.66792" lon="7.20776">
        <ele>461.9</ele>
        <time>2011-07-10T10:16:22Z</time>
      </trkpt>
      <trkpt lat="48.66796" lon="7.20761">
        <ele>461.5</ele>
        <time>2011-07-10T10:16:24Z</time>
      </trkpt>
      <trkpt lat="48.66801" lon="7.20748">
        <ele>461.2</ele>
        <time>2011-07-10T10:16:26Z</time>
      </trkpt>
      <trkpt lat="48.66805" lon="7.20735">
        <ele>460.8</ele>
        <time>2011-07-10T10:16:28Z</time>
      </trkpt>
      <trkpt lat="48.66813" lon="7.20724">
        <ele>460.5</ele>
        <time>2011-07-10T10:16:30Z</time>
      </trkpt>
      <trkpt lat="48.66823" lon="7.20709">
        <ele>461.1</ele>
        <time>2011-07-10T10:16:32Z</time>
      </trkpt>
      <trkpt lat="48.66833" lon="7.20697">
        <ele>460.7</ele>
        <time>2011-07-10T10:16:34Z</time>
      </trkpt>
      <trkpt lat="48.66844" lon="7.20688">
        <ele>461.3</ele>
        <time>2011-07-10T10:16:36Z</time>
      </trkpt>
      <trkpt lat="48.66857" lon="7.20671">
        <ele>460.7</ele>
        <time>2011-07-10T10:16:38Z</time>
      </trkpt>
      <trkpt lat="48.66866" lon="7.20658">
        <ele>460.2</ele>
        <time>2011-07-10T10:16:40Z</time>
      </trkpt>
      <trkpt lat="48.66874" lon="7.20639">
        <ele>459.6</ele>
        <time>2011-07-10T10:16:42Z</time>
      </trkpt>
      <trkpt lat="48.6688" lon="7.20618">
        <ele>458.7</ele>
        <time>2011-07-10T10:16:44Z</time>
      </trkpt>
      <trkpt lat="48.66884" lon="7.20597">
        <ele>457.8</ele>
        <time>2011-07-10T10:16:46Z</time>
      </trkpt>
      <trkpt lat="48.66891" lon="7.20578">
        <ele>456.9</ele>
        <time>2011-07-10T10:16:48Z</time>
      </trkpt>
      <trkpt lat="48.66897" lon="7.2056">
        <ele>456</ele>
        <time>2011-07-10T10:16:50Z</time>
      </trkpt>
      <trkpt lat="48.66907" lon="7.20548">
        <ele>454.6</ele>
        <time>2011-07-10T10:16:52Z</time>
      </trkpt>
      <trkpt lat="48.66918" lon="7.20537">
        <ele>453.3</ele>
        <time>2011-07-10T10:16:54Z</time>
      </trkpt>
      <trkpt lat="48.66928" lon="7.20528">
        <ele>452.9</ele>
        <time>2011-07-10T10:16:56Z</time>
      </trkpt>
      <trkpt lat="48.6694" lon="7.2052">
        <ele>451.6</ele>
        <time>2011-07-10T10:16:58Z</time>
      </trkpt>
      <trkpt lat="48.66956" lon="7.20512">
        <ele>450.4</ele>
        <time>2011-07-10T10:17:00Z</time>
      </trkpt>
      <trkpt lat="48.66971" lon="7.20506">
        <ele>449.1</ele>
        <time>2011-07-10T10:17:02Z</time>
      </trkpt>
      <trkpt lat="48.66981" lon="7.205">
        <ele>447.8</ele>
        <time>2011-07-10T10:17:04Z</time>
      </trkpt>
      <trkpt lat="48.6699" lon="7.20498">
        <ele>447.4</ele>
        <time>2011-07-10T10:17:06Z</time>
      </trkpt>
      <trkpt lat="48.67" lon="7.20494">
        <ele>445.5</ele>
        <time>2011-07-10T10:17:08Z</time>
      </trkpt>
      <trkpt lat="48.67009" lon="7.20496">
        <ele>443.5</ele>
        <time>2011-07-10T10:17:10Z</time>
      </trkpt>
      <trkpt lat="48.67021" lon="7.20492">
        <ele>441.4</ele>
        <time>2011-07-10T10:17:13Z</time>
      </trkpt>
      <trkpt lat="48.67029" lon="7.20487">
        <ele>439.7</ele>
        <time>2011-07-10T10:17:15Z</time>
      </trkpt>
      <trkpt lat="48.67037" lon="7.20479">
        <ele>438.1</ele>
        <time>2011-07-10T10:17:17Z</time>
      </trkpt>
      <trkpt lat="48.67045" lon="7.20467">
        <ele>436.5</ele>
        <time>2011-07-10T10:17:19Z</time>
      </trkpt>
      <trkpt lat="48.67053" lon="7.2045">
        <ele>434.2</ele>
        <time>2011-07-10T10:17:21Z</time>
      </trkpt>
      <trkpt lat="48.6706" lon="7.20436">
        <ele>431.9</ele>
        <time>2011-07-10T10:17:23Z</time>
      </trkpt>
      <trkpt lat="48.67064" lon="7.20419">
        <ele>429.6</ele>
        <time>2011-07-10T10:17:25Z</time>
      </trkpt>
      <trkpt lat="48.67071" lon="7.204">
        <ele>427.4</ele>
        <time>2011-07-10T10:17:27Z</time>
      </trkpt>
      <trkpt lat="48.67076" lon="7.20381">
        <ele>425.1</ele>
        <time>2011-07-10T10:17:29Z</time>
      </trkpt>
      <trkpt lat="48.67082" lon="7.20368">
        <ele>424.2</ele>
        <time>2011-07-10T10:17:32Z</time>
      </trkpt>
      <trkpt lat="48.67086" lon="7.20354">
        <ele>422.3</ele>
        <time>2011-07-10T10:17:44Z</time>
      </trkpt>
      <trkpt lat="48.67092" lon="7.20344">
        <ele>420.4</ele>
        <time>2011-07-10T10:17:48Z</time>
      </trkpt>
      <trkpt lat="48.67093" lon="7.2033">
        <ele>418.5</ele>
        <time>2011-07-10T10:17:53Z</time>
      </trkpt>
      <trkpt lat="48.67088" lon="7.20321">
        <ele>416.5</ele>
        <time>2011-07-10T10:18:05Z</time>
      </trkpt>
      <trkpt lat="48.6709" lon="7.20308">
        <ele>414.6</ele>
        <time>2011-07-10T10:18:09Z</time>
      </trkpt>
      <trkpt lat="48.67096" lon="7.20294">
        <ele>412.9</ele>
        <time>2011-07-10T10:18:13Z</time>
      </trkpt>
      <trkpt lat="48.67101" lon="7.20284">
        <ele>411.6</ele>
        <time>2011-07-10T10:18:15Z</time>
      </trkpt>
      <trkpt lat="48.67109" lon="7.20274">
        <ele>410.4</ele>
        <time>2011-07-10T10:18:18Z</time>
      </trkpt>
      <trkpt lat="48.67115" lon="7.20264">
        <ele>409.1</ele>
        <time>2011-07-10T10:18:21Z</time>
      </trkpt>
      <trkpt lat="48.67121" lon="7.20255">
        <ele>407.8</ele>
        <time>2011-07-10T10:18:24Z</time>
      </trkpt>
      <trkpt lat="48.67128" lon="7.20246">
        <ele>406.5</ele>
        <time>2011-07-10T10:18:27Z</time>
      </trkpt>
      <trkpt lat="48.67122" lon="7.20234">
        <ele>406.5</ele>
        <time>2011-07-10T10:18:40Z</time>
      </trkpt>
      <trkpt lat="48.67111" lon="7.20234">
        <ele>406.5</ele>
        <time>2011-07-10T10:18:43Z</time>
      </trkpt>
      <trkpt lat="48.67098" lon="7.20236">
        <ele>406.5</ele>
        <time>2011-07-10T10:18:46Z</time>
      </trkpt>
      <trkpt lat="48.67089" lon="7.20242">
        <ele>405.3</ele>
        <time>2011-07-10T10:18:48Z</time>
      </trkpt>
      <trkpt lat="48.67074" lon="7.20254">
        <ele>406.1</ele>
        <time>2011-07-10T10:18:50Z</time>
      </trkpt>
      <trkpt lat="48.67067" lon="7.20261">
        <ele>407.4</ele>
        <time>2011-07-10T10:18:51Z</time>
      </trkpt>
      <trkpt lat="48.6706" lon="7.20269">
        <ele>408.2</ele>
        <time>2011-07-10T10:18:52Z</time>
      </trkpt>
      <trkpt lat="48.67054" lon="7.20278">
        <ele>406.9</ele>
        <time>2011-07-10T10:18:53Z</time>
      </trkpt>
      <trkpt lat="48.67044" lon="7.20293">
        <ele>405.6</ele>
        <time>2011-07-10T10:18:55Z</time>
      </trkpt>
      <trkpt lat="48.67036" lon="7.20304">
        <ele>405.6</ele>
        <time>2011-07-10T10:18:57Z</time>
      </trkpt>
      <trkpt lat="48.67029" lon="7.20314">
        <ele>405.6</ele>
        <time>2011-07-10T10:19:00Z</time>
      </trkpt>
      <trkpt lat="48.67032" lon="7.203">
        <ele>405.6</ele>
        <time>2011-07-10T10:19:09Z</time>
      </trkpt>
      <trkpt lat="48.67036" lon="7.20286">
        <ele>403.5</ele>
        <time>2011-07-10T10:19:11Z</time>
      </trkpt>
      <trkpt lat="48.67043" lon="7.20264">
        <ele>401.5</ele>
        <time>2011-07-10T10:19:13Z</time>
      </trkpt>
      <trkpt lat="48.67051" lon="7.20244">
        <ele>400.6</ele>
        <time>2011-07-10T10:19:15Z</time>
      </trkpt>
      <trkpt lat="48.67055" lon="7.20232">
        <ele>397.7</ele>
        <time>2011-07-10T10:19:16Z</time>
      </trkpt>
      <trkpt lat="48.67064" lon="7.20216">
        <ele>394.8</ele>
        <time>2011-07-10T10:19:18Z</time>
      </trkpt>
      <trkpt lat="48.67069" lon="7.20206">
        <ele>391.9</ele>
        <time>2011-07-10T10:19:19Z</time>
      </trkpt>
      <trkpt lat="48.67076" lon="7.20191">
        <ele>391.1</ele>
        <time>2011-07-10T10:19:21Z</time>
      </trkpt>
      <trkpt lat="48.67082" lon="7.20182">
        <ele>390.5</ele>
        <time>2011-07-10T10:19:23Z</time>
      </trkpt>
      <trkpt lat="48.67086" lon="7.20164">
        <ele>388.5</ele>
        <time>2011-07-10T10:19:25Z</time>
      </trkpt>
      <trkpt lat="48.67093" lon="7.20153">
        <ele>386.6</ele>
        <time>2011-07-10T10:19:27Z</time>
      </trkpt>
      <trkpt lat="48.67103" lon="7.20145">
        <ele>384.7</ele>
        <time>2011-07-10T10:19:29Z</time>
      </trkpt>
      <trkpt lat="48.67117" lon="7.20145">
        <ele>384.9</ele>
        <time>2011-07-10T10:19:31Z</time>
      </trkpt>
      <trkpt lat="48.67132" lon="7.20146">
        <ele>385.1</ele>
        <time>2011-07-10T10:19:33Z</time>
      </trkpt>
      <trkpt lat="48.67146" lon="7.20152">
        <ele>383.5</ele>
        <time>2011-07-10T10:19:35Z</time>
      </trkpt>
      <trkpt lat="48.67158" lon="7.20154">
        <ele>382</ele>
        <time>2011-07-10T10:19:37Z</time>
      </trkpt>
      <trkpt lat="48.67173" lon="7.20151">
        <ele>380.5</ele>
        <time>2011-07-10T10:19:40Z</time>
      </trkpt>
      <trkpt lat="48.67185" lon="7.20148">
        <ele>378.9</ele>
        <time>2011-07-10T10:19:42Z</time>
      </trkpt>
      <trkpt lat="48.67198" lon="7.20145">
        <ele>377.4</ele>
        <time>2011-07-10T10:19:44Z</time>
      </trkpt>
      <trkpt lat="48.67215" lon="7.20145">
        <ele>375.6</ele>
        <time>2011-07-10T10:19:46Z</time>
      </trkpt>
      <trkpt lat="48.67224" lon="7.20145">
        <ele>373.9</ele>
        <time>2011-07-10T10:19:47Z</time>
      </trkpt>
      <trkpt lat="48.67242" lon="7.20147">
        <ele>372.2</ele>
        <time>2011-07-10T10:19:49Z</time>
      </trkpt>
      <trkpt lat="48.6725" lon="7.20148">
        <ele>370.5</ele>
        <time>2011-07-10T10:19:50Z</time>
      </trkpt>
      <trkpt lat="48.67264" lon="7.20151">
        <ele>368.7</ele>
        <time>2011-07-10T10:19:52Z</time>
      </trkpt>
      <trkpt lat="48.67276" lon="7.20154">
        <ele>367</ele>
        <time>2011-07-10T10:19:54Z</time>
      </trkpt>
      <trkpt lat="48.67285" lon="7.20165">
        <ele>367</ele>
        <time>2011-07-10T10:19:57Z</time>
      </trkpt>
      <trkpt lat="48.67289" lon="7.20175">
        <ele>367</ele>
        <time>2011-07-10T10:19:59Z</time>
      </trkpt>
      <trkpt lat="48.67294" lon="7.20192">
        <ele>367</ele>
        <time>2011-07-10T10:20:01Z</time>
      </trkpt>
      <trkpt lat="48.67297" lon="7.20207">
        <ele>367</ele>
        <time>2011-07-10T10:20:03Z</time>
      </trkpt>
      <trkpt lat="48.67296" lon="7.20222">
        <ele>366.9</ele>
        <time>2011-07-10T10:20:05Z</time>
      </trkpt>
      <trkpt lat="48.6729" lon="7.2024">
        <ele>366.8</ele>
        <time>2011-07-10T10:20:07Z</time>
      </trkpt>
      <trkpt lat="48.67286" lon="7.20258">
        <ele>366.7</ele>
        <time>2011-07-10T10:20:09Z</time>
      </trkpt>
      <trkpt lat="48.67281" lon="7.20276">
        <ele>366.6</ele>
        <time>2011-07-10T10:20:11Z</time>
      </trkpt>
      <trkpt lat="48.67278" lon="7.20291">
        <ele>366.5</ele>
        <time>2011-07-10T10:20:13Z</time>
      </trkpt>
      <trkpt lat="48.67274" lon="7.20313">
        <ele>366</ele>
        <time>2011-07-10T10:20:15Z</time>
      </trkpt>
      <trkpt lat="48.67269" lon="7.20328">
        <ele>365.5</ele>
        <time>2011-07-10T10:20:17Z</time>
      </trkpt>
      <trkpt lat="48.67266" lon="7.20343">
        <ele>364.9</ele>
        <time>2011-07-10T10:20:19Z</time>
      </trkpt>
      <trkpt lat="48.67265" lon="7.20357">
        <ele>364.4</ele>
        <time>2011-07-10T10:20:21Z</time>
      </trkpt>
      <trkpt lat="48.67264" lon="7.20373">
        <ele>363.8</ele>
        <time>2011-07-10T10:20:23Z</time>
      </trkpt>
      <trkpt lat="48.67258" lon="7.20387">
        <ele>362.3</ele>
        <time>2011-07-10T10:20:25Z</time>
      </trkpt>
      <trkpt lat="48.6725" lon="7.20403">
        <ele>360.8</ele>
        <time>2011-07-10T10:20:27Z</time>
      </trkpt>
      <trkpt lat="48.67241" lon="7.20421">
        <ele>359.4</ele>
        <time>2011-07-10T10:20:29Z</time>
      </trkpt>
      <trkpt lat="48.67234" lon="7.20431">
        <ele>357.9</ele>
        <time>2011-07-10T10:20:30Z</time>
      </trkpt>
      <trkpt lat="48.67224" lon="7.20446">
        <ele>356.5</ele>
        <time>2011-07-10T10:20:32Z</time>
      </trkpt>
      <trkpt lat="48.6722" lon="7.20463">
        <ele>355.6</ele>
        <time>2011-07-10T10:20:34Z</time>
      </trkpt>
      <trkpt lat="48.6722" lon="7.20478">
        <ele>355.3</ele>
        <time>2011-07-10T10:20:36Z</time>
      </trkpt>
      <trkpt lat="48.67226" lon="7.20499">
        <ele>354.9</ele>
        <time>2011-07-10T10:20:40Z</time>
      </trkpt>
      <trkpt lat="48.67226" lon="7.20513">
        <ele>354.5</ele>
        <time>2011-07-10T10:20:43Z</time>
      </trkpt>
      <trkpt lat="48.6723" lon="7.20529">
        <ele>354.2</ele>
        <time>2011-07-10T10:20:49Z</time>
      </trkpt>
      <trkpt lat="48.67235" lon="7.20542">
        <ele>353.8</ele>
        <time>2011-07-10T10:20:55Z</time>
      </trkpt>
      <trkpt lat="48.6724" lon="7.20553">
        <ele>354.5</ele>
        <time>2011-07-10T10:21:00Z</time>
      </trkpt>
      <trkpt lat="48.67246" lon="7.20566">
        <ele>355.1</ele>
        <time>2011-07-10T10:21:06Z</time>
      </trkpt>
      <trkpt lat="48.67252" lon="7.20577">
        <ele>357.2</ele>
        <time>2011-07-10T10:21:10Z</time>
      </trkpt>
      <trkpt lat="48.67255" lon="7.20588">
        <ele>359.3</ele>
        <time>2011-07-10T10:21:13Z</time>
      </trkpt>
      <trkpt lat="48.67259" lon="7.20601">
        <ele>361.4</ele>
        <time>2011-07-10T10:21:19Z</time>
      </trkpt>
      <trkpt lat="48.67261" lon="7.20612">
        <ele>362.8</ele>
        <time>2011-07-10T10:21:24Z</time>
      </trkpt>
      <trkpt lat="48.67264" lon="7.20625">
        <ele>364.3</ele>
        <time>2011-07-10T10:21:27Z</time>
      </trkpt>
      <trkpt lat="48.67264" lon="7.20639">
        <ele>365.7</ele>
        <time>2011-07-10T10:21:29Z</time>
      </trkpt>
      <trkpt lat="48.67267" lon="7.20655">
        <ele>367.2</ele>
        <time>2011-07-10T10:21:32Z</time>
      </trkpt>
      <trkpt lat="48.67267" lon="7.20668">
        <ele>368.9</ele>
        <time>2011-07-10T10:21:35Z</time>
      </trkpt>
      <trkpt lat="48.6727" lon="7.2068">
        <ele>370.6</ele>
        <time>2011-07-10T10:21:38Z</time>
      </trkpt>
      <trkpt lat="48.67273" lon="7.20692">
        <ele>372.4</ele>
        <time>2011-07-10T10:21:42Z</time>
      </trkpt>
      <trkpt lat="48.67274" lon="7.20705">
        <ele>374.1</ele>
        <time>2011-07-10T10:21:47Z</time>
      </trkpt>
      <trkpt lat="48.67276" lon="7.20718">
        <ele>374.4</ele>
        <time>2011-07-10T10:21:51Z</time>
      </trkpt>
      <trkpt lat="48.67276" lon="7.2073">
        <ele>374.6</ele>
        <time>2011-07-10T10:21:56Z</time>
      </trkpt>
      <trkpt lat="48.67278" lon="7.20744">
        <ele>373.7</ele>
        <time>2011-07-10T10:22:02Z</time>
      </trkpt>
      <trkpt lat="48.67281" lon="7.20757">
        <ele>372.8</ele>
        <time>2011-07-10T10:22:08Z</time>
      </trkpt>
      <trkpt lat="48.6728" lon="7.20774">
        <ele>371.9</ele>
        <time>2011-07-10T10:22:15Z</time>
      </trkpt>
      <trkpt lat="48.67276" lon="7.20789">
        <ele>371</ele>
        <time>2011-07-10T10:22:26Z</time>
      </trkpt>
      <trkpt lat="48.67271" lon="7.20799">
        <ele>370.1</ele>
        <time>2011-07-10T10:22:35Z</time>
      </trkpt>
      <trkpt lat="48.67264" lon="7.2081">
        <ele>368.9</ele>
        <time>2011-07-10T10:22:43Z</time>
      </trkpt>
      <trkpt lat="48.67258" lon="7.2082">
        <ele>367.7</ele>
        <time>2011-07-10T10:22:48Z</time>
      </trkpt>
      <trkpt lat="48.67254" lon="7.20832">
        <ele>366.5</ele>
        <time>2011-07-10T10:22:55Z</time>
      </trkpt>
      <trkpt lat="48.67249" lon="7.20845">
        <ele>364.2</ele>
        <time>2011-07-10T10:23:01Z</time>
      </trkpt>
      <trkpt lat="48.67242" lon="7.20855">
        <ele>363.4</ele>
        <time>2011-07-10T10:23:05Z</time>
      </trkpt>
      <trkpt lat="48.67234" lon="7.20865">
        <ele>362.5</ele>
        <time>2011-07-10T10:23:08Z</time>
      </trkpt>
      <trkpt lat="48.67228" lon="7.20874">
        <ele>362.9</ele>
        <time>2011-07-10T10:23:11Z</time>
      </trkpt>
      <trkpt lat="48.67221" lon="7.20881">
        <ele>363.3</ele>
        <time>2011-07-10T10:23:14Z</time>
      </trkpt>
      <trkpt lat="48.67212" lon="7.20889">
        <ele>363.6</ele>
        <time>2011-07-10T10:23:18Z</time>
      </trkpt>
      <trkpt lat="48.67203" lon="7.20892">
        <ele>364</ele>
        <time>2011-07-10T10:23:22Z</time>
      </trkpt>
      <trkpt lat="48.67195" lon="7.20896">
        <ele>364.4</ele>
        <time>2011-07-10T10:23:25Z</time>
      </trkpt>
      <trkpt lat="48.67186" lon="7.20897">
        <ele>364.7</ele>
        <time>2011-07-10T10:23:29Z</time>
      </trkpt>
      <trkpt lat="48.67177" lon="7.20896">
        <ele>365.6</ele>
        <time>2011-07-10T10:23:32Z</time>
      </trkpt>
      <trkpt lat="48.67166" lon="7.20893">
        <ele>366.5</ele>
        <time>2011-07-10T10:23:36Z</time>
      </trkpt>
      <trkpt lat="48.67153" lon="7.20891">
        <ele>368.6</ele>
        <time>2011-07-10T10:23:39Z</time>
      </trkpt>
      <trkpt lat="48.67145" lon="7.20889">
        <ele>369.2</ele>
        <time>2011-07-10T10:23:41Z</time>
      </trkpt>
      <trkpt lat="48.67132" lon="7.20892">
        <ele>369.7</ele>
        <time>2011-07-10T10:23:44Z</time>
      </trkpt>
      <trkpt lat="48.6712" lon="7.20894">
        <ele>370.3</ele>
        <time>2011-07-10T10:23:46Z</time>
      </trkpt>
      <trkpt lat="48.67109" lon="7.20894">
        <ele>370.8</ele>
        <time>2011-07-10T10:23:48Z</time>
      </trkpt>
      <trkpt lat="48.67097" lon="7.20899">
        <ele>371.7</ele>
        <time>2011-07-10T10:23:50Z</time>
      </trkpt>
      <trkpt lat="48.67089" lon="7.20902">
        <ele>372.6</ele>
        <time>2011-07-10T10:23:51Z</time>
      </trkpt>
      <trkpt lat="48.67075" lon="7.20908">
        <ele>373.5</ele>
        <time>2011-07-10T10:23:53Z</time>
      </trkpt>
      <trkpt lat="48.67062" lon="7.20911">
        <ele>374.5</ele>
        <time>2011-07-10T10:23:55Z</time>
      </trkpt>
      <trkpt lat="48.6705" lon="7.20912">
        <ele>374.8</ele>
        <time>2011-07-10T10:23:57Z</time>
      </trkpt>
      <trkpt lat="48.67039" lon="7.20914">
        <ele>373.8</ele>
        <time>2011-07-10T10:23:59Z</time>
      </trkpt>
      <trkpt lat="48.67028" lon="7.20918">
        <ele>372.8</ele>
        <time>2011-07-10T10:24:01Z</time>
      </trkpt>
      <trkpt lat="48.6701" lon="7.20932">
        <ele>371.8</ele>
        <time>2011-07-10T10:24:03Z</time>
      </trkpt>
      <trkpt lat="48.66998" lon="7.20941">
        <ele>370.8</ele>
        <time>2011-07-10T10:24:04Z</time>
      </trkpt>
      <trkpt lat="48.66992" lon="7.20952">
        <ele>369.8</ele>
        <time>2011-07-10T10:24:05Z</time>
      </trkpt>
      <trkpt lat="48.66982" lon="7.2097">
        <ele>368.8</ele>
        <time>2011-07-10T10:24:07Z</time>
      </trkpt>
      <trkpt lat="48.66983" lon="7.20985">
        <ele>366.4</ele>
        <time>2011-07-10T10:24:09Z</time>
      </trkpt>
      <trkpt lat="48.66978" lon="7.20995">
        <ele>363.9</ele>
        <time>2011-07-10T10:24:10Z</time>
      </trkpt>
      <trkpt lat="48.66975" lon="7.21008">
        <ele>361.5</ele>
        <time>2011-07-10T10:24:12Z</time>
      </trkpt>
      <trkpt lat="48.6697" lon="7.21021">
        <ele>362</ele>
        <time>2011-07-10T10:24:14Z</time>
      </trkpt>
      <trkpt lat="48.66968" lon="7.21035">
        <ele>362.5</ele>
        <time>2011-07-10T10:24:17Z</time>
      </trkpt>
      <trkpt lat="48.66967" lon="7.21049">
        <ele>364.5</ele>
        <time>2011-07-10T10:24:19Z</time>
      </trkpt>
      <trkpt lat="48.66967" lon="7.21064">
        <ele>365.9</ele>
        <time>2011-07-10T10:24:21Z</time>
      </trkpt>
      <trkpt lat="48.66967" lon="7.21085">
        <ele>367.4</ele>
        <time>2011-07-10T10:24:23Z</time>
      </trkpt>
      <trkpt lat="48.6696" lon="7.21101">
        <ele>368.8</ele>
        <time>2011-07-10T10:24:25Z</time>
      </trkpt>
      <trkpt lat="48.66952" lon="7.21117">
        <ele>370.3</ele>
        <time>2011-07-10T10:24:27Z</time>
      </trkpt>
      <trkpt lat="48.66948" lon="7.2113">
        <ele>368.5</ele>
        <time>2011-07-10T10:24:29Z</time>
      </trkpt>
      <trkpt lat="48.66948" lon="7.21147">
        <ele>369.3</ele>
        <time>2011-07-10T10:24:31Z</time>
      </trkpt>
      <trkpt lat="48.6695" lon="7.21163">
        <ele>370</ele>
        <time>2011-07-10T10:24:33Z</time>
      </trkpt>
      <trkpt lat="48.66952" lon="7.21175">
        <ele>370.7</ele>
        <time>2011-07-10T10:24:35Z</time>
      </trkpt>
      <trkpt lat="48.66959" lon="7.21191">
        <ele>368.5</ele>
        <time>2011-07-10T10:24:38Z</time>
      </trkpt>
      <trkpt lat="48.66965" lon="7.21202">
        <ele>366.2</ele>
        <time>2011-07-10T10:24:40Z</time>
      </trkpt>
      <trkpt lat="48.66972" lon="7.21215">
        <ele>363.9</ele>
        <time>2011-07-10T10:24:43Z</time>
      </trkpt>
      <trkpt lat="48.66979" lon="7.21227">
        <ele>362.1</ele>
        <time>2011-07-10T10:24:47Z</time>
      </trkpt>
      <trkpt lat="48.66987" lon="7.21234">
        <ele>360.3</ele>
        <time>2011-07-10T10:24:50Z</time>
      </trkpt>
      <trkpt lat="48.66991" lon="7.21247">
        <ele>360</ele>
        <time>2011-07-10T10:24:54Z</time>
      </trkpt>
      <trkpt lat="48.66997" lon="7.21257">
        <ele>359.7</ele>
        <time>2011-07-10T10:24:58Z</time>
      </trkpt>
      <trkpt lat="48.67001" lon="7.2127">
        <ele>362.6</ele>
        <time>2011-07-10T10:25:01Z</time>
      </trkpt>
      <trkpt lat="48.67003" lon="7.21284">
        <ele>364.2</ele>
        <time>2011-07-10T10:25:03Z</time>
      </trkpt>
      <trkpt lat="48.67012" lon="7.21285">
        <ele>365.7</ele>
        <time>2011-07-10T10:25:06Z</time>
      </trkpt>
      <trkpt lat="48.67016" lon="7.21299">
        <ele>367.3</ele>
        <time>2011-07-10T10:25:09Z</time>
      </trkpt>
      <trkpt lat="48.67021" lon="7.21311">
        <ele>368.8</ele>
        <time>2011-07-10T10:25:15Z</time>
      </trkpt>
      <trkpt lat="48.67026" lon="7.21324">
        <ele>369.2</ele>
        <time>2011-07-10T10:25:18Z</time>
      </trkpt>
      <trkpt lat="48.67032" lon="7.21334">
        <ele>369.5</ele>
        <time>2011-07-10T10:25:24Z</time>
      </trkpt>
      <trkpt lat="48.67033" lon="7.21348">
        <ele>369.9</ele>
        <time>2011-07-10T10:25:27Z</time>
      </trkpt>
      <trkpt lat="48.6704" lon="7.2136">
        <ele>370.3</ele>
        <time>2011-07-10T10:25:30Z</time>
      </trkpt>
      <trkpt lat="48.67044" lon="7.21373">
        <ele>369.1</ele>
        <time>2011-07-10T10:25:34Z</time>
      </trkpt>
      <trkpt lat="48.67048" lon="7.21387">
        <ele>367.9</ele>
        <time>2011-07-10T10:25:37Z</time>
      </trkpt>
      <trkpt lat="48.67051" lon="7.21403">
        <ele>367.5</ele>
        <time>2011-07-10T10:25:40Z</time>
      </trkpt>
      <trkpt lat="48.67053" lon="7.21417">
        <ele>367.2</ele>
        <time>2011-07-10T10:25:44Z</time>
      </trkpt>
      <trkpt lat="48.67058" lon="7.21432">
        <ele>366.8</ele>
        <time>2011-07-10T10:25:48Z</time>
      </trkpt>
      <trkpt lat="48.67062" lon="7.21445">
        <ele>366.5</ele>
        <time>2011-07-10T10:25:50Z</time>
      </trkpt>
      <trkpt lat="48.67067" lon="7.21456">
        <ele>366.1</ele>
        <time>2011-07-10T10:25:52Z</time>
      </trkpt>
      <trkpt lat="48.67068" lon="7.21469">
        <ele>366.9</ele>
        <time>2011-07-10T10:25:56Z</time>
      </trkpt>
      <trkpt lat="48.6707" lon="7.21484">
        <ele>368.3</ele>
        <time>2011-07-10T10:26:00Z</time>
      </trkpt>
      <trkpt lat="48.67068" lon="7.21499">
        <ele>369.6</ele>
        <time>2011-07-10T10:26:03Z</time>
      </trkpt>
      <trkpt lat="48.67069" lon="7.21512">
        <ele>371</ele>
        <time>2011-07-10T10:26:06Z</time>
      </trkpt>
      <trkpt lat="48.67073" lon="7.21525">
        <ele>372.4</ele>
        <time>2011-07-10T10:26:08Z</time>
      </trkpt>
      <trkpt lat="48.6707" lon="7.21539">
        <ele>373.7</ele>
        <time>2011-07-10T10:26:11Z</time>
      </trkpt>
      <trkpt lat="48.67068" lon="7.21553">
        <ele>374.3</ele>
        <time>2011-07-10T10:26:15Z</time>
      </trkpt>
      <trkpt lat="48.67073" lon="7.21564">
        <ele>374.8</ele>
        <time>2011-07-10T10:26:20Z</time>
      </trkpt>
      <trkpt lat="48.67069" lon="7.21576">
        <ele>374.9</ele>
        <time>2011-07-10T10:26:23Z</time>
      </trkpt>
      <trkpt lat="48.6707" lon="7.21589">
        <ele>375</ele>
        <time>2011-07-10T10:26:27Z</time>
      </trkpt>
      <trkpt lat="48.67067" lon="7.21601">
        <ele>375.1</ele>
        <time>2011-07-10T10:26:30Z</time>
      </trkpt>
      <trkpt lat="48.67064" lon="7.21617">
        <ele>375.2</ele>
        <time>2011-07-10T10:26:33Z</time>
      </trkpt>
      <trkpt lat="48.67064" lon="7.21631">
        <ele>374.7</ele>
        <time>2011-07-10T10:26:39Z</time>
      </trkpt>
      <trkpt lat="48.67061" lon="7.21647">
        <ele>374.3</ele>
        <time>2011-07-10T10:26:43Z</time>
      </trkpt>
      <trkpt lat="48.67058" lon="7.2166">
        <ele>375.5</ele>
        <time>2011-07-10T10:26:45Z</time>
      </trkpt>
      <trkpt lat="48.67059" lon="7.21674">
        <ele>376.8</ele>
        <time>2011-07-10T10:26:49Z</time>
      </trkpt>
      <trkpt lat="48.67057" lon="7.21689">
        <ele>378.1</ele>
        <time>2011-07-10T10:26:53Z</time>
      </trkpt>
      <trkpt lat="48.67054" lon="7.21702">
        <ele>379.4</ele>
        <time>2011-07-10T10:26:59Z</time>
      </trkpt>
      <trkpt lat="48.67048" lon="7.21711">
        <ele>380.6</ele>
        <time>2011-07-10T10:27:04Z</time>
      </trkpt>
      <trkpt lat="48.67043" lon="7.21722">
        <ele>382.4</ele>
        <time>2011-07-10T10:27:10Z</time>
      </trkpt>
      <trkpt lat="48.67038" lon="7.21733">
        <ele>384.1</ele>
        <time>2011-07-10T10:27:15Z</time>
      </trkpt>
      <trkpt lat="48.67032" lon="7.21744">
        <ele>385.1</ele>
        <time>2011-07-10T10:27:18Z</time>
      </trkpt>
      <trkpt lat="48.67027" lon="7.21757">
        <ele>386.1</ele>
        <time>2011-07-10T10:27:22Z</time>
      </trkpt>
      <trkpt lat="48.67022" lon="7.21772">
        <ele>387.1</ele>
        <time>2011-07-10T10:27:25Z</time>
      </trkpt>
      <trkpt lat="48.67019" lon="7.21784">
        <ele>388.1</ele>
        <time>2011-07-10T10:27:29Z</time>
      </trkpt>
      <trkpt lat="48.67017" lon="7.21797">
        <ele>387.4</ele>
        <time>2011-07-10T10:27:34Z</time>
      </trkpt>
      <trkpt lat="48.67009" lon="7.21807">
        <ele>386.6</ele>
        <time>2011-07-10T10:27:38Z</time>
      </trkpt>
      <trkpt lat="48.67002" lon="7.21821">
        <ele>387.7</ele>
        <time>2011-07-10T10:27:41Z</time>
      </trkpt>
      <trkpt lat="48.66994" lon="7.2183">
        <ele>388.8</ele>
        <time>2011-07-10T10:27:45Z</time>
      </trkpt>
      <trkpt lat="48.66986" lon="7.21837">
        <ele>389.9</ele>
        <time>2011-07-10T10:27:50Z</time>
      </trkpt>
      <trkpt lat="48.6698" lon="7.21845">
        <ele>391</ele>
        <time>2011-07-10T10:27:54Z</time>
      </trkpt>
      <trkpt lat="48.66972" lon="7.2185">
        <ele>390</ele>
        <time>2011-07-10T10:27:58Z</time>
      </trkpt>
      <trkpt lat="48.66962" lon="7.21854">
        <ele>389.7</ele>
        <time>2011-07-10T10:28:02Z</time>
      </trkpt>
      <trkpt lat="48.66956" lon="7.21862">
        <ele>389.5</ele>
        <time>2011-07-10T10:28:05Z</time>
      </trkpt>
      <trkpt lat="48.66947" lon="7.21873">
        <ele>389.2</ele>
        <time>2011-07-10T10:28:07Z</time>
      </trkpt>
      <trkpt lat="48.66937" lon="7.21881">
        <ele>388.9</ele>
        <time>2011-07-10T10:28:10Z</time>
      </trkpt>
      <trkpt lat="48.66929" lon="7.21888">
        <ele>388.6</ele>
        <time>2011-07-10T10:28:12Z</time>
      </trkpt>
      <trkpt lat="48.66921" lon="7.21892">
        <ele>390.5</ele>
        <time>2011-07-10T10:28:17Z</time>
      </trkpt>
      <trkpt lat="48.66912" lon="7.21895">
        <ele>390.5</ele>
        <time>2011-07-10T10:28:20Z</time>
      </trkpt>
      <trkpt lat="48.66903" lon="7.21895">
        <ele>390.5</ele>
        <time>2011-07-10T10:28:25Z</time>
      </trkpt>
      <trkpt lat="48.66893" lon="7.21892">
        <ele>390.5</ele>
        <time>2011-07-10T10:28:30Z</time>
      </trkpt>
      <trkpt lat="48.66884" lon="7.21888">
        <ele>390.5</ele>
        <time>2011-07-10T10:28:34Z</time>
      </trkpt>
      <trkpt lat="48.66876" lon="7.2188">
        <ele>392.5</ele>
        <time>2011-07-10T10:28:37Z</time>
      </trkpt>
      <trkpt lat="48.66868" lon="7.21878">
        <ele>394.6</ele>
        <time>2011-07-10T10:28:40Z</time>
      </trkpt>
      <trkpt lat="48.6686" lon="7.21874">
        <ele>394.5</ele>
        <time>2011-07-10T10:28:45Z</time>
      </trkpt>
      <trkpt lat="48.6685" lon="7.21868">
        <ele>394.3</ele>
        <time>2011-07-10T10:28:49Z</time>
      </trkpt>
      <trkpt lat="48.66844" lon="7.21858">
        <ele>394.1</ele>
        <time>2011-07-10T10:28:54Z</time>
      </trkpt>
      <trkpt lat="48.66836" lon="7.21863">
        <ele>393.9</ele>
        <time>2011-07-10T10:28:59Z</time>
      </trkpt>
      <trkpt lat="48.66836" lon="7.21878">
        <ele>391.6</ele>
        <time>2011-07-10T10:29:02Z</time>
      </trkpt>
      <trkpt lat="48.6684" lon="7.2189">
        <ele>389.5</ele>
        <time>2011-07-10T10:29:04Z</time>
      </trkpt>
      <trkpt lat="48.66851" lon="7.21909">
        <ele>386.2</ele>
        <time>2011-07-10T10:29:06Z</time>
      </trkpt>
      <trkpt lat="48.66861" lon="7.21927">
        <ele>382.8</ele>
        <time>2011-07-10T10:29:08Z</time>
      </trkpt>
      <trkpt lat="48.66868" lon="7.21936">
        <ele>379.5</ele>
        <time>2011-07-10T10:29:09Z</time>
      </trkpt>
      <trkpt lat="48.6688" lon="7.2195">
        <ele>376.1</ele>
        <time>2011-07-10T10:29:11Z</time>
      </trkpt>
      <trkpt lat="48.66892" lon="7.21963">
        <ele>372.7</ele>
        <time>2011-07-10T10:29:13Z</time>
      </trkpt>
      <trkpt lat="48.66902" lon="7.2197">
        <ele>371.6</ele>
        <time>2011-07-10T10:29:15Z</time>
      </trkpt>
      <trkpt lat="48.66908" lon="7.21979">
        <ele>370.5</ele>
        <time>2011-07-10T10:29:17Z</time>
      </trkpt>
      <trkpt lat="48.66916" lon="7.21985">
        <ele>369.5</ele>
        <time>2011-07-10T10:29:19Z</time>
      </trkpt>
      <trkpt lat="48.66924" lon="7.21991">
        <ele>367.7</ele>
        <time>2011-07-10T10:29:22Z</time>
      </trkpt>
      <trkpt lat="48.66929" lon="7.22003">
        <ele>366</ele>
        <time>2011-07-10T10:29:27Z</time>
      </trkpt>
      <trkpt lat="48.66939" lon="7.22013">
        <ele>364.1</ele>
        <time>2011-07-10T10:29:30Z</time>
      </trkpt>
      <trkpt lat="48.66948" lon="7.22024">
        <ele>362.5</ele>
        <time>2011-07-10T10:29:32Z</time>
      </trkpt>
      <trkpt lat="48.6696" lon="7.22034">
        <ele>361</ele>
        <time>2011-07-10T10:29:34Z</time>
      </trkpt>
      <trkpt lat="48.66975" lon="7.22043">
        <ele>359.5</ele>
        <time>2011-07-10T10:29:36Z</time>
      </trkpt>
      <trkpt lat="48.66983" lon="7.22046">
        <ele>357.1</ele>
        <time>2011-07-10T10:29:37Z</time>
      </trkpt>
      <trkpt lat="48.66998" lon="7.22049">
        <ele>354.7</ele>
        <time>2011-07-10T10:29:39Z</time>
      </trkpt>
      <trkpt lat="48.6701" lon="7.2205">
        <ele>352.4</ele>
        <time>2011-07-10T10:29:41Z</time>
      </trkpt>
      <trkpt lat="48.67023" lon="7.22049">
        <ele>350</ele>
        <time>2011-07-10T10:29:43Z</time>
      </trkpt>
      <trkpt lat="48.6704" lon="7.22051">
        <ele>347.6</ele>
        <time>2011-07-10T10:29:45Z</time>
      </trkpt>
      <trkpt lat="48.67053" lon="7.22049">
        <ele>345.9</ele>
        <time>2011-07-10T10:29:47Z</time>
      </trkpt>
      <trkpt lat="48.67061" lon="7.22047">
        <ele>344.2</ele>
        <time>2011-07-10T10:29:48Z</time>
      </trkpt>
      <trkpt lat="48.67074" lon="7.22046">
        <ele>341.4</ele>
        <time>2011-07-10T10:29:50Z</time>
      </trkpt>
      <trkpt lat="48.67086" lon="7.22046">
        <ele>339.5</ele>
        <time>2011-07-10T10:29:52Z</time>
      </trkpt>
      <trkpt lat="48.67099" lon="7.22045">
        <ele>337.5</ele>
        <time>2011-07-10T10:29:54Z</time>
      </trkpt>
      <trkpt lat="48.67112" lon="7.22043">
        <ele>335.6</ele>
        <time>2011-07-10T10:29:56Z</time>
      </trkpt>
      <trkpt lat="48.67124" lon="7.22047">
        <ele>334.5</ele>
        <time>2011-07-10T10:29:58Z</time>
      </trkpt>
      <trkpt lat="48.67135" lon="7.22053">
        <ele>333.5</ele>
        <time>2011-07-10T10:30:00Z</time>
      </trkpt>
      <trkpt lat="48.67145" lon="7.22061">
        <ele>332.4</ele>
        <time>2011-07-10T10:30:02Z</time>
      </trkpt>
      <trkpt lat="48.67153" lon="7.22067">
        <ele>331.3</ele>
        <time>2011-07-10T10:30:04Z</time>
      </trkpt>
      <trkpt lat="48.67163" lon="7.22071">
        <ele>330.2</ele>
        <time>2011-07-10T10:30:07Z</time>
      </trkpt>
      <trkpt lat="48.67172" lon="7.22072">
        <ele>328.2</ele>
        <time>2011-07-10T10:30:09Z</time>
      </trkpt>
      <trkpt lat="48.67181" lon="7.22072">
        <ele>326.2</ele>
        <time>2011-07-10T10:30:12Z</time>
      </trkpt>
      <trkpt lat="48.67189" lon="7.22065">
        <ele>325.3</ele>
        <time>2011-07-10T10:30:15Z</time>
      </trkpt>
      <trkpt lat="48.67197" lon="7.22067">
        <ele>324.4</ele>
        <time>2011-07-10T10:30:19Z</time>
      </trkpt>
      <trkpt lat="48.67205" lon="7.22071">
        <ele>323.5</ele>
        <time>2011-07-10T10:30:22Z</time>
      </trkpt>
      <trkpt lat="48.67213" lon="7.22081">
        <ele>321.3</ele>
        <time>2011-07-10T10:30:26Z</time>
      </trkpt>
      <trkpt lat="48.67219" lon="7.2209">
        <ele>319.1</ele>
        <time>2011-07-10T10:30:29Z</time>
      </trkpt>
      <trkpt lat="48.67221" lon="7.22103">
        <ele>317.6</ele>
        <time>2011-07-10T10:30:34Z</time>
      </trkpt>
      <trkpt lat="48.6722" lon="7.22116">
        <ele>316.2</ele>
        <time>2011-07-10T10:30:39Z</time>
      </trkpt>
      <trkpt lat="48.6722" lon="7.22128">
        <ele>314.7</ele>
        <time>2011-07-10T10:30:42Z</time>
      </trkpt>
      <trkpt lat="48.67216" lon="7.22142">
        <ele>313.3</ele>
        <time>2011-07-10T10:30:45Z</time>
      </trkpt>
      <trkpt lat="48.67211" lon="7.22154">
        <ele>311.4</ele>
        <time>2011-07-10T10:30:48Z</time>
      </trkpt>
      <trkpt lat="48.67207" lon="7.22165">
        <ele>309.5</ele>
        <time>2011-07-10T10:30:51Z</time>
      </trkpt>
      <trkpt lat="48.67203" lon="7.22176">
        <ele>307.5</ele>
        <time>2011-07-10T10:30:54Z</time>
      </trkpt>
      <trkpt lat="48.67198" lon="7.22189">
        <ele>305.6</ele>
        <time>2011-07-10T10:30:58Z</time>
      </trkpt>
      <trkpt lat="48.67192" lon="7.222">
        <ele>303.7</ele>
        <time>2011-07-10T10:31:06Z</time>
      </trkpt>
      <trkpt lat="48.67186" lon="7.22214">
        <ele>304.1</ele>
        <time>2011-07-10T10:31:10Z</time>
      </trkpt>
      <trkpt lat="48.6718" lon="7.22226">
        <ele>304.5</ele>
        <time>2011-07-10T10:31:15Z</time>
      </trkpt>
      <trkpt lat="48.67185" lon="7.22236">
        <ele>304.1</ele>
        <time>2011-07-10T10:31:20Z</time>
      </trkpt>
      <trkpt lat="48.67194" lon="7.22247">
        <ele>303.7</ele>
        <time>2011-07-10T10:31:23Z</time>
      </trkpt>
      <trkpt lat="48.67205" lon="7.22257">
        <ele>303.4</ele>
        <time>2011-07-10T10:31:26Z</time>
      </trkpt>
      <trkpt lat="48.67214" lon="7.22255">
        <ele>302.6</ele>
        <time>2011-07-10T10:31:28Z</time>
      </trkpt>
      <trkpt lat="48.67225" lon="7.22243">
        <ele>303.3</ele>
        <time>2011-07-10T10:31:31Z</time>
      </trkpt>
      <trkpt lat="48.67233" lon="7.22233">
        <ele>303.9</ele>
        <time>2011-07-10T10:31:33Z</time>
      </trkpt>
      <trkpt lat="48.67241" lon="7.22224">
        <ele>304.5</ele>
        <time>2011-07-10T10:31:36Z</time>
      </trkpt>
      <trkpt lat="48.6725" lon="7.22214">
        <ele>305.2</ele>
        <time>2011-07-10T10:31:40Z</time>
      </trkpt>
      <trkpt lat="48.67258" lon="7.22206">
        <ele>305.8</ele>
        <time>2011-07-10T10:31:44Z</time>
      </trkpt>
      <trkpt lat="48.67266" lon="7.222">
        <ele>306.5</ele>
        <time>2011-07-10T10:31:47Z</time>
      </trkpt>
      <trkpt lat="48.67273" lon="7.22193">
        <ele>307.3</ele>
        <time>2011-07-10T10:31:51Z</time>
      </trkpt>
      <trkpt lat="48.67281" lon="7.22184">
        <ele>308</ele>
        <time>2011-07-10T10:31:57Z</time>
      </trkpt>
      <trkpt lat="48.67289" lon="7.22179">
        <ele>308.7</ele>
        <time>2011-07-10T10:32:00Z</time>
      </trkpt>
      <trkpt lat="48.67298" lon="7.22172">
        <ele>308.3</ele>
        <time>2011-07-10T10:32:04Z</time>
      </trkpt>
      <trkpt lat="48.67305" lon="7.22164">
        <ele>308.2</ele>
        <time>2011-07-10T10:32:07Z</time>
      </trkpt>
      <trkpt lat="48.67311" lon="7.22156">
        <ele>308.1</ele>
        <time>2011-07-10T10:32:10Z</time>
      </trkpt>
      <trkpt lat="48.67319" lon="7.22148">
        <ele>308</ele>
        <time>2011-07-10T10:32:14Z</time>
      </trkpt>
      <trkpt lat="48.67327" lon="7.22139">
        <ele>307.9</ele>
        <time>2011-07-10T10:32:18Z</time>
      </trkpt>
      <trkpt lat="48.67334" lon="7.22127">
        <ele>307.8</ele>
        <time>2011-07-10T10:32:22Z</time>
      </trkpt>
      <trkpt lat="48.67338" lon="7.22117">
        <ele>307.7</ele>
        <time>2011-07-10T10:32:25Z</time>
      </trkpt>
      <trkpt lat="48.67345" lon="7.22108">
        <ele>306.6</ele>
        <time>2011-07-10T10:32:30Z</time>
      </trkpt>
      <trkpt lat="48.6735" lon="7.22098">
        <ele>305.5</ele>
        <time>2011-07-10T10:32:31Z</time>
      </trkpt>
      <trkpt lat="48.67354" lon="7.22083">
        <ele>304.5</ele>
        <time>2011-07-10T10:32:35Z</time>
      </trkpt>
      <trkpt lat="48.6736" lon="7.22074">
        <ele>303.4</ele>
        <time>2011-07-10T10:32:39Z</time>
      </trkpt>
      <trkpt lat="48.67362" lon="7.2206">
        <ele>303.5</ele>
        <time>2011-07-10T10:32:42Z</time>
      </trkpt>
      <trkpt lat="48.67366" lon="7.22044">
        <ele>303.5</ele>
        <time>2011-07-10T10:32:46Z</time>
      </trkpt>
      <trkpt lat="48.67367" lon="7.2203">
        <ele>303.7</ele>
        <time>2011-07-10T10:32:49Z</time>
      </trkpt>
      <trkpt lat="48.6737" lon="7.22015">
        <ele>303.9</ele>
        <time>2011-07-10T10:32:52Z</time>
      </trkpt>
      <trkpt lat="48.67372" lon="7.21997">
        <ele>304.1</ele>
        <time>2011-07-10T10:32:55Z</time>
      </trkpt>
      <trkpt lat="48.67371" lon="7.21985">
        <ele>304.3</ele>
        <time>2011-07-10T10:32:57Z</time>
      </trkpt>
      <trkpt lat="48.67367" lon="7.21973">
        <ele>304.5</ele>
        <time>2011-07-10T10:33:00Z</time>
      </trkpt>
      <trkpt lat="48.67366" lon="7.21955">
        <ele>304.5</ele>
        <time>2011-07-10T10:33:03Z</time>
      </trkpt>
      <trkpt lat="48.6736" lon="7.21943">
        <ele>303.7</ele>
        <time>2011-07-10T10:33:06Z</time>
      </trkpt>
      <trkpt lat="48.67359" lon="7.21928">
        <ele>302.9</ele>
        <time>2011-07-10T10:33:09Z</time>
      </trkpt>
      <trkpt lat="48.67357" lon="7.21912">
        <ele>302.1</ele>
        <time>2011-07-10T10:33:12Z</time>
      </trkpt>
      <trkpt lat="48.67358" lon="7.21899">
        <ele>301.3</ele>
        <time>2011-07-10T10:33:14Z</time>
      </trkpt>
      <trkpt lat="48.67359" lon="7.21885">
        <ele>300.5</ele>
        <time>2011-07-10T10:33:16Z</time>
      </trkpt>
      <trkpt lat="48.67361" lon="7.21869">
        <ele>301.9</ele>
        <time>2011-07-10T10:33:19Z</time>
      </trkpt>
      <trkpt lat="48.67362" lon="7.21856">
        <ele>302.4</ele>
        <time>2011-07-10T10:33:21Z</time>
      </trkpt>
      <trkpt lat="48.67367" lon="7.2184">
        <ele>302.8</ele>
        <time>2011-07-10T10:33:24Z</time>
      </trkpt>
      <trkpt lat="48.67371" lon="7.21828">
        <ele>303.3</ele>
        <time>2011-07-10T10:33:26Z</time>
      </trkpt>
      <trkpt lat="48.67376" lon="7.21816">
        <ele>303.7</ele>
        <time>2011-07-10T10:33:28Z</time>
      </trkpt>
      <trkpt lat="48.67381" lon="7.21804">
        <ele>304.2</ele>
        <time>2011-07-10T10:33:30Z</time>
      </trkpt>
      <trkpt lat="48.67384" lon="7.21789">
        <ele>304.5</ele>
        <time>2011-07-10T10:33:32Z</time>
      </trkpt>
      <trkpt lat="48.67389" lon="7.21775">
        <ele>304.7</ele>
        <time>2011-07-10T10:33:34Z</time>
      </trkpt>
      <trkpt lat="48.67392" lon="7.21762">
        <ele>305</ele>
        <time>2011-07-10T10:33:36Z</time>
      </trkpt>
      <trkpt lat="48.67392" lon="7.21747">
        <ele>305.3</ele>
        <time>2011-07-10T10:33:38Z</time>
      </trkpt>
      <trkpt lat="48.67392" lon="7.21729">
        <ele>305.5</ele>
        <time>2011-07-10T10:33:41Z</time>
      </trkpt>
      <trkpt lat="48.67392" lon="7.21713">
        <ele>303.5</ele>
        <time>2011-07-10T10:33:43Z</time>
      </trkpt>
      <trkpt lat="48.67393" lon="7.21696">
        <ele>302.4</ele>
        <time>2011-07-10T10:33:45Z</time>
      </trkpt>
      <trkpt lat="48.67392" lon="7.21679">
        <ele>301.3</ele>
        <time>2011-07-10T10:33:47Z</time>
      </trkpt>
      <trkpt lat="48.67394" lon="7.21667">
        <ele>300.2</ele>
        <time>2011-07-10T10:33:49Z</time>
      </trkpt>
      <trkpt lat="48.67399" lon="7.21654">
        <ele>299.1</ele>
        <time>2011-07-10T10:33:52Z</time>
      </trkpt>
      <trkpt lat="48.67411" lon="7.21653">
        <ele>298.5</ele>
        <time>2011-07-10T10:33:55Z</time>
      </trkpt>
      <trkpt lat="48.67422" lon="7.21656">
        <ele>299.1</ele>
        <time>2011-07-10T10:33:58Z</time>
      </trkpt>
      <trkpt lat="48.6743" lon="7.21659">
        <ele>299.6</ele>
        <time>2011-07-10T10:34:00Z</time>
      </trkpt>
      <trkpt lat="48.67441" lon="7.21664">
        <ele>300.2</ele>
        <time>2011-07-10T10:34:02Z</time>
      </trkpt>
      <trkpt lat="48.67452" lon="7.21672">
        <ele>300.7</ele>
        <time>2011-07-10T10:34:04Z</time>
      </trkpt>
      <trkpt lat="48.67464" lon="7.21677">
        <ele>301.3</ele>
        <time>2011-07-10T10:34:06Z</time>
      </trkpt>
      <trkpt lat="48.67477" lon="7.21683">
        <ele>301.8</ele>
        <time>2011-07-10T10:34:09Z</time>
      </trkpt>
      <trkpt lat="48.67487" lon="7.21684">
        <ele>302.4</ele>
        <time>2011-07-10T10:34:11Z</time>
      </trkpt>
      <trkpt lat="48.67498" lon="7.21681">
        <ele>304</ele>
        <time>2011-07-10T10:34:13Z</time>
      </trkpt>
      <trkpt lat="48.67508" lon="7.21679">
        <ele>305.6</ele>
        <time>2011-07-10T10:34:15Z</time>
      </trkpt>
      <trkpt lat="48.67516" lon="7.21678">
        <ele>305.7</ele>
        <time>2011-07-10T10:34:17Z</time>
      </trkpt>
      <trkpt lat="48.67525" lon="7.21671">
        <ele>305.3</ele>
        <time>2011-07-10T10:34:19Z</time>
      </trkpt>
      <trkpt lat="48.67536" lon="7.21663">
        <ele>304.8</ele>
        <time>2011-07-10T10:34:22Z</time>
      </trkpt>
      <trkpt lat="48.67549" lon="7.21655">
        <ele>304.4</ele>
        <time>2011-07-10T10:34:24Z</time>
      </trkpt>
      <trkpt lat="48.67557" lon="7.21643">
        <ele>303.9</ele>
        <time>2011-07-10T10:34:26Z</time>
      </trkpt>
      <trkpt lat="48.67564" lon="7.21632">
        <ele>303.5</ele>
        <time>2011-07-10T10:34:28Z</time>
      </trkpt>
      <trkpt lat="48.67571" lon="7.21623">
        <ele>303</ele>
        <time>2011-07-10T10:34:30Z</time>
      </trkpt>
      <trkpt lat="48.67575" lon="7.2161">
        <ele>301.4</ele>
        <time>2011-07-10T10:34:32Z</time>
      </trkpt>
      <trkpt lat="48.67578" lon="7.21595">
        <ele>299.7</ele>
        <time>2011-07-10T10:34:34Z</time>
      </trkpt>
      <trkpt lat="48.67582" lon="7.21579">
        <ele>297</ele>
        <time>2011-07-10T10:34:36Z</time>
      </trkpt>
      <trkpt lat="48.67584" lon="7.2156">
        <ele>294.3</ele>
        <time>2011-07-10T10:34:39Z</time>
      </trkpt>
      <trkpt lat="48.67585" lon="7.21547">
        <ele>293.1</ele>
        <time>2011-07-10T10:34:41Z</time>
      </trkpt>
      <trkpt lat="48.67587" lon="7.21531">
        <ele>291.9</ele>
        <time>2011-07-10T10:34:43Z</time>
      </trkpt>
      <trkpt lat="48.67588" lon="7.21518">
        <ele>291.4</ele>
        <time>2011-07-10T10:34:45Z</time>
      </trkpt>
      <trkpt lat="48.67591" lon="7.21501">
        <ele>290.8</ele>
        <time>2011-07-10T10:34:48Z</time>
      </trkpt>
      <trkpt lat="48.67602" lon="7.21498">
        <ele>290.3</ele>
        <time>2011-07-10T10:34:52Z</time>
      </trkpt>
      <trkpt lat="48.67614" lon="7.21502">
        <ele>289.7</ele>
        <time>2011-07-10T10:34:54Z</time>
      </trkpt>
      <trkpt lat="48.67625" lon="7.21509">
        <ele>289.2</ele>
        <time>2011-07-10T10:34:56Z</time>
      </trkpt>
      <trkpt lat="48.67634" lon="7.21513">
        <ele>289.8</ele>
        <time>2011-07-10T10:34:58Z</time>
      </trkpt>
      <trkpt lat="48.67643" lon="7.21524">
        <ele>290.5</ele>
        <time>2011-07-10T10:35:00Z</time>
      </trkpt>
      <trkpt lat="48.67657" lon="7.21528">
        <ele>291.1</ele>
        <time>2011-07-10T10:35:02Z</time>
      </trkpt>
      <trkpt lat="48.67669" lon="7.21532">
        <ele>291.7</ele>
        <time>2011-07-10T10:35:04Z</time>
      </trkpt>
      <trkpt lat="48.6768" lon="7.21525">
        <ele>292.4</ele>
        <time>2011-07-10T10:35:06Z</time>
      </trkpt>
      <trkpt lat="48.67685" lon="7.21509">
        <ele>293</ele>
        <time>2011-07-10T10:35:09Z</time>
      </trkpt>
      <trkpt lat="48.67679" lon="7.21495">
        <ele>293</ele>
        <time>2011-07-10T10:35:11Z</time>
      </trkpt>
      <trkpt lat="48.67668" lon="7.21485">
        <ele>293</ele>
        <time>2011-07-10T10:35:13Z</time>
      </trkpt>
      <trkpt lat="48.67658" lon="7.21478">
        <ele>291.5</ele>
        <time>2011-07-10T10:35:15Z</time>
      </trkpt>
      <trkpt lat="48.67649" lon="7.21469">
        <ele>290.1</ele>
        <time>2011-07-10T10:35:17Z</time>
      </trkpt>
      <trkpt lat="48.67639" lon="7.21458">
        <ele>288.6</ele>
        <time>2011-07-10T10:35:19Z</time>
      </trkpt>
      <trkpt lat="48.67633" lon="7.21446">
        <ele>287.2</ele>
        <time>2011-07-10T10:35:21Z</time>
      </trkpt>
      <trkpt lat="48.67627" lon="7.21433">
        <ele>285.7</ele>
        <time>2011-07-10T10:35:23Z</time>
      </trkpt>
      <trkpt lat="48.67619" lon="7.2142">
        <ele>284.2</ele>
        <time>2011-07-10T10:35:25Z</time>
      </trkpt>
      <trkpt lat="48.67608" lon="7.21412">
        <ele>282.6</ele>
        <time>2011-07-10T10:35:27Z</time>
      </trkpt>
      <trkpt lat="48.676" lon="7.21403">
        <ele>281.1</ele>
        <time>2011-07-10T10:35:29Z</time>
      </trkpt>
      <trkpt lat="48.67596" lon="7.21391">
        <ele>279.5</ele>
        <time>2011-07-10T10:35:31Z</time>
      </trkpt>
      <trkpt lat="48.67592" lon="7.2138">
        <ele>277.5</ele>
        <time>2011-07-10T10:35:33Z</time>
      </trkpt>
      <trkpt lat="48.67593" lon="7.21361">
        <ele>275.5</ele>
        <time>2011-07-10T10:35:35Z</time>
      </trkpt>
      <trkpt lat="48.67596" lon="7.21343">
        <ele>275</ele>
        <time>2011-07-10T10:35:37Z</time>
      </trkpt>
      <trkpt lat="48.67601" lon="7.21324">
        <ele>275.5</ele>
        <time>2011-07-10T10:35:39Z</time>
      </trkpt>
      <trkpt lat="48.67605" lon="7.21304">
        <ele>275.9</ele>
        <time>2011-07-10T10:35:41Z</time>
      </trkpt>
      <trkpt lat="48.67611" lon="7.21286">
        <ele>276.4</ele>
        <time>2011-07-10T10:35:43Z</time>
      </trkpt>
      <trkpt lat="48.67618" lon="7.21271">
        <ele>275.8</ele>
        <time>2011-07-10T10:35:45Z</time>
      </trkpt>
      <trkpt lat="48.67627" lon="7.21259">
        <ele>275.4</ele>
        <time>2011-07-10T10:35:47Z</time>
      </trkpt>
      <trkpt lat="48.67638" lon="7.21245">
        <ele>274.9</ele>
        <time>2011-07-10T10:35:49Z</time>
      </trkpt>
      <trkpt lat="48.67648" lon="7.21229">
        <ele>274.5</ele>
        <time>2011-07-10T10:35:51Z</time>
      </trkpt>
      <trkpt lat="48.67656" lon="7.21213">
        <ele>273.6</ele>
        <time>2011-07-10T10:35:53Z</time>
      </trkpt>
      <trkpt lat="48.67664" lon="7.21194">
        <ele>273.3</ele>
        <time>2011-07-10T10:35:55Z</time>
      </trkpt>
      <trkpt lat="48.67671" lon="7.21175">
        <ele>272.9</ele>
        <time>2011-07-10T10:35:57Z</time>
      </trkpt>
      <trkpt lat="48.67678" lon="7.21159">
        <ele>272.5</ele>
        <time>2011-07-10T10:35:59Z</time>
      </trkpt>
      <trkpt lat="48.67686" lon="7.21142">
        <ele>271.2</ele>
        <time>2011-07-10T10:36:01Z</time>
      </trkpt>
      <trkpt lat="48.67691" lon="7.21125">
        <ele>269.8</ele>
        <time>2011-07-10T10:36:03Z</time>
      </trkpt>
      <trkpt lat="48.67695" lon="7.21105">
        <ele>270</ele>
        <time>2011-07-10T10:36:05Z</time>
      </trkpt>
      <trkpt lat="48.677" lon="7.21086">
        <ele>271.2</ele>
        <time>2011-07-10T10:36:07Z</time>
      </trkpt>
      <trkpt lat="48.67702" lon="7.21065">
        <ele>272.4</ele>
        <time>2011-07-10T10:36:09Z</time>
      </trkpt>
      <trkpt lat="48.67706" lon="7.21045">
        <ele>272.4</ele>
        <time>2011-07-10T10:36:11Z</time>
      </trkpt>
      <trkpt lat="48.67709" lon="7.21027">
        <ele>272.4</ele>
        <time>2011-07-10T10:36:13Z</time>
      </trkpt>
      <trkpt lat="48.67712" lon="7.21007">
        <ele>272.7</ele>
        <time>2011-07-10T10:36:15Z</time>
      </trkpt>
      <trkpt lat="48.67714" lon="7.20986">
        <ele>273.1</ele>
        <time>2011-07-10T10:36:17Z</time>
      </trkpt>
      <trkpt lat="48.67716" lon="7.20972">
        <ele>273.5</ele>
        <time>2011-07-10T10:36:18Z</time>
      </trkpt>
      <trkpt lat="48.6772" lon="7.20951">
        <ele>273.4</ele>
        <time>2011-07-10T10:36:20Z</time>
      </trkpt>
      <trkpt lat="48.67725" lon="7.20935">
        <ele>273.3</ele>
        <time>2011-07-10T10:36:22Z</time>
      </trkpt>
      <trkpt lat="48.67732" lon="7.20917">
        <ele>273.2</ele>
        <time>2011-07-10T10:36:24Z</time>
      </trkpt>
      <trkpt lat="48.67739" lon="7.20901">
        <ele>271.5</ele>
        <time>2011-07-10T10:36:26Z</time>
      </trkpt>
      <trkpt lat="48.67749" lon="7.20886">
        <ele>269.9</ele>
        <time>2011-07-10T10:36:28Z</time>
      </trkpt>
      <trkpt lat="48.67757" lon="7.2087">
        <ele>268.3</ele>
        <time>2011-07-10T10:36:30Z</time>
      </trkpt>
      <trkpt lat="48.67765" lon="7.20859">
        <ele>268.9</ele>
        <time>2011-07-10T10:36:32Z</time>
      </trkpt>
      <trkpt lat="48.67772" lon="7.20846">
        <ele>269.5</ele>
        <time>2011-07-10T10:36:34Z</time>
      </trkpt>
      <trkpt lat="48.67781" lon="7.20832">
        <ele>270.2</ele>
        <time>2011-07-10T10:36:36Z</time>
      </trkpt>
      <trkpt lat="48.67789" lon="7.20817">
        <ele>270.8</ele>
        <time>2011-07-10T10:36:38Z</time>
      </trkpt>
      <trkpt lat="48.67795" lon="7.20803">
        <ele>271.5</ele>
        <time>2011-07-10T10:36:40Z</time>
      </trkpt>
      <trkpt lat="48.678" lon="7.20787">
        <ele>272.2</ele>
        <time>2011-07-10T10:36:42Z</time>
      </trkpt>
      <trkpt lat="48.67804" lon="7.20774">
        <ele>272.9</ele>
        <time>2011-07-10T10:36:44Z</time>
      </trkpt>
      <trkpt lat="48.6781" lon="7.20757">
        <ele>273.6</ele>
        <time>2011-07-10T10:36:46Z</time>
      </trkpt>
      <trkpt lat="48.67813" lon="7.20742">
        <ele>274.4</ele>
        <time>2011-07-10T10:36:48Z</time>
      </trkpt>
      <trkpt lat="48.67817" lon="7.20726">
        <ele>275.1</ele>
        <time>2011-07-10T10:36:50Z</time>
      </trkpt>
      <trkpt lat="48.67819" lon="7.20709">
        <ele>275.5</ele>
        <time>2011-07-10T10:36:52Z</time>
      </trkpt>
      <trkpt lat="48.67825" lon="7.20695">
        <ele>274.9</ele>
        <time>2011-07-10T10:36:54Z</time>
      </trkpt>
      <trkpt lat="48.67828" lon="7.20681">
        <ele>274.3</ele>
        <time>2011-07-10T10:36:56Z</time>
      </trkpt>
      <trkpt lat="48.67832" lon="7.20665">
        <ele>273.6</ele>
        <time>2011-07-10T10:36:58Z</time>
      </trkpt>
      <trkpt lat="48.67835" lon="7.20645">
        <ele>273</ele>
        <time>2011-07-10T10:37:00Z</time>
      </trkpt>
      <trkpt lat="48.67838" lon="7.20628">
        <ele>272</ele>
        <time>2011-07-10T10:37:02Z</time>
      </trkpt>
      <trkpt lat="48.67842" lon="7.2061">
        <ele>271.4</ele>
        <time>2011-07-10T10:37:04Z</time>
      </trkpt>
      <trkpt lat="48.67845" lon="7.20596">
        <ele>270.7</ele>
        <time>2011-07-10T10:37:06Z</time>
      </trkpt>
      <trkpt lat="48.67849" lon="7.20579">
        <ele>270.1</ele>
        <time>2011-07-10T10:37:08Z</time>
      </trkpt>
      <trkpt lat="48.6785" lon="7.20557">
        <ele>269.5</ele>
        <time>2011-07-10T10:37:10Z</time>
      </trkpt>
      <trkpt lat="48.67853" lon="7.20537">
        <ele>268.5</ele>
        <time>2011-07-10T10:37:12Z</time>
      </trkpt>
      <trkpt lat="48.67856" lon="7.20519">
        <ele>267.7</ele>
        <time>2011-07-10T10:37:14Z</time>
      </trkpt>
      <trkpt lat="48.6786" lon="7.20501">
        <ele>267</ele>
        <time>2011-07-10T10:37:16Z</time>
      </trkpt>
      <trkpt lat="48.67863" lon="7.20484">
        <ele>267.6</ele>
        <time>2011-07-10T10:37:18Z</time>
      </trkpt>
      <trkpt lat="48.67867" lon="7.20467">
        <ele>268.3</ele>
        <time>2011-07-10T10:37:20Z</time>
      </trkpt>
      <trkpt lat="48.67869" lon="7.20448">
        <ele>267.8</ele>
        <time>2011-07-10T10:37:22Z</time>
      </trkpt>
      <trkpt lat="48.67874" lon="7.20431">
        <ele>267.7</ele>
        <time>2011-07-10T10:37:24Z</time>
      </trkpt>
      <trkpt lat="48.67876" lon="7.20416">
        <ele>267.6</ele>
        <time>2011-07-10T10:37:26Z</time>
      </trkpt>
      <trkpt lat="48.67883" lon="7.204">
        <ele>267.5</ele>
        <time>2011-07-10T10:37:28Z</time>
      </trkpt>
      <trkpt lat="48.67888" lon="7.20384">
        <ele>267.5</ele>
        <time>2011-07-10T10:37:30Z</time>
      </trkpt>
      <trkpt lat="48.67896" lon="7.20369">
        <ele>267.4</ele>
        <time>2011-07-10T10:37:32Z</time>
      </trkpt>
      <trkpt lat="48.67904" lon="7.20353">
        <ele>267</ele>
        <time>2011-07-10T10:37:34Z</time>
      </trkpt>
      <trkpt lat="48.67913" lon="7.2034">
        <ele>266.6</ele>
        <time>2011-07-10T10:37:36Z</time>
      </trkpt>
      <trkpt lat="48.67923" lon="7.20325">
        <ele>268.2</ele>
        <time>2011-07-10T10:37:38Z</time>
      </trkpt>
      <trkpt lat="48.6793" lon="7.20311">
        <ele>268.4</ele>
        <time>2011-07-10T10:37:40Z</time>
      </trkpt>
      <trkpt lat="48.6794" lon="7.20297">
        <ele>268.5</ele>
        <time>2011-07-10T10:37:42Z</time>
      </trkpt>
      <trkpt lat="48.67949" lon="7.20283">
        <ele>269</ele>
        <time>2011-07-10T10:37:44Z</time>
      </trkpt>
      <trkpt lat="48.67958" lon="7.20271">
        <ele>269.5</ele>
        <time>2011-07-10T10:37:46Z</time>
      </trkpt>
      <trkpt lat="48.67965" lon="7.20257">
        <ele>269.9</ele>
        <time>2011-07-10T10:37:48Z</time>
      </trkpt>
      <trkpt lat="48.6797" lon="7.20243">
        <ele>270.4</ele>
        <time>2011-07-10T10:37:50Z</time>
      </trkpt>
      <trkpt lat="48.67978" lon="7.20227">
        <ele>270.8</ele>
        <time>2011-07-10T10:37:52Z</time>
      </trkpt>
      <trkpt lat="48.67984" lon="7.20211">
        <ele>271</ele>
        <time>2011-07-10T10:37:54Z</time>
      </trkpt>
      <trkpt lat="48.67989" lon="7.2019">
        <ele>271.8</ele>
        <time>2011-07-10T10:37:56Z</time>
      </trkpt>
      <trkpt lat="48.67996" lon="7.20173">
        <ele>272.6</ele>
        <time>2011-07-10T10:37:58Z</time>
      </trkpt>
      <trkpt lat="48.68002" lon="7.20156">
        <ele>271.5</ele>
        <time>2011-07-10T10:38:00Z</time>
      </trkpt>
      <trkpt lat="48.68005" lon="7.20139">
        <ele>270.5</ele>
        <time>2011-07-10T10:38:02Z</time>
      </trkpt>
      <trkpt lat="48.68009" lon="7.20126">
        <ele>269.4</ele>
        <time>2011-07-10T10:38:04Z</time>
      </trkpt>
      <trkpt lat="48.6801" lon="7.20109">
        <ele>269.1</ele>
        <time>2011-07-10T10:38:06Z</time>
      </trkpt>
      <trkpt lat="48.68009" lon="7.20091">
        <ele>268.8</ele>
        <time>2011-07-10T10:38:08Z</time>
      </trkpt>
      <trkpt lat="48.68007" lon="7.20076">
        <ele>268.5</ele>
        <time>2011-07-10T10:38:10Z</time>
      </trkpt>
      <trkpt lat="48.68006" lon="7.20059">
        <ele>268.3</ele>
        <time>2011-07-10T10:38:13Z</time>
      </trkpt>
      <trkpt lat="48.68003" lon="7.20042">
        <ele>268</ele>
        <time>2011-07-10T10:38:15Z</time>
      </trkpt>
      <trkpt lat="48.68" lon="7.2003">
        <ele>267.6</ele>
        <time>2011-07-10T10:38:17Z</time>
      </trkpt>
      <trkpt lat="48.67995" lon="7.20015">
        <ele>267.3</ele>
        <time>2011-07-10T10:38:19Z</time>
      </trkpt>
      <trkpt lat="48.6799" lon="7.20005">
        <ele>266.9</ele>
        <time>2011-07-10T10:38:21Z</time>
      </trkpt>
      <trkpt lat="48.67991" lon="7.19992">
        <ele>266.5</ele>
        <time>2011-07-10T10:38:22Z</time>
      </trkpt>
      <trkpt lat="48.67992" lon="7.1998">
        <ele>266.2</ele>
        <time>2011-07-10T10:38:23Z</time>
      </trkpt>
      <trkpt lat="48.67992" lon="7.19963">
        <ele>265</ele>
        <time>2011-07-10T10:38:25Z</time>
      </trkpt>
      <trkpt lat="48.67992" lon="7.19947">
        <ele>263.8</ele>
        <time>2011-07-10T10:38:27Z</time>
      </trkpt>
      <trkpt lat="48.67994" lon="7.1993">
        <ele>262.6</ele>
        <time>2011-07-10T10:38:29Z</time>
      </trkpt>
      <trkpt lat="48.67999" lon="7.1991">
        <ele>261.5</ele>
        <time>2011-07-10T10:38:31Z</time>
      </trkpt>
      <trkpt lat="48.68004" lon="7.19894">
        <ele>261.6</ele>
        <time>2011-07-10T10:38:33Z</time>
      </trkpt>
      <trkpt lat="48.68014" lon="7.19881">
        <ele>261.8</ele>
        <time>2011-07-10T10:38:35Z</time>
      </trkpt>
      <trkpt lat="48.68022" lon="7.19873">
        <ele>262.4</ele>
        <time>2011-07-10T10:38:37Z</time>
      </trkpt>
      <trkpt lat="48.68033" lon="7.1986">
        <ele>262.9</ele>
        <time>2011-07-10T10:38:39Z</time>
      </trkpt>
      <trkpt lat="48.68041" lon="7.19851">
        <ele>263.5</ele>
        <time>2011-07-10T10:38:41Z</time>
      </trkpt>
      <trkpt lat="48.68052" lon="7.19847">
        <ele>264</ele>
        <time>2011-07-10T10:38:43Z</time>
      </trkpt>
      <trkpt lat="48.68065" lon="7.19841">
        <ele>264.5</ele>
        <time>2011-07-10T10:38:45Z</time>
      </trkpt>
      <trkpt lat="48.68074" lon="7.19835">
        <ele>264.5</ele>
        <time>2011-07-10T10:38:47Z</time>
      </trkpt>
      <trkpt lat="48.68087" lon="7.19832">
        <ele>264.4</ele>
        <time>2011-07-10T10:38:49Z</time>
      </trkpt>
      <trkpt lat="48.68099" lon="7.19828">
        <ele>264.3</ele>
        <time>2011-07-10T10:38:51Z</time>
      </trkpt>
      <trkpt lat="48.6811" lon="7.19821">
        <ele>264.2</ele>
        <time>2011-07-10T10:38:53Z</time>
      </trkpt>
      <trkpt lat="48.68121" lon="7.19813">
        <ele>262.7</ele>
        <time>2011-07-10T10:38:55Z</time>
      </trkpt>
      <trkpt lat="48.68131" lon="7.19799">
        <ele>261.3</ele>
        <time>2011-07-10T10:38:57Z</time>
      </trkpt>
      <trkpt lat="48.68136" lon="7.19789">
        <ele>259.8</ele>
        <time>2011-07-10T10:38:58Z</time>
      </trkpt>
      <trkpt lat="48.68146" lon="7.19775">
        <ele>258.4</ele>
        <time>2011-07-10T10:39:00Z</time>
      </trkpt>
      <trkpt lat="48.68152" lon="7.19764">
        <ele>256.9</ele>
        <time>2011-07-10T10:39:02Z</time>
      </trkpt>
      <trkpt lat="48.68158" lon="7.19753">
        <ele>255.5</ele>
        <time>2011-07-10T10:39:04Z</time>
      </trkpt>
      <trkpt lat="48.68167" lon="7.19745">
        <ele>256.2</ele>
        <time>2011-07-10T10:39:06Z</time>
      </trkpt>
      <trkpt lat="48.68177" lon="7.19738">
        <ele>258.4</ele>
        <time>2011-07-10T10:39:08Z</time>
      </trkpt>
      <trkpt lat="48.68185" lon="7.19733">
        <ele>260.5</ele>
        <time>2011-07-10T10:39:10Z</time>
      </trkpt>
      <trkpt lat="48.68194" lon="7.19733">
        <ele>262.7</ele>
        <time>2011-07-10T10:39:17Z</time>
      </trkpt>
      <trkpt lat="48.682" lon="7.19723">
        <ele>262.3</ele>
        <time>2011-07-10T10:39:27Z</time>
      </trkpt>
      <trkpt lat="48.68209" lon="7.19721">
        <ele>261.8</ele>
        <time>2011-07-10T10:39:34Z</time>
      </trkpt>
      <trkpt lat="48.68217" lon="7.19725">
        <ele>261.4</ele>
        <time>2011-07-10T10:39:51Z</time>
      </trkpt>
      <trkpt lat="48.68226" lon="7.19727">
        <ele>260.9</ele>
        <time>2011-07-10T10:39:58Z</time>
      </trkpt>
      <trkpt lat="48.68234" lon="7.19725">
        <ele>260.5</ele>
        <time>2011-07-10T10:40:01Z</time>
      </trkpt>
      <trkpt lat="48.68242" lon="7.19717">
        <ele>260</ele>
        <time>2011-07-10T10:40:05Z</time>
      </trkpt>
      <trkpt lat="48.68251" lon="7.19709">
        <ele>259.5</ele>
        <time>2011-07-10T10:40:11Z</time>
      </trkpt>
      <trkpt lat="48.68258" lon="7.19714">
        <ele>257.7</ele>
        <time>2011-07-10T10:40:31Z</time>
      </trkpt>
      <trkpt lat="48.68266" lon="7.19712">
        <ele>255.9</ele>
        <time>2011-07-10T10:40:34Z</time>
      </trkpt>
      <trkpt lat="48.68274" lon="7.19716">
        <ele>254.1</ele>
        <time>2011-07-10T10:40:42Z</time>
      </trkpt>
      <trkpt lat="48.68286" lon="7.19711">
        <ele>252.3</ele>
        <time>2011-07-10T10:40:47Z</time>
      </trkpt>
      <trkpt lat="48.68293" lon="7.19701">
        <ele>253.1</ele>
        <time>2011-07-10T10:40:50Z</time>
      </trkpt>
      <trkpt lat="48.68305" lon="7.19694">
        <ele>253.9</ele>
        <time>2011-07-10T10:40:53Z</time>
      </trkpt>
      <trkpt lat="48.68315" lon="7.19687">
        <ele>254.7</ele>
        <time>2011-07-10T10:40:55Z</time>
      </trkpt>
      <trkpt lat="48.68325" lon="7.19681">
        <ele>255.5</ele>
        <time>2011-07-10T10:40:57Z</time>
      </trkpt>
      <trkpt lat="48.68335" lon="7.19677">
        <ele>257.1</ele>
        <time>2011-07-10T10:40:59Z</time>
      </trkpt>
      <trkpt lat="48.68347" lon="7.19672">
        <ele>258.6</ele>
        <time>2011-07-10T10:41:01Z</time>
      </trkpt>
      <trkpt lat="48.68356" lon="7.19668">
        <ele>260.2</ele>
        <time>2011-07-10T10:41:03Z</time>
      </trkpt>
      <trkpt lat="48.68365" lon="7.19666">
        <ele>260.9</ele>
        <time>2011-07-10T10:41:06Z</time>
      </trkpt>
      <trkpt lat="48.68377" lon="7.19666">
        <ele>261.6</ele>
        <time>2011-07-10T10:41:09Z</time>
      </trkpt>
      <trkpt lat="48.68385" lon="7.19668">
        <ele>262.4</ele>
        <time>2011-07-10T10:41:12Z</time>
      </trkpt>
      <trkpt lat="48.68394" lon="7.19667">
        <ele>263.1</ele>
        <time>2011-07-10T10:41:16Z</time>
      </trkpt>
      <trkpt lat="48.68404" lon="7.19665">
        <ele>263.8</ele>
        <time>2011-07-10T10:41:20Z</time>
      </trkpt>
      <trkpt lat="48.68414" lon="7.19668">
        <ele>264.5</ele>
        <time>2011-07-10T10:41:23Z</time>
      </trkpt>
      <trkpt lat="48.68423" lon="7.19669">
        <ele>265.5</ele>
        <time>2011-07-10T10:41:27Z</time>
      </trkpt>
      <trkpt lat="48.68432" lon="7.19674">
        <ele>266.4</ele>
        <time>2011-07-10T10:41:32Z</time>
      </trkpt>
      <trkpt lat="48.68441" lon="7.19678">
        <ele>266.5</ele>
        <time>2011-07-10T10:41:36Z</time>
      </trkpt>
      <trkpt lat="48.6845" lon="7.1968">
        <ele>266.7</ele>
        <time>2011-07-10T10:41:41Z</time>
      </trkpt>
      <trkpt lat="48.68459" lon="7.19677">
        <ele>266.9</ele>
        <time>2011-07-10T10:41:50Z</time>
      </trkpt>
      <trkpt lat="48.68467" lon="7.19682">
        <ele>267.1</ele>
        <time>2011-07-10T10:41:55Z</time>
      </trkpt>
      <trkpt lat="48.68477" lon="7.19686">
        <ele>267.3</ele>
        <time>2011-07-10T10:42:01Z</time>
      </trkpt>
      <trkpt lat="48.68485" lon="7.19689">
        <ele>267.5</ele>
        <time>2011-07-10T10:42:04Z</time>
      </trkpt>
      <trkpt lat="48.68494" lon="7.19695">
        <ele>267.6</ele>
        <time>2011-07-10T10:42:09Z</time>
      </trkpt>
      <trkpt lat="48.68504" lon="7.19698">
        <ele>267</ele>
        <time>2011-07-10T10:42:12Z</time>
      </trkpt>
      <trkpt lat="48.68514" lon="7.19695">
        <ele>266.4</ele>
        <time>2011-07-10T10:42:15Z</time>
      </trkpt>
      <trkpt lat="48.68524" lon="7.19694">
        <ele>265.5</ele>
        <time>2011-07-10T10:42:18Z</time>
      </trkpt>
      <trkpt lat="48.68533" lon="7.19699">
        <ele>264.7</ele>
        <time>2011-07-10T10:42:22Z</time>
      </trkpt>
      <trkpt lat="48.68545" lon="7.19704">
        <ele>263.9</ele>
        <time>2011-07-10T10:42:25Z</time>
      </trkpt>
      <trkpt lat="48.6856" lon="7.19714">
        <ele>265.5</ele>
        <time>2011-07-10T10:42:30Z</time>
      </trkpt>
      <trkpt lat="48.6857" lon="7.19719">
        <ele>267.2</ele>
        <time>2011-07-10T10:42:33Z</time>
      </trkpt>
      <trkpt lat="48.68579" lon="7.19717">
        <ele>268.8</ele>
        <time>2011-07-10T10:42:35Z</time>
      </trkpt>
      <trkpt lat="48.68588" lon="7.19719">
        <ele>268.6</ele>
        <time>2011-07-10T10:42:37Z</time>
      </trkpt>
      <trkpt lat="48.68597" lon="7.1972">
        <ele>268.5</ele>
        <time>2011-07-10T10:42:39Z</time>
      </trkpt>
      <trkpt lat="48.68607" lon="7.1972">
        <ele>268.3</ele>
        <time>2011-07-10T10:42:41Z</time>
      </trkpt>
      <trkpt lat="48.68615" lon="7.19724">
        <ele>268.9</ele>
        <time>2011-07-10T10:42:44Z</time>
      </trkpt>
      <trkpt lat="48.68623" lon="7.1972">
        <ele>269.5</ele>
        <time>2011-07-10T10:42:48Z</time>
      </trkpt>
      <trkpt lat="48.68632" lon="7.19723">
        <ele>270.2</ele>
        <time>2011-07-10T10:42:57Z</time>
      </trkpt>
      <trkpt lat="48.6864" lon="7.19729">
        <ele>270.8</ele>
        <time>2011-07-10T10:43:00Z</time>
      </trkpt>
      <trkpt lat="48.6865" lon="7.19733">
        <ele>271.5</ele>
        <time>2011-07-10T10:43:02Z</time>
      </trkpt>
      <trkpt lat="48.6866" lon="7.1974">
        <ele>267.8</ele>
        <time>2011-07-10T10:43:04Z</time>
      </trkpt>
      <trkpt lat="48.6867" lon="7.19743">
        <ele>264.2</ele>
        <time>2011-07-10T10:43:06Z</time>
      </trkpt>
      <trkpt lat="48.68681" lon="7.19747">
        <ele>260.5</ele>
        <time>2011-07-10T10:43:08Z</time>
      </trkpt>
      <trkpt lat="48.68691" lon="7.19754">
        <ele>258.7</ele>
        <time>2011-07-10T10:43:10Z</time>
      </trkpt>
      <trkpt lat="48.68701" lon="7.19763">
        <ele>256.9</ele>
        <time>2011-07-10T10:43:13Z</time>
      </trkpt>
      <trkpt lat="48.68711" lon="7.19774">
        <ele>257.5</ele>
        <time>2011-07-10T10:43:15Z</time>
      </trkpt>
      <trkpt lat="48.6872" lon="7.19777">
        <ele>258</ele>
        <time>2011-07-10T10:43:17Z</time>
      </trkpt>
      <trkpt lat="48.68729" lon="7.19782">
        <ele>258.5</ele>
        <time>2011-07-10T10:43:19Z</time>
      </trkpt>
      <trkpt lat="48.68738" lon="7.19792">
        <ele>259.1</ele>
        <time>2011-07-10T10:43:22Z</time>
      </trkpt>
      <trkpt lat="48.68744" lon="7.19801">
        <ele>259.6</ele>
        <time>2011-07-10T10:43:25Z</time>
      </trkpt>
      <trkpt lat="48.68753" lon="7.1981">
        <ele>260.2</ele>
        <time>2011-07-10T10:43:28Z</time>
      </trkpt>
      <trkpt lat="48.68762" lon="7.1981">
        <ele>260.2</ele>
        <time>2011-07-10T10:43:31Z</time>
      </trkpt>
      <trkpt lat="48.6877" lon="7.19817">
        <ele>260.2</ele>
        <time>2011-07-10T10:43:33Z</time>
      </trkpt>
      <trkpt lat="48.6878" lon="7.19821">
        <ele>260.2</ele>
        <time>2011-07-10T10:43:35Z</time>
      </trkpt>
      <trkpt lat="48.68789" lon="7.19832">
        <ele>260.2</ele>
        <time>2011-07-10T10:43:38Z</time>
      </trkpt>
      <trkpt lat="48.68797" lon="7.19842">
        <ele>260.2</ele>
        <time>2011-07-10T10:43:40Z</time>
      </trkpt>
      <trkpt lat="48.68807" lon="7.19852">
        <ele>259.6</ele>
        <time>2011-07-10T10:43:42Z</time>
      </trkpt>
      <trkpt lat="48.68816" lon="7.19863">
        <ele>259.1</ele>
        <time>2011-07-10T10:43:44Z</time>
      </trkpt>
      <trkpt lat="48.68822" lon="7.1987">
        <ele>258.5</ele>
        <time>2011-07-10T10:43:46Z</time>
      </trkpt>
      <trkpt lat="48.68831" lon="7.19874">
        <ele>258</ele>
        <time>2011-07-10T10:43:50Z</time>
      </trkpt>
      <trkpt lat="48.6884" lon="7.19879">
        <ele>257.5</ele>
        <time>2011-07-10T10:43:54Z</time>
      </trkpt>
      <trkpt lat="48.68846" lon="7.19892">
        <ele>255.2</ele>
        <time>2011-07-10T10:43:59Z</time>
      </trkpt>
      <trkpt lat="48.68853" lon="7.199">
        <ele>255.3</ele>
        <time>2011-07-10T10:44:02Z</time>
      </trkpt>
      <trkpt lat="48.68861" lon="7.19908">
        <ele>255.4</ele>
        <time>2011-07-10T10:44:05Z</time>
      </trkpt>
      <trkpt lat="48.6887" lon="7.19918">
        <ele>257.2</ele>
        <time>2011-07-10T10:44:08Z</time>
      </trkpt>
      <trkpt lat="48.68877" lon="7.19927">
        <ele>259</ele>
        <time>2011-07-10T10:44:11Z</time>
      </trkpt>
      <trkpt lat="48.68886" lon="7.19938">
        <ele>260.8</ele>
        <time>2011-07-10T10:44:14Z</time>
      </trkpt>
      <trkpt lat="48.68892" lon="7.19948">
        <ele>260.8</ele>
        <time>2011-07-10T10:44:17Z</time>
      </trkpt>
      <trkpt lat="48.68895" lon="7.19964">
        <ele>260.8</ele>
        <time>2011-07-10T10:44:21Z</time>
      </trkpt>
      <trkpt lat="48.68899" lon="7.19976">
        <ele>260.8</ele>
        <time>2011-07-10T10:44:26Z</time>
      </trkpt>
      <trkpt lat="48.68907" lon="7.19983">
        <ele>260.8</ele>
        <time>2011-07-10T10:44:34Z</time>
      </trkpt>
      <trkpt lat="48.68918" lon="7.19982">
        <ele>260.8</ele>
        <time>2011-07-10T10:44:38Z</time>
      </trkpt>
      <trkpt lat="48.68927" lon="7.19988">
        <ele>261.2</ele>
        <time>2011-07-10T10:44:43Z</time>
      </trkpt>
      <trkpt lat="48.68935" lon="7.19993">
        <ele>261.5</ele>
        <time>2011-07-10T10:46:31Z</time>
      </trkpt>
      <trkpt lat="48.68942" lon="7.20003">
        <ele>263.6</ele>
        <time>2011-07-10T10:46:35Z</time>
      </trkpt>
      <trkpt lat="48.68948" lon="7.20015">
        <ele>264</ele>
        <time>2011-07-10T10:46:38Z</time>
      </trkpt>
      <trkpt lat="48.68956" lon="7.20023">
        <ele>264.4</ele>
        <time>2011-07-10T10:46:41Z</time>
      </trkpt>
      <trkpt lat="48.68963" lon="7.20034">
        <ele>264.7</ele>
        <time>2011-07-10T10:46:46Z</time>
      </trkpt>
      <trkpt lat="48.68968" lon="7.20045">
        <ele>265.1</ele>
        <time>2011-07-10T10:46:49Z</time>
      </trkpt>
      <trkpt lat="48.68975" lon="7.20057">
        <ele>265.5</ele>
        <time>2011-07-10T10:46:52Z</time>
      </trkpt>
      <trkpt lat="48.68983" lon="7.20062">
        <ele>265.8</ele>
        <time>2011-07-10T10:46:54Z</time>
      </trkpt>
      <trkpt lat="48.68992" lon="7.20064">
        <ele>266.2</ele>
        <time>2011-07-10T10:46:56Z</time>
      </trkpt>
      <trkpt lat="48.69002" lon="7.20069">
        <ele>266.5</ele>
        <time>2011-07-10T10:46:58Z</time>
      </trkpt>
      <trkpt lat="48.69013" lon="7.20077">
        <ele>266.5</ele>
        <time>2011-07-10T10:47:00Z</time>
      </trkpt>
      <trkpt lat="48.69023" lon="7.20085">
        <ele>266.4</ele>
        <time>2011-07-10T10:47:03Z</time>
      </trkpt>
      <trkpt lat="48.6903" lon="7.20092">
        <ele>266.7</ele>
        <time>2011-07-10T10:47:05Z</time>
      </trkpt>
      <trkpt lat="48.69036" lon="7.20101">
        <ele>267.1</ele>
        <time>2011-07-10T10:47:07Z</time>
      </trkpt>
      <trkpt lat="48.69043" lon="7.2011">
        <ele>267.5</ele>
        <time>2011-07-10T10:47:09Z</time>
      </trkpt>
      <trkpt lat="48.69049" lon="7.20118">
        <ele>267.8</ele>
        <time>2011-07-10T10:47:11Z</time>
      </trkpt>
      <trkpt lat="48.69059" lon="7.20127">
        <ele>268.2</ele>
        <time>2011-07-10T10:47:14Z</time>
      </trkpt>
      <trkpt lat="48.69069" lon="7.20137">
        <ele>268.5</ele>
        <time>2011-07-10T10:47:17Z</time>
      </trkpt>
      <trkpt lat="48.69076" lon="7.20145">
        <ele>268.9</ele>
        <time>2011-07-10T10:47:19Z</time>
      </trkpt>
      <trkpt lat="48.69084" lon="7.20155">
        <ele>269.3</ele>
        <time>2011-07-10T10:47:22Z</time>
      </trkpt>
      <trkpt lat="48.6909" lon="7.20166">
        <ele>267.9</ele>
        <time>2011-07-10T10:47:24Z</time>
      </trkpt>
      <trkpt lat="48.69099" lon="7.20178">
        <ele>270.2</ele>
        <time>2011-07-10T10:47:27Z</time>
      </trkpt>
      <trkpt lat="48.69106" lon="7.20186">
        <ele>272.5</ele>
        <time>2011-07-10T10:47:29Z</time>
      </trkpt>
      <trkpt lat="48.69114" lon="7.20194">
        <ele>272.5</ele>
        <time>2011-07-10T10:47:31Z</time>
      </trkpt>
      <trkpt lat="48.69122" lon="7.20202">
        <ele>272.6</ele>
        <time>2011-07-10T10:47:33Z</time>
      </trkpt>
      <trkpt lat="48.69133" lon="7.20211">
        <ele>272.7</ele>
        <time>2011-07-10T10:47:36Z</time>
      </trkpt>
      <trkpt lat="48.69142" lon="7.2022">
        <ele>272.8</ele>
        <time>2011-07-10T10:47:39Z</time>
      </trkpt>
      <trkpt lat="48.69151" lon="7.20229">
        <ele>272.9</ele>
        <time>2011-07-10T10:47:41Z</time>
      </trkpt>
      <trkpt lat="48.69159" lon="7.20232">
        <ele>273</ele>
        <time>2011-07-10T10:47:43Z</time>
      </trkpt>
      <trkpt lat="48.69166" lon="7.20239">
        <ele>273.1</ele>
        <time>2011-07-10T10:47:45Z</time>
      </trkpt>
      <trkpt lat="48.69173" lon="7.2025">
        <ele>271.5</ele>
        <time>2011-07-10T10:47:47Z</time>
      </trkpt>
      <trkpt lat="48.69184" lon="7.20261">
        <ele>271.7</ele>
        <time>2011-07-10T10:47:50Z</time>
      </trkpt>
      <trkpt lat="48.69191" lon="7.20267">
        <ele>272.5</ele>
        <time>2011-07-10T10:47:52Z</time>
      </trkpt>
      <trkpt lat="48.69201" lon="7.20273">
        <ele>273.2</ele>
        <time>2011-07-10T10:47:55Z</time>
      </trkpt>
      <trkpt lat="48.69209" lon="7.20279">
        <ele>273.9</ele>
        <time>2011-07-10T10:47:57Z</time>
      </trkpt>
      <trkpt lat="48.69217" lon="7.20285">
        <ele>274.6</ele>
        <time>2011-07-10T10:47:59Z</time>
      </trkpt>
      <trkpt lat="48.69226" lon="7.20293">
        <ele>275.4</ele>
        <time>2011-07-10T10:48:01Z</time>
      </trkpt>
      <trkpt lat="48.69237" lon="7.20301">
        <ele>276.1</ele>
        <time>2011-07-10T10:48:04Z</time>
      </trkpt>
      <trkpt lat="48.69245" lon="7.20306">
        <ele>276.8</ele>
        <time>2011-07-10T10:48:06Z</time>
      </trkpt>
      <trkpt lat="48.69254" lon="7.2031">
        <ele>276</ele>
        <time>2011-07-10T10:48:08Z</time>
      </trkpt>
      <trkpt lat="48.69264" lon="7.20316">
        <ele>275.2</ele>
        <time>2011-07-10T10:48:10Z</time>
      </trkpt>
      <trkpt lat="48.69276" lon="7.20323">
        <ele>276</ele>
        <time>2011-07-10T10:48:13Z</time>
      </trkpt>
      <trkpt lat="48.69283" lon="7.20328">
        <ele>276.8</ele>
        <time>2011-07-10T10:48:15Z</time>
      </trkpt>
      <trkpt lat="48.69291" lon="7.20334">
        <ele>275.3</ele>
        <time>2011-07-10T10:48:17Z</time>
      </trkpt>
      <trkpt lat="48.69299" lon="7.20335">
        <ele>273.7</ele>
        <time>2011-07-10T10:48:19Z</time>
      </trkpt>
      <trkpt lat="48.69307" lon="7.20338">
        <ele>272.2</ele>
        <time>2011-07-10T10:48:21Z</time>
      </trkpt>
      <trkpt lat="48.69319" lon="7.20345">
        <ele>273.5</ele>
        <time>2011-07-10T10:48:24Z</time>
      </trkpt>
      <trkpt lat="48.69328" lon="7.20352">
        <ele>274.7</ele>
        <time>2011-07-10T10:48:26Z</time>
      </trkpt>
      <trkpt lat="48.6934" lon="7.2036">
        <ele>273</ele>
        <time>2011-07-10T10:48:28Z</time>
      </trkpt>
      <trkpt lat="48.69348" lon="7.20364">
        <ele>271.3</ele>
        <time>2011-07-10T10:48:30Z</time>
      </trkpt>
      <trkpt lat="48.69357" lon="7.20372">
        <ele>271.1</ele>
        <time>2011-07-10T10:48:32Z</time>
      </trkpt>
      <trkpt lat="48.6937" lon="7.2038">
        <ele>270.9</ele>
        <time>2011-07-10T10:48:34Z</time>
      </trkpt>
      <trkpt lat="48.69377" lon="7.20388">
        <ele>270.7</ele>
        <time>2011-07-10T10:48:36Z</time>
      </trkpt>
      <trkpt lat="48.69383" lon="7.20404">
        <ele>270.5</ele>
        <time>2011-07-10T10:48:38Z</time>
      </trkpt>
      <trkpt lat="48.69391" lon="7.20412">
        <ele>270.4</ele>
        <time>2011-07-10T10:48:40Z</time>
      </trkpt>
      <trkpt lat="48.69399" lon="7.20419">
        <ele>270.2</ele>
        <time>2011-07-10T10:48:42Z</time>
      </trkpt>
      <trkpt lat="48.69407" lon="7.20427">
        <ele>271.9</ele>
        <time>2011-07-10T10:48:44Z</time>
      </trkpt>
      <trkpt lat="48.69415" lon="7.20431">
        <ele>270.8</ele>
        <time>2011-07-10T10:48:46Z</time>
      </trkpt>
      <trkpt lat="48.69424" lon="7.2044">
        <ele>269.7</ele>
        <time>2011-07-10T10:48:48Z</time>
      </trkpt>
      <trkpt lat="48.69429" lon="7.2045">
        <ele>271.6</ele>
        <time>2011-07-10T10:48:51Z</time>
      </trkpt>
      <trkpt lat="48.69437" lon="7.20459">
        <ele>273.5</ele>
        <time>2011-07-10T10:48:53Z</time>
      </trkpt>
      <trkpt lat="48.69445" lon="7.20469">
        <ele>272.1</ele>
        <time>2011-07-10T10:48:55Z</time>
      </trkpt>
      <trkpt lat="48.69452" lon="7.2048">
        <ele>272</ele>
        <time>2011-07-10T10:48:58Z</time>
      </trkpt>
      <trkpt lat="48.69453" lon="7.20492">
        <ele>271.9</ele>
        <time>2011-07-10T10:49:01Z</time>
      </trkpt>
      <trkpt lat="48.69456" lon="7.20511">
        <ele>271.8</ele>
        <time>2011-07-10T10:49:04Z</time>
      </trkpt>
      <trkpt lat="48.6946" lon="7.20522">
        <ele>271.7</ele>
        <time>2011-07-10T10:49:06Z</time>
      </trkpt>
      <trkpt lat="48.69467" lon="7.20533">
        <ele>271.6</ele>
        <time>2011-07-10T10:49:09Z</time>
      </trkpt>
      <trkpt lat="48.6947" lon="7.20544">
        <ele>269.6</ele>
        <time>2011-07-10T10:49:18Z</time>
      </trkpt>
      <trkpt lat="48.69479" lon="7.20545">
        <ele>267.6</ele>
        <time>2011-07-10T10:49:32Z</time>
      </trkpt>
      <trkpt lat="48.69488" lon="7.20544">
        <ele>265.6</ele>
        <time>2011-07-10T10:49:36Z</time>
      </trkpt>
      <trkpt lat="48.69498" lon="7.20544">
        <ele>262.5</ele>
        <time>2011-07-10T10:49:39Z</time>
      </trkpt>
      <trkpt lat="48.69509" lon="7.20543">
        <ele>259.5</ele>
        <time>2011-07-10T10:49:43Z</time>
      </trkpt>
      <trkpt lat="48.69518" lon="7.20546">
        <ele>259.7</ele>
        <time>2011-07-10T10:49:47Z</time>
      </trkpt>
      <trkpt lat="48.69528" lon="7.20552">
        <ele>258.6</ele>
        <time>2011-07-10T10:49:50Z</time>
      </trkpt>
      <trkpt lat="48.69538" lon="7.20561">
        <ele>257.5</ele>
        <time>2011-07-10T10:49:53Z</time>
      </trkpt>
      <trkpt lat="48.69545" lon="7.20567">
        <ele>256.5</ele>
        <time>2011-07-10T10:49:56Z</time>
      </trkpt>
      <trkpt lat="48.69554" lon="7.20573">
        <ele>255.4</ele>
        <time>2011-07-10T10:49:58Z</time>
      </trkpt>
      <trkpt lat="48.69561" lon="7.20583">
        <ele>254.3</ele>
        <time>2011-07-10T10:50:01Z</time>
      </trkpt>
      <trkpt lat="48.69569" lon="7.20593">
        <ele>253.2</ele>
        <time>2011-07-10T10:50:03Z</time>
      </trkpt>
      <trkpt lat="48.69577" lon="7.206">
        <ele>252.1</ele>
        <time>2011-07-10T10:50:05Z</time>
      </trkpt>
      <trkpt lat="48.69586" lon="7.20606">
        <ele>251</ele>
        <time>2011-07-10T10:50:08Z</time>
      </trkpt>
      <trkpt lat="48.69594" lon="7.20614">
        <ele>251</ele>
        <time>2011-07-10T10:50:11Z</time>
      </trkpt>
      <trkpt lat="48.69602" lon="7.20623">
        <ele>251</ele>
        <time>2011-07-10T10:50:14Z</time>
      </trkpt>
      <trkpt lat="48.69611" lon="7.2063">
        <ele>251</ele>
        <time>2011-07-10T10:50:17Z</time>
      </trkpt>
      <trkpt lat="48.6962" lon="7.20638">
        <ele>251</ele>
        <time>2011-07-10T10:50:20Z</time>
      </trkpt>
      <trkpt lat="48.69627" lon="7.20648">
        <ele>251</ele>
        <time>2011-07-10T10:50:22Z</time>
      </trkpt>
      <trkpt lat="48.69634" lon="7.20655">
        <ele>251</ele>
        <time>2011-07-10T10:50:24Z</time>
      </trkpt>
      <trkpt lat="48.69641" lon="7.20661">
        <ele>251</ele>
        <time>2011-07-10T10:50:26Z</time>
      </trkpt>
      <trkpt lat="48.69651" lon="7.2067">
        <ele>251</ele>
        <time>2011-07-10T10:50:29Z</time>
      </trkpt>
      <trkpt lat="48.69663" lon="7.20677">
        <ele>251</ele>
        <time>2011-07-10T10:50:32Z</time>
      </trkpt>
      <trkpt lat="48.69671" lon="7.20683">
        <ele>251.3</ele>
        <time>2011-07-10T10:50:34Z</time>
      </trkpt>
      <trkpt lat="48.69678" lon="7.2069">
        <ele>251.5</ele>
        <time>2011-07-10T10:50:36Z</time>
      </trkpt>
      <trkpt lat="48.69686" lon="7.20698">
        <ele>251.8</ele>
        <time>2011-07-10T10:50:38Z</time>
      </trkpt>
      <trkpt lat="48.69694" lon="7.20707">
        <ele>252.1</ele>
        <time>2011-07-10T10:50:40Z</time>
      </trkpt>
      <trkpt lat="48.69705" lon="7.20713">
        <ele>252.4</ele>
        <time>2011-07-10T10:50:42Z</time>
      </trkpt>
      <trkpt lat="48.69715" lon="7.20725">
        <ele>252.6</ele>
        <time>2011-07-10T10:50:44Z</time>
      </trkpt>
      <trkpt lat="48.69722" lon="7.20733">
        <ele>252.9</ele>
        <time>2011-07-10T10:50:46Z</time>
      </trkpt>
      <trkpt lat="48.69731" lon="7.20743">
        <ele>253.2</ele>
        <time>2011-07-10T10:50:49Z</time>
      </trkpt>
      <trkpt lat="48.6974" lon="7.20749">
        <ele>255.8</ele>
        <time>2011-07-10T10:50:51Z</time>
      </trkpt>
      <trkpt lat="48.69749" lon="7.2076">
        <ele>258.5</ele>
        <time>2011-07-10T10:50:53Z</time>
      </trkpt>
      <trkpt lat="48.69757" lon="7.20769">
        <ele>258</ele>
        <time>2011-07-10T10:50:55Z</time>
      </trkpt>
      <trkpt lat="48.69766" lon="7.20784">
        <ele>257.3</ele>
        <time>2011-07-10T10:50:57Z</time>
      </trkpt>
      <trkpt lat="48.69775" lon="7.20795">
        <ele>256.5</ele>
        <time>2011-07-10T10:50:59Z</time>
      </trkpt>
      <trkpt lat="48.69782" lon="7.20802">
        <ele>255.8</ele>
        <time>2011-07-10T10:51:01Z</time>
      </trkpt>
      <trkpt lat="48.69792" lon="7.20815">
        <ele>255.1</ele>
        <time>2011-07-10T10:51:03Z</time>
      </trkpt>
      <trkpt lat="48.698" lon="7.20825">
        <ele>254.4</ele>
        <time>2011-07-10T10:51:05Z</time>
      </trkpt>
      <trkpt lat="48.69808" lon="7.20836">
        <ele>253.6</ele>
        <time>2011-07-10T10:51:07Z</time>
      </trkpt>
      <trkpt lat="48.69817" lon="7.20846">
        <ele>255.3</ele>
        <time>2011-07-10T10:51:09Z</time>
      </trkpt>
      <trkpt lat="48.69824" lon="7.20857">
        <ele>256.9</ele>
        <time>2011-07-10T10:51:11Z</time>
      </trkpt>
      <trkpt lat="48.6983" lon="7.20865">
        <ele>256.2</ele>
        <time>2011-07-10T10:51:13Z</time>
      </trkpt>
      <trkpt lat="48.69839" lon="7.20869">
        <ele>252.9</ele>
        <time>2011-07-10T10:51:15Z</time>
      </trkpt>
      <trkpt lat="48.69846" lon="7.20881">
        <ele>252.7</ele>
        <time>2011-07-10T10:51:18Z</time>
      </trkpt>
      <trkpt lat="48.69855" lon="7.20893">
        <ele>252.5</ele>
        <time>2011-07-10T10:51:20Z</time>
      </trkpt>
      <trkpt lat="48.69863" lon="7.20904">
        <ele>252.4</ele>
        <time>2011-07-10T10:51:22Z</time>
      </trkpt>
      <trkpt lat="48.69874" lon="7.20914">
        <ele>254.1</ele>
        <time>2011-07-10T10:51:24Z</time>
      </trkpt>
      <trkpt lat="48.69884" lon="7.20924">
        <ele>255.8</ele>
        <time>2011-07-10T10:51:26Z</time>
      </trkpt>
      <trkpt lat="48.69891" lon="7.20932">
        <ele>257.5</ele>
        <time>2011-07-10T10:51:28Z</time>
      </trkpt>
      <trkpt lat="48.69899" lon="7.20946">
        <ele>259.3</ele>
        <time>2011-07-10T10:51:31Z</time>
      </trkpt>
      <trkpt lat="48.69906" lon="7.20956">
        <ele>258.6</ele>
        <time>2011-07-10T10:51:33Z</time>
      </trkpt>
      <trkpt lat="48.69915" lon="7.20969">
        <ele>259.9</ele>
        <time>2011-07-10T10:51:35Z</time>
      </trkpt>
      <trkpt lat="48.69924" lon="7.20985">
        <ele>258.1</ele>
        <time>2011-07-10T10:51:37Z</time>
      </trkpt>
      <trkpt lat="48.69933" lon="7.21004">
        <ele>258.8</ele>
        <time>2011-07-10T10:51:39Z</time>
      </trkpt>
      <trkpt lat="48.69942" lon="7.2102">
        <ele>259.5</ele>
        <time>2011-07-10T10:51:41Z</time>
      </trkpt>
      <trkpt lat="48.69953" lon="7.21035">
        <ele>260.3</ele>
        <time>2011-07-10T10:51:43Z</time>
      </trkpt>
      <trkpt lat="48.69962" lon="7.2105">
        <ele>261</ele>
        <time>2011-07-10T10:51:45Z</time>
      </trkpt>
      <trkpt lat="48.69969" lon="7.21059">
        <ele>259.8</ele>
        <time>2011-07-10T10:51:46Z</time>
      </trkpt>
      <trkpt lat="48.69977" lon="7.2107">
        <ele>258.6</ele>
        <time>2011-07-10T10:51:48Z</time>
      </trkpt>
      <trkpt lat="48.69987" lon="7.21083">
        <ele>259.8</ele>
        <time>2011-07-10T10:51:50Z</time>
      </trkpt>
      <trkpt lat="48.69997" lon="7.21095">
        <ele>258.2</ele>
        <time>2011-07-10T10:51:52Z</time>
      </trkpt>
      <trkpt lat="48.70004" lon="7.21103">
        <ele>256.5</ele>
        <time>2011-07-10T10:51:53Z</time>
      </trkpt>
      <trkpt lat="48.70016" lon="7.21115">
        <ele>253</ele>
        <time>2011-07-10T10:51:55Z</time>
      </trkpt>
      <trkpt lat="48.70027" lon="7.21126">
        <ele>252.5</ele>
        <time>2011-07-10T10:51:57Z</time>
      </trkpt>
      <trkpt lat="48.70038" lon="7.21135">
        <ele>252.1</ele>
        <time>2011-07-10T10:51:59Z</time>
      </trkpt>
      <trkpt lat="48.70048" lon="7.21145">
        <ele>251.6</ele>
        <time>2011-07-10T10:52:01Z</time>
      </trkpt>
      <trkpt lat="48.70057" lon="7.21152">
        <ele>251.2</ele>
        <time>2011-07-10T10:52:03Z</time>
      </trkpt>
      <trkpt lat="48.70065" lon="7.21157">
        <ele>250.7</ele>
        <time>2011-07-10T10:52:04Z</time>
      </trkpt>
      <trkpt lat="48.70079" lon="7.21168">
        <ele>250.3</ele>
        <time>2011-07-10T10:52:06Z</time>
      </trkpt>
      <trkpt lat="48.70087" lon="7.21173">
        <ele>250.2</ele>
        <time>2011-07-10T10:52:07Z</time>
      </trkpt>
      <trkpt lat="48.70101" lon="7.21182">
        <ele>247.7</ele>
        <time>2011-07-10T10:52:09Z</time>
      </trkpt>
      <trkpt lat="48.70111" lon="7.21191">
        <ele>248.1</ele>
        <time>2011-07-10T10:52:11Z</time>
      </trkpt>
      <trkpt lat="48.70119" lon="7.21198">
        <ele>248.5</ele>
        <time>2011-07-10T10:52:12Z</time>
      </trkpt>
      <trkpt lat="48.70127" lon="7.21204">
        <ele>248.8</ele>
        <time>2011-07-10T10:52:13Z</time>
      </trkpt>
      <trkpt lat="48.7014" lon="7.21215">
        <ele>249.2</ele>
        <time>2011-07-10T10:52:15Z</time>
      </trkpt>
      <trkpt lat="48.7015" lon="7.21228">
        <ele>249.5</ele>
        <time>2011-07-10T10:52:17Z</time>
      </trkpt>
      <trkpt lat="48.70161" lon="7.21237">
        <ele>251.7</ele>
        <time>2011-07-10T10:52:19Z</time>
      </trkpt>
      <trkpt lat="48.7017" lon="7.21248">
        <ele>251.4</ele>
        <time>2011-07-10T10:52:21Z</time>
      </trkpt>
      <trkpt lat="48.7018" lon="7.21259">
        <ele>251</ele>
        <time>2011-07-10T10:52:23Z</time>
      </trkpt>
      <trkpt lat="48.70188" lon="7.21272">
        <ele>250.6</ele>
        <time>2011-07-10T10:52:25Z</time>
      </trkpt>
      <trkpt lat="48.70197" lon="7.21286">
        <ele>249.9</ele>
        <time>2011-07-10T10:52:27Z</time>
      </trkpt>
      <trkpt lat="48.70204" lon="7.21303">
        <ele>249.2</ele>
        <time>2011-07-10T10:52:29Z</time>
      </trkpt>
      <trkpt lat="48.70211" lon="7.21317">
        <ele>250.1</ele>
        <time>2011-07-10T10:52:31Z</time>
      </trkpt>
      <trkpt lat="48.70222" lon="7.21329">
        <ele>251</ele>
        <time>2011-07-10T10:52:33Z</time>
      </trkpt>
      <trkpt lat="48.70231" lon="7.21342">
        <ele>251.9</ele>
        <time>2011-07-10T10:52:35Z</time>
      </trkpt>
      <trkpt lat="48.70236" lon="7.21352">
        <ele>252.8</ele>
        <time>2011-07-10T10:52:36Z</time>
      </trkpt>
      <trkpt lat="48.70245" lon="7.21365">
        <ele>253.7</ele>
        <time>2011-07-10T10:52:38Z</time>
      </trkpt>
      <trkpt lat="48.70253" lon="7.21378">
        <ele>252.8</ele>
        <time>2011-07-10T10:52:40Z</time>
      </trkpt>
      <trkpt lat="48.70259" lon="7.21388">
        <ele>251.9</ele>
        <time>2011-07-10T10:52:42Z</time>
      </trkpt>
      <trkpt lat="48.70269" lon="7.21398">
        <ele>251</ele>
        <time>2011-07-10T10:52:44Z</time>
      </trkpt>
      <trkpt lat="48.70276" lon="7.21413">
        <ele>250.1</ele>
        <time>2011-07-10T10:52:46Z</time>
      </trkpt>
      <trkpt lat="48.70285" lon="7.21424">
        <ele>249.2</ele>
        <time>2011-07-10T10:52:48Z</time>
      </trkpt>
      <trkpt lat="48.70292" lon="7.21431">
        <ele>248.5</ele>
        <time>2011-07-10T10:52:50Z</time>
      </trkpt>
      <trkpt lat="48.70299" lon="7.2144">
        <ele>246.1</ele>
        <time>2011-07-10T10:52:52Z</time>
      </trkpt>
      <trkpt lat="48.70307" lon="7.21447">
        <ele>243.7</ele>
        <time>2011-07-10T10:52:54Z</time>
      </trkpt>
      <trkpt lat="48.70317" lon="7.21452">
        <ele>241.4</ele>
        <time>2011-07-10T10:52:56Z</time>
      </trkpt>
      <trkpt lat="48.70328" lon="7.21454">
        <ele>239</ele>
        <time>2011-07-10T10:52:59Z</time>
      </trkpt>
      <trkpt lat="48.70337" lon="7.2146">
        <ele>236.5</ele>
        <time>2011-07-10T10:53:02Z</time>
      </trkpt>
      <trkpt lat="48.70345" lon="7.21464">
        <ele>233.9</ele>
        <time>2011-07-10T10:53:04Z</time>
      </trkpt>
      <trkpt lat="48.70355" lon="7.21468">
        <ele>233.9</ele>
        <time>2011-07-10T10:53:06Z</time>
      </trkpt>
      <trkpt lat="48.70365" lon="7.2147">
        <ele>233.9</ele>
        <time>2011-07-10T10:53:08Z</time>
      </trkpt>
      <trkpt lat="48.70377" lon="7.21472">
        <ele>233.9</ele>
        <time>2011-07-10T10:53:10Z</time>
      </trkpt>
      <trkpt lat="48.70389" lon="7.21477">
        <ele>233.9</ele>
        <time>2011-07-10T10:53:12Z</time>
      </trkpt>
      <trkpt lat="48.70402" lon="7.21482">
        <ele>233.7</ele>
        <time>2011-07-10T10:53:14Z</time>
      </trkpt>
      <trkpt lat="48.70416" lon="7.21487">
        <ele>233.5</ele>
        <time>2011-07-10T10:53:16Z</time>
      </trkpt>
      <trkpt lat="48.7043" lon="7.21491">
        <ele>233.4</ele>
        <time>2011-07-10T10:53:18Z</time>
      </trkpt>
      <trkpt lat="48.7044" lon="7.21501">
        <ele>234.3</ele>
        <time>2011-07-10T10:53:20Z</time>
      </trkpt>
      <trkpt lat="48.70443" lon="7.21515">
        <ele>235.2</ele>
        <time>2011-07-10T10:53:22Z</time>
      </trkpt>
      <trkpt lat="48.70438" lon="7.21526">
        <ele>236.3</ele>
        <time>2011-07-10T10:53:24Z</time>
      </trkpt>
      <trkpt lat="48.70429" lon="7.21532">
        <ele>237.4</ele>
        <time>2011-07-10T10:53:26Z</time>
      </trkpt>
      <trkpt lat="48.7042" lon="7.21541">
        <ele>238.5</ele>
        <time>2011-07-10T10:53:28Z</time>
      </trkpt>
      <trkpt lat="48.70413" lon="7.21552">
        <ele>239.3</ele>
        <time>2011-07-10T10:53:30Z</time>
      </trkpt>
      <trkpt lat="48.70404" lon="7.21558">
        <ele>240.1</ele>
        <time>2011-07-10T10:53:33Z</time>
      </trkpt>
      <trkpt lat="48.70395" lon="7.21561">
        <ele>240.9</ele>
        <time>2011-07-10T10:53:37Z</time>
      </trkpt>
      <trkpt lat="48.70389" lon="7.21569">
        <ele>241.7</ele>
        <time>2011-07-10T10:53:44Z</time>
      </trkpt>
      <trkpt lat="48.70381" lon="7.21575">
        <ele>242.5</ele>
        <time>2011-07-10T10:53:52Z</time>
      </trkpt>
      <trkpt lat="48.70373" lon="7.21582">
        <ele>243.4</ele>
        <time>2011-07-10T10:54:00Z</time>
      </trkpt>
      <trkpt lat="48.70365" lon="7.21587">
        <ele>244.6</ele>
        <time>2011-07-10T10:54:07Z</time>
      </trkpt>
      <trkpt lat="48.70358" lon="7.21595">
        <ele>245.9</ele>
        <time>2011-07-10T10:54:14Z</time>
      </trkpt>
      <trkpt lat="48.70353" lon="7.21605">
        <ele>247.2</ele>
        <time>2011-07-10T10:54:40Z</time>
      </trkpt>
      <trkpt lat="48.70345" lon="7.21615">
        <ele>248.5</ele>
        <time>2011-07-10T10:54:47Z</time>
      </trkpt>
      <trkpt lat="48.70341" lon="7.21626">
        <ele>249.7</ele>
        <time>2011-07-10T10:54:53Z</time>
      </trkpt>
      <trkpt lat="48.70336" lon="7.21638">
        <ele>251.3</ele>
        <time>2011-07-10T10:55:00Z</time>
      </trkpt>
      <trkpt lat="48.70332" lon="7.2165">
        <ele>251.3</ele>
        <time>2011-07-10T10:55:06Z</time>
      </trkpt>
      <trkpt lat="48.70325" lon="7.21659">
        <ele>251.3</ele>
        <time>2011-07-10T10:55:12Z</time>
      </trkpt>
      <trkpt lat="48.70317" lon="7.21664">
        <ele>251.3</ele>
        <time>2011-07-10T10:55:19Z</time>
      </trkpt>
      <trkpt lat="48.70308" lon="7.21676">
        <ele>252</ele>
        <time>2011-07-10T10:55:24Z</time>
      </trkpt>
      <trkpt lat="48.70301" lon="7.21687">
        <ele>252.7</ele>
        <time>2011-07-10T10:55:29Z</time>
      </trkpt>
      <trkpt lat="48.70294" lon="7.21694">
        <ele>251.9</ele>
        <time>2011-07-10T10:55:33Z</time>
      </trkpt>
      <trkpt lat="48.70286" lon="7.21702">
        <ele>251.1</ele>
        <time>2011-07-10T10:55:37Z</time>
      </trkpt>
      <trkpt lat="48.7028" lon="7.21712">
        <ele>250.3</ele>
        <time>2011-07-10T10:55:41Z</time>
      </trkpt>
      <trkpt lat="48.70274" lon="7.21724">
        <ele>249.5</ele>
        <time>2011-07-10T10:55:45Z</time>
      </trkpt>
      <trkpt lat="48.7027" lon="7.21735">
        <ele>248.6</ele>
        <time>2011-07-10T10:55:49Z</time>
      </trkpt>
      <trkpt lat="48.70265" lon="7.21745">
        <ele>247.8</ele>
        <time>2011-07-10T10:55:53Z</time>
      </trkpt>
      <trkpt lat="48.70261" lon="7.21758">
        <ele>250.9</ele>
        <time>2011-07-10T10:55:58Z</time>
      </trkpt>
      <trkpt lat="48.70269" lon="7.21764">
        <ele>254</ele>
        <time>2011-07-10T10:56:03Z</time>
      </trkpt>
      <trkpt lat="48.70277" lon="7.21762">
        <ele>255.5</ele>
        <time>2011-07-10T10:56:06Z</time>
      </trkpt>
      <trkpt lat="48.70284" lon="7.21752">
        <ele>256.4</ele>
        <time>2011-07-10T10:56:09Z</time>
      </trkpt>
      <trkpt lat="48.70292" lon="7.21741">
        <ele>257.2</ele>
        <time>2011-07-10T10:56:13Z</time>
      </trkpt>
      <trkpt lat="48.703" lon="7.21734">
        <ele>258</ele>
        <time>2011-07-10T10:56:15Z</time>
      </trkpt>
      <trkpt lat="48.70308" lon="7.21724">
        <ele>258.8</ele>
        <time>2011-07-10T10:56:18Z</time>
      </trkpt>
      <trkpt lat="48.70315" lon="7.21715">
        <ele>259.6</ele>
        <time>2011-07-10T10:56:21Z</time>
      </trkpt>
      <trkpt lat="48.70322" lon="7.21705">
        <ele>260.5</ele>
        <time>2011-07-10T10:56:23Z</time>
      </trkpt>
      <trkpt lat="48.70329" lon="7.21698">
        <ele>261.3</ele>
        <time>2011-07-10T10:56:26Z</time>
      </trkpt>
      <trkpt lat="48.70336" lon="7.21691">
        <ele>262.1</ele>
        <time>2011-07-10T10:56:28Z</time>
      </trkpt>
      <trkpt lat="48.70344" lon="7.21683">
        <ele>261.7</ele>
        <time>2011-07-10T10:56:30Z</time>
      </trkpt>
      <trkpt lat="48.70351" lon="7.21677">
        <ele>261.4</ele>
        <time>2011-07-10T10:56:32Z</time>
      </trkpt>
      <trkpt lat="48.70359" lon="7.21668">
        <ele>262.5</ele>
        <time>2011-07-10T10:56:35Z</time>
      </trkpt>
      <trkpt lat="48.7037" lon="7.2166">
        <ele>263.7</ele>
        <time>2011-07-10T10:56:38Z</time>
      </trkpt>
      <trkpt lat="48.70378" lon="7.21655">
        <ele>264.9</ele>
        <time>2011-07-10T10:56:40Z</time>
      </trkpt>
      <trkpt lat="48.70387" lon="7.21653">
        <ele>266.1</ele>
        <time>2011-07-10T10:56:42Z</time>
      </trkpt>
      <trkpt lat="48.70395" lon="7.21651">
        <ele>264.8</ele>
        <time>2011-07-10T10:56:44Z</time>
      </trkpt>
      <trkpt lat="48.70404" lon="7.2165">
        <ele>263.5</ele>
        <time>2011-07-10T10:56:46Z</time>
      </trkpt>
      <trkpt lat="48.70415" lon="7.21647">
        <ele>262.3</ele>
        <time>2011-07-10T10:56:48Z</time>
      </trkpt>
      <trkpt lat="48.70426" lon="7.21643">
        <ele>261.4</ele>
        <time>2011-07-10T10:56:51Z</time>
      </trkpt>
      <trkpt lat="48.70436" lon="7.2164">
        <ele>260.5</ele>
        <time>2011-07-10T10:56:53Z</time>
      </trkpt>
      <trkpt lat="48.70444" lon="7.21637">
        <ele>258.4</ele>
        <time>2011-07-10T10:56:55Z</time>
      </trkpt>
      <trkpt lat="48.70454" lon="7.21633">
        <ele>256.3</ele>
        <time>2011-07-10T10:56:57Z</time>
      </trkpt>
      <trkpt lat="48.70462" lon="7.2163">
        <ele>254.2</ele>
        <time>2011-07-10T10:56:59Z</time>
      </trkpt>
      <trkpt lat="48.70472" lon="7.21624">
        <ele>252.1</ele>
        <time>2011-07-10T10:57:02Z</time>
      </trkpt>
      <trkpt lat="48.7048" lon="7.2162">
        <ele>250</ele>
        <time>2011-07-10T10:57:05Z</time>
      </trkpt>
      <trkpt lat="48.70491" lon="7.21618">
        <ele>247.9</ele>
        <time>2011-07-10T10:57:07Z</time>
      </trkpt>
      <trkpt lat="48.70499" lon="7.21616">
        <ele>248.4</ele>
        <time>2011-07-10T10:57:09Z</time>
      </trkpt>
      <trkpt lat="48.70509" lon="7.21617">
        <ele>248.8</ele>
        <time>2011-07-10T10:57:12Z</time>
      </trkpt>
      <trkpt lat="48.70517" lon="7.21614">
        <ele>249.3</ele>
        <time>2011-07-10T10:57:14Z</time>
      </trkpt>
      <trkpt lat="48.70526" lon="7.21612">
        <ele>249.4</ele>
        <time>2011-07-10T10:57:16Z</time>
      </trkpt>
      <trkpt lat="48.70535" lon="7.21612">
        <ele>249.5</ele>
        <time>2011-07-10T10:57:18Z</time>
      </trkpt>
      <trkpt lat="48.70547" lon="7.21612">
        <ele>249.5</ele>
        <time>2011-07-10T10:57:21Z</time>
      </trkpt>
      <trkpt lat="48.70555" lon="7.21611">
        <ele>249.6</ele>
        <time>2011-07-10T10:57:23Z</time>
      </trkpt>
      <trkpt lat="48.70567" lon="7.21611">
        <ele>249.7</ele>
        <time>2011-07-10T10:57:26Z</time>
      </trkpt>
      <trkpt lat="48.70576" lon="7.21613">
        <ele>249.8</ele>
        <time>2011-07-10T10:57:28Z</time>
      </trkpt>
      <trkpt lat="48.70585" lon="7.21614">
        <ele>250.2</ele>
        <time>2011-07-10T10:57:30Z</time>
      </trkpt>
      <trkpt lat="48.70595" lon="7.21614">
        <ele>250.5</ele>
        <time>2011-07-10T10:57:32Z</time>
      </trkpt>
      <trkpt lat="48.70606" lon="7.21616">
        <ele>250.8</ele>
        <time>2011-07-10T10:57:34Z</time>
      </trkpt>
      <trkpt lat="48.70617" lon="7.21617">
        <ele>251.1</ele>
        <time>2011-07-10T10:57:36Z</time>
      </trkpt>
      <trkpt lat="48.70627" lon="7.21619">
        <ele>251.4</ele>
        <time>2011-07-10T10:57:38Z</time>
      </trkpt>
      <trkpt lat="48.70635" lon="7.21625">
        <ele>251.6</ele>
        <time>2011-07-10T10:57:41Z</time>
      </trkpt>
      <trkpt lat="48.70645" lon="7.21626">
        <ele>254.4</ele>
        <time>2011-07-10T10:57:45Z</time>
      </trkpt>
      <trkpt lat="48.70655" lon="7.2163">
        <ele>257.1</ele>
        <time>2011-07-10T10:57:49Z</time>
      </trkpt>
      <trkpt lat="48.70664" lon="7.21633">
        <ele>259.2</ele>
        <time>2011-07-10T10:57:55Z</time>
      </trkpt>
      <trkpt lat="48.70673" lon="7.21635">
        <ele>261.3</ele>
        <time>2011-07-10T10:58:00Z</time>
      </trkpt>
      <trkpt lat="48.70682" lon="7.21637">
        <ele>263.4</ele>
        <time>2011-07-10T10:58:05Z</time>
      </trkpt>
      <trkpt lat="48.70691" lon="7.2164">
        <ele>265.2</ele>
        <time>2011-07-10T10:58:07Z</time>
      </trkpt>
      <trkpt lat="48.70701" lon="7.21644">
        <ele>267</ele>
        <time>2011-07-10T10:58:10Z</time>
      </trkpt>
      <trkpt lat="48.70713" lon="7.21646">
        <ele>268.8</ele>
        <time>2011-07-10T10:58:13Z</time>
      </trkpt>
      <trkpt lat="48.70724" lon="7.21649">
        <ele>270.6</ele>
        <time>2011-07-10T10:58:16Z</time>
      </trkpt>
      <trkpt lat="48.70734" lon="7.21649">
        <ele>272.5</ele>
        <time>2011-07-10T10:58:19Z</time>
      </trkpt>
      <trkpt lat="48.70745" lon="7.21652">
        <ele>274.3</ele>
        <time>2011-07-10T10:58:23Z</time>
      </trkpt>
      <trkpt lat="48.70754" lon="7.21654">
        <ele>272.4</ele>
        <time>2011-07-10T10:58:26Z</time>
      </trkpt>
      <trkpt lat="48.70763" lon="7.21658">
        <ele>270.5</ele>
        <time>2011-07-10T10:58:28Z</time>
      </trkpt>
      <trkpt lat="48.70772" lon="7.21661">
        <ele>269.2</ele>
        <time>2011-07-10T10:58:31Z</time>
      </trkpt>
      <trkpt lat="48.70782" lon="7.21662">
        <ele>267.9</ele>
        <time>2011-07-10T10:58:34Z</time>
      </trkpt>
      <trkpt lat="48.70792" lon="7.21663">
        <ele>266.6</ele>
        <time>2011-07-10T10:58:37Z</time>
      </trkpt>
      <trkpt lat="48.70804" lon="7.21667">
        <ele>265.4</ele>
        <time>2011-07-10T10:58:40Z</time>
      </trkpt>
      <trkpt lat="48.70815" lon="7.2167">
        <ele>264.1</ele>
        <time>2011-07-10T10:58:43Z</time>
      </trkpt>
      <trkpt lat="48.70825" lon="7.21674">
        <ele>262.8</ele>
        <time>2011-07-10T10:58:46Z</time>
      </trkpt>
      <trkpt lat="48.70836" lon="7.21677">
        <ele>260.7</ele>
        <time>2011-07-10T10:58:49Z</time>
      </trkpt>
      <trkpt lat="48.70847" lon="7.21681">
        <ele>258.6</ele>
        <time>2011-07-10T10:58:52Z</time>
      </trkpt>
      <trkpt lat="48.70856" lon="7.21685">
        <ele>256.5</ele>
        <time>2011-07-10T10:58:56Z</time>
      </trkpt>
      <trkpt lat="48.70864" lon="7.2169">
        <ele>257.7</ele>
        <time>2011-07-10T10:58:59Z</time>
      </trkpt>
      <trkpt lat="48.70873" lon="7.21698">
        <ele>258.9</ele>
        <time>2011-07-10T10:59:03Z</time>
      </trkpt>
      <trkpt lat="48.70881" lon="7.21704">
        <ele>260.1</ele>
        <time>2011-07-10T10:59:06Z</time>
      </trkpt>
      <trkpt lat="48.7089" lon="7.21708">
        <ele>261.3</ele>
        <time>2011-07-10T10:59:09Z</time>
      </trkpt>
      <trkpt lat="48.70897" lon="7.21716">
        <ele>262.5</ele>
        <time>2011-07-10T10:59:11Z</time>
      </trkpt>
      <trkpt lat="48.70907" lon="7.21722">
        <ele>263.6</ele>
        <time>2011-07-10T10:59:14Z</time>
      </trkpt>
      <trkpt lat="48.70916" lon="7.21727">
        <ele>264.8</ele>
        <time>2011-07-10T10:59:16Z</time>
      </trkpt>
      <trkpt lat="48.70925" lon="7.21732">
        <ele>265.3</ele>
        <time>2011-07-10T10:59:18Z</time>
      </trkpt>
      <trkpt lat="48.70934" lon="7.2174">
        <ele>266.5</ele>
        <time>2011-07-10T10:59:21Z</time>
      </trkpt>
      <trkpt lat="48.7094" lon="7.21749">
        <ele>267.8</ele>
        <time>2011-07-10T10:59:23Z</time>
      </trkpt>
      <trkpt lat="48.70948" lon="7.21757">
        <ele>269.1</ele>
        <time>2011-07-10T10:59:26Z</time>
      </trkpt>
      <trkpt lat="48.70958" lon="7.21753">
        <ele>268.4</ele>
        <time>2011-07-10T10:59:30Z</time>
      </trkpt>
      <trkpt lat="48.7097" lon="7.21751">
        <ele>267.6</ele>
        <time>2011-07-10T10:59:33Z</time>
      </trkpt>
      <trkpt lat="48.70979" lon="7.21751">
        <ele>266.9</ele>
        <time>2011-07-10T10:59:35Z</time>
      </trkpt>
      <trkpt lat="48.70991" lon="7.21752">
        <ele>266.2</ele>
        <time>2011-07-10T10:59:38Z</time>
      </trkpt>
      <trkpt lat="48.70999" lon="7.21754">
        <ele>264.7</ele>
        <time>2011-07-10T10:59:40Z</time>
      </trkpt>
      <trkpt lat="48.71008" lon="7.21756">
        <ele>263.3</ele>
        <time>2011-07-10T10:59:42Z</time>
      </trkpt>
      <trkpt lat="48.71019" lon="7.21761">
        <ele>261.8</ele>
        <time>2011-07-10T10:59:45Z</time>
      </trkpt>
      <trkpt lat="48.71031" lon="7.21764">
        <ele>261.1</ele>
        <time>2011-07-10T10:59:48Z</time>
      </trkpt>
      <trkpt lat="48.71039" lon="7.2177">
        <ele>260.4</ele>
        <time>2011-07-10T10:59:51Z</time>
      </trkpt>
      <trkpt lat="48.71049" lon="7.21778">
        <ele>261.9</ele>
        <time>2011-07-10T10:59:53Z</time>
      </trkpt>
      <trkpt lat="48.71059" lon="7.21787">
        <ele>263.5</ele>
        <time>2011-07-10T10:59:55Z</time>
      </trkpt>
      <trkpt lat="48.71071" lon="7.21794">
        <ele>265</ele>
        <time>2011-07-10T10:59:58Z</time>
      </trkpt>
      <trkpt lat="48.71081" lon="7.21795">
        <ele>265.5</ele>
        <time>2011-07-10T11:00:00Z</time>
      </trkpt>
      <trkpt lat="48.71089" lon="7.21797">
        <ele>266.1</ele>
        <time>2011-07-10T11:00:02Z</time>
      </trkpt>
      <trkpt lat="48.71098" lon="7.21802">
        <ele>266.6</ele>
        <time>2011-07-10T11:00:05Z</time>
      </trkpt>
      <trkpt lat="48.71108" lon="7.21806">
        <ele>267.9</ele>
        <time>2011-07-10T11:00:08Z</time>
      </trkpt>
      <trkpt lat="48.71121" lon="7.2181">
        <ele>269.2</ele>
        <time>2011-07-10T11:00:11Z</time>
      </trkpt>
      <trkpt lat="48.71131" lon="7.21815">
        <ele>270.5</ele>
        <time>2011-07-10T11:00:13Z</time>
      </trkpt>
      <trkpt lat="48.71139" lon="7.21818">
        <ele>271.7</ele>
        <time>2011-07-10T11:00:15Z</time>
      </trkpt>
      <trkpt lat="48.71149" lon="7.21821">
        <ele>273</ele>
        <time>2011-07-10T11:00:17Z</time>
      </trkpt>
      <trkpt lat="48.71162" lon="7.21824">
        <ele>270.3</ele>
        <time>2011-07-10T11:00:20Z</time>
      </trkpt>
      <trkpt lat="48.71172" lon="7.21829">
        <ele>267.5</ele>
        <time>2011-07-10T11:00:22Z</time>
      </trkpt>
      <trkpt lat="48.71181" lon="7.21831">
        <ele>264.8</ele>
        <time>2011-07-10T11:00:24Z</time>
      </trkpt>
      <trkpt lat="48.71192" lon="7.21834">
        <ele>263.1</ele>
        <time>2011-07-10T11:00:26Z</time>
      </trkpt>
      <trkpt lat="48.71201" lon="7.2184">
        <ele>261.4</ele>
        <time>2011-07-10T11:00:28Z</time>
      </trkpt>
      <trkpt lat="48.71212" lon="7.21845">
        <ele>259.6</ele>
        <time>2011-07-10T11:00:31Z</time>
      </trkpt>
      <trkpt lat="48.71222" lon="7.21848">
        <ele>257.9</ele>
        <time>2011-07-10T11:00:33Z</time>
      </trkpt>
      <trkpt lat="48.71232" lon="7.21853">
        <ele>256.2</ele>
        <time>2011-07-10T11:00:35Z</time>
      </trkpt>
      <trkpt lat="48.71242" lon="7.2186">
        <ele>256.5</ele>
        <time>2011-07-10T11:00:37Z</time>
      </trkpt>
      <trkpt lat="48.71253" lon="7.21867">
        <ele>256.9</ele>
        <time>2011-07-10T11:00:39Z</time>
      </trkpt>
      <trkpt lat="48.71262" lon="7.21874">
        <ele>254.6</ele>
        <time>2011-07-10T11:00:41Z</time>
      </trkpt>
      <trkpt lat="48.71271" lon="7.21878">
        <ele>254.1</ele>
        <time>2011-07-10T11:00:43Z</time>
      </trkpt>
      <trkpt lat="48.71279" lon="7.21883">
        <ele>253.5</ele>
        <time>2011-07-10T11:00:45Z</time>
      </trkpt>
      <trkpt lat="48.71288" lon="7.21888">
        <ele>253</ele>
        <time>2011-07-10T11:00:47Z</time>
      </trkpt>
      <trkpt lat="48.71296" lon="7.21893">
        <ele>252.5</ele>
        <time>2011-07-10T11:00:49Z</time>
      </trkpt>
      <trkpt lat="48.71303" lon="7.21899">
        <ele>251.9</ele>
        <time>2011-07-10T11:00:51Z</time>
      </trkpt>
      <trkpt lat="48.71311" lon="7.21909">
        <ele>252.7</ele>
        <time>2011-07-10T11:00:53Z</time>
      </trkpt>
      <trkpt lat="48.71321" lon="7.2192">
        <ele>253.5</ele>
        <time>2011-07-10T11:00:55Z</time>
      </trkpt>
      <trkpt lat="48.71331" lon="7.21931">
        <ele>254.4</ele>
        <time>2011-07-10T11:00:57Z</time>
      </trkpt>
      <trkpt lat="48.71339" lon="7.21943">
        <ele>253.1</ele>
        <time>2011-07-10T11:00:59Z</time>
      </trkpt>
      <trkpt lat="48.71348" lon="7.21956">
        <ele>251.8</ele>
        <time>2011-07-10T11:01:01Z</time>
      </trkpt>
      <trkpt lat="48.71355" lon="7.2197">
        <ele>250.7</ele>
        <time>2011-07-10T11:01:03Z</time>
      </trkpt>
      <trkpt lat="48.7136" lon="7.21984">
        <ele>250.4</ele>
        <time>2011-07-10T11:01:05Z</time>
      </trkpt>
      <trkpt lat="48.71366" lon="7.21999">
        <ele>250</ele>
        <time>2011-07-10T11:01:07Z</time>
      </trkpt>
      <trkpt lat="48.71372" lon="7.22014">
        <ele>249.6</ele>
        <time>2011-07-10T11:01:09Z</time>
      </trkpt>
      <trkpt lat="48.71378" lon="7.2203">
        <ele>249.3</ele>
        <time>2011-07-10T11:01:11Z</time>
      </trkpt>
      <trkpt lat="48.71386" lon="7.22045">
        <ele>248.9</ele>
        <time>2011-07-10T11:01:13Z</time>
      </trkpt>
      <trkpt lat="48.71393" lon="7.2206">
        <ele>247.2</ele>
        <time>2011-07-10T11:01:15Z</time>
      </trkpt>
      <trkpt lat="48.71397" lon="7.22074">
        <ele>246.5</ele>
        <time>2011-07-10T11:01:17Z</time>
      </trkpt>
      <trkpt lat="48.71402" lon="7.22087">
        <ele>245.7</ele>
        <time>2011-07-10T11:01:19Z</time>
      </trkpt>
      <trkpt lat="48.71411" lon="7.22099">
        <ele>244.2</ele>
        <time>2011-07-10T11:01:21Z</time>
      </trkpt>
      <trkpt lat="48.7142" lon="7.22113">
        <ele>242.6</ele>
        <time>2011-07-10T11:01:23Z</time>
      </trkpt>
      <trkpt lat="48.71432" lon="7.22128">
        <ele>243.5</ele>
        <time>2011-07-10T11:01:25Z</time>
      </trkpt>
      <trkpt lat="48.71445" lon="7.22142">
        <ele>243.7</ele>
        <time>2011-07-10T11:01:27Z</time>
      </trkpt>
      <trkpt lat="48.71458" lon="7.22154">
        <ele>243.9</ele>
        <time>2011-07-10T11:01:29Z</time>
      </trkpt>
      <trkpt lat="48.71468" lon="7.2216">
        <ele>245.5</ele>
        <time>2011-07-10T11:01:31Z</time>
      </trkpt>
      <trkpt lat="48.71475" lon="7.22171">
        <ele>247</ele>
        <time>2011-07-10T11:01:34Z</time>
      </trkpt>
      <trkpt lat="48.71478" lon="7.22182">
        <ele>248.5</ele>
        <time>2011-07-10T11:02:15Z</time>
      </trkpt>
      <trkpt lat="48.71484" lon="7.22191">
        <ele>250.1</ele>
        <time>2011-07-10T11:02:56Z</time>
      </trkpt>
      <trkpt lat="48.71486" lon="7.22206">
        <ele>250.6</ele>
        <time>2011-07-10T11:03:00Z</time>
      </trkpt>
      <trkpt lat="48.71492" lon="7.22218">
        <ele>251.2</ele>
        <time>2011-07-10T11:03:04Z</time>
      </trkpt>
      <trkpt lat="48.71499" lon="7.22224">
        <ele>252.5</ele>
        <time>2011-07-10T11:03:09Z</time>
      </trkpt>
      <trkpt lat="48.71508" lon="7.22228">
        <ele>253.5</ele>
        <time>2011-07-10T11:03:14Z</time>
      </trkpt>
      <trkpt lat="48.71515" lon="7.22238">
        <ele>254.4</ele>
        <time>2011-07-10T11:03:19Z</time>
      </trkpt>
      <trkpt lat="48.71525" lon="7.22243">
        <ele>255.3</ele>
        <time>2011-07-10T11:03:23Z</time>
      </trkpt>
      <trkpt lat="48.71535" lon="7.22242">
        <ele>256.2</ele>
        <time>2011-07-10T11:03:27Z</time>
      </trkpt>
      <trkpt lat="48.71543" lon="7.2225">
        <ele>255.7</ele>
        <time>2011-07-10T11:03:31Z</time>
      </trkpt>
      <trkpt lat="48.7155" lon="7.22259">
        <ele>255.3</ele>
        <time>2011-07-10T11:03:35Z</time>
      </trkpt>
      <trkpt lat="48.71559" lon="7.22265">
        <ele>254.8</ele>
        <time>2011-07-10T11:03:38Z</time>
      </trkpt>
      <trkpt lat="48.71566" lon="7.22271">
        <ele>254.4</ele>
        <time>2011-07-10T11:03:41Z</time>
      </trkpt>
      <trkpt lat="48.71576" lon="7.22276">
        <ele>253.9</ele>
        <time>2011-07-10T11:03:44Z</time>
      </trkpt>
      <trkpt lat="48.71585" lon="7.22279">
        <ele>254.3</ele>
        <time>2011-07-10T11:03:46Z</time>
      </trkpt>
      <trkpt lat="48.71596" lon="7.22282">
        <ele>254.6</ele>
        <time>2011-07-10T11:03:49Z</time>
      </trkpt>
      <trkpt lat="48.71605" lon="7.22284">
        <ele>255.5</ele>
        <time>2011-07-10T11:03:51Z</time>
      </trkpt>
      <trkpt lat="48.71613" lon="7.22286">
        <ele>256.3</ele>
        <time>2011-07-10T11:03:53Z</time>
      </trkpt>
      <trkpt lat="48.71622" lon="7.2229">
        <ele>257.1</ele>
        <time>2011-07-10T11:03:55Z</time>
      </trkpt>
      <trkpt lat="48.71631" lon="7.22295">
        <ele>257.9</ele>
        <time>2011-07-10T11:03:57Z</time>
      </trkpt>
      <trkpt lat="48.71639" lon="7.223">
        <ele>258.7</ele>
        <time>2011-07-10T11:03:59Z</time>
      </trkpt>
      <trkpt lat="48.71648" lon="7.22304">
        <ele>259.5</ele>
        <time>2011-07-10T11:04:01Z</time>
      </trkpt>
      <trkpt lat="48.71657" lon="7.22306">
        <ele>260.4</ele>
        <time>2011-07-10T11:04:03Z</time>
      </trkpt>
      <trkpt lat="48.71665" lon="7.22312">
        <ele>259.6</ele>
        <time>2011-07-10T11:04:05Z</time>
      </trkpt>
      <trkpt lat="48.71674" lon="7.22316">
        <ele>258.9</ele>
        <time>2011-07-10T11:04:07Z</time>
      </trkpt>
      <trkpt lat="48.71684" lon="7.22324">
        <ele>257.4</ele>
        <time>2011-07-10T11:04:09Z</time>
      </trkpt>
      <trkpt lat="48.71694" lon="7.2233">
        <ele>255.8</ele>
        <time>2011-07-10T11:04:11Z</time>
      </trkpt>
      <trkpt lat="48.71704" lon="7.22335">
        <ele>254.3</ele>
        <time>2011-07-10T11:04:13Z</time>
      </trkpt>
      <trkpt lat="48.71714" lon="7.2234">
        <ele>252.7</ele>
        <time>2011-07-10T11:04:15Z</time>
      </trkpt>
      <trkpt lat="48.71722" lon="7.22344">
        <ele>253.5</ele>
        <time>2011-07-10T11:04:17Z</time>
      </trkpt>
      <trkpt lat="48.71734" lon="7.22349">
        <ele>254.4</ele>
        <time>2011-07-10T11:04:19Z</time>
      </trkpt>
      <trkpt lat="48.71746" lon="7.22354">
        <ele>255.2</ele>
        <time>2011-07-10T11:04:21Z</time>
      </trkpt>
      <trkpt lat="48.71755" lon="7.22358">
        <ele>256</ele>
        <time>2011-07-10T11:04:23Z</time>
      </trkpt>
      <trkpt lat="48.71764" lon="7.22368">
        <ele>253.6</ele>
        <time>2011-07-10T11:04:26Z</time>
      </trkpt>
      <trkpt lat="48.71773" lon="7.22378">
        <ele>252.8</ele>
        <time>2011-07-10T11:04:29Z</time>
      </trkpt>
      <trkpt lat="48.71781" lon="7.22388">
        <ele>252</ele>
        <time>2011-07-10T11:04:32Z</time>
      </trkpt>
      <trkpt lat="48.71789" lon="7.224">
        <ele>251.6</ele>
        <time>2011-07-10T11:04:35Z</time>
      </trkpt>
      <trkpt lat="48.71795" lon="7.22407">
        <ele>251.3</ele>
        <time>2011-07-10T11:04:38Z</time>
      </trkpt>
      <trkpt lat="48.71802" lon="7.22423">
        <ele>250.9</ele>
        <time>2011-07-10T11:04:41Z</time>
      </trkpt>
      <trkpt lat="48.71808" lon="7.22441">
        <ele>250.5</ele>
        <time>2011-07-10T11:04:43Z</time>
      </trkpt>
      <trkpt lat="48.71812" lon="7.22452">
        <ele>247.5</ele>
        <time>2011-07-10T11:04:44Z</time>
      </trkpt>
      <trkpt lat="48.71814" lon="7.22475">
        <ele>244.5</ele>
        <time>2011-07-10T11:04:46Z</time>
      </trkpt>
      <trkpt lat="48.7182" lon="7.22491">
        <ele>241.5</ele>
        <time>2011-07-10T11:04:47Z</time>
      </trkpt>
      <trkpt lat="48.71825" lon="7.22506">
        <ele>238.5</ele>
        <time>2011-07-10T11:04:48Z</time>
      </trkpt>
      <trkpt lat="48.71824" lon="7.22521">
        <ele>238.7</ele>
        <time>2011-07-10T11:04:49Z</time>
      </trkpt>
      <trkpt lat="48.71832" lon="7.22544">
        <ele>238.9</ele>
        <time>2011-07-10T11:04:51Z</time>
      </trkpt>
      <trkpt lat="48.71837" lon="7.22559">
        <ele>239.1</ele>
        <time>2011-07-10T11:04:53Z</time>
      </trkpt>
      <trkpt lat="48.71843" lon="7.22569">
        <ele>237.5</ele>
        <time>2011-07-10T11:04:56Z</time>
      </trkpt>
      <trkpt lat="48.71852" lon="7.22578">
        <ele>235.8</ele>
        <time>2011-07-10T11:05:01Z</time>
      </trkpt>
      <trkpt lat="48.71861" lon="7.22584">
        <ele>234.2</ele>
        <time>2011-07-10T11:05:04Z</time>
      </trkpt>
      <trkpt lat="48.71871" lon="7.22591">
        <ele>232.5</ele>
        <time>2011-07-10T11:05:07Z</time>
      </trkpt>
      <trkpt lat="48.71878" lon="7.22598">
        <ele>231.5</ele>
        <time>2011-07-10T11:05:18Z</time>
      </trkpt>
      <trkpt lat="48.71887" lon="7.22606">
        <ele>230.4</ele>
        <time>2011-07-10T11:05:30Z</time>
      </trkpt>
      <trkpt lat="48.71896" lon="7.22607">
        <ele>229.3</ele>
        <time>2011-07-10T11:05:38Z</time>
      </trkpt>
      <trkpt lat="48.71898" lon="7.22619">
        <ele>228.2</ele>
        <time>2011-07-10T11:05:48Z</time>
      </trkpt>
      <trkpt lat="48.71899" lon="7.22632">
        <ele>227.1</ele>
        <time>2011-07-10T11:05:53Z</time>
      </trkpt>
      <trkpt lat="48.719" lon="7.22645">
        <ele>226</ele>
        <time>2011-07-10T11:06:02Z</time>
      </trkpt>
      <trkpt lat="48.71903" lon="7.22657">
        <ele>226</ele>
        <time>2011-07-10T11:06:19Z</time>
      </trkpt>
      <trkpt lat="48.71909" lon="7.22667">
        <ele>227.4</ele>
        <time>2011-07-10T11:06:29Z</time>
      </trkpt>
      <trkpt lat="48.71911" lon="7.2268">
        <ele>228.7</ele>
        <time>2011-07-10T11:06:33Z</time>
      </trkpt>
      <trkpt lat="48.71913" lon="7.22697">
        <ele>230.1</ele>
        <time>2011-07-10T11:06:37Z</time>
      </trkpt>
      <trkpt lat="48.71917" lon="7.22711">
        <ele>231.5</ele>
        <time>2011-07-10T11:06:40Z</time>
      </trkpt>
      <trkpt lat="48.71922" lon="7.22723">
        <ele>232.5</ele>
        <time>2011-07-10T11:06:43Z</time>
      </trkpt>
      <trkpt lat="48.71927" lon="7.22734">
        <ele>234</ele>
        <time>2011-07-10T11:06:45Z</time>
      </trkpt>
      <trkpt lat="48.71935" lon="7.22746">
        <ele>235.5</ele>
        <time>2011-07-10T11:06:48Z</time>
      </trkpt>
      <trkpt lat="48.7194" lon="7.2276">
        <ele>235.9</ele>
        <time>2011-07-10T11:06:51Z</time>
      </trkpt>
      <trkpt lat="48.71946" lon="7.22777">
        <ele>236.4</ele>
        <time>2011-07-10T11:06:54Z</time>
      </trkpt>
      <trkpt lat="48.71949" lon="7.22789">
        <ele>236.8</ele>
        <time>2011-07-10T11:06:56Z</time>
      </trkpt>
      <trkpt lat="48.71954" lon="7.22803">
        <ele>236.2</ele>
        <time>2011-07-10T11:06:59Z</time>
      </trkpt>
      <trkpt lat="48.71959" lon="7.22816">
        <ele>235.5</ele>
        <time>2011-07-10T11:07:02Z</time>
      </trkpt>
      <trkpt lat="48.71964" lon="7.22827">
        <ele>235.6</ele>
        <time>2011-07-10T11:07:05Z</time>
      </trkpt>
      <trkpt lat="48.71969" lon="7.22841">
        <ele>235.7</ele>
        <time>2011-07-10T11:07:09Z</time>
      </trkpt>
      <trkpt lat="48.71977" lon="7.22853">
        <ele>235.8</ele>
        <time>2011-07-10T11:07:14Z</time>
      </trkpt>
      <trkpt lat="48.71986" lon="7.22866">
        <ele>235.9</ele>
        <time>2011-07-10T11:07:17Z</time>
      </trkpt>
      <trkpt lat="48.71993" lon="7.22875">
        <ele>235.6</ele>
        <time>2011-07-10T11:07:19Z</time>
      </trkpt>
      <trkpt lat="48.72003" lon="7.22886">
        <ele>235.4</ele>
        <time>2011-07-10T11:07:21Z</time>
      </trkpt>
      <trkpt lat="48.72014" lon="7.22901">
        <ele>236.1</ele>
        <time>2011-07-10T11:07:23Z</time>
      </trkpt>
      <trkpt lat="48.72021" lon="7.22912">
        <ele>237.4</ele>
        <time>2011-07-10T11:07:25Z</time>
      </trkpt>
      <trkpt lat="48.72026" lon="7.22924">
        <ele>238.6</ele>
        <time>2011-07-10T11:07:27Z</time>
      </trkpt>
      <trkpt lat="48.72027" lon="7.22937">
        <ele>239.9</ele>
        <time>2011-07-10T11:07:31Z</time>
      </trkpt>
      <trkpt lat="48.7203" lon="7.2295">
        <ele>241.2</ele>
        <time>2011-07-10T11:07:36Z</time>
      </trkpt>
      <trkpt lat="48.72028" lon="7.22962">
        <ele>241.7</ele>
        <time>2011-07-10T11:07:40Z</time>
      </trkpt>
      <trkpt lat="48.72031" lon="7.22974">
        <ele>242.3</ele>
        <time>2011-07-10T11:07:45Z</time>
      </trkpt>
      <trkpt lat="48.72037" lon="7.22982">
        <ele>242.8</ele>
        <time>2011-07-10T11:07:49Z</time>
      </trkpt>
      <trkpt lat="48.72044" lon="7.22989">
        <ele>243.4</ele>
        <time>2011-07-10T11:07:53Z</time>
      </trkpt>
      <trkpt lat="48.72055" lon="7.22989">
        <ele>243.9</ele>
        <time>2011-07-10T11:07:58Z</time>
      </trkpt>
      <trkpt lat="48.72064" lon="7.2299">
        <ele>244.5</ele>
        <time>2011-07-10T11:08:04Z</time>
      </trkpt>
      <trkpt lat="48.72073" lon="7.22995">
        <ele>245</ele>
        <time>2011-07-10T11:08:10Z</time>
      </trkpt>
      <trkpt lat="48.72081" lon="7.23001">
        <ele>245</ele>
        <time>2011-07-10T11:08:14Z</time>
      </trkpt>
      <trkpt lat="48.72087" lon="7.23009">
        <ele>246.7</ele>
        <time>2011-07-10T11:08:17Z</time>
      </trkpt>
      <trkpt lat="48.72094" lon="7.23017">
        <ele>247.8</ele>
        <time>2011-07-10T11:08:19Z</time>
      </trkpt>
      <trkpt lat="48.72102" lon="7.23026">
        <ele>248.9</ele>
        <time>2011-07-10T11:08:22Z</time>
      </trkpt>
      <trkpt lat="48.7211" lon="7.23033">
        <ele>250</ele>
        <time>2011-07-10T11:08:26Z</time>
      </trkpt>
      <trkpt lat="48.72117" lon="7.23041">
        <ele>251.1</ele>
        <time>2011-07-10T11:08:31Z</time>
      </trkpt>
      <trkpt lat="48.72124" lon="7.23052">
        <ele>252.2</ele>
        <time>2011-07-10T11:08:35Z</time>
      </trkpt>
      <trkpt lat="48.72132" lon="7.23059">
        <ele>253.3</ele>
        <time>2011-07-10T11:08:39Z</time>
      </trkpt>
      <trkpt lat="48.7214" lon="7.23063">
        <ele>254.4</ele>
        <time>2011-07-10T11:08:42Z</time>
      </trkpt>
      <trkpt lat="48.7215" lon="7.23072">
        <ele>255.5</ele>
        <time>2011-07-10T11:08:46Z</time>
      </trkpt>
      <trkpt lat="48.72159" lon="7.23081">
        <ele>256.5</ele>
        <time>2011-07-10T11:08:50Z</time>
      </trkpt>
      <trkpt lat="48.72169" lon="7.23087">
        <ele>256.2</ele>
        <time>2011-07-10T11:08:53Z</time>
      </trkpt>
      <trkpt lat="48.7218" lon="7.23091">
        <ele>254.1</ele>
        <time>2011-07-10T11:08:56Z</time>
      </trkpt>
      <trkpt lat="48.7219" lon="7.23097">
        <ele>252.6</ele>
        <time>2011-07-10T11:08:59Z</time>
      </trkpt>
      <trkpt lat="48.72198" lon="7.23102">
        <ele>251.2</ele>
        <time>2011-07-10T11:09:02Z</time>
      </trkpt>
      <trkpt lat="48.72208" lon="7.23104">
        <ele>249.7</ele>
        <time>2011-07-10T11:09:05Z</time>
      </trkpt>
      <trkpt lat="48.72217" lon="7.23109">
        <ele>248.3</ele>
        <time>2011-07-10T11:09:08Z</time>
      </trkpt>
      <trkpt lat="48.72225" lon="7.23112">
        <ele>246.8</ele>
        <time>2011-07-10T11:09:11Z</time>
      </trkpt>
      <trkpt lat="48.72234" lon="7.23114">
        <ele>248.1</ele>
        <time>2011-07-10T11:09:14Z</time>
      </trkpt>
      <trkpt lat="48.72246" lon="7.23117">
        <ele>249.4</ele>
        <time>2011-07-10T11:09:18Z</time>
      </trkpt>
      <trkpt lat="48.72256" lon="7.23122">
        <ele>249.5</ele>
        <time>2011-07-10T11:09:21Z</time>
      </trkpt>
      <trkpt lat="48.72265" lon="7.23127">
        <ele>249.7</ele>
        <time>2011-07-10T11:09:23Z</time>
      </trkpt>
      <trkpt lat="48.72276" lon="7.23129">
        <ele>251.4</ele>
        <time>2011-07-10T11:09:26Z</time>
      </trkpt>
      <trkpt lat="48.72285" lon="7.23133">
        <ele>253</ele>
        <time>2011-07-10T11:09:29Z</time>
      </trkpt>
      <trkpt lat="48.72294" lon="7.23141">
        <ele>254.6</ele>
        <time>2011-07-10T11:09:33Z</time>
      </trkpt>
      <trkpt lat="48.72303" lon="7.2314">
        <ele>256.3</ele>
        <time>2011-07-10T11:09:37Z</time>
      </trkpt>
      <trkpt lat="48.72311" lon="7.23142">
        <ele>257.9</ele>
        <time>2011-07-10T11:09:40Z</time>
      </trkpt>
      <trkpt lat="48.72318" lon="7.23148">
        <ele>259.5</ele>
        <time>2011-07-10T11:09:42Z</time>
      </trkpt>
      <trkpt lat="48.72328" lon="7.2315">
        <ele>261.2</ele>
        <time>2011-07-10T11:09:47Z</time>
      </trkpt>
      <trkpt lat="48.72337" lon="7.23152">
        <ele>258.9</ele>
        <time>2011-07-10T11:09:52Z</time>
      </trkpt>
      <trkpt lat="48.72348" lon="7.23153">
        <ele>256.6</ele>
        <time>2011-07-10T11:09:56Z</time>
      </trkpt>
      <trkpt lat="48.72359" lon="7.23156">
        <ele>255.5</ele>
        <time>2011-07-10T11:09:59Z</time>
      </trkpt>
      <trkpt lat="48.72368" lon="7.23157">
        <ele>254.3</ele>
        <time>2011-07-10T11:10:02Z</time>
      </trkpt>
      <trkpt lat="48.72377" lon="7.23158">
        <ele>253.1</ele>
        <time>2011-07-10T11:10:05Z</time>
      </trkpt>
      <trkpt lat="48.72386" lon="7.23158">
        <ele>251.9</ele>
        <time>2011-07-10T11:10:08Z</time>
      </trkpt>
      <trkpt lat="48.72395" lon="7.23155">
        <ele>250.7</ele>
        <time>2011-07-10T11:10:10Z</time>
      </trkpt>
      <trkpt lat="48.72404" lon="7.23156">
        <ele>249.5</ele>
        <time>2011-07-10T11:10:13Z</time>
      </trkpt>
      <trkpt lat="48.72413" lon="7.23162">
        <ele>248.4</ele>
        <time>2011-07-10T11:10:16Z</time>
      </trkpt>
      <trkpt lat="48.72419" lon="7.23172">
        <ele>247.2</ele>
        <time>2011-07-10T11:10:19Z</time>
      </trkpt>
      <trkpt lat="48.72427" lon="7.23179">
        <ele>244.9</ele>
        <time>2011-07-10T11:10:22Z</time>
      </trkpt>
      <trkpt lat="48.72437" lon="7.23182">
        <ele>243.8</ele>
        <time>2011-07-10T11:10:29Z</time>
      </trkpt>
      <trkpt lat="48.72445" lon="7.23185">
        <ele>242.7</ele>
        <time>2011-07-10T11:10:34Z</time>
      </trkpt>
      <trkpt lat="48.72452" lon="7.23191">
        <ele>241.6</ele>
        <time>2011-07-10T11:10:38Z</time>
      </trkpt>
      <trkpt lat="48.72459" lon="7.23197">
        <ele>240.5</ele>
        <time>2011-07-10T11:10:43Z</time>
      </trkpt>
      <trkpt lat="48.72468" lon="7.23197">
        <ele>239.5</ele>
        <time>2011-07-10T11:10:47Z</time>
      </trkpt>
      <trkpt lat="48.72476" lon="7.23191">
        <ele>238.4</ele>
        <time>2011-07-10T11:10:50Z</time>
      </trkpt>
      <trkpt lat="48.72485" lon="7.23188">
        <ele>240.1</ele>
        <time>2011-07-10T11:10:58Z</time>
      </trkpt>
      <trkpt lat="48.72493" lon="7.23193">
        <ele>241.8</ele>
        <time>2011-07-10T11:11:01Z</time>
      </trkpt>
      <trkpt lat="48.72502" lon="7.23197">
        <ele>243.5</ele>
        <time>2011-07-10T11:11:04Z</time>
      </trkpt>
      <trkpt lat="48.72509" lon="7.23203">
        <ele>243.1</ele>
        <time>2011-07-10T11:11:06Z</time>
      </trkpt>
      <trkpt lat="48.72517" lon="7.23208">
        <ele>243.7</ele>
        <time>2011-07-10T11:11:09Z</time>
      </trkpt>
      <trkpt lat="48.72528" lon="7.23215">
        <ele>244.4</ele>
        <time>2011-07-10T11:11:13Z</time>
      </trkpt>
      <trkpt lat="48.72535" lon="7.23225">
        <ele>245</ele>
        <time>2011-07-10T11:11:17Z</time>
      </trkpt>
      <trkpt lat="48.72543" lon="7.23234">
        <ele>245.6</ele>
        <time>2011-07-10T11:11:21Z</time>
      </trkpt>
      <trkpt lat="48.72548" lon="7.23244">
        <ele>247.6</ele>
        <time>2011-07-10T11:11:25Z</time>
      </trkpt>
      <trkpt lat="48.72555" lon="7.23252">
        <ele>249.6</ele>
        <time>2011-07-10T11:11:29Z</time>
      </trkpt>
      <trkpt lat="48.7256" lon="7.23262">
        <ele>251.6</ele>
        <time>2011-07-10T11:11:34Z</time>
      </trkpt>
      <trkpt lat="48.72565" lon="7.23272">
        <ele>250.8</ele>
        <time>2011-07-10T11:11:38Z</time>
      </trkpt>
      <trkpt lat="48.72568" lon="7.23285">
        <ele>250</ele>
        <time>2011-07-10T11:11:42Z</time>
      </trkpt>
      <trkpt lat="48.72572" lon="7.23297">
        <ele>249.2</ele>
        <time>2011-07-10T11:11:47Z</time>
      </trkpt>
      <trkpt lat="48.72575" lon="7.2331">
        <ele>250.5</ele>
        <time>2011-07-10T11:11:52Z</time>
      </trkpt>
      <trkpt lat="48.72576" lon="7.23323">
        <ele>252.9</ele>
        <time>2011-07-10T11:11:57Z</time>
      </trkpt>
      <trkpt lat="48.72576" lon="7.23335">
        <ele>255.3</ele>
        <time>2011-07-10T11:12:02Z</time>
      </trkpt>
      <trkpt lat="48.72577" lon="7.23348">
        <ele>257.6</ele>
        <time>2011-07-10T11:12:08Z</time>
      </trkpt>
      <trkpt lat="48.72574" lon="7.23362">
        <ele>260</ele>
        <time>2011-07-10T11:12:12Z</time>
      </trkpt>
      <trkpt lat="48.72575" lon="7.23374">
        <ele>261</ele>
        <time>2011-07-10T11:12:17Z</time>
      </trkpt>
      <trkpt lat="48.72572" lon="7.23386">
        <ele>262</ele>
        <time>2011-07-10T11:12:21Z</time>
      </trkpt>
      <trkpt lat="48.72575" lon="7.23399">
        <ele>263.4</ele>
        <time>2011-07-10T11:12:26Z</time>
      </trkpt>
      <trkpt lat="48.72576" lon="7.23412">
        <ele>264.7</ele>
        <time>2011-07-10T11:12:31Z</time>
      </trkpt>
      <trkpt lat="48.72575" lon="7.2343">
        <ele>266.1</ele>
        <time>2011-07-10T11:12:38Z</time>
      </trkpt>
      <trkpt lat="48.72575" lon="7.23443">
        <ele>267.5</ele>
        <time>2011-07-10T11:12:44Z</time>
      </trkpt>
      <trkpt lat="48.72573" lon="7.23459">
        <ele>268.8</ele>
        <time>2011-07-10T11:12:52Z</time>
      </trkpt>
      <trkpt lat="48.72566" lon="7.23474">
        <ele>269.5</ele>
        <time>2011-07-10T11:12:57Z</time>
      </trkpt>
      <trkpt lat="48.72572" lon="7.23494">
        <ele>270.3</ele>
        <time>2011-07-10T11:13:04Z</time>
      </trkpt>
      <trkpt lat="48.72573" lon="7.23511">
        <ele>271</ele>
        <time>2011-07-10T11:13:08Z</time>
      </trkpt>
      <trkpt lat="48.72578" lon="7.23524">
        <ele>271.7</ele>
        <time>2011-07-10T11:13:11Z</time>
      </trkpt>
      <trkpt lat="48.72581" lon="7.23538">
        <ele>272.5</ele>
        <time>2011-07-10T11:13:15Z</time>
      </trkpt>
      <trkpt lat="48.72581" lon="7.23551">
        <ele>273.2</ele>
        <time>2011-07-10T11:13:18Z</time>
      </trkpt>
      <trkpt lat="48.72585" lon="7.23563">
        <ele>273.5</ele>
        <time>2011-07-10T11:13:21Z</time>
      </trkpt>
      <trkpt lat="48.72587" lon="7.23577">
        <ele>274.5</ele>
        <time>2011-07-10T11:13:25Z</time>
      </trkpt>
      <trkpt lat="48.72588" lon="7.23592">
        <ele>275.5</ele>
        <time>2011-07-10T11:13:29Z</time>
      </trkpt>
      <trkpt lat="48.7259" lon="7.23607">
        <ele>276.5</ele>
        <time>2011-07-10T11:13:32Z</time>
      </trkpt>
      <trkpt lat="48.72593" lon="7.23619">
        <ele>277.5</ele>
        <time>2011-07-10T11:13:35Z</time>
      </trkpt>
      <trkpt lat="48.72596" lon="7.23632">
        <ele>278.2</ele>
        <time>2011-07-10T11:13:38Z</time>
      </trkpt>
      <trkpt lat="48.72594" lon="7.23646">
        <ele>278.8</ele>
        <time>2011-07-10T11:13:42Z</time>
      </trkpt>
      <trkpt lat="48.72593" lon="7.23659">
        <ele>280.1</ele>
        <time>2011-07-10T11:13:46Z</time>
      </trkpt>
      <trkpt lat="48.72595" lon="7.23671">
        <ele>281.4</ele>
        <time>2011-07-10T11:13:50Z</time>
      </trkpt>
      <trkpt lat="48.72597" lon="7.23685">
        <ele>282.6</ele>
        <time>2011-07-10T11:13:54Z</time>
      </trkpt>
      <trkpt lat="48.72599" lon="7.23698">
        <ele>283.9</ele>
        <time>2011-07-10T11:13:58Z</time>
      </trkpt>
      <trkpt lat="48.726" lon="7.2371">
        <ele>285.2</ele>
        <time>2011-07-10T11:14:02Z</time>
      </trkpt>
      <trkpt lat="48.726" lon="7.23724">
        <ele>285.8</ele>
        <time>2011-07-10T11:14:06Z</time>
      </trkpt>
      <trkpt lat="48.726" lon="7.23737">
        <ele>287.1</ele>
        <time>2011-07-10T11:14:10Z</time>
      </trkpt>
      <trkpt lat="48.726" lon="7.23752">
        <ele>288.4</ele>
        <time>2011-07-10T11:14:15Z</time>
      </trkpt>
      <trkpt lat="48.72602" lon="7.23766">
        <ele>289.6</ele>
        <time>2011-07-10T11:14:20Z</time>
      </trkpt>
      <trkpt lat="48.72603" lon="7.23778">
        <ele>290.9</ele>
        <time>2011-07-10T11:14:24Z</time>
      </trkpt>
      <trkpt lat="48.72604" lon="7.23792">
        <ele>292.2</ele>
        <time>2011-07-10T11:14:29Z</time>
      </trkpt>
      <trkpt lat="48.72603" lon="7.23806">
        <ele>292.8</ele>
        <time>2011-07-10T11:14:33Z</time>
      </trkpt>
      <trkpt lat="48.72602" lon="7.23821">
        <ele>293.3</ele>
        <time>2011-07-10T11:14:38Z</time>
      </trkpt>
      <trkpt lat="48.72601" lon="7.23834">
        <ele>293.7</ele>
        <time>2011-07-10T11:14:42Z</time>
      </trkpt>
      <trkpt lat="48.72601" lon="7.23849">
        <ele>294.2</ele>
        <time>2011-07-10T11:14:46Z</time>
      </trkpt>
      <trkpt lat="48.72597" lon="7.23862">
        <ele>294.6</ele>
        <time>2011-07-10T11:14:50Z</time>
      </trkpt>
      <trkpt lat="48.72593" lon="7.23876">
        <ele>295.1</ele>
        <time>2011-07-10T11:14:55Z</time>
      </trkpt>
      <trkpt lat="48.72592" lon="7.23889">
        <ele>294.9</ele>
        <time>2011-07-10T11:14:59Z</time>
      </trkpt>
      <trkpt lat="48.72592" lon="7.23903">
        <ele>294.9</ele>
        <time>2011-07-10T11:15:03Z</time>
      </trkpt>
      <trkpt lat="48.72592" lon="7.23916">
        <ele>294.9</ele>
        <time>2011-07-10T11:15:07Z</time>
      </trkpt>
      <trkpt lat="48.72589" lon="7.23929">
        <ele>294.9</ele>
        <time>2011-07-10T11:15:11Z</time>
      </trkpt>
      <trkpt lat="48.72586" lon="7.23943">
        <ele>294.9</ele>
        <time>2011-07-10T11:15:16Z</time>
      </trkpt>
      <trkpt lat="48.72584" lon="7.23957">
        <ele>294.9</ele>
        <time>2011-07-10T11:15:21Z</time>
      </trkpt>
      <trkpt lat="48.7258" lon="7.23972">
        <ele>295.1</ele>
        <time>2011-07-10T11:15:25Z</time>
      </trkpt>
      <trkpt lat="48.72575" lon="7.23982">
        <ele>295.4</ele>
        <time>2011-07-10T11:15:31Z</time>
      </trkpt>
      <trkpt lat="48.7257" lon="7.23995">
        <ele>295.6</ele>
        <time>2011-07-10T11:15:35Z</time>
      </trkpt>
      <trkpt lat="48.72571" lon="7.2401">
        <ele>295.9</ele>
        <time>2011-07-10T11:15:40Z</time>
      </trkpt>
      <trkpt lat="48.72568" lon="7.24023">
        <ele>296.2</ele>
        <time>2011-07-10T11:15:45Z</time>
      </trkpt>
      <trkpt lat="48.72563" lon="7.2404">
        <ele>296.5</ele>
        <time>2011-07-10T11:15:51Z</time>
      </trkpt>
      <trkpt lat="48.7256" lon="7.24054">
        <ele>296.5</ele>
        <time>2011-07-10T11:15:55Z</time>
      </trkpt>
      <trkpt lat="48.72558" lon="7.24066">
        <ele>296.5</ele>
        <time>2011-07-10T11:16:00Z</time>
      </trkpt>
      <trkpt lat="48.72557" lon="7.24081">
        <ele>296.5</ele>
        <time>2011-07-10T11:16:05Z</time>
      </trkpt>
      <trkpt lat="48.72553" lon="7.24093">
        <ele>296.5</ele>
        <time>2011-07-10T11:16:10Z</time>
      </trkpt>
      <trkpt lat="48.72556" lon="7.24106">
        <ele>296.5</ele>
        <time>2011-07-10T11:16:15Z</time>
      </trkpt>
      <trkpt lat="48.72552" lon="7.2412">
        <ele>296.5</ele>
        <time>2011-07-10T11:16:22Z</time>
      </trkpt>
      <trkpt lat="48.72555" lon="7.24135">
        <ele>296.5</ele>
        <time>2011-07-10T11:16:27Z</time>
      </trkpt>
      <trkpt lat="48.72553" lon="7.24148">
        <ele>296.5</ele>
        <time>2011-07-10T11:16:33Z</time>
      </trkpt>
      <trkpt lat="48.72553" lon="7.24162">
        <ele>296.6</ele>
        <time>2011-07-10T11:16:37Z</time>
      </trkpt>
      <trkpt lat="48.72554" lon="7.24176">
        <ele>296.7</ele>
        <time>2011-07-10T11:16:42Z</time>
      </trkpt>
      <trkpt lat="48.72557" lon="7.24189">
        <ele>296.8</ele>
        <time>2011-07-10T11:16:47Z</time>
      </trkpt>
      <trkpt lat="48.72559" lon="7.24206">
        <ele>297.8</ele>
        <time>2011-07-10T11:16:50Z</time>
      </trkpt>
      <trkpt lat="48.72564" lon="7.24228">
        <ele>298.9</ele>
        <time>2011-07-10T11:16:53Z</time>
      </trkpt>
      <trkpt lat="48.72571" lon="7.24245">
        <ele>300</ele>
        <time>2011-07-10T11:16:55Z</time>
      </trkpt>
      <trkpt lat="48.72575" lon="7.2426">
        <ele>301.1</ele>
        <time>2011-07-10T11:16:57Z</time>
      </trkpt>
      <trkpt lat="48.72581" lon="7.24277">
        <ele>302.2</ele>
        <time>2011-07-10T11:16:59Z</time>
      </trkpt>
      <trkpt lat="48.7259" lon="7.24296">
        <ele>298.8</ele>
        <time>2011-07-10T11:17:02Z</time>
      </trkpt>
      <trkpt lat="48.72595" lon="7.24311">
        <ele>295.9</ele>
        <time>2011-07-10T11:17:05Z</time>
      </trkpt>
      <trkpt lat="48.726" lon="7.24328">
        <ele>292.8</ele>
        <time>2011-07-10T11:17:09Z</time>
      </trkpt>
      <trkpt lat="48.72609" lon="7.24343">
        <ele>289.7</ele>
        <time>2011-07-10T11:17:12Z</time>
      </trkpt>
      <trkpt lat="48.7262" lon="7.24354">
        <ele>286.6</ele>
        <time>2011-07-10T11:17:14Z</time>
      </trkpt>
      <trkpt lat="48.72627" lon="7.24371">
        <ele>283.5</ele>
        <time>2011-07-10T11:17:17Z</time>
      </trkpt>
      <trkpt lat="48.72631" lon="7.24382">
        <ele>279.5</ele>
        <time>2011-07-10T11:17:19Z</time>
      </trkpt>
      <trkpt lat="48.72638" lon="7.24391">
        <ele>275.5</ele>
        <time>2011-07-10T11:17:22Z</time>
      </trkpt>
      <trkpt lat="48.72643" lon="7.24405">
        <ele>275.5</ele>
        <time>2011-07-10T11:17:25Z</time>
      </trkpt>
      <trkpt lat="48.72647" lon="7.24419">
        <ele>275.5</ele>
        <time>2011-07-10T11:17:28Z</time>
      </trkpt>
      <trkpt lat="48.72648" lon="7.24431">
        <ele>272.5</ele>
        <time>2011-07-10T11:17:31Z</time>
      </trkpt>
      <trkpt lat="48.72641" lon="7.24449">
        <ele>273.8</ele>
        <time>2011-07-10T11:17:37Z</time>
      </trkpt>
      <trkpt lat="48.72632" lon="7.24458">
        <ele>274.7</ele>
        <time>2011-07-10T11:17:42Z</time>
      </trkpt>
      <trkpt lat="48.72622" lon="7.24458">
        <ele>275.6</ele>
        <time>2011-07-10T11:17:45Z</time>
      </trkpt>
      <trkpt lat="48.72612" lon="7.24458">
        <ele>276.5</ele>
        <time>2011-07-10T11:17:48Z</time>
      </trkpt>
      <trkpt lat="48.72606" lon="7.24466">
        <ele>279.3</ele>
        <time>2011-07-10T11:17:53Z</time>
      </trkpt>
      <trkpt lat="48.72595" lon="7.24474">
        <ele>282</ele>
        <time>2011-07-10T11:17:58Z</time>
      </trkpt>
      <trkpt lat="48.72584" lon="7.24482">
        <ele>284.7</ele>
        <time>2011-07-10T11:18:03Z</time>
      </trkpt>
      <trkpt lat="48.72568" lon="7.2449">
        <ele>287.5</ele>
        <time>2011-07-10T11:18:07Z</time>
      </trkpt>
      <trkpt lat="48.72554" lon="7.24495">
        <ele>283.2</ele>
        <time>2011-07-10T11:18:10Z</time>
      </trkpt>
      <trkpt lat="48.72535" lon="7.24504">
        <ele>280.9</ele>
        <time>2011-07-10T11:18:13Z</time>
      </trkpt>
      <trkpt lat="48.72518" lon="7.24513">
        <ele>281.7</ele>
        <time>2011-07-10T11:18:16Z</time>
      </trkpt>
      <trkpt lat="48.72506" lon="7.24526">
        <ele>282.5</ele>
        <time>2011-07-10T11:18:20Z</time>
      </trkpt>
      <trkpt lat="48.72492" lon="7.24539">
        <ele>283.4</ele>
        <time>2011-07-10T11:18:23Z</time>
      </trkpt>
      <trkpt lat="48.72479" lon="7.24549">
        <ele>281.6</ele>
        <time>2011-07-10T11:18:26Z</time>
      </trkpt>
      <trkpt lat="48.72461" lon="7.24574">
        <ele>281.5</ele>
        <time>2011-07-10T11:18:30Z</time>
      </trkpt>
      <trkpt lat="48.7244" lon="7.24596">
        <ele>279.6</ele>
        <time>2011-07-10T11:18:34Z</time>
      </trkpt>
      <trkpt lat="48.7242" lon="7.24613">
        <ele>277.7</ele>
        <time>2011-07-10T11:18:39Z</time>
      </trkpt>
      <trkpt lat="48.724" lon="7.24631">
        <ele>275.8</ele>
        <time>2011-07-10T11:18:42Z</time>
      </trkpt>
      <trkpt lat="48.72387" lon="7.24659">
        <ele>273.9</ele>
        <time>2011-07-10T11:18:48Z</time>
      </trkpt>
      <trkpt lat="48.72366" lon="7.24679">
        <ele>275</ele>
        <time>2011-07-10T11:18:56Z</time>
      </trkpt>
      <trkpt lat="48.72341" lon="7.2468">
        <ele>272.8</ele>
        <time>2011-07-10T11:19:00Z</time>
      </trkpt>
      <trkpt lat="48.72332" lon="7.24679">
        <ele>270.6</ele>
        <time>2011-07-10T11:19:02Z</time>
      </trkpt>
      <trkpt lat="48.72323" lon="7.24678">
        <ele>268.5</ele>
        <time>2011-07-10T11:19:04Z</time>
      </trkpt>
      <trkpt lat="48.72312" lon="7.24677">
        <ele>266.3</ele>
        <time>2011-07-10T11:19:06Z</time>
      </trkpt>
      <trkpt lat="48.72302" lon="7.24677">
        <ele>266.6</ele>
        <time>2011-07-10T11:19:08Z</time>
      </trkpt>
      <trkpt lat="48.72292" lon="7.24675">
        <ele>265.4</ele>
        <time>2011-07-10T11:19:11Z</time>
      </trkpt>
      <trkpt lat="48.72285" lon="7.24669">
        <ele>267.1</ele>
        <time>2011-07-10T11:19:13Z</time>
      </trkpt>
      <trkpt lat="48.72278" lon="7.24662">
        <ele>268.8</ele>
        <time>2011-07-10T11:19:15Z</time>
      </trkpt>
      <trkpt lat="48.72266" lon="7.24653">
        <ele>270.5</ele>
        <time>2011-07-10T11:19:18Z</time>
      </trkpt>
      <trkpt lat="48.72257" lon="7.24648">
        <ele>272.3</ele>
        <time>2011-07-10T11:19:20Z</time>
      </trkpt>
      <trkpt lat="48.72246" lon="7.24642">
        <ele>273.3</ele>
        <time>2011-07-10T11:19:22Z</time>
      </trkpt>
      <trkpt lat="48.72237" lon="7.24636">
        <ele>275.5</ele>
        <time>2011-07-10T11:19:24Z</time>
      </trkpt>
      <trkpt lat="48.7223" lon="7.24628">
        <ele>277.8</ele>
        <time>2011-07-10T11:19:26Z</time>
      </trkpt>
      <trkpt lat="48.72223" lon="7.24619">
        <ele>280.1</ele>
        <time>2011-07-10T11:19:29Z</time>
      </trkpt>
      <trkpt lat="48.72216" lon="7.24609">
        <ele>282.4</ele>
        <time>2011-07-10T11:19:32Z</time>
      </trkpt>
      <trkpt lat="48.72209" lon="7.24594">
        <ele>284.6</ele>
        <time>2011-07-10T11:19:35Z</time>
      </trkpt>
      <trkpt lat="48.72204" lon="7.24584">
        <ele>286.9</ele>
        <time>2011-07-10T11:19:37Z</time>
      </trkpt>
      <trkpt lat="48.72198" lon="7.24572">
        <ele>286.2</ele>
        <time>2011-07-10T11:19:39Z</time>
      </trkpt>
      <trkpt lat="48.72189" lon="7.24568">
        <ele>285.5</ele>
        <time>2011-07-10T11:19:41Z</time>
      </trkpt>
      <trkpt lat="48.72177" lon="7.2457">
        <ele>284.7</ele>
        <time>2011-07-10T11:19:44Z</time>
      </trkpt>
      <trkpt lat="48.72167" lon="7.24578">
        <ele>286.3</ele>
        <time>2011-07-10T11:19:46Z</time>
      </trkpt>
      <trkpt lat="48.72156" lon="7.24586">
        <ele>288.5</ele>
        <time>2011-07-10T11:19:48Z</time>
      </trkpt>
      <trkpt lat="48.72152" lon="7.24603">
        <ele>290.8</ele>
        <time>2011-07-10T11:19:51Z</time>
      </trkpt>
      <trkpt lat="48.7214" lon="7.24613">
        <ele>293.1</ele>
        <time>2011-07-10T11:19:54Z</time>
      </trkpt>
      <trkpt lat="48.72129" lon="7.2462">
        <ele>291.5</ele>
        <time>2011-07-10T11:19:57Z</time>
      </trkpt>
      <trkpt lat="48.7212" lon="7.24623">
        <ele>290</ele>
        <time>2011-07-10T11:19:59Z</time>
      </trkpt>
      <trkpt lat="48.72111" lon="7.24625">
        <ele>288.5</ele>
        <time>2011-07-10T11:20:03Z</time>
      </trkpt>
      <trkpt lat="48.72103" lon="7.24628">
        <ele>288.3</ele>
        <time>2011-07-10T11:20:06Z</time>
      </trkpt>
      <trkpt lat="48.72092" lon="7.24633">
        <ele>288.1</ele>
        <time>2011-07-10T11:20:11Z</time>
      </trkpt>
      <trkpt lat="48.72077" lon="7.24639">
        <ele>287.9</ele>
        <time>2011-07-10T11:20:16Z</time>
      </trkpt>
      <trkpt lat="48.72061" lon="7.24646">
        <ele>287.7</ele>
        <time>2011-07-10T11:20:23Z</time>
      </trkpt>
      <trkpt lat="48.72048" lon="7.24655">
        <ele>285.3</ele>
        <time>2011-07-10T11:20:28Z</time>
      </trkpt>
      <trkpt lat="48.72022" lon="7.24665">
        <ele>282.2</ele>
        <time>2011-07-10T11:20:34Z</time>
      </trkpt>
      <trkpt lat="48.72001" lon="7.24679">
        <ele>279.1</ele>
        <time>2011-07-10T11:20:39Z</time>
      </trkpt>
      <trkpt lat="48.7199" lon="7.24686">
        <ele>276</ele>
        <time>2011-07-10T11:20:44Z</time>
      </trkpt>
      <trkpt lat="48.71981" lon="7.24689">
        <ele>276.7</ele>
        <time>2011-07-10T11:20:47Z</time>
      </trkpt>
      <trkpt lat="48.71973" lon="7.24688">
        <ele>277.5</ele>
        <time>2011-07-10T11:20:48Z</time>
      </trkpt>
      <trkpt lat="48.71962" lon="7.24685">
        <ele>278.2</ele>
        <time>2011-07-10T11:20:52Z</time>
      </trkpt>
      <trkpt lat="48.71954" lon="7.24681">
        <ele>277.5</ele>
        <time>2011-07-10T11:20:56Z</time>
      </trkpt>
      <trkpt lat="48.71947" lon="7.24674">
        <ele>277.5</ele>
        <time>2011-07-10T11:21:00Z</time>
      </trkpt>
      <trkpt lat="48.71936" lon="7.24672">
        <ele>274.9</ele>
        <time>2011-07-10T11:21:03Z</time>
      </trkpt>
      <trkpt lat="48.71937" lon="7.24689">
        <ele>274.9</ele>
        <time>2011-07-10T11:21:06Z</time>
      </trkpt>
      <trkpt lat="48.71948" lon="7.24697">
        <ele>274.9</ele>
        <time>2011-07-10T11:21:08Z</time>
      </trkpt>
      <trkpt lat="48.71959" lon="7.24709">
        <ele>275.5</ele>
        <time>2011-07-10T11:21:10Z</time>
      </trkpt>
      <trkpt lat="48.7197" lon="7.24717">
        <ele>276.2</ele>
        <time>2011-07-10T11:21:12Z</time>
      </trkpt>
      <trkpt lat="48.71982" lon="7.24722">
        <ele>276.8</ele>
        <time>2011-07-10T11:21:14Z</time>
      </trkpt>
      <trkpt lat="48.71997" lon="7.24718">
        <ele>276.1</ele>
        <time>2011-07-10T11:21:16Z</time>
      </trkpt>
      <trkpt lat="48.72007" lon="7.24717">
        <ele>275.4</ele>
        <time>2011-07-10T11:21:18Z</time>
      </trkpt>
      <trkpt lat="48.72019" lon="7.24716">
        <ele>274.6</ele>
        <time>2011-07-10T11:21:20Z</time>
      </trkpt>
      <trkpt lat="48.72032" lon="7.24717">
        <ele>273.9</ele>
        <time>2011-07-10T11:21:22Z</time>
      </trkpt>
      <trkpt lat="48.72044" lon="7.24717">
        <ele>272.5</ele>
        <time>2011-07-10T11:21:24Z</time>
      </trkpt>
      <trkpt lat="48.72055" lon="7.24715">
        <ele>273.8</ele>
        <time>2011-07-10T11:21:26Z</time>
      </trkpt>
      <trkpt lat="48.72064" lon="7.24717">
        <ele>272.5</ele>
        <time>2011-07-10T11:21:28Z</time>
      </trkpt>
      <trkpt lat="48.72076" lon="7.24717">
        <ele>270.3</ele>
        <time>2011-07-10T11:21:30Z</time>
      </trkpt>
      <trkpt lat="48.72088" lon="7.24715">
        <ele>268.1</ele>
        <time>2011-07-10T11:21:33Z</time>
      </trkpt>
      <trkpt lat="48.72096" lon="7.24713">
        <ele>265.9</ele>
        <time>2011-07-10T11:21:37Z</time>
      </trkpt>
      <trkpt lat="48.72108" lon="7.24716">
        <ele>263.7</ele>
        <time>2011-07-10T11:21:42Z</time>
      </trkpt>
      <trkpt lat="48.72119" lon="7.24712">
        <ele>262.9</ele>
        <time>2011-07-10T11:21:44Z</time>
      </trkpt>
      <trkpt lat="48.72132" lon="7.24712">
        <ele>262.1</ele>
        <time>2011-07-10T11:21:46Z</time>
      </trkpt>
      <trkpt lat="48.72148" lon="7.24713">
        <ele>261.3</ele>
        <time>2011-07-10T11:21:48Z</time>
      </trkpt>
      <trkpt lat="48.72159" lon="7.24712">
        <ele>259.9</ele>
        <time>2011-07-10T11:21:49Z</time>
      </trkpt>
      <trkpt lat="48.72172" lon="7.24707">
        <ele>258.2</ele>
        <time>2011-07-10T11:21:50Z</time>
      </trkpt>
      <trkpt lat="48.72181" lon="7.24709">
        <ele>256.5</ele>
        <time>2011-07-10T11:21:51Z</time>
      </trkpt>
      <trkpt lat="48.72189" lon="7.24713">
        <ele>254.7</ele>
        <time>2011-07-10T11:21:52Z</time>
      </trkpt>
      <trkpt lat="48.72197" lon="7.24718">
        <ele>253.8</ele>
        <time>2011-07-10T11:21:53Z</time>
      </trkpt>
      <trkpt lat="48.72206" lon="7.24725">
        <ele>252.9</ele>
        <time>2011-07-10T11:21:54Z</time>
      </trkpt>
      <trkpt lat="48.72214" lon="7.24734">
        <ele>252</ele>
        <time>2011-07-10T11:21:55Z</time>
      </trkpt>
      <trkpt lat="48.72222" lon="7.24745">
        <ele>251.1</ele>
        <time>2011-07-10T11:21:56Z</time>
      </trkpt>
      <trkpt lat="48.72231" lon="7.24756">
        <ele>250.2</ele>
        <time>2011-07-10T11:21:57Z</time>
      </trkpt>
      <trkpt lat="48.72238" lon="7.24767">
        <ele>249.3</ele>
        <time>2011-07-10T11:21:58Z</time>
      </trkpt>
      <trkpt lat="48.72244" lon="7.24774">
        <ele>248.4</ele>
        <time>2011-07-10T11:21:59Z</time>
      </trkpt>
      <trkpt lat="48.72255" lon="7.24782">
        <ele>248</ele>
        <time>2011-07-10T11:22:01Z</time>
      </trkpt>
      <trkpt lat="48.72257" lon="7.24769">
        <ele>248</ele>
        <time>2011-07-10T11:22:12Z</time>
      </trkpt>
      <trkpt lat="48.72249" lon="7.24771">
        <ele>249.4</ele>
        <time>2011-07-10T11:22:18Z</time>
      </trkpt>
      <trkpt lat="48.72257" lon="7.24778">
        <ele>250.7</ele>
        <time>2011-07-10T11:28:40Z</time>
      </trkpt>
      <trkpt lat="48.72266" lon="7.24782">
        <ele>250.4</ele>
        <time>2011-07-10T11:28:47Z</time>
      </trkpt>
      <trkpt lat="48.72272" lon="7.24789">
        <ele>250</ele>
        <time>2011-07-10T11:28:51Z</time>
      </trkpt>
      <trkpt lat="48.72279" lon="7.24798">
        <ele>249.6</ele>
        <time>2011-07-10T11:28:54Z</time>
      </trkpt>
      <trkpt lat="48.7229" lon="7.24805">
        <ele>249.3</ele>
        <time>2011-07-10T11:28:57Z</time>
      </trkpt>
      <trkpt lat="48.72298" lon="7.24809">
        <ele>248.9</ele>
        <time>2011-07-10T11:28:59Z</time>
      </trkpt>
      <trkpt lat="48.72307" lon="7.24816">
        <ele>248.5</ele>
        <time>2011-07-10T11:29:02Z</time>
      </trkpt>
      <trkpt lat="48.72317" lon="7.2482">
        <ele>248.2</ele>
        <time>2011-07-10T11:29:05Z</time>
      </trkpt>
      <trkpt lat="48.72328" lon="7.24821">
        <ele>247.8</ele>
        <time>2011-07-10T11:29:08Z</time>
      </trkpt>
      <trkpt lat="48.72336" lon="7.2482">
        <ele>247.3</ele>
        <time>2011-07-10T11:29:11Z</time>
      </trkpt>
      <trkpt lat="48.72346" lon="7.24822">
        <ele>245.4</ele>
        <time>2011-07-10T11:29:14Z</time>
      </trkpt>
      <trkpt lat="48.72355" lon="7.24825">
        <ele>243.5</ele>
        <time>2011-07-10T11:29:17Z</time>
      </trkpt>
      <trkpt lat="48.72365" lon="7.24827">
        <ele>243.3</ele>
        <time>2011-07-10T11:29:20Z</time>
      </trkpt>
      <trkpt lat="48.72374" lon="7.24827">
        <ele>243.1</ele>
        <time>2011-07-10T11:29:22Z</time>
      </trkpt>
      <trkpt lat="48.72385" lon="7.24825">
        <ele>242.9</ele>
        <time>2011-07-10T11:29:25Z</time>
      </trkpt>
      <trkpt lat="48.72393" lon="7.24822">
        <ele>242.7</ele>
        <time>2011-07-10T11:29:27Z</time>
      </trkpt>
      <trkpt lat="48.72403" lon="7.24818">
        <ele>242.5</ele>
        <time>2011-07-10T11:29:30Z</time>
      </trkpt>
      <trkpt lat="48.72411" lon="7.24825">
        <ele>242.4</ele>
        <time>2011-07-10T11:29:45Z</time>
      </trkpt>
      <trkpt lat="48.72419" lon="7.24827">
        <ele>242.2</ele>
        <time>2011-07-10T11:30:02Z</time>
      </trkpt>
      <trkpt lat="48.72427" lon="7.24825">
        <ele>241.3</ele>
        <time>2011-07-10T11:30:12Z</time>
      </trkpt>
      <trkpt lat="48.72435" lon="7.24822">
        <ele>240.5</ele>
        <time>2011-07-10T11:30:19Z</time>
      </trkpt>
      <trkpt lat="48.72443" lon="7.24818">
        <ele>239.8</ele>
        <time>2011-07-10T11:30:26Z</time>
      </trkpt>
      <trkpt lat="48.72449" lon="7.24809">
        <ele>239.1</ele>
        <time>2011-07-10T11:30:33Z</time>
      </trkpt>
      <trkpt lat="48.72457" lon="7.24804">
        <ele>238.4</ele>
        <time>2011-07-10T11:30:38Z</time>
      </trkpt>
      <trkpt lat="48.72465" lon="7.24799">
        <ele>237.6</ele>
        <time>2011-07-10T11:30:42Z</time>
      </trkpt>
      <trkpt lat="48.72474" lon="7.24796">
        <ele>236.9</ele>
        <time>2011-07-10T11:30:46Z</time>
      </trkpt>
      <trkpt lat="48.72482" lon="7.24789">
        <ele>236.2</ele>
        <time>2011-07-10T11:30:49Z</time>
      </trkpt>
      <trkpt lat="48.72492" lon="7.2478">
        <ele>235.5</ele>
        <time>2011-07-10T11:30:52Z</time>
      </trkpt>
      <trkpt lat="48.725" lon="7.24769">
        <ele>236.1</ele>
        <time>2011-07-10T11:30:55Z</time>
      </trkpt>
      <trkpt lat="48.72512" lon="7.24769">
        <ele>236.7</ele>
        <time>2011-07-10T11:30:58Z</time>
      </trkpt>
      <trkpt lat="48.72522" lon="7.24769">
        <ele>238.1</ele>
        <time>2011-07-10T11:31:02Z</time>
      </trkpt>
      <trkpt lat="48.72531" lon="7.24766">
        <ele>239.5</ele>
        <time>2011-07-10T11:31:05Z</time>
      </trkpt>
      <trkpt lat="48.72544" lon="7.24764">
        <ele>240.8</ele>
        <time>2011-07-10T11:31:10Z</time>
      </trkpt>
      <trkpt lat="48.72553" lon="7.24765">
        <ele>242.2</ele>
        <time>2011-07-10T11:31:13Z</time>
      </trkpt>
      <trkpt lat="48.72562" lon="7.24765">
        <ele>243.5</ele>
        <time>2011-07-10T11:31:17Z</time>
      </trkpt>
      <trkpt lat="48.72571" lon="7.24764">
        <ele>244.9</ele>
        <time>2011-07-10T11:31:22Z</time>
      </trkpt>
      <trkpt lat="48.7258" lon="7.2476">
        <ele>246.2</ele>
        <time>2011-07-10T11:31:25Z</time>
      </trkpt>
      <trkpt lat="48.72588" lon="7.24756">
        <ele>247.5</ele>
        <time>2011-07-10T11:31:29Z</time>
      </trkpt>
      <trkpt lat="48.72598" lon="7.24758">
        <ele>248.7</ele>
        <time>2011-07-10T11:31:34Z</time>
      </trkpt>
      <trkpt lat="48.72609" lon="7.24759">
        <ele>248.6</ele>
        <time>2011-07-10T11:31:39Z</time>
      </trkpt>
      <trkpt lat="48.72619" lon="7.24759">
        <ele>248.5</ele>
        <time>2011-07-10T11:31:45Z</time>
      </trkpt>
      <trkpt lat="48.72627" lon="7.24759">
        <ele>248.5</ele>
        <time>2011-07-10T11:31:52Z</time>
      </trkpt>
      <trkpt lat="48.72636" lon="7.24763">
        <ele>248.4</ele>
        <time>2011-07-10T11:31:59Z</time>
      </trkpt>
      <trkpt lat="48.72644" lon="7.24761">
        <ele>248.3</ele>
        <time>2011-07-10T11:32:05Z</time>
      </trkpt>
      <trkpt lat="48.72653" lon="7.24761">
        <ele>248.2</ele>
        <time>2011-07-10T11:32:11Z</time>
      </trkpt>
      <trkpt lat="48.72662" lon="7.24764">
        <ele>248.1</ele>
        <time>2011-07-10T11:32:17Z</time>
      </trkpt>
      <trkpt lat="48.7267" lon="7.2477">
        <ele>246.5</ele>
        <time>2011-07-10T11:32:25Z</time>
      </trkpt>
      <trkpt lat="48.72678" lon="7.24773">
        <ele>246.4</ele>
        <time>2011-07-10T11:32:29Z</time>
      </trkpt>
      <trkpt lat="48.72687" lon="7.24781">
        <ele>246.2</ele>
        <time>2011-07-10T11:32:34Z</time>
      </trkpt>
      <trkpt lat="48.72695" lon="7.24786">
        <ele>246</ele>
        <time>2011-07-10T11:32:40Z</time>
      </trkpt>
      <trkpt lat="48.72703" lon="7.24792">
        <ele>245.8</ele>
        <time>2011-07-10T11:32:43Z</time>
      </trkpt>
      <trkpt lat="48.7271" lon="7.24797">
        <ele>245.6</ele>
        <time>2011-07-10T11:32:48Z</time>
      </trkpt>
      <trkpt lat="48.72717" lon="7.24805">
        <ele>245.5</ele>
        <time>2011-07-10T11:32:54Z</time>
      </trkpt>
      <trkpt lat="48.72723" lon="7.24813">
        <ele>245.3</ele>
        <time>2011-07-10T11:33:00Z</time>
      </trkpt>
      <trkpt lat="48.72727" lon="7.24826">
        <ele>246.5</ele>
        <time>2011-07-10T11:33:06Z</time>
      </trkpt>
      <trkpt lat="48.72733" lon="7.24835">
        <ele>247.6</ele>
        <time>2011-07-10T11:33:13Z</time>
      </trkpt>
      <trkpt lat="48.72735" lon="7.2485">
        <ele>248.8</ele>
        <time>2011-07-10T11:33:19Z</time>
      </trkpt>
      <trkpt lat="48.72732" lon="7.24863">
        <ele>251.5</ele>
        <time>2011-07-10T11:33:24Z</time>
      </trkpt>
      <trkpt lat="48.72734" lon="7.24875">
        <ele>252.8</ele>
        <time>2011-07-10T11:33:30Z</time>
      </trkpt>
      <trkpt lat="48.72737" lon="7.24887">
        <ele>254.2</ele>
        <time>2011-07-10T11:33:40Z</time>
      </trkpt>
      <trkpt lat="48.72739" lon="7.249">
        <ele>256.7</ele>
        <time>2011-07-10T11:33:47Z</time>
      </trkpt>
      <trkpt lat="48.72739" lon="7.24914">
        <ele>259.3</ele>
        <time>2011-07-10T11:33:56Z</time>
      </trkpt>
      <trkpt lat="48.72737" lon="7.24928">
        <ele>261.8</ele>
        <time>2011-07-10T11:34:02Z</time>
      </trkpt>
      <trkpt lat="48.72741" lon="7.24939">
        <ele>264.4</ele>
        <time>2011-07-10T11:34:13Z</time>
      </trkpt>
      <trkpt lat="48.72745" lon="7.24952">
        <ele>266.9</ele>
        <time>2011-07-10T11:34:19Z</time>
      </trkpt>
      <trkpt lat="48.72746" lon="7.24967">
        <ele>268.1</ele>
        <time>2011-07-10T11:34:23Z</time>
      </trkpt>
      <trkpt lat="48.72748" lon="7.24983">
        <ele>270.5</ele>
        <time>2011-07-10T11:34:27Z</time>
      </trkpt>
      <trkpt lat="48.72751" lon="7.24997">
        <ele>272.8</ele>
        <time>2011-07-10T11:34:30Z</time>
      </trkpt>
      <trkpt lat="48.72754" lon="7.25009">
        <ele>275.2</ele>
        <time>2011-07-10T11:34:33Z</time>
      </trkpt>
      <trkpt lat="48.72756" lon="7.25021">
        <ele>277.5</ele>
        <time>2011-07-10T11:34:35Z</time>
      </trkpt>
      <trkpt lat="48.72759" lon="7.25038">
        <ele>279.9</ele>
        <time>2011-07-10T11:34:38Z</time>
      </trkpt>
      <trkpt lat="48.72765" lon="7.2505">
        <ele>281.1</ele>
        <time>2011-07-10T11:34:41Z</time>
      </trkpt>
      <trkpt lat="48.72769" lon="7.25067">
        <ele>279</ele>
        <time>2011-07-10T11:34:44Z</time>
      </trkpt>
      <trkpt lat="48.72774" lon="7.2508">
        <ele>278.3</ele>
        <time>2011-07-10T11:34:47Z</time>
      </trkpt>
      <trkpt lat="48.72781" lon="7.25096">
        <ele>277.5</ele>
        <time>2011-07-10T11:34:50Z</time>
      </trkpt>
      <trkpt lat="48.72788" lon="7.25106">
        <ele>276.8</ele>
        <time>2011-07-10T11:34:53Z</time>
      </trkpt>
      <trkpt lat="48.72794" lon="7.25114">
        <ele>276.1</ele>
        <time>2011-07-10T11:34:55Z</time>
      </trkpt>
      <trkpt lat="48.728" lon="7.25123">
        <ele>274.2</ele>
        <time>2011-07-10T11:34:57Z</time>
      </trkpt>
      <trkpt lat="48.72806" lon="7.25135">
        <ele>272.3</ele>
        <time>2011-07-10T11:34:59Z</time>
      </trkpt>
      <trkpt lat="48.72809" lon="7.25148">
        <ele>270.4</ele>
        <time>2011-07-10T11:35:01Z</time>
      </trkpt>
      <trkpt lat="48.72815" lon="7.2516">
        <ele>269.5</ele>
        <time>2011-07-10T11:35:03Z</time>
      </trkpt>
      <trkpt lat="48.72821" lon="7.25173">
        <ele>268.7</ele>
        <time>2011-07-10T11:35:05Z</time>
      </trkpt>
      <trkpt lat="48.72824" lon="7.25184">
        <ele>267.9</ele>
        <time>2011-07-10T11:35:07Z</time>
      </trkpt>
      <trkpt lat="48.72828" lon="7.25195">
        <ele>270.4</ele>
        <time>2011-07-10T11:35:09Z</time>
      </trkpt>
      <trkpt lat="48.72832" lon="7.25211">
        <ele>271.5</ele>
        <time>2011-07-10T11:35:12Z</time>
      </trkpt>
      <trkpt lat="48.72835" lon="7.25225">
        <ele>273.5</ele>
        <time>2011-07-10T11:35:15Z</time>
      </trkpt>
      <trkpt lat="48.72838" lon="7.25237">
        <ele>275.5</ele>
        <time>2011-07-10T11:35:21Z</time>
      </trkpt>
      <trkpt lat="48.72838" lon="7.2525">
        <ele>277.5</ele>
        <time>2011-07-10T11:35:24Z</time>
      </trkpt>
      <trkpt lat="48.72845" lon="7.25266">
        <ele>277.3</ele>
        <time>2011-07-10T11:35:27Z</time>
      </trkpt>
      <trkpt lat="48.72849" lon="7.25283">
        <ele>277.1</ele>
        <time>2011-07-10T11:35:29Z</time>
      </trkpt>
      <trkpt lat="48.72852" lon="7.25297">
        <ele>276.9</ele>
        <time>2011-07-10T11:35:30Z</time>
      </trkpt>
      <trkpt lat="48.72859" lon="7.25308">
        <ele>275.6</ele>
        <time>2011-07-10T11:35:31Z</time>
      </trkpt>
      <trkpt lat="48.72871" lon="7.25329">
        <ele>274.4</ele>
        <time>2011-07-10T11:35:33Z</time>
      </trkpt>
      <trkpt lat="48.72885" lon="7.25337">
        <ele>273.1</ele>
        <time>2011-07-10T11:35:35Z</time>
      </trkpt>
      <trkpt lat="48.72897" lon="7.25337">
        <ele>271.8</ele>
        <time>2011-07-10T11:35:36Z</time>
      </trkpt>
      <trkpt lat="48.72905" lon="7.25333">
        <ele>270.5</ele>
        <time>2011-07-10T11:35:37Z</time>
      </trkpt>
      <trkpt lat="48.72913" lon="7.25329">
        <ele>268.4</ele>
        <time>2011-07-10T11:35:38Z</time>
      </trkpt>
      <trkpt lat="48.72921" lon="7.25323">
        <ele>266.9</ele>
        <time>2011-07-10T11:35:39Z</time>
      </trkpt>
      <trkpt lat="48.72929" lon="7.25318">
        <ele>265.5</ele>
        <time>2011-07-10T11:35:40Z</time>
      </trkpt>
      <trkpt lat="48.72943" lon="7.25316">
        <ele>266.2</ele>
        <time>2011-07-10T11:35:42Z</time>
      </trkpt>
      <trkpt lat="48.72953" lon="7.25313">
        <ele>266.9</ele>
        <time>2011-07-10T11:35:45Z</time>
      </trkpt>
      <trkpt lat="48.72962" lon="7.25313">
        <ele>267.6</ele>
        <time>2011-07-10T11:35:49Z</time>
      </trkpt>
      <trkpt lat="48.72971" lon="7.25314">
        <ele>268.4</ele>
        <time>2011-07-10T11:35:52Z</time>
      </trkpt>
      <trkpt lat="48.72979" lon="7.25314">
        <ele>269.1</ele>
        <time>2011-07-10T11:35:55Z</time>
      </trkpt>
      <trkpt lat="48.72989" lon="7.25313">
        <ele>269.8</ele>
        <time>2011-07-10T11:35:58Z</time>
      </trkpt>
      <trkpt lat="48.73" lon="7.25312">
        <ele>270.7</ele>
        <time>2011-07-10T11:36:01Z</time>
      </trkpt>
      <trkpt lat="48.73012" lon="7.25311">
        <ele>271.6</ele>
        <time>2011-07-10T11:36:04Z</time>
      </trkpt>
      <trkpt lat="48.73021" lon="7.25314">
        <ele>272.5</ele>
        <time>2011-07-10T11:36:07Z</time>
      </trkpt>
      <trkpt lat="48.73031" lon="7.25319">
        <ele>272.7</ele>
        <time>2011-07-10T11:36:10Z</time>
      </trkpt>
      <trkpt lat="48.7304" lon="7.25322">
        <ele>272.9</ele>
        <time>2011-07-10T11:36:13Z</time>
      </trkpt>
      <trkpt lat="48.7305" lon="7.2532">
        <ele>273.1</ele>
        <time>2011-07-10T11:36:17Z</time>
      </trkpt>
      <trkpt lat="48.73059" lon="7.25319">
        <ele>270.2</ele>
        <time>2011-07-10T11:36:20Z</time>
      </trkpt>
      <trkpt lat="48.73067" lon="7.25315">
        <ele>267.3</ele>
        <time>2011-07-10T11:36:22Z</time>
      </trkpt>
      <trkpt lat="48.73078" lon="7.2531">
        <ele>265.3</ele>
        <time>2011-07-10T11:36:24Z</time>
      </trkpt>
      <trkpt lat="48.73092" lon="7.25303">
        <ele>263.3</ele>
        <time>2011-07-10T11:36:27Z</time>
      </trkpt>
      <trkpt lat="48.73103" lon="7.25296">
        <ele>261.3</ele>
        <time>2011-07-10T11:36:29Z</time>
      </trkpt>
      <trkpt lat="48.73112" lon="7.25292">
        <ele>259.1</ele>
        <time>2011-07-10T11:36:32Z</time>
      </trkpt>
      <trkpt lat="48.73124" lon="7.25292">
        <ele>256.9</ele>
        <time>2011-07-10T11:36:35Z</time>
      </trkpt>
      <trkpt lat="48.73132" lon="7.25292">
        <ele>254.7</ele>
        <time>2011-07-10T11:36:37Z</time>
      </trkpt>
      <trkpt lat="48.73141" lon="7.25287">
        <ele>252.5</ele>
        <time>2011-07-10T11:36:39Z</time>
      </trkpt>
      <trkpt lat="48.73149" lon="7.2528">
        <ele>250.4</ele>
        <time>2011-07-10T11:36:41Z</time>
      </trkpt>
      <trkpt lat="48.73158" lon="7.25269">
        <ele>248.2</ele>
        <time>2011-07-10T11:36:43Z</time>
      </trkpt>
      <trkpt lat="48.73167" lon="7.25262">
        <ele>250.7</ele>
        <time>2011-07-10T11:36:45Z</time>
      </trkpt>
      <trkpt lat="48.73177" lon="7.2526">
        <ele>253.3</ele>
        <time>2011-07-10T11:36:48Z</time>
      </trkpt>
      <trkpt lat="48.73185" lon="7.25255">
        <ele>254.9</ele>
        <time>2011-07-10T11:36:50Z</time>
      </trkpt>
      <trkpt lat="48.73197" lon="7.25248">
        <ele>256.5</ele>
        <time>2011-07-10T11:36:53Z</time>
      </trkpt>
      <trkpt lat="48.73206" lon="7.25242">
        <ele>255.2</ele>
        <time>2011-07-10T11:36:55Z</time>
      </trkpt>
      <trkpt lat="48.73214" lon="7.25235">
        <ele>253.8</ele>
        <time>2011-07-10T11:36:57Z</time>
      </trkpt>
      <trkpt lat="48.73222" lon="7.25231">
        <ele>252.5</ele>
        <time>2011-07-10T11:36:59Z</time>
      </trkpt>
      <trkpt lat="48.73232" lon="7.25224">
        <ele>251.1</ele>
        <time>2011-07-10T11:37:01Z</time>
      </trkpt>
      <trkpt lat="48.73239" lon="7.25217">
        <ele>249.7</ele>
        <time>2011-07-10T11:37:03Z</time>
      </trkpt>
      <trkpt lat="48.73249" lon="7.25212">
        <ele>248.4</ele>
        <time>2011-07-10T11:37:06Z</time>
      </trkpt>
      <trkpt lat="48.73259" lon="7.25211">
        <ele>247.7</ele>
        <time>2011-07-10T11:37:11Z</time>
      </trkpt>
      <trkpt lat="48.7327" lon="7.25211">
        <ele>245.5</ele>
        <time>2011-07-10T11:37:16Z</time>
      </trkpt>
      <trkpt lat="48.73279" lon="7.2521">
        <ele>245.9</ele>
        <time>2011-07-10T11:37:20Z</time>
      </trkpt>
      <trkpt lat="48.73288" lon="7.25207">
        <ele>246.4</ele>
        <time>2011-07-10T11:37:25Z</time>
      </trkpt>
      <trkpt lat="48.73296" lon="7.25208">
        <ele>246.8</ele>
        <time>2011-07-10T11:37:29Z</time>
      </trkpt>
      <trkpt lat="48.73306" lon="7.25211">
        <ele>250.3</ele>
        <time>2011-07-10T11:37:33Z</time>
      </trkpt>
      <trkpt lat="48.73315" lon="7.25213">
        <ele>253.7</ele>
        <time>2011-07-10T11:37:37Z</time>
      </trkpt>
      <trkpt lat="48.73323" lon="7.25216">
        <ele>257.2</ele>
        <time>2011-07-10T11:37:41Z</time>
      </trkpt>
      <trkpt lat="48.73332" lon="7.25224">
        <ele>260.6</ele>
        <time>2011-07-10T11:37:49Z</time>
      </trkpt>
      <trkpt lat="48.73339" lon="7.25232">
        <ele>264.1</ele>
        <time>2011-07-10T11:37:53Z</time>
      </trkpt>
      <trkpt lat="48.73347" lon="7.25242">
        <ele>268.8</ele>
        <time>2011-07-10T11:37:57Z</time>
      </trkpt>
      <trkpt lat="48.73351" lon="7.25254">
        <ele>272.8</ele>
        <time>2011-07-10T11:38:01Z</time>
      </trkpt>
      <trkpt lat="48.73357" lon="7.25263">
        <ele>276.8</ele>
        <time>2011-07-10T11:38:05Z</time>
      </trkpt>
      <trkpt lat="48.73361" lon="7.25274">
        <ele>278.1</ele>
        <time>2011-07-10T11:38:09Z</time>
      </trkpt>
      <trkpt lat="48.73363" lon="7.25287">
        <ele>279.4</ele>
        <time>2011-07-10T11:38:14Z</time>
      </trkpt>
      <trkpt lat="48.73365" lon="7.25299">
        <ele>280.6</ele>
        <time>2011-07-10T11:38:23Z</time>
      </trkpt>
      <trkpt lat="48.73364" lon="7.25314">
        <ele>281.9</ele>
        <time>2011-07-10T11:38:32Z</time>
      </trkpt>
      <trkpt lat="48.73361" lon="7.25327">
        <ele>283</ele>
        <time>2011-07-10T11:38:39Z</time>
      </trkpt>
      <trkpt lat="48.73357" lon="7.25339">
        <ele>284.1</ele>
        <time>2011-07-10T11:38:45Z</time>
      </trkpt>
      <trkpt lat="48.73351" lon="7.25351">
        <ele>285.2</ele>
        <time>2011-07-10T11:38:50Z</time>
      </trkpt>
      <trkpt lat="48.73349" lon="7.25364">
        <ele>286.3</ele>
        <time>2011-07-10T11:38:53Z</time>
      </trkpt>
      <trkpt lat="48.73346" lon="7.25376">
        <ele>286.1</ele>
        <time>2011-07-10T11:38:56Z</time>
      </trkpt>
      <trkpt lat="48.73338" lon="7.25389">
        <ele>284.9</ele>
        <time>2011-07-10T11:39:00Z</time>
      </trkpt>
      <trkpt lat="48.73335" lon="7.25402">
        <ele>283.7</ele>
        <time>2011-07-10T11:39:03Z</time>
      </trkpt>
      <trkpt lat="48.73331" lon="7.25416">
        <ele>282.5</ele>
        <time>2011-07-10T11:39:07Z</time>
      </trkpt>
      <trkpt lat="48.73326" lon="7.25429">
        <ele>281.4</ele>
        <time>2011-07-10T11:39:10Z</time>
      </trkpt>
      <trkpt lat="48.73322" lon="7.25448">
        <ele>280.2</ele>
        <time>2011-07-10T11:39:13Z</time>
      </trkpt>
      <trkpt lat="48.73319" lon="7.25465">
        <ele>278.3</ele>
        <time>2011-07-10T11:39:16Z</time>
      </trkpt>
      <trkpt lat="48.73316" lon="7.25483">
        <ele>279.6</ele>
        <time>2011-07-10T11:39:19Z</time>
      </trkpt>
      <trkpt lat="48.73315" lon="7.25497">
        <ele>281</ele>
        <time>2011-07-10T11:39:21Z</time>
      </trkpt>
      <trkpt lat="48.73311" lon="7.25515">
        <ele>282.4</ele>
        <time>2011-07-10T11:39:23Z</time>
      </trkpt>
      <trkpt lat="48.73306" lon="7.25533">
        <ele>283.7</ele>
        <time>2011-07-10T11:39:25Z</time>
      </trkpt>
      <trkpt lat="48.73298" lon="7.25551">
        <ele>284.6</ele>
        <time>2011-07-10T11:39:27Z</time>
      </trkpt>
      <trkpt lat="48.73288" lon="7.25572">
        <ele>286.5</ele>
        <time>2011-07-10T11:39:29Z</time>
      </trkpt>
      <trkpt lat="48.73279" lon="7.25588">
        <ele>288.5</ele>
        <time>2011-07-10T11:39:31Z</time>
      </trkpt>
      <trkpt lat="48.73271" lon="7.25606">
        <ele>290.4</ele>
        <time>2011-07-10T11:39:34Z</time>
      </trkpt>
      <trkpt lat="48.73271" lon="7.25624">
        <ele>292.3</ele>
        <time>2011-07-10T11:39:36Z</time>
      </trkpt>
      <trkpt lat="48.73267" lon="7.25642">
        <ele>293.6</ele>
        <time>2011-07-10T11:39:38Z</time>
      </trkpt>
      <trkpt lat="48.73267" lon="7.25659">
        <ele>295.7</ele>
        <time>2011-07-10T11:39:40Z</time>
      </trkpt>
      <trkpt lat="48.7327" lon="7.25676">
        <ele>294.7</ele>
        <time>2011-07-10T11:39:42Z</time>
      </trkpt>
      <trkpt lat="48.73268" lon="7.25693">
        <ele>293.7</ele>
        <time>2011-07-10T11:39:44Z</time>
      </trkpt>
      <trkpt lat="48.73267" lon="7.25708">
        <ele>292.7</ele>
        <time>2011-07-10T11:39:46Z</time>
      </trkpt>
      <trkpt lat="48.73265" lon="7.25722">
        <ele>291.7</ele>
        <time>2011-07-10T11:39:48Z</time>
      </trkpt>
      <trkpt lat="48.73265" lon="7.25735">
        <ele>290.5</ele>
        <time>2011-07-10T11:39:50Z</time>
      </trkpt>
      <trkpt lat="48.73264" lon="7.25748">
        <ele>289.4</ele>
        <time>2011-07-10T11:39:52Z</time>
      </trkpt>
      <trkpt lat="48.7326" lon="7.2576">
        <ele>288.2</ele>
        <time>2011-07-10T11:39:54Z</time>
      </trkpt>
      <trkpt lat="48.73258" lon="7.25775">
        <ele>287</ele>
        <time>2011-07-10T11:39:57Z</time>
      </trkpt>
      <trkpt lat="48.73253" lon="7.2579">
        <ele>285.8</ele>
        <time>2011-07-10T11:40:00Z</time>
      </trkpt>
      <trkpt lat="48.7325" lon="7.25805">
        <ele>285.2</ele>
        <time>2011-07-10T11:40:03Z</time>
      </trkpt>
      <trkpt lat="48.73244" lon="7.25815">
        <ele>284.5</ele>
        <time>2011-07-10T11:40:06Z</time>
      </trkpt>
      <trkpt lat="48.73244" lon="7.2583">
        <ele>283.7</ele>
        <time>2011-07-10T11:40:11Z</time>
      </trkpt>
      <trkpt lat="48.73244" lon="7.25843">
        <ele>283</ele>
        <time>2011-07-10T11:40:14Z</time>
      </trkpt>
      <trkpt lat="48.73243" lon="7.25859">
        <ele>282.3</ele>
        <time>2011-07-10T11:40:17Z</time>
      </trkpt>
      <trkpt lat="48.73243" lon="7.25872">
        <ele>281.5</ele>
        <time>2011-07-10T11:40:20Z</time>
      </trkpt>
      <trkpt lat="48.7324" lon="7.25889">
        <ele>281.5</ele>
        <time>2011-07-10T11:40:23Z</time>
      </trkpt>
      <trkpt lat="48.73235" lon="7.25903">
        <ele>281.5</ele>
        <time>2011-07-10T11:40:26Z</time>
      </trkpt>
      <trkpt lat="48.73232" lon="7.25923">
        <ele>281.5</ele>
        <time>2011-07-10T11:40:29Z</time>
      </trkpt>
      <trkpt lat="48.73234" lon="7.2594">
        <ele>281.5</ele>
        <time>2011-07-10T11:40:32Z</time>
      </trkpt>
      <trkpt lat="48.73233" lon="7.25954">
        <ele>281.5</ele>
        <time>2011-07-10T11:40:35Z</time>
      </trkpt>
      <trkpt lat="48.73231" lon="7.25967">
        <ele>281.5</ele>
        <time>2011-07-10T11:40:38Z</time>
      </trkpt>
      <trkpt lat="48.7323" lon="7.25985">
        <ele>281.6</ele>
        <time>2011-07-10T11:40:42Z</time>
      </trkpt>
      <trkpt lat="48.73234" lon="7.26004">
        <ele>281.7</ele>
        <time>2011-07-10T11:40:46Z</time>
      </trkpt>
      <trkpt lat="48.73247" lon="7.26015">
        <ele>280.5</ele>
        <time>2011-07-10T11:40:49Z</time>
      </trkpt>
      <trkpt lat="48.73261" lon="7.26019">
        <ele>279.4</ele>
        <time>2011-07-10T11:40:51Z</time>
      </trkpt>
      <trkpt lat="48.73271" lon="7.26026">
        <ele>279.7</ele>
        <time>2011-07-10T11:40:53Z</time>
      </trkpt>
      <trkpt lat="48.73284" lon="7.26032">
        <ele>280</ele>
        <time>2011-07-10T11:40:55Z</time>
      </trkpt>
      <trkpt lat="48.73292" lon="7.26033">
        <ele>280.3</ele>
        <time>2011-07-10T11:40:56Z</time>
      </trkpt>
      <trkpt lat="48.73301" lon="7.26036">
        <ele>280.5</ele>
        <time>2011-07-10T11:40:57Z</time>
      </trkpt>
      <trkpt lat="48.73311" lon="7.26041">
        <ele>280.8</ele>
        <time>2011-07-10T11:40:58Z</time>
      </trkpt>
      <trkpt lat="48.73333" lon="7.26057">
        <ele>279.2</ele>
        <time>2011-07-10T11:41:01Z</time>
      </trkpt>
      <trkpt lat="48.73343" lon="7.26064">
        <ele>277.5</ele>
        <time>2011-07-10T11:41:02Z</time>
      </trkpt>
      <trkpt lat="48.73352" lon="7.26068">
        <ele>275.9</ele>
        <time>2011-07-10T11:41:03Z</time>
      </trkpt>
      <trkpt lat="48.73359" lon="7.26076">
        <ele>274.3</ele>
        <time>2011-07-10T11:41:04Z</time>
      </trkpt>
      <trkpt lat="48.7337" lon="7.26088">
        <ele>275.5</ele>
        <time>2011-07-10T11:41:06Z</time>
      </trkpt>
      <trkpt lat="48.73381" lon="7.261">
        <ele>276.8</ele>
        <time>2011-07-10T11:41:08Z</time>
      </trkpt>
      <trkpt lat="48.73392" lon="7.2611">
        <ele>276.5</ele>
        <time>2011-07-10T11:41:10Z</time>
      </trkpt>
      <trkpt lat="48.73402" lon="7.26119">
        <ele>276.3</ele>
        <time>2011-07-10T11:41:12Z</time>
      </trkpt>
      <trkpt lat="48.73413" lon="7.2613">
        <ele>276</ele>
        <time>2011-07-10T11:41:14Z</time>
      </trkpt>
      <trkpt lat="48.7342" lon="7.26135">
        <ele>273</ele>
        <time>2011-07-10T11:41:15Z</time>
      </trkpt>
      <trkpt lat="48.73431" lon="7.26147">
        <ele>270</ele>
        <time>2011-07-10T11:41:17Z</time>
      </trkpt>
      <trkpt lat="48.73441" lon="7.2616">
        <ele>268.9</ele>
        <time>2011-07-10T11:41:19Z</time>
      </trkpt>
      <trkpt lat="48.7345" lon="7.26167">
        <ele>270.2</ele>
        <time>2011-07-10T11:41:21Z</time>
      </trkpt>
      <trkpt lat="48.7346" lon="7.26178">
        <ele>271.5</ele>
        <time>2011-07-10T11:41:23Z</time>
      </trkpt>
      <trkpt lat="48.73471" lon="7.26186">
        <ele>272.7</ele>
        <time>2011-07-10T11:41:25Z</time>
      </trkpt>
      <trkpt lat="48.73484" lon="7.26198">
        <ele>272.4</ele>
        <time>2011-07-10T11:41:27Z</time>
      </trkpt>
      <trkpt lat="48.73494" lon="7.26211">
        <ele>272</ele>
        <time>2011-07-10T11:41:29Z</time>
      </trkpt>
      <trkpt lat="48.73504" lon="7.26223">
        <ele>267.2</ele>
        <time>2011-07-10T11:41:31Z</time>
      </trkpt>
      <trkpt lat="48.73514" lon="7.26234">
        <ele>263.5</ele>
        <time>2011-07-10T11:41:33Z</time>
      </trkpt>
      <trkpt lat="48.73523" lon="7.26242">
        <ele>259.7</ele>
        <time>2011-07-10T11:41:35Z</time>
      </trkpt>
      <trkpt lat="48.73533" lon="7.26254">
        <ele>258.7</ele>
        <time>2011-07-10T11:41:37Z</time>
      </trkpt>
      <trkpt lat="48.73541" lon="7.26269">
        <ele>257.7</ele>
        <time>2011-07-10T11:41:39Z</time>
      </trkpt>
      <trkpt lat="48.73549" lon="7.26283">
        <ele>256.7</ele>
        <time>2011-07-10T11:41:41Z</time>
      </trkpt>
      <trkpt lat="48.73555" lon="7.26298">
        <ele>253.4</ele>
        <time>2011-07-10T11:41:43Z</time>
      </trkpt>
      <trkpt lat="48.73563" lon="7.26311">
        <ele>251.4</ele>
        <time>2011-07-10T11:41:45Z</time>
      </trkpt>
      <trkpt lat="48.73569" lon="7.2632">
        <ele>249.4</ele>
        <time>2011-07-10T11:41:47Z</time>
      </trkpt>
      <trkpt lat="48.73574" lon="7.26333">
        <ele>247.4</ele>
        <time>2011-07-10T11:41:49Z</time>
      </trkpt>
      <trkpt lat="48.73576" lon="7.2635">
        <ele>245.4</ele>
        <time>2011-07-10T11:41:51Z</time>
      </trkpt>
      <trkpt lat="48.73583" lon="7.26367">
        <ele>247.8</ele>
        <time>2011-07-10T11:41:53Z</time>
      </trkpt>
      <trkpt lat="48.73588" lon="7.26384">
        <ele>249.3</ele>
        <time>2011-07-10T11:41:55Z</time>
      </trkpt>
      <trkpt lat="48.73587" lon="7.26401">
        <ele>250.7</ele>
        <time>2011-07-10T11:41:57Z</time>
      </trkpt>
      <trkpt lat="48.73587" lon="7.26418">
        <ele>252.2</ele>
        <time>2011-07-10T11:41:59Z</time>
      </trkpt>
      <trkpt lat="48.73588" lon="7.26436">
        <ele>253.6</ele>
        <time>2011-07-10T11:42:01Z</time>
      </trkpt>
      <trkpt lat="48.73583" lon="7.26453">
        <ele>255.1</ele>
        <time>2011-07-10T11:42:03Z</time>
      </trkpt>
      <trkpt lat="48.73581" lon="7.26474">
        <ele>255.1</ele>
        <time>2011-07-10T11:42:07Z</time>
      </trkpt>
      <trkpt lat="48.7357" lon="7.26492">
        <ele>253.7</ele>
        <time>2011-07-10T11:42:10Z</time>
      </trkpt>
      <trkpt lat="48.73568" lon="7.26504">
        <ele>255</ele>
        <time>2011-07-10T11:42:12Z</time>
      </trkpt>
      <trkpt lat="48.73564" lon="7.26518">
        <ele>256.3</ele>
        <time>2011-07-10T11:42:14Z</time>
      </trkpt>
      <trkpt lat="48.73557" lon="7.2653">
        <ele>257.5</ele>
        <time>2011-07-10T11:42:17Z</time>
      </trkpt>
      <trkpt lat="48.73552" lon="7.26542">
        <ele>258.8</ele>
        <time>2011-07-10T11:42:20Z</time>
      </trkpt>
      <trkpt lat="48.73549" lon="7.26557">
        <ele>259.8</ele>
        <time>2011-07-10T11:42:23Z</time>
      </trkpt>
      <trkpt lat="48.73541" lon="7.26575">
        <ele>260.8</ele>
        <time>2011-07-10T11:42:26Z</time>
      </trkpt>
      <trkpt lat="48.73535" lon="7.26593">
        <ele>261.8</ele>
        <time>2011-07-10T11:42:28Z</time>
      </trkpt>
      <trkpt lat="48.73533" lon="7.26612">
        <ele>262.8</ele>
        <time>2011-07-10T11:42:30Z</time>
      </trkpt>
      <trkpt lat="48.73529" lon="7.26629">
        <ele>263.6</ele>
        <time>2011-07-10T11:42:32Z</time>
      </trkpt>
      <trkpt lat="48.73524" lon="7.26643">
        <ele>265.9</ele>
        <time>2011-07-10T11:42:34Z</time>
      </trkpt>
      <trkpt lat="48.73521" lon="7.26664">
        <ele>268.2</ele>
        <time>2011-07-10T11:42:37Z</time>
      </trkpt>
      <trkpt lat="48.7352" lon="7.26686">
        <ele>267.8</ele>
        <time>2011-07-10T11:42:40Z</time>
      </trkpt>
      <trkpt lat="48.73511" lon="7.26704">
        <ele>267.5</ele>
        <time>2011-07-10T11:42:44Z</time>
      </trkpt>
      <trkpt lat="48.73503" lon="7.2672">
        <ele>267.3</ele>
        <time>2011-07-10T11:42:47Z</time>
      </trkpt>
      <trkpt lat="48.73502" lon="7.26737">
        <ele>267.1</ele>
        <time>2011-07-10T11:42:49Z</time>
      </trkpt>
      <trkpt lat="48.7351" lon="7.26752">
        <ele>267.1</ele>
        <time>2011-07-10T11:42:51Z</time>
      </trkpt>
      <trkpt lat="48.73518" lon="7.26771">
        <ele>267.1</ele>
        <time>2011-07-10T11:42:53Z</time>
      </trkpt>
      <trkpt lat="48.7352" lon="7.26788">
        <ele>267.1</ele>
        <time>2011-07-10T11:42:55Z</time>
      </trkpt>
      <trkpt lat="48.7352" lon="7.26805">
        <ele>268.3</ele>
        <time>2011-07-10T11:42:57Z</time>
      </trkpt>
      <trkpt lat="48.73525" lon="7.2682">
        <ele>269.6</ele>
        <time>2011-07-10T11:42:59Z</time>
      </trkpt>
      <trkpt lat="48.73529" lon="7.26846">
        <ele>271</ele>
        <time>2011-07-10T11:43:02Z</time>
      </trkpt>
      <trkpt lat="48.73537" lon="7.26866">
        <ele>272.4</ele>
        <time>2011-07-10T11:43:04Z</time>
      </trkpt>
      <trkpt lat="48.73542" lon="7.26884">
        <ele>270.9</ele>
        <time>2011-07-10T11:43:06Z</time>
      </trkpt>
      <trkpt lat="48.73537" lon="7.26907">
        <ele>269.5</ele>
        <time>2011-07-10T11:43:09Z</time>
      </trkpt>
      <trkpt lat="48.73538" lon="7.26919">
        <ele>267.8</ele>
        <time>2011-07-10T11:43:11Z</time>
      </trkpt>
      <trkpt lat="48.73539" lon="7.26936">
        <ele>266.2</ele>
        <time>2011-07-10T11:43:13Z</time>
      </trkpt>
      <trkpt lat="48.73544" lon="7.26956">
        <ele>264.9</ele>
        <time>2011-07-10T11:43:15Z</time>
      </trkpt>
      <trkpt lat="48.73547" lon="7.26977">
        <ele>263.6</ele>
        <time>2011-07-10T11:43:17Z</time>
      </trkpt>
      <trkpt lat="48.73548" lon="7.26997">
        <ele>262.4</ele>
        <time>2011-07-10T11:43:19Z</time>
      </trkpt>
      <trkpt lat="48.73549" lon="7.27014">
        <ele>259.9</ele>
        <time>2011-07-10T11:43:21Z</time>
      </trkpt>
      <trkpt lat="48.7355" lon="7.27031">
        <ele>257.5</ele>
        <time>2011-07-10T11:43:23Z</time>
      </trkpt>
      <trkpt lat="48.73553" lon="7.27055">
        <ele>255</ele>
        <time>2011-07-10T11:43:26Z</time>
      </trkpt>
      <trkpt lat="48.73556" lon="7.27069">
        <ele>252.2</ele>
        <time>2011-07-10T11:43:28Z</time>
      </trkpt>
      <trkpt lat="48.73557" lon="7.27081">
        <ele>252.2</ele>
        <time>2011-07-10T11:43:30Z</time>
      </trkpt>
      <trkpt lat="48.7356" lon="7.27097">
        <ele>252.2</ele>
        <time>2011-07-10T11:43:33Z</time>
      </trkpt>
      <trkpt lat="48.73561" lon="7.27115">
        <ele>252.2</ele>
        <time>2011-07-10T11:43:36Z</time>
      </trkpt>
      <trkpt lat="48.73564" lon="7.27126">
        <ele>252.2</ele>
        <time>2011-07-10T11:43:38Z</time>
      </trkpt>
      <trkpt lat="48.73566" lon="7.27143">
        <ele>250.8</ele>
        <time>2011-07-10T11:43:41Z</time>
      </trkpt>
      <trkpt lat="48.73565" lon="7.27159">
        <ele>249.5</ele>
        <time>2011-07-10T11:43:44Z</time>
      </trkpt>
      <trkpt lat="48.73566" lon="7.27176">
        <ele>248.1</ele>
        <time>2011-07-10T11:43:47Z</time>
      </trkpt>
      <trkpt lat="48.73568" lon="7.2719">
        <ele>246.7</ele>
        <time>2011-07-10T11:43:50Z</time>
      </trkpt>
      <trkpt lat="48.73568" lon="7.27202">
        <ele>245.4</ele>
        <time>2011-07-10T11:43:52Z</time>
      </trkpt>
      <trkpt lat="48.73569" lon="7.27223">
        <ele>242.6</ele>
        <time>2011-07-10T11:43:56Z</time>
      </trkpt>
      <trkpt lat="48.73565" lon="7.27242">
        <ele>243.7</ele>
        <time>2011-07-10T11:43:59Z</time>
      </trkpt>
      <trkpt lat="48.73562" lon="7.27259">
        <ele>244.8</ele>
        <time>2011-07-10T11:44:02Z</time>
      </trkpt>
      <trkpt lat="48.73558" lon="7.27271">
        <ele>245.9</ele>
        <time>2011-07-10T11:44:04Z</time>
      </trkpt>
      <trkpt lat="48.73552" lon="7.2728">
        <ele>247</ele>
        <time>2011-07-10T11:44:06Z</time>
      </trkpt>
      <trkpt lat="48.73547" lon="7.27295">
        <ele>248.1</ele>
        <time>2011-07-10T11:44:09Z</time>
      </trkpt>
      <trkpt lat="48.73539" lon="7.27307">
        <ele>250.2</ele>
        <time>2011-07-10T11:44:13Z</time>
      </trkpt>
      <trkpt lat="48.7353" lon="7.27308">
        <ele>252.3</ele>
        <time>2011-07-10T11:44:15Z</time>
      </trkpt>
      <trkpt lat="48.73521" lon="7.2732">
        <ele>254.4</ele>
        <time>2011-07-10T11:44:18Z</time>
      </trkpt>
      <trkpt lat="48.73514" lon="7.27335">
        <ele>256.5</ele>
        <time>2011-07-10T11:44:21Z</time>
      </trkpt>
      <trkpt lat="48.73506" lon="7.27349">
        <ele>256.3</ele>
        <time>2011-07-10T11:44:24Z</time>
      </trkpt>
      <trkpt lat="48.73517" lon="7.27358">
        <ele>257.5</ele>
        <time>2011-07-10T11:44:31Z</time>
      </trkpt>
      <trkpt lat="48.73526" lon="7.27359">
        <ele>253</ele>
        <time>2011-07-10T11:44:35Z</time>
      </trkpt>
      <trkpt lat="48.73536" lon="7.27369">
        <ele>248.5</ele>
        <time>2011-07-10T11:44:44Z</time>
      </trkpt>
      <trkpt lat="48.73527" lon="7.27373">
        <ele>244.1</ele>
        <time>2011-07-10T11:44:54Z</time>
      </trkpt>
      <trkpt lat="48.73534" lon="7.27386">
        <ele>239.6</ele>
        <time>2011-07-10T11:45:01Z</time>
      </trkpt>
      <trkpt lat="48.7354" lon="7.27398">
        <ele>235.7</ele>
        <time>2011-07-10T11:45:03Z</time>
      </trkpt>
      <trkpt lat="48.73545" lon="7.27408">
        <ele>231.8</ele>
        <time>2011-07-10T11:45:05Z</time>
      </trkpt>
      <trkpt lat="48.73552" lon="7.27419">
        <ele>227.9</ele>
        <time>2011-07-10T11:45:08Z</time>
      </trkpt>
      <trkpt lat="48.73554" lon="7.27433">
        <ele>224</ele>
        <time>2011-07-10T11:45:10Z</time>
      </trkpt>
      <trkpt lat="48.73549" lon="7.27447">
        <ele>220.1</ele>
        <time>2011-07-10T11:45:12Z</time>
      </trkpt>
      <trkpt lat="48.73543" lon="7.27462">
        <ele>218.5</ele>
        <time>2011-07-10T11:45:14Z</time>
      </trkpt>
      <trkpt lat="48.73532" lon="7.27477">
        <ele>216.8</ele>
        <time>2011-07-10T11:45:16Z</time>
      </trkpt>
      <trkpt lat="48.73521" lon="7.27491">
        <ele>217.4</ele>
        <time>2011-07-10T11:45:18Z</time>
      </trkpt>
      <trkpt lat="48.73513" lon="7.27505">
        <ele>217.4</ele>
        <time>2011-07-10T11:45:20Z</time>
      </trkpt>
      <trkpt lat="48.73508" lon="7.27517">
        <ele>218.9</ele>
        <time>2011-07-10T11:45:22Z</time>
      </trkpt>
      <trkpt lat="48.73501" lon="7.27525">
        <ele>220.5</ele>
        <time>2011-07-10T11:45:24Z</time>
      </trkpt>
      <trkpt lat="48.7349" lon="7.27532">
        <ele>221.5</ele>
        <time>2011-07-10T11:45:27Z</time>
      </trkpt>
      <trkpt lat="48.73479" lon="7.27536">
        <ele>222.5</ele>
        <time>2011-07-10T11:45:31Z</time>
      </trkpt>
      <trkpt lat="48.73472" lon="7.27543">
        <ele>223.5</ele>
        <time>2011-07-10T11:45:34Z</time>
      </trkpt>
      <trkpt lat="48.73462" lon="7.27553">
        <ele>224.5</ele>
        <time>2011-07-10T11:45:36Z</time>
      </trkpt>
      <trkpt lat="48.73455" lon="7.27564">
        <ele>225.5</ele>
        <time>2011-07-10T11:45:38Z</time>
      </trkpt>
      <trkpt lat="48.73448" lon="7.27573">
        <ele>226.5</ele>
        <time>2011-07-10T11:45:40Z</time>
      </trkpt>
      <trkpt lat="48.73442" lon="7.27584">
        <ele>226.5</ele>
        <time>2011-07-10T11:45:42Z</time>
      </trkpt>
      <trkpt lat="48.73436" lon="7.27594">
        <ele>226.6</ele>
        <time>2011-07-10T11:45:44Z</time>
      </trkpt>
      <trkpt lat="48.73429" lon="7.27606">
        <ele>227.3</ele>
        <time>2011-07-10T11:45:46Z</time>
      </trkpt>
      <trkpt lat="48.73422" lon="7.27616">
        <ele>226.7</ele>
        <time>2011-07-10T11:45:48Z</time>
      </trkpt>
      <trkpt lat="48.73416" lon="7.27627">
        <ele>226.2</ele>
        <time>2011-07-10T11:45:50Z</time>
      </trkpt>
      <trkpt lat="48.73408" lon="7.27643">
        <ele>225.6</ele>
        <time>2011-07-10T11:45:53Z</time>
      </trkpt>
      <trkpt lat="48.73398" lon="7.27659">
        <ele>224.6</ele>
        <time>2011-07-10T11:45:56Z</time>
      </trkpt>
      <trkpt lat="48.73386" lon="7.27673">
        <ele>223.6</ele>
        <time>2011-07-10T11:45:59Z</time>
      </trkpt>
      <trkpt lat="48.73374" lon="7.27683">
        <ele>222.6</ele>
        <time>2011-07-10T11:46:01Z</time>
      </trkpt>
      <trkpt lat="48.73372" lon="7.27695">
        <ele>221.6</ele>
        <time>2011-07-10T11:46:03Z</time>
      </trkpt>
      <trkpt lat="48.73366" lon="7.27708">
        <ele>220.6</ele>
        <time>2011-07-10T11:46:05Z</time>
      </trkpt>
      <trkpt lat="48.73361" lon="7.27722">
        <ele>220.5</ele>
        <time>2011-07-10T11:46:07Z</time>
      </trkpt>
      <trkpt lat="48.73355" lon="7.27736">
        <ele>220.1</ele>
        <time>2011-07-10T11:46:09Z</time>
      </trkpt>
      <trkpt lat="48.73348" lon="7.27755">
        <ele>219.6</ele>
        <time>2011-07-10T11:46:12Z</time>
      </trkpt>
      <trkpt lat="48.7334" lon="7.27769">
        <ele>219.2</ele>
        <time>2011-07-10T11:46:15Z</time>
      </trkpt>
      <trkpt lat="48.73333" lon="7.27785">
        <ele>218.7</ele>
        <time>2011-07-10T11:46:19Z</time>
      </trkpt>
      <trkpt lat="48.73329" lon="7.27795">
        <ele>218.3</ele>
        <time>2011-07-10T11:46:22Z</time>
      </trkpt>
      <trkpt lat="48.73321" lon="7.27805">
        <ele>218.3</ele>
        <time>2011-07-10T11:47:02Z</time>
      </trkpt>
      <trkpt lat="48.73314" lon="7.2781">
        <ele>218.3</ele>
        <time>2011-07-10T11:47:05Z</time>
      </trkpt>
      <trkpt lat="48.73308" lon="7.27798">
        <ele>218.3</ele>
        <time>2011-07-10T11:47:10Z</time>
      </trkpt>
      <trkpt lat="48.73309" lon="7.27784">
        <ele>218.7</ele>
        <time>2011-07-10T11:47:14Z</time>
      </trkpt>
      <trkpt lat="48.7331" lon="7.2777">
        <ele>219.2</ele>
        <time>2011-07-10T11:47:17Z</time>
      </trkpt>
      <trkpt lat="48.73314" lon="7.27757">
        <ele>219.6</ele>
        <time>2011-07-10T11:47:20Z</time>
      </trkpt>
      <trkpt lat="48.73318" lon="7.2774">
        <ele>222</ele>
        <time>2011-07-10T11:47:23Z</time>
      </trkpt>
      <trkpt lat="48.73315" lon="7.27722">
        <ele>224.4</ele>
        <time>2011-07-10T11:47:26Z</time>
      </trkpt>
      <trkpt lat="48.73312" lon="7.27707">
        <ele>226.4</ele>
        <time>2011-07-10T11:47:29Z</time>
      </trkpt>
      <trkpt lat="48.73307" lon="7.27691">
        <ele>227.9</ele>
        <time>2011-07-10T11:47:32Z</time>
      </trkpt>
      <trkpt lat="48.733" lon="7.27676">
        <ele>229.5</ele>
        <time>2011-07-10T11:47:35Z</time>
      </trkpt>
      <trkpt lat="48.73295" lon="7.27666">
        <ele>231</ele>
        <time>2011-07-10T11:47:37Z</time>
      </trkpt>
      <trkpt lat="48.73289" lon="7.27651">
        <ele>232.5</ele>
        <time>2011-07-10T11:47:40Z</time>
      </trkpt>
      <trkpt lat="48.73282" lon="7.27638">
        <ele>234.1</ele>
        <time>2011-07-10T11:47:43Z</time>
      </trkpt>
      <trkpt lat="48.73274" lon="7.27625">
        <ele>235.2</ele>
        <time>2011-07-10T11:47:46Z</time>
      </trkpt>
      <trkpt lat="48.73267" lon="7.27614">
        <ele>236.3</ele>
        <time>2011-07-10T11:47:49Z</time>
      </trkpt>
      <trkpt lat="48.73263" lon="7.27602">
        <ele>237.4</ele>
        <time>2011-07-10T11:47:52Z</time>
      </trkpt>
      <trkpt lat="48.73258" lon="7.27589">
        <ele>236.9</ele>
        <time>2011-07-10T11:47:57Z</time>
      </trkpt>
      <trkpt lat="48.73252" lon="7.27578">
        <ele>237.5</ele>
        <time>2011-07-10T11:48:01Z</time>
      </trkpt>
      <trkpt lat="48.73248" lon="7.27567">
        <ele>238.2</ele>
        <time>2011-07-10T11:48:06Z</time>
      </trkpt>
      <trkpt lat="48.73239" lon="7.2756">
        <ele>239.5</ele>
        <time>2011-07-10T11:48:11Z</time>
      </trkpt>
      <trkpt lat="48.73232" lon="7.27552">
        <ele>240.7</ele>
        <time>2011-07-10T11:48:15Z</time>
      </trkpt>
      <trkpt lat="48.73222" lon="7.27544">
        <ele>242</ele>
        <time>2011-07-10T11:48:19Z</time>
      </trkpt>
      <trkpt lat="48.73215" lon="7.27537">
        <ele>243.3</ele>
        <time>2011-07-10T11:48:24Z</time>
      </trkpt>
      <trkpt lat="48.73211" lon="7.27526">
        <ele>244.5</ele>
        <time>2011-07-10T11:48:29Z</time>
      </trkpt>
      <trkpt lat="48.73205" lon="7.27516">
        <ele>245.8</ele>
        <time>2011-07-10T11:48:34Z</time>
      </trkpt>
      <trkpt lat="48.73197" lon="7.27509">
        <ele>247.1</ele>
        <time>2011-07-10T11:48:37Z</time>
      </trkpt>
      <trkpt lat="48.73189" lon="7.27506">
        <ele>248.4</ele>
        <time>2011-07-10T11:48:39Z</time>
      </trkpt>
      <trkpt lat="48.73183" lon="7.27496">
        <ele>249.6</ele>
        <time>2011-07-10T11:48:46Z</time>
      </trkpt>
      <trkpt lat="48.73177" lon="7.27485">
        <ele>250.5</ele>
        <time>2011-07-10T11:48:49Z</time>
      </trkpt>
      <trkpt lat="48.7317" lon="7.27477">
        <ele>251.3</ele>
        <time>2011-07-10T11:48:55Z</time>
      </trkpt>
      <trkpt lat="48.73161" lon="7.27472">
        <ele>252</ele>
        <time>2011-07-10T11:49:00Z</time>
      </trkpt>
      <trkpt lat="48.73152" lon="7.27468">
        <ele>252.7</ele>
        <time>2011-07-10T11:49:05Z</time>
      </trkpt>
      <trkpt lat="48.73142" lon="7.27461">
        <ele>253.5</ele>
        <time>2011-07-10T11:49:09Z</time>
      </trkpt>
      <trkpt lat="48.73136" lon="7.27452">
        <ele>254.2</ele>
        <time>2011-07-10T11:49:13Z</time>
      </trkpt>
      <trkpt lat="48.73129" lon="7.27444">
        <ele>254.9</ele>
        <time>2011-07-10T11:49:17Z</time>
      </trkpt>
      <trkpt lat="48.73124" lon="7.27433">
        <ele>255.6</ele>
        <time>2011-07-10T11:49:22Z</time>
      </trkpt>
      <trkpt lat="48.73116" lon="7.27423">
        <ele>256.4</ele>
        <time>2011-07-10T11:49:30Z</time>
      </trkpt>
      <trkpt lat="48.73108" lon="7.27416">
        <ele>257.1</ele>
        <time>2011-07-10T11:49:34Z</time>
      </trkpt>
      <trkpt lat="48.73102" lon="7.27404">
        <ele>257.8</ele>
        <time>2011-07-10T11:49:38Z</time>
      </trkpt>
      <trkpt lat="48.73092" lon="7.27397">
        <ele>257.9</ele>
        <time>2011-07-10T11:49:41Z</time>
      </trkpt>
      <trkpt lat="48.73085" lon="7.27388">
        <ele>258</ele>
        <time>2011-07-10T11:49:46Z</time>
      </trkpt>
      <trkpt lat="48.73077" lon="7.27382">
        <ele>258</ele>
        <time>2011-07-10T11:49:50Z</time>
      </trkpt>
      <trkpt lat="48.7307" lon="7.2739">
        <ele>258</ele>
        <time>2011-07-10T11:49:56Z</time>
      </trkpt>
      <trkpt lat="48.73068" lon="7.27403">
        <ele>259.4</ele>
        <time>2011-07-10T11:50:02Z</time>
      </trkpt>
      <trkpt lat="48.73073" lon="7.27416">
        <ele>260.7</ele>
        <time>2011-07-10T11:50:06Z</time>
      </trkpt>
      <trkpt lat="48.7308" lon="7.27424">
        <ele>262.1</ele>
        <time>2011-07-10T11:50:10Z</time>
      </trkpt>
      <trkpt lat="48.73085" lon="7.27434">
        <ele>263.5</ele>
        <time>2011-07-10T11:50:14Z</time>
      </trkpt>
      <trkpt lat="48.7309" lon="7.27448">
        <ele>264.8</ele>
        <time>2011-07-10T11:50:18Z</time>
      </trkpt>
      <trkpt lat="48.73097" lon="7.2746">
        <ele>264.1</ele>
        <time>2011-07-10T11:50:22Z</time>
      </trkpt>
      <trkpt lat="48.73103" lon="7.27471">
        <ele>263.4</ele>
        <time>2011-07-10T11:50:26Z</time>
      </trkpt>
      <trkpt lat="48.73109" lon="7.27483">
        <ele>262.6</ele>
        <time>2011-07-10T11:50:31Z</time>
      </trkpt>
      <trkpt lat="48.73115" lon="7.27496">
        <ele>262.5</ele>
        <time>2011-07-10T11:50:35Z</time>
      </trkpt>
      <trkpt lat="48.7312" lon="7.27508">
        <ele>262.5</ele>
        <time>2011-07-10T11:50:38Z</time>
      </trkpt>
      <trkpt lat="48.73127" lon="7.27515">
        <ele>262.4</ele>
        <time>2011-07-10T11:50:41Z</time>
      </trkpt>
      <trkpt lat="48.73134" lon="7.27527">
        <ele>260.9</ele>
        <time>2011-07-10T11:50:44Z</time>
      </trkpt>
      <trkpt lat="48.73142" lon="7.27536">
        <ele>259.5</ele>
        <time>2011-07-10T11:50:47Z</time>
      </trkpt>
      <trkpt lat="48.73149" lon="7.27548">
        <ele>258</ele>
        <time>2011-07-10T11:50:50Z</time>
      </trkpt>
      <trkpt lat="48.73153" lon="7.27558">
        <ele>256.5</ele>
        <time>2011-07-10T11:50:53Z</time>
      </trkpt>
      <trkpt lat="48.73158" lon="7.27573">
        <ele>255.1</ele>
        <time>2011-07-10T11:50:57Z</time>
      </trkpt>
      <trkpt lat="48.73162" lon="7.27585">
        <ele>255.7</ele>
        <time>2011-07-10T11:51:01Z</time>
      </trkpt>
      <trkpt lat="48.73166" lon="7.27599">
        <ele>256.4</ele>
        <time>2011-07-10T11:51:06Z</time>
      </trkpt>
      <trkpt lat="48.73167" lon="7.27611">
        <ele>257</ele>
        <time>2011-07-10T11:51:10Z</time>
      </trkpt>
      <trkpt lat="48.73171" lon="7.27624">
        <ele>257</ele>
        <time>2011-07-10T11:51:15Z</time>
      </trkpt>
      <trkpt lat="48.73178" lon="7.2763">
        <ele>257</ele>
        <time>2011-07-10T11:51:20Z</time>
      </trkpt>
      <trkpt lat="48.73169" lon="7.27629">
        <ele>257</ele>
        <time>2011-07-10T11:51:31Z</time>
      </trkpt>
      <trkpt lat="48.73163" lon="7.27619">
        <ele>257</ele>
        <time>2011-07-10T11:51:41Z</time>
      </trkpt>
      <trkpt lat="48.73156" lon="7.27611">
        <ele>259.7</ele>
        <time>2011-07-10T11:51:49Z</time>
      </trkpt>
      <trkpt lat="48.73151" lon="7.27601">
        <ele>262.5</ele>
        <time>2011-07-10T11:51:55Z</time>
      </trkpt>
      <trkpt lat="48.73145" lon="7.27591">
        <ele>263.9</ele>
        <time>2011-07-10T11:52:01Z</time>
      </trkpt>
      <trkpt lat="48.7314" lon="7.27577">
        <ele>265.4</ele>
        <time>2011-07-10T11:52:06Z</time>
      </trkpt>
      <trkpt lat="48.73134" lon="7.27568">
        <ele>266.8</ele>
        <time>2011-07-10T11:52:09Z</time>
      </trkpt>
      <trkpt lat="48.73126" lon="7.27557">
        <ele>268.3</ele>
        <time>2011-07-10T11:52:13Z</time>
      </trkpt>
      <trkpt lat="48.73119" lon="7.27549">
        <ele>269.7</ele>
        <time>2011-07-10T11:52:16Z</time>
      </trkpt>
      <trkpt lat="48.73113" lon="7.27538">
        <ele>271.2</ele>
        <time>2011-07-10T11:52:20Z</time>
      </trkpt>
      <trkpt lat="48.73107" lon="7.27529">
        <ele>272.6</ele>
        <time>2011-07-10T11:52:25Z</time>
      </trkpt>
      <trkpt lat="48.73096" lon="7.2752">
        <ele>274.1</ele>
        <time>2011-07-10T11:52:30Z</time>
      </trkpt>
      <trkpt lat="48.73089" lon="7.27511">
        <ele>275.5</ele>
        <time>2011-07-10T11:52:36Z</time>
      </trkpt>
      <trkpt lat="48.73084" lon="7.275">
        <ele>274.3</ele>
        <time>2011-07-10T11:52:42Z</time>
      </trkpt>
      <trkpt lat="48.73075" lon="7.27498">
        <ele>274.9</ele>
        <time>2011-07-10T11:52:47Z</time>
      </trkpt>
      <trkpt lat="48.73069" lon="7.2749">
        <ele>275.7</ele>
        <time>2011-07-10T11:52:52Z</time>
      </trkpt>
      <trkpt lat="48.73064" lon="7.27481">
        <ele>276.5</ele>
        <time>2011-07-10T11:53:00Z</time>
      </trkpt>
      <trkpt lat="48.73055" lon="7.27476">
        <ele>277.4</ele>
        <time>2011-07-10T11:53:16Z</time>
      </trkpt>
      <trkpt lat="48.73048" lon="7.27467">
        <ele>278.2</ele>
        <time>2011-07-10T11:53:22Z</time>
      </trkpt>
      <trkpt lat="48.7304" lon="7.2746">
        <ele>279</ele>
        <time>2011-07-10T11:53:26Z</time>
      </trkpt>
      <trkpt lat="48.73033" lon="7.27454">
        <ele>279.8</ele>
        <time>2011-07-10T11:53:32Z</time>
      </trkpt>
      <trkpt lat="48.73024" lon="7.27447">
        <ele>280.6</ele>
        <time>2011-07-10T11:53:39Z</time>
      </trkpt>
      <trkpt lat="48.73015" lon="7.27441">
        <ele>281.5</ele>
        <time>2011-07-10T11:53:45Z</time>
      </trkpt>
      <trkpt lat="48.73008" lon="7.27434">
        <ele>282.3</ele>
        <time>2011-07-10T11:53:54Z</time>
      </trkpt>
      <trkpt lat="48.73001" lon="7.27425">
        <ele>284.7</ele>
        <time>2011-07-10T11:54:01Z</time>
      </trkpt>
      <trkpt lat="48.72993" lon="7.27418">
        <ele>285.3</ele>
        <time>2011-07-10T11:54:05Z</time>
      </trkpt>
      <trkpt lat="48.72985" lon="7.27411">
        <ele>286.1</ele>
        <time>2011-07-10T11:54:12Z</time>
      </trkpt>
      <trkpt lat="48.72977" lon="7.27402">
        <ele>286.9</ele>
        <time>2011-07-10T11:54:19Z</time>
      </trkpt>
      <trkpt lat="48.72969" lon="7.27394">
        <ele>287.7</ele>
        <time>2011-07-10T11:54:24Z</time>
      </trkpt>
      <trkpt lat="48.72962" lon="7.27386">
        <ele>288.5</ele>
        <time>2011-07-10T11:54:29Z</time>
      </trkpt>
      <trkpt lat="48.72955" lon="7.27381">
        <ele>289.4</ele>
        <time>2011-07-10T11:54:34Z</time>
      </trkpt>
      <trkpt lat="48.72948" lon="7.27373">
        <ele>290.2</ele>
        <time>2011-07-10T11:54:40Z</time>
      </trkpt>
      <trkpt lat="48.7294" lon="7.27367">
        <ele>291</ele>
        <time>2011-07-10T11:54:46Z</time>
      </trkpt>
      <trkpt lat="48.72932" lon="7.27361">
        <ele>291.8</ele>
        <time>2011-07-10T11:54:53Z</time>
      </trkpt>
      <trkpt lat="48.72924" lon="7.27356">
        <ele>292.6</ele>
        <time>2011-07-10T11:54:59Z</time>
      </trkpt>
      <trkpt lat="48.72916" lon="7.27349">
        <ele>293.8</ele>
        <time>2011-07-10T11:55:06Z</time>
      </trkpt>
      <trkpt lat="48.72908" lon="7.27343">
        <ele>295</ele>
        <time>2011-07-10T11:55:12Z</time>
      </trkpt>
      <trkpt lat="48.729" lon="7.27338">
        <ele>297</ele>
        <time>2011-07-10T11:55:17Z</time>
      </trkpt>
      <trkpt lat="48.72891" lon="7.27332">
        <ele>299</ele>
        <time>2011-07-10T11:55:23Z</time>
      </trkpt>
      <trkpt lat="48.72884" lon="7.27326">
        <ele>299.1</ele>
        <time>2011-07-10T11:55:29Z</time>
      </trkpt>
      <trkpt lat="48.72875" lon="7.27318">
        <ele>299.2</ele>
        <time>2011-07-10T11:55:36Z</time>
      </trkpt>
      <trkpt lat="48.72867" lon="7.27312">
        <ele>299.3</ele>
        <time>2011-07-10T11:55:43Z</time>
      </trkpt>
      <trkpt lat="48.72859" lon="7.27307">
        <ele>299.4</ele>
        <time>2011-07-10T11:55:48Z</time>
      </trkpt>
      <trkpt lat="48.72851" lon="7.27301">
        <ele>299.5</ele>
        <time>2011-07-10T11:55:54Z</time>
      </trkpt>
      <trkpt lat="48.72843" lon="7.27294">
        <ele>299.5</ele>
        <time>2011-07-10T11:56:03Z</time>
      </trkpt>
      <trkpt lat="48.72836" lon="7.27287">
        <ele>301.6</ele>
        <time>2011-07-10T11:56:08Z</time>
      </trkpt>
      <trkpt lat="48.72827" lon="7.27283">
        <ele>301.7</ele>
        <time>2011-07-10T11:56:14Z</time>
      </trkpt>
      <trkpt lat="48.72819" lon="7.27278">
        <ele>301.8</ele>
        <time>2011-07-10T11:56:20Z</time>
      </trkpt>
      <trkpt lat="48.72811" lon="7.27272">
        <ele>301.9</ele>
        <time>2011-07-10T11:56:26Z</time>
      </trkpt>
      <trkpt lat="48.72803" lon="7.27268">
        <ele>302</ele>
        <time>2011-07-10T11:56:32Z</time>
      </trkpt>
      <trkpt lat="48.72795" lon="7.27263">
        <ele>304</ele>
        <time>2011-07-10T11:56:40Z</time>
      </trkpt>
      <trkpt lat="48.72786" lon="7.27258">
        <ele>306</ele>
        <time>2011-07-10T11:56:48Z</time>
      </trkpt>
      <trkpt lat="48.72777" lon="7.27257">
        <ele>308</ele>
        <time>2011-07-10T11:56:54Z</time>
      </trkpt>
      <trkpt lat="48.72768" lon="7.27254">
        <ele>310</ele>
        <time>2011-07-10T11:57:00Z</time>
      </trkpt>
      <trkpt lat="48.72759" lon="7.27253">
        <ele>312</ele>
        <time>2011-07-10T11:57:07Z</time>
      </trkpt>
      <trkpt lat="48.72749" lon="7.27252">
        <ele>314</ele>
        <time>2011-07-10T11:57:13Z</time>
      </trkpt>
      <trkpt lat="48.72742" lon="7.27247">
        <ele>316.5</ele>
        <time>2011-07-10T11:57:19Z</time>
      </trkpt>
      <trkpt lat="48.72733" lon="7.27243">
        <ele>319.1</ele>
        <time>2011-07-10T11:57:25Z</time>
      </trkpt>
      <trkpt lat="48.72726" lon="7.27237">
        <ele>319.5</ele>
        <time>2011-07-10T11:57:32Z</time>
      </trkpt>
      <trkpt lat="48.72718" lon="7.27231">
        <ele>319.8</ele>
        <time>2011-07-10T11:57:38Z</time>
      </trkpt>
      <trkpt lat="48.72709" lon="7.27228">
        <ele>320.2</ele>
        <time>2011-07-10T11:57:44Z</time>
      </trkpt>
      <trkpt lat="48.72702" lon="7.27223">
        <ele>320.5</ele>
        <time>2011-07-10T11:57:50Z</time>
      </trkpt>
      <trkpt lat="48.72693" lon="7.27214">
        <ele>320.9</ele>
        <time>2011-07-10T11:58:00Z</time>
      </trkpt>
      <trkpt lat="48.72683" lon="7.27208">
        <ele>321.3</ele>
        <time>2011-07-10T11:58:05Z</time>
      </trkpt>
      <trkpt lat="48.72675" lon="7.272">
        <ele>321.6</ele>
        <time>2011-07-10T11:58:10Z</time>
      </trkpt>
      <trkpt lat="48.72666" lon="7.27192">
        <ele>324.1</ele>
        <time>2011-07-10T11:58:16Z</time>
      </trkpt>
      <trkpt lat="48.72658" lon="7.27188">
        <ele>326.5</ele>
        <time>2011-07-10T11:58:21Z</time>
      </trkpt>
      <trkpt lat="48.72649" lon="7.27184">
        <ele>326.5</ele>
        <time>2011-07-10T11:58:27Z</time>
      </trkpt>
      <trkpt lat="48.72641" lon="7.27179">
        <ele>326.4</ele>
        <time>2011-07-10T11:58:34Z</time>
      </trkpt>
      <trkpt lat="48.72633" lon="7.27175">
        <ele>328.5</ele>
        <time>2011-07-10T11:58:39Z</time>
      </trkpt>
      <trkpt lat="48.72626" lon="7.27169">
        <ele>330.5</ele>
        <time>2011-07-10T11:58:47Z</time>
      </trkpt>
      <trkpt lat="48.72617" lon="7.27169">
        <ele>332.6</ele>
        <time>2011-07-10T11:58:52Z</time>
      </trkpt>
      <trkpt lat="48.72609" lon="7.27163">
        <ele>334.7</ele>
        <time>2011-07-10T11:59:00Z</time>
      </trkpt>
      <trkpt lat="48.72602" lon="7.27156">
        <ele>336.8</ele>
        <time>2011-07-10T11:59:11Z</time>
      </trkpt>
      <trkpt lat="48.72593" lon="7.27154">
        <ele>338.9</ele>
        <time>2011-07-10T11:59:18Z</time>
      </trkpt>
      <trkpt lat="48.72585" lon="7.27147">
        <ele>341.9</ele>
        <time>2011-07-10T11:59:23Z</time>
      </trkpt>
      <trkpt lat="48.72577" lon="7.27144">
        <ele>342.8</ele>
        <time>2011-07-10T11:59:28Z</time>
      </trkpt>
      <trkpt lat="48.72567" lon="7.27141">
        <ele>343.7</ele>
        <time>2011-07-10T11:59:34Z</time>
      </trkpt>
      <trkpt lat="48.72558" lon="7.27139">
        <ele>344.6</ele>
        <time>2011-07-10T11:59:39Z</time>
      </trkpt>
      <trkpt lat="48.72549" lon="7.27138">
        <ele>345.5</ele>
        <time>2011-07-10T11:59:44Z</time>
      </trkpt>
      <trkpt lat="48.72541" lon="7.27137">
        <ele>346.5</ele>
        <time>2011-07-10T11:59:58Z</time>
      </trkpt>
      <trkpt lat="48.72533" lon="7.27133">
        <ele>347.4</ele>
        <time>2011-07-10T12:00:04Z</time>
      </trkpt>
      <trkpt lat="48.72524" lon="7.27137">
        <ele>348.3</ele>
        <time>2011-07-10T12:00:09Z</time>
      </trkpt>
      <trkpt lat="48.72515" lon="7.27136">
        <ele>349.2</ele>
        <time>2011-07-10T12:00:16Z</time>
      </trkpt>
      <trkpt lat="48.72506" lon="7.27132">
        <ele>350.6</ele>
        <time>2011-07-10T12:00:20Z</time>
      </trkpt>
      <trkpt lat="48.72496" lon="7.27135">
        <ele>352.1</ele>
        <time>2011-07-10T12:00:24Z</time>
      </trkpt>
      <trkpt lat="48.72487" lon="7.27137">
        <ele>352.6</ele>
        <time>2011-07-10T12:00:30Z</time>
      </trkpt>
      <trkpt lat="48.72479" lon="7.27135">
        <ele>353.2</ele>
        <time>2011-07-10T12:00:35Z</time>
      </trkpt>
      <trkpt lat="48.72471" lon="7.27136">
        <ele>351.6</ele>
        <time>2011-07-10T12:00:40Z</time>
      </trkpt>
      <trkpt lat="48.72462" lon="7.27136">
        <ele>350.1</ele>
        <time>2011-07-10T12:00:46Z</time>
      </trkpt>
      <trkpt lat="48.72454" lon="7.27134">
        <ele>348.5</ele>
        <time>2011-07-10T12:00:51Z</time>
      </trkpt>
      <trkpt lat="48.72445" lon="7.27132">
        <ele>349.1</ele>
        <time>2011-07-10T12:00:56Z</time>
      </trkpt>
      <trkpt lat="48.72436" lon="7.27131">
        <ele>349.6</ele>
        <time>2011-07-10T12:01:00Z</time>
      </trkpt>
      <trkpt lat="48.72426" lon="7.27129">
        <ele>350.2</ele>
        <time>2011-07-10T12:01:04Z</time>
      </trkpt>
      <trkpt lat="48.72416" lon="7.27129">
        <ele>349.5</ele>
        <time>2011-07-10T12:01:11Z</time>
      </trkpt>
      <trkpt lat="48.72408" lon="7.2713">
        <ele>348.4</ele>
        <time>2011-07-10T12:01:19Z</time>
      </trkpt>
      <trkpt lat="48.724" lon="7.27133">
        <ele>347.2</ele>
        <time>2011-07-10T12:01:24Z</time>
      </trkpt>
      <trkpt lat="48.72391" lon="7.27132">
        <ele>346</ele>
        <time>2011-07-10T12:01:30Z</time>
      </trkpt>
      <trkpt lat="48.72381" lon="7.27131">
        <ele>344.8</ele>
        <time>2011-07-10T12:01:40Z</time>
      </trkpt>
      <trkpt lat="48.72373" lon="7.27129">
        <ele>345.7</ele>
        <time>2011-07-10T12:01:48Z</time>
      </trkpt>
      <trkpt lat="48.72364" lon="7.27129">
        <ele>346.6</ele>
        <time>2011-07-10T12:01:54Z</time>
      </trkpt>
      <trkpt lat="48.72355" lon="7.27128">
        <ele>347.5</ele>
        <time>2011-07-10T12:02:03Z</time>
      </trkpt>
      <trkpt lat="48.72346" lon="7.27127">
        <ele>346.4</ele>
        <time>2011-07-10T12:02:08Z</time>
      </trkpt>
      <trkpt lat="48.72338" lon="7.27125">
        <ele>345.2</ele>
        <time>2011-07-10T12:02:14Z</time>
      </trkpt>
      <trkpt lat="48.72331" lon="7.27121">
        <ele>346.2</ele>
        <time>2011-07-10T12:02:19Z</time>
      </trkpt>
      <trkpt lat="48.72324" lon="7.27112">
        <ele>348.4</ele>
        <time>2011-07-10T12:02:50Z</time>
      </trkpt>
      <trkpt lat="48.72315" lon="7.27113">
        <ele>350.5</ele>
        <time>2011-07-10T12:03:02Z</time>
      </trkpt>
      <trkpt lat="48.72307" lon="7.27108">
        <ele>352.7</ele>
        <time>2011-07-10T12:03:08Z</time>
      </trkpt>
      <trkpt lat="48.72299" lon="7.27106">
        <ele>354.9</ele>
        <time>2011-07-10T12:03:16Z</time>
      </trkpt>
      <trkpt lat="48.7229" lon="7.27101">
        <ele>357.1</ele>
        <time>2011-07-10T12:03:26Z</time>
      </trkpt>
      <trkpt lat="48.72281" lon="7.27096">
        <ele>359.3</ele>
        <time>2011-07-10T12:03:37Z</time>
      </trkpt>
      <trkpt lat="48.72273" lon="7.27094">
        <ele>361.5</ele>
        <time>2011-07-10T12:03:44Z</time>
      </trkpt>
      <trkpt lat="48.72265" lon="7.27091">
        <ele>363.6</ele>
        <time>2011-07-10T12:03:51Z</time>
      </trkpt>
      <trkpt lat="48.72256" lon="7.27092">
        <ele>365.8</ele>
        <time>2011-07-10T12:03:57Z</time>
      </trkpt>
      <trkpt lat="48.72248" lon="7.27089">
        <ele>368.7</ele>
        <time>2011-07-10T12:04:04Z</time>
      </trkpt>
      <trkpt lat="48.7224" lon="7.27085">
        <ele>369.5</ele>
        <time>2011-07-10T12:04:19Z</time>
      </trkpt>
      <trkpt lat="48.72232" lon="7.2708">
        <ele>370.2</ele>
        <time>2011-07-10T12:04:28Z</time>
      </trkpt>
      <trkpt lat="48.72224" lon="7.27073">
        <ele>370.9</ele>
        <time>2011-07-10T12:04:36Z</time>
      </trkpt>
      <trkpt lat="48.72214" lon="7.27075">
        <ele>371.6</ele>
        <time>2011-07-10T12:04:44Z</time>
      </trkpt>
      <trkpt lat="48.72206" lon="7.27073">
        <ele>372.4</ele>
        <time>2011-07-10T12:04:49Z</time>
      </trkpt>
      <trkpt lat="48.72197" lon="7.27074">
        <ele>373.1</ele>
        <time>2011-07-10T12:04:55Z</time>
      </trkpt>
      <trkpt lat="48.72189" lon="7.27072">
        <ele>373.8</ele>
        <time>2011-07-10T12:04:59Z</time>
      </trkpt>
      <trkpt lat="48.72181" lon="7.27074">
        <ele>374.5</ele>
        <time>2011-07-10T12:05:04Z</time>
      </trkpt>
      <trkpt lat="48.72173" lon="7.27076">
        <ele>375.3</ele>
        <time>2011-07-10T12:05:10Z</time>
      </trkpt>
      <trkpt lat="48.72165" lon="7.27079">
        <ele>376.5</ele>
        <time>2011-07-10T12:05:16Z</time>
      </trkpt>
      <trkpt lat="48.72157" lon="7.27084">
        <ele>376.9</ele>
        <time>2011-07-10T12:05:21Z</time>
      </trkpt>
      <trkpt lat="48.72147" lon="7.27085">
        <ele>377.4</ele>
        <time>2011-07-10T12:05:29Z</time>
      </trkpt>
      <trkpt lat="48.72139" lon="7.27089">
        <ele>377.8</ele>
        <time>2011-07-10T12:05:33Z</time>
      </trkpt>
      <trkpt lat="48.7213" lon="7.27093">
        <ele>378.3</ele>
        <time>2011-07-10T12:05:38Z</time>
      </trkpt>
      <trkpt lat="48.72122" lon="7.27099">
        <ele>378.7</ele>
        <time>2011-07-10T12:05:44Z</time>
      </trkpt>
      <trkpt lat="48.72113" lon="7.27099">
        <ele>379.2</ele>
        <time>2011-07-10T12:05:52Z</time>
      </trkpt>
      <trkpt lat="48.72104" lon="7.271">
        <ele>379.6</ele>
        <time>2011-07-10T12:05:57Z</time>
      </trkpt>
      <trkpt lat="48.72095" lon="7.27104">
        <ele>380.1</ele>
        <time>2011-07-10T12:06:03Z</time>
      </trkpt>
      <trkpt lat="48.72086" lon="7.27108">
        <ele>381.3</ele>
        <time>2011-07-10T12:06:07Z</time>
      </trkpt>
      <trkpt lat="48.72076" lon="7.27111">
        <ele>382.5</ele>
        <time>2011-07-10T12:06:12Z</time>
      </trkpt>
      <trkpt lat="48.72065" lon="7.27112">
        <ele>383.2</ele>
        <time>2011-07-10T12:06:21Z</time>
      </trkpt>
      <trkpt lat="48.72056" lon="7.27113">
        <ele>383.9</ele>
        <time>2011-07-10T12:06:26Z</time>
      </trkpt>
      <trkpt lat="48.72048" lon="7.27117">
        <ele>384.6</ele>
        <time>2011-07-10T12:06:31Z</time>
      </trkpt>
      <trkpt lat="48.7204" lon="7.2712">
        <ele>385.4</ele>
        <time>2011-07-10T12:06:34Z</time>
      </trkpt>
      <trkpt lat="48.72031" lon="7.27123">
        <ele>386.1</ele>
        <time>2011-07-10T12:06:38Z</time>
      </trkpt>
      <trkpt lat="48.72021" lon="7.27126">
        <ele>386.8</ele>
        <time>2011-07-10T12:06:42Z</time>
      </trkpt>
      <trkpt lat="48.72012" lon="7.27125">
        <ele>387.5</ele>
        <time>2011-07-10T12:06:46Z</time>
      </trkpt>
      <trkpt lat="48.72004" lon="7.27123">
        <ele>388.5</ele>
        <time>2011-07-10T12:06:52Z</time>
      </trkpt>
      <trkpt lat="48.71994" lon="7.27121">
        <ele>389.5</ele>
        <time>2011-07-10T12:06:59Z</time>
      </trkpt>
      <trkpt lat="48.71985" lon="7.27122">
        <ele>391.4</ele>
        <time>2011-07-10T12:07:04Z</time>
      </trkpt>
      <trkpt lat="48.71976" lon="7.27124">
        <ele>393.2</ele>
        <time>2011-07-10T12:07:08Z</time>
      </trkpt>
      <trkpt lat="48.71967" lon="7.27125">
        <ele>395</ele>
        <time>2011-07-10T12:07:13Z</time>
      </trkpt>
      <trkpt lat="48.71958" lon="7.27128">
        <ele>396.8</ele>
        <time>2011-07-10T12:07:18Z</time>
      </trkpt>
      <trkpt lat="48.7195" lon="7.2713">
        <ele>398.6</ele>
        <time>2011-07-10T12:07:28Z</time>
      </trkpt>
      <trkpt lat="48.71941" lon="7.27135">
        <ele>400.5</ele>
        <time>2011-07-10T12:07:36Z</time>
      </trkpt>
      <trkpt lat="48.71932" lon="7.27139">
        <ele>402.3</ele>
        <time>2011-07-10T12:07:41Z</time>
      </trkpt>
      <trkpt lat="48.71925" lon="7.27145">
        <ele>404.1</ele>
        <time>2011-07-10T12:07:49Z</time>
      </trkpt>
      <trkpt lat="48.71917" lon="7.27146">
        <ele>405.9</ele>
        <time>2011-07-10T12:07:58Z</time>
      </trkpt>
      <trkpt lat="48.71908" lon="7.27148">
        <ele>407.5</ele>
        <time>2011-07-10T12:08:08Z</time>
      </trkpt>
      <trkpt lat="48.71899" lon="7.27148">
        <ele>409</ele>
        <time>2011-07-10T12:08:14Z</time>
      </trkpt>
      <trkpt lat="48.7189" lon="7.27152">
        <ele>409</ele>
        <time>2011-07-10T12:08:19Z</time>
      </trkpt>
      <trkpt lat="48.71881" lon="7.27159">
        <ele>409</ele>
        <time>2011-07-10T12:08:26Z</time>
      </trkpt>
      <trkpt lat="48.71872" lon="7.27164">
        <ele>409</ele>
        <time>2011-07-10T12:08:31Z</time>
      </trkpt>
      <trkpt lat="48.71863" lon="7.27169">
        <ele>409</ele>
        <time>2011-07-10T12:08:38Z</time>
      </trkpt>
      <trkpt lat="48.71854" lon="7.27173">
        <ele>409</ele>
        <time>2011-07-10T12:08:44Z</time>
      </trkpt>
      <trkpt lat="48.71846" lon="7.27166">
        <ele>409</ele>
        <time>2011-07-10T12:08:47Z</time>
      </trkpt>
      <trkpt lat="48.71838" lon="7.27161">
        <ele>410</ele>
        <time>2011-07-10T12:08:49Z</time>
      </trkpt>
      <trkpt lat="48.71828" lon="7.2716">
        <ele>411</ele>
        <time>2011-07-10T12:08:52Z</time>
      </trkpt>
      <trkpt lat="48.7182" lon="7.27165">
        <ele>412</ele>
        <time>2011-07-10T12:08:59Z</time>
      </trkpt>
      <trkpt lat="48.71811" lon="7.27167">
        <ele>413</ele>
        <time>2011-07-10T12:09:05Z</time>
      </trkpt>
      <trkpt lat="48.71802" lon="7.27166">
        <ele>414</ele>
        <time>2011-07-10T12:09:11Z</time>
      </trkpt>
      <trkpt lat="48.71794" lon="7.2716">
        <ele>415</ele>
        <time>2011-07-10T12:09:18Z</time>
      </trkpt>
      <trkpt lat="48.71786" lon="7.27158">
        <ele>414.9</ele>
        <time>2011-07-10T12:09:24Z</time>
      </trkpt>
      <trkpt lat="48.71778" lon="7.27153">
        <ele>414.8</ele>
        <time>2011-07-10T12:09:28Z</time>
      </trkpt>
      <trkpt lat="48.71769" lon="7.27148">
        <ele>414.7</ele>
        <time>2011-07-10T12:09:31Z</time>
      </trkpt>
      <trkpt lat="48.71761" lon="7.27143">
        <ele>414.6</ele>
        <time>2011-07-10T12:09:34Z</time>
      </trkpt>
      <trkpt lat="48.71753" lon="7.27136">
        <ele>414.5</ele>
        <time>2011-07-10T12:09:38Z</time>
      </trkpt>
      <trkpt lat="48.71745" lon="7.27129">
        <ele>415.3</ele>
        <time>2011-07-10T12:09:43Z</time>
      </trkpt>
      <trkpt lat="48.71738" lon="7.27121">
        <ele>416</ele>
        <time>2011-07-10T12:09:47Z</time>
      </trkpt>
      <trkpt lat="48.7173" lon="7.27113">
        <ele>416.7</ele>
        <time>2011-07-10T12:09:51Z</time>
      </trkpt>
      <trkpt lat="48.71723" lon="7.27105">
        <ele>417.5</ele>
        <time>2011-07-10T12:09:55Z</time>
      </trkpt>
      <trkpt lat="48.71716" lon="7.27095">
        <ele>418.2</ele>
        <time>2011-07-10T12:10:00Z</time>
      </trkpt>
      <trkpt lat="48.71709" lon="7.27088">
        <ele>418.9</ele>
        <time>2011-07-10T12:10:04Z</time>
      </trkpt>
      <trkpt lat="48.71701" lon="7.27081">
        <ele>419.9</ele>
        <time>2011-07-10T12:10:10Z</time>
      </trkpt>
      <trkpt lat="48.71692" lon="7.27077">
        <ele>420.9</ele>
        <time>2011-07-10T12:10:14Z</time>
      </trkpt>
      <trkpt lat="48.71684" lon="7.27067">
        <ele>421.9</ele>
        <time>2011-07-10T12:10:20Z</time>
      </trkpt>
      <trkpt lat="48.71678" lon="7.27056">
        <ele>422.9</ele>
        <time>2011-07-10T12:10:27Z</time>
      </trkpt>
      <trkpt lat="48.71671" lon="7.27049">
        <ele>423.9</ele>
        <time>2011-07-10T12:10:33Z</time>
      </trkpt>
      <trkpt lat="48.71662" lon="7.27045">
        <ele>424.7</ele>
        <time>2011-07-10T12:10:37Z</time>
      </trkpt>
      <trkpt lat="48.71655" lon="7.27036">
        <ele>425.5</ele>
        <time>2011-07-10T12:10:43Z</time>
      </trkpt>
      <trkpt lat="48.71646" lon="7.2703">
        <ele>426.4</ele>
        <time>2011-07-10T12:10:48Z</time>
      </trkpt>
      <trkpt lat="48.71639" lon="7.2702">
        <ele>427.2</ele>
        <time>2011-07-10T12:10:54Z</time>
      </trkpt>
      <trkpt lat="48.71633" lon="7.27009">
        <ele>428</ele>
        <time>2011-07-10T12:10:59Z</time>
      </trkpt>
      <trkpt lat="48.71626" lon="7.27">
        <ele>428.8</ele>
        <time>2011-07-10T12:11:05Z</time>
      </trkpt>
      <trkpt lat="48.7162" lon="7.26989">
        <ele>430.5</ele>
        <time>2011-07-10T12:11:11Z</time>
      </trkpt>
      <trkpt lat="48.71613" lon="7.2698">
        <ele>432.1</ele>
        <time>2011-07-10T12:11:18Z</time>
      </trkpt>
      <trkpt lat="48.71606" lon="7.26975">
        <ele>433.7</ele>
        <time>2011-07-10T12:11:28Z</time>
      </trkpt>
      <trkpt lat="48.71598" lon="7.26978">
        <ele>435.4</ele>
        <time>2011-07-10T12:11:36Z</time>
      </trkpt>
      <trkpt lat="48.71592" lon="7.26987">
        <ele>437</ele>
        <time>2011-07-10T12:11:45Z</time>
      </trkpt>
      <trkpt lat="48.71581" lon="7.26994">
        <ele>437</ele>
        <time>2011-07-10T12:11:55Z</time>
      </trkpt>
      <trkpt lat="48.71588" lon="7.27019">
        <ele>437.5</ele>
        <time>2011-07-10T12:12:02Z</time>
      </trkpt>
      <trkpt lat="48.71578" lon="7.27018">
        <ele>437.9</ele>
        <time>2011-07-10T12:12:08Z</time>
      </trkpt>
      <trkpt lat="48.71573" lon="7.2703">
        <ele>438.4</ele>
        <time>2011-07-10T12:12:23Z</time>
      </trkpt>
      <trkpt lat="48.71565" lon="7.27037">
        <ele>438.8</ele>
        <time>2011-07-10T12:12:33Z</time>
      </trkpt>
      <trkpt lat="48.71561" lon="7.27048">
        <ele>439.3</ele>
        <time>2011-07-10T12:12:40Z</time>
      </trkpt>
      <trkpt lat="48.7156" lon="7.27069">
        <ele>439.7</ele>
        <time>2011-07-10T12:12:47Z</time>
      </trkpt>
      <trkpt lat="48.71557" lon="7.2708">
        <ele>440.7</ele>
        <time>2011-07-10T12:12:55Z</time>
      </trkpt>
      <trkpt lat="48.71563" lon="7.27092">
        <ele>441.7</ele>
        <time>2011-07-10T12:13:03Z</time>
      </trkpt>
      <trkpt lat="48.71562" lon="7.27106">
        <ele>442.7</ele>
        <time>2011-07-10T12:13:37Z</time>
      </trkpt>
      <trkpt lat="48.71564" lon="7.27118">
        <ele>443.7</ele>
        <time>2011-07-10T12:13:41Z</time>
      </trkpt>
      <trkpt lat="48.71567" lon="7.2713">
        <ele>444.7</ele>
        <time>2011-07-10T12:13:44Z</time>
      </trkpt>
      <trkpt lat="48.71574" lon="7.27141">
        <ele>445.3</ele>
        <time>2011-07-10T12:13:48Z</time>
      </trkpt>
      <trkpt lat="48.71579" lon="7.27154">
        <ele>446.5</ele>
        <time>2011-07-10T12:13:51Z</time>
      </trkpt>
      <trkpt lat="48.71583" lon="7.27167">
        <ele>447.6</ele>
        <time>2011-07-10T12:13:54Z</time>
      </trkpt>
      <trkpt lat="48.71587" lon="7.27181">
        <ele>448.8</ele>
        <time>2011-07-10T12:13:57Z</time>
      </trkpt>
      <trkpt lat="48.7159" lon="7.27194">
        <ele>450</ele>
        <time>2011-07-10T12:14:00Z</time>
      </trkpt>
      <trkpt lat="48.71592" lon="7.27206">
        <ele>451.2</ele>
        <time>2011-07-10T12:14:03Z</time>
      </trkpt>
      <trkpt lat="48.71596" lon="7.27219">
        <ele>451.8</ele>
        <time>2011-07-10T12:14:07Z</time>
      </trkpt>
      <trkpt lat="48.71602" lon="7.27235">
        <ele>453.1</ele>
        <time>2011-07-10T12:14:10Z</time>
      </trkpt>
      <trkpt lat="48.71606" lon="7.27247">
        <ele>453</ele>
        <time>2011-07-10T12:14:13Z</time>
      </trkpt>
      <trkpt lat="48.71611" lon="7.27261">
        <ele>452.9</ele>
        <time>2011-07-10T12:14:16Z</time>
      </trkpt>
      <trkpt lat="48.71617" lon="7.27273">
        <ele>452.8</ele>
        <time>2011-07-10T12:14:19Z</time>
      </trkpt>
      <trkpt lat="48.71621" lon="7.27287">
        <ele>452.7</ele>
        <time>2011-07-10T12:14:22Z</time>
      </trkpt>
      <trkpt lat="48.71624" lon="7.27301">
        <ele>452</ele>
        <time>2011-07-10T12:14:25Z</time>
      </trkpt>
      <trkpt lat="48.71628" lon="7.27315">
        <ele>451.9</ele>
        <time>2011-07-10T12:14:28Z</time>
      </trkpt>
      <trkpt lat="48.71632" lon="7.27327">
        <ele>451.8</ele>
        <time>2011-07-10T12:14:31Z</time>
      </trkpt>
      <trkpt lat="48.71636" lon="7.27341">
        <ele>451.7</ele>
        <time>2011-07-10T12:14:34Z</time>
      </trkpt>
      <trkpt lat="48.7164" lon="7.27354">
        <ele>451.6</ele>
        <time>2011-07-10T12:14:37Z</time>
      </trkpt>
      <trkpt lat="48.71643" lon="7.27367">
        <ele>451.5</ele>
        <time>2011-07-10T12:14:40Z</time>
      </trkpt>
      <trkpt lat="48.71647" lon="7.27381">
        <ele>450.8</ele>
        <time>2011-07-10T12:14:43Z</time>
      </trkpt>
      <trkpt lat="48.71651" lon="7.27395">
        <ele>451.3</ele>
        <time>2011-07-10T12:14:46Z</time>
      </trkpt>
      <trkpt lat="48.71653" lon="7.27408">
        <ele>451.7</ele>
        <time>2011-07-10T12:14:49Z</time>
      </trkpt>
      <trkpt lat="48.71656" lon="7.27422">
        <ele>452.2</ele>
        <time>2011-07-10T12:14:52Z</time>
      </trkpt>
      <trkpt lat="48.71657" lon="7.27435">
        <ele>452.6</ele>
        <time>2011-07-10T12:14:55Z</time>
      </trkpt>
      <trkpt lat="48.71657" lon="7.2745">
        <ele>453.1</ele>
        <time>2011-07-10T12:14:58Z</time>
      </trkpt>
      <trkpt lat="48.71657" lon="7.27462">
        <ele>452.9</ele>
        <time>2011-07-10T12:15:01Z</time>
      </trkpt>
      <trkpt lat="48.71655" lon="7.27478">
        <ele>452.7</ele>
        <time>2011-07-10T12:15:05Z</time>
      </trkpt>
      <trkpt lat="48.71652" lon="7.2749">
        <ele>452.5</ele>
        <time>2011-07-10T12:15:08Z</time>
      </trkpt>
      <trkpt lat="48.71648" lon="7.27502">
        <ele>452.4</ele>
        <time>2011-07-10T12:15:11Z</time>
      </trkpt>
      <trkpt lat="48.71649" lon="7.27515">
        <ele>452</ele>
        <time>2011-07-10T12:15:15Z</time>
      </trkpt>
      <trkpt lat="48.71657" lon="7.27523">
        <ele>451.6</ele>
        <time>2011-07-10T12:15:18Z</time>
      </trkpt>
      <trkpt lat="48.7167" lon="7.27529">
        <ele>451.5</ele>
        <time>2011-07-10T12:15:21Z</time>
      </trkpt>
      <trkpt lat="48.71679" lon="7.2753">
        <ele>451.3</ele>
        <time>2011-07-10T12:15:23Z</time>
      </trkpt>
      <trkpt lat="48.71688" lon="7.27536">
        <ele>451.1</ele>
        <time>2011-07-10T12:15:25Z</time>
      </trkpt>
      <trkpt lat="48.71698" lon="7.27544">
        <ele>450.9</ele>
        <time>2011-07-10T12:15:27Z</time>
      </trkpt>
      <trkpt lat="48.71709" lon="7.27551">
        <ele>450.7</ele>
        <time>2011-07-10T12:15:29Z</time>
      </trkpt>
      <trkpt lat="48.71718" lon="7.27557">
        <ele>450.5</ele>
        <time>2011-07-10T12:15:30Z</time>
      </trkpt>
      <trkpt lat="48.71724" lon="7.27565">
        <ele>450.4</ele>
        <time>2011-07-10T12:15:32Z</time>
      </trkpt>
      <trkpt lat="48.71732" lon="7.27573">
        <ele>449.9</ele>
        <time>2011-07-10T12:15:34Z</time>
      </trkpt>
      <trkpt lat="48.71737" lon="7.27589">
        <ele>449.5</ele>
        <time>2011-07-10T12:15:38Z</time>
      </trkpt>
      <trkpt lat="48.71741" lon="7.27606">
        <ele>449.2</ele>
        <time>2011-07-10T12:15:40Z</time>
      </trkpt>
      <trkpt lat="48.71742" lon="7.27619">
        <ele>448.9</ele>
        <time>2011-07-10T12:15:42Z</time>
      </trkpt>
      <trkpt lat="48.71743" lon="7.27631">
        <ele>448.6</ele>
        <time>2011-07-10T12:15:45Z</time>
      </trkpt>
      <trkpt lat="48.71741" lon="7.27648">
        <ele>448.4</ele>
        <time>2011-07-10T12:15:48Z</time>
      </trkpt>
      <trkpt lat="48.7174" lon="7.27667">
        <ele>446.8</ele>
        <time>2011-07-10T12:15:50Z</time>
      </trkpt>
      <trkpt lat="48.71742" lon="7.27686">
        <ele>445.3</ele>
        <time>2011-07-10T12:15:52Z</time>
      </trkpt>
      <trkpt lat="48.71749" lon="7.27702">
        <ele>443.7</ele>
        <time>2011-07-10T12:15:54Z</time>
      </trkpt>
      <trkpt lat="48.71757" lon="7.27711">
        <ele>442.2</ele>
        <time>2011-07-10T12:15:56Z</time>
      </trkpt>
      <trkpt lat="48.71763" lon="7.2772">
        <ele>441.6</ele>
        <time>2011-07-10T12:15:58Z</time>
      </trkpt>
      <trkpt lat="48.71771" lon="7.27724">
        <ele>441.4</ele>
        <time>2011-07-10T12:16:01Z</time>
      </trkpt>
      <trkpt lat="48.71778" lon="7.27731">
        <ele>441.1</ele>
        <time>2011-07-10T12:16:03Z</time>
      </trkpt>
      <trkpt lat="48.71787" lon="7.27738">
        <ele>440.8</ele>
        <time>2011-07-10T12:16:05Z</time>
      </trkpt>
      <trkpt lat="48.71795" lon="7.27745">
        <ele>440.5</ele>
        <time>2011-07-10T12:16:07Z</time>
      </trkpt>
      <trkpt lat="48.71802" lon="7.27754">
        <ele>440.3</ele>
        <time>2011-07-10T12:16:09Z</time>
      </trkpt>
      <trkpt lat="48.71813" lon="7.27768">
        <ele>438.9</ele>
        <time>2011-07-10T12:16:12Z</time>
      </trkpt>
      <trkpt lat="48.71821" lon="7.27773">
        <ele>438.8</ele>
        <time>2011-07-10T12:16:14Z</time>
      </trkpt>
      <trkpt lat="48.71828" lon="7.27783">
        <ele>438.7</ele>
        <time>2011-07-10T12:16:16Z</time>
      </trkpt>
      <trkpt lat="48.71836" lon="7.27792">
        <ele>439.5</ele>
        <time>2011-07-10T12:16:18Z</time>
      </trkpt>
      <trkpt lat="48.71846" lon="7.27801">
        <ele>440.4</ele>
        <time>2011-07-10T12:16:21Z</time>
      </trkpt>
      <trkpt lat="48.71853" lon="7.27809">
        <ele>440.2</ele>
        <time>2011-07-10T12:16:23Z</time>
      </trkpt>
      <trkpt lat="48.71863" lon="7.27816">
        <ele>440</ele>
        <time>2011-07-10T12:16:25Z</time>
      </trkpt>
      <trkpt lat="48.71871" lon="7.27824">
        <ele>439.8</ele>
        <time>2011-07-10T12:16:28Z</time>
      </trkpt>
      <trkpt lat="48.71881" lon="7.27832">
        <ele>439.6</ele>
        <time>2011-07-10T12:16:31Z</time>
      </trkpt>
      <trkpt lat="48.71888" lon="7.27838">
        <ele>439.5</ele>
        <time>2011-07-10T12:16:33Z</time>
      </trkpt>
      <trkpt lat="48.71897" lon="7.27843">
        <ele>437.8</ele>
        <time>2011-07-10T12:16:35Z</time>
      </trkpt>
      <trkpt lat="48.71907" lon="7.27852">
        <ele>437.3</ele>
        <time>2011-07-10T12:16:37Z</time>
      </trkpt>
      <trkpt lat="48.71913" lon="7.27861">
        <ele>436.7</ele>
        <time>2011-07-10T12:16:39Z</time>
      </trkpt>
      <trkpt lat="48.71923" lon="7.27869">
        <ele>437.1</ele>
        <time>2011-07-10T12:16:42Z</time>
      </trkpt>
      <trkpt lat="48.71931" lon="7.27879">
        <ele>436.5</ele>
        <time>2011-07-10T12:16:44Z</time>
      </trkpt>
      <trkpt lat="48.71938" lon="7.27885">
        <ele>436</ele>
        <time>2011-07-10T12:16:46Z</time>
      </trkpt>
      <trkpt lat="48.71947" lon="7.27891">
        <ele>435.5</ele>
        <time>2011-07-10T12:16:49Z</time>
      </trkpt>
      <trkpt lat="48.71955" lon="7.27898">
        <ele>434.9</ele>
        <time>2011-07-10T12:16:51Z</time>
      </trkpt>
      <trkpt lat="48.71964" lon="7.27911">
        <ele>434.4</ele>
        <time>2011-07-10T12:16:54Z</time>
      </trkpt>
      <trkpt lat="48.71972" lon="7.2792">
        <ele>432.8</ele>
        <time>2011-07-10T12:16:56Z</time>
      </trkpt>
      <trkpt lat="48.71984" lon="7.2793">
        <ele>431.3</ele>
        <time>2011-07-10T12:16:59Z</time>
      </trkpt>
      <trkpt lat="48.71991" lon="7.27941">
        <ele>431.2</ele>
        <time>2011-07-10T12:17:02Z</time>
      </trkpt>
      <trkpt lat="48.71996" lon="7.27952">
        <ele>431.1</ele>
        <time>2011-07-10T12:17:04Z</time>
      </trkpt>
      <trkpt lat="48.72004" lon="7.27966">
        <ele>432.6</ele>
        <time>2011-07-10T12:17:07Z</time>
      </trkpt>
      <trkpt lat="48.72007" lon="7.2798">
        <ele>433.3</ele>
        <time>2011-07-10T12:17:11Z</time>
      </trkpt>
      <trkpt lat="48.72018" lon="7.27987">
        <ele>433.9</ele>
        <time>2011-07-10T12:17:13Z</time>
      </trkpt>
      <trkpt lat="48.72027" lon="7.27991">
        <ele>434.5</ele>
        <time>2011-07-10T12:17:18Z</time>
      </trkpt>
      <trkpt lat="48.72038" lon="7.27997">
        <ele>434.4</ele>
        <time>2011-07-10T12:17:25Z</time>
      </trkpt>
      <trkpt lat="48.72045" lon="7.28005">
        <ele>434.2</ele>
        <time>2011-07-10T12:17:30Z</time>
      </trkpt>
      <trkpt lat="48.7205" lon="7.28016">
        <ele>434</ele>
        <time>2011-07-10T12:17:34Z</time>
      </trkpt>
      <trkpt lat="48.72055" lon="7.28027">
        <ele>434.8</ele>
        <time>2011-07-10T12:17:37Z</time>
      </trkpt>
      <trkpt lat="48.72059" lon="7.28041">
        <ele>435.6</ele>
        <time>2011-07-10T12:17:41Z</time>
      </trkpt>
      <trkpt lat="48.72065" lon="7.28055">
        <ele>436.5</ele>
        <time>2011-07-10T12:17:44Z</time>
      </trkpt>
      <trkpt lat="48.72071" lon="7.28066">
        <ele>437.3</ele>
        <time>2011-07-10T12:17:47Z</time>
      </trkpt>
      <trkpt lat="48.72074" lon="7.2808">
        <ele>435.3</ele>
        <time>2011-07-10T12:17:50Z</time>
      </trkpt>
      <trkpt lat="48.7208" lon="7.28089">
        <ele>433.3</ele>
        <time>2011-07-10T12:17:52Z</time>
      </trkpt>
      <trkpt lat="48.72085" lon="7.28101">
        <ele>431.3</ele>
        <time>2011-07-10T12:17:55Z</time>
      </trkpt>
      <trkpt lat="48.7209" lon="7.28112">
        <ele>429.3</ele>
        <time>2011-07-10T12:17:58Z</time>
      </trkpt>
      <trkpt lat="48.72093" lon="7.28124">
        <ele>428.1</ele>
        <time>2011-07-10T12:18:00Z</time>
      </trkpt>
      <trkpt lat="48.72097" lon="7.28134">
        <ele>428.7</ele>
        <time>2011-07-10T12:18:02Z</time>
      </trkpt>
      <trkpt lat="48.72103" lon="7.28148">
        <ele>428.6</ele>
        <time>2011-07-10T12:18:04Z</time>
      </trkpt>
      <trkpt lat="48.72109" lon="7.28162">
        <ele>428.5</ele>
        <time>2011-07-10T12:18:06Z</time>
      </trkpt>
      <trkpt lat="48.72116" lon="7.28174">
        <ele>428.5</ele>
        <time>2011-07-10T12:18:08Z</time>
      </trkpt>
      <trkpt lat="48.72122" lon="7.28186">
        <ele>428.4</ele>
        <time>2011-07-10T12:18:10Z</time>
      </trkpt>
      <trkpt lat="48.7213" lon="7.28199">
        <ele>428.3</ele>
        <time>2011-07-10T12:18:12Z</time>
      </trkpt>
      <trkpt lat="48.72135" lon="7.28213">
        <ele>429.4</ele>
        <time>2011-07-10T12:18:14Z</time>
      </trkpt>
      <trkpt lat="48.7214" lon="7.28226">
        <ele>430.5</ele>
        <time>2011-07-10T12:18:17Z</time>
      </trkpt>
      <trkpt lat="48.72147" lon="7.28238">
        <ele>431.5</ele>
        <time>2011-07-10T12:18:20Z</time>
      </trkpt>
      <trkpt lat="48.72153" lon="7.28249">
        <ele>431.6</ele>
        <time>2011-07-10T12:18:22Z</time>
      </trkpt>
      <trkpt lat="48.7216" lon="7.2826">
        <ele>431.7</ele>
        <time>2011-07-10T12:18:24Z</time>
      </trkpt>
      <trkpt lat="48.72166" lon="7.28272">
        <ele>430</ele>
        <time>2011-07-10T12:18:26Z</time>
      </trkpt>
      <trkpt lat="48.7217" lon="7.28283">
        <ele>429</ele>
        <time>2011-07-10T12:18:28Z</time>
      </trkpt>
      <trkpt lat="48.72177" lon="7.28294">
        <ele>428</ele>
        <time>2011-07-10T12:18:30Z</time>
      </trkpt>
      <trkpt lat="48.72184" lon="7.28306">
        <ele>428.5</ele>
        <time>2011-07-10T12:18:33Z</time>
      </trkpt>
      <trkpt lat="48.7219" lon="7.2832">
        <ele>428.3</ele>
        <time>2011-07-10T12:18:36Z</time>
      </trkpt>
      <trkpt lat="48.72196" lon="7.28331">
        <ele>428</ele>
        <time>2011-07-10T12:18:38Z</time>
      </trkpt>
      <trkpt lat="48.72201" lon="7.28343">
        <ele>427.7</ele>
        <time>2011-07-10T12:18:41Z</time>
      </trkpt>
      <trkpt lat="48.72204" lon="7.28358">
        <ele>427.5</ele>
        <time>2011-07-10T12:18:44Z</time>
      </trkpt>
      <trkpt lat="48.72211" lon="7.28373">
        <ele>426.8</ele>
        <time>2011-07-10T12:18:46Z</time>
      </trkpt>
      <trkpt lat="48.72214" lon="7.28386">
        <ele>427.2</ele>
        <time>2011-07-10T12:18:48Z</time>
      </trkpt>
      <trkpt lat="48.7222" lon="7.28405">
        <ele>427.5</ele>
        <time>2011-07-10T12:18:50Z</time>
      </trkpt>
      <trkpt lat="48.72226" lon="7.28429">
        <ele>427.9</ele>
        <time>2011-07-10T12:18:52Z</time>
      </trkpt>
      <trkpt lat="48.7223" lon="7.28442">
        <ele>428.3</ele>
        <time>2011-07-10T12:18:53Z</time>
      </trkpt>
      <trkpt lat="48.72234" lon="7.28468">
        <ele>427.9</ele>
        <time>2011-07-10T12:18:55Z</time>
      </trkpt>
      <trkpt lat="48.7224" lon="7.28494">
        <ele>426</ele>
        <time>2011-07-10T12:18:57Z</time>
      </trkpt>
      <trkpt lat="48.72243" lon="7.28506">
        <ele>424.9</ele>
        <time>2011-07-10T12:18:58Z</time>
      </trkpt>
      <trkpt lat="48.72245" lon="7.28524">
        <ele>423.8</ele>
        <time>2011-07-10T12:19:00Z</time>
      </trkpt>
      <trkpt lat="48.72248" lon="7.28541">
        <ele>422.7</ele>
        <time>2011-07-10T12:19:02Z</time>
      </trkpt>
      <trkpt lat="48.7225" lon="7.28557">
        <ele>421</ele>
        <time>2011-07-10T12:19:04Z</time>
      </trkpt>
      <trkpt lat="48.72254" lon="7.28573">
        <ele>419.6</ele>
        <time>2011-07-10T12:19:06Z</time>
      </trkpt>
      <trkpt lat="48.72257" lon="7.28591">
        <ele>418.3</ele>
        <time>2011-07-10T12:19:08Z</time>
      </trkpt>
      <trkpt lat="48.72261" lon="7.28607">
        <ele>416.9</ele>
        <time>2011-07-10T12:19:10Z</time>
      </trkpt>
      <trkpt lat="48.72269" lon="7.28627">
        <ele>415.5</ele>
        <time>2011-07-10T12:19:12Z</time>
      </trkpt>
      <trkpt lat="48.72272" lon="7.28641">
        <ele>412.9</ele>
        <time>2011-07-10T12:19:14Z</time>
      </trkpt>
      <trkpt lat="48.72275" lon="7.28656">
        <ele>411</ele>
        <time>2011-07-10T12:19:16Z</time>
      </trkpt>
      <trkpt lat="48.72278" lon="7.28671">
        <ele>411.4</ele>
        <time>2011-07-10T12:19:18Z</time>
      </trkpt>
      <trkpt lat="48.7228" lon="7.28688">
        <ele>411.7</ele>
        <time>2011-07-10T12:19:20Z</time>
      </trkpt>
      <trkpt lat="48.72286" lon="7.28704">
        <ele>412.1</ele>
        <time>2011-07-10T12:19:22Z</time>
      </trkpt>
      <trkpt lat="48.72293" lon="7.28723">
        <ele>412.5</ele>
        <time>2011-07-10T12:19:24Z</time>
      </trkpt>
      <trkpt lat="48.72297" lon="7.2874">
        <ele>412.7</ele>
        <time>2011-07-10T12:19:26Z</time>
      </trkpt>
      <trkpt lat="48.72302" lon="7.28756">
        <ele>413</ele>
        <time>2011-07-10T12:19:28Z</time>
      </trkpt>
      <trkpt lat="48.72306" lon="7.28772">
        <ele>413.3</ele>
        <time>2011-07-10T12:19:30Z</time>
      </trkpt>
      <trkpt lat="48.7231" lon="7.28785">
        <ele>413.5</ele>
        <time>2011-07-10T12:19:32Z</time>
      </trkpt>
      <trkpt lat="48.72315" lon="7.288">
        <ele>413.8</ele>
        <time>2011-07-10T12:19:34Z</time>
      </trkpt>
      <trkpt lat="48.72319" lon="7.28814">
        <ele>414.9</ele>
        <time>2011-07-10T12:19:35Z</time>
      </trkpt>
      <trkpt lat="48.72322" lon="7.28825">
        <ele>416</ele>
        <time>2011-07-10T12:19:36Z</time>
      </trkpt>
      <trkpt lat="48.72324" lon="7.28841">
        <ele>414.8</ele>
        <time>2011-07-10T12:19:38Z</time>
      </trkpt>
      <trkpt lat="48.72329" lon="7.28858">
        <ele>413.6</ele>
        <time>2011-07-10T12:19:40Z</time>
      </trkpt>
      <trkpt lat="48.72333" lon="7.28876">
        <ele>412.5</ele>
        <time>2011-07-10T12:19:43Z</time>
      </trkpt>
      <trkpt lat="48.72335" lon="7.2889">
        <ele>411.3</ele>
        <time>2011-07-10T12:19:45Z</time>
      </trkpt>
      <trkpt lat="48.7234" lon="7.28906">
        <ele>410.6</ele>
        <time>2011-07-10T12:19:47Z</time>
      </trkpt>
      <trkpt lat="48.72341" lon="7.28918">
        <ele>410</ele>
        <time>2011-07-10T12:19:49Z</time>
      </trkpt>
      <trkpt lat="48.72343" lon="7.28934">
        <ele>409.4</ele>
        <time>2011-07-10T12:19:51Z</time>
      </trkpt>
      <trkpt lat="48.72343" lon="7.28947">
        <ele>408.7</ele>
        <time>2011-07-10T12:19:53Z</time>
      </trkpt>
      <trkpt lat="48.72344" lon="7.28959">
        <ele>408.1</ele>
        <time>2011-07-10T12:19:56Z</time>
      </trkpt>
      <trkpt lat="48.72348" lon="7.28972">
        <ele>407.9</ele>
        <time>2011-07-10T12:20:00Z</time>
      </trkpt>
      <trkpt lat="48.72349" lon="7.28987">
        <ele>407.3</ele>
        <time>2011-07-10T12:20:03Z</time>
      </trkpt>
      <trkpt lat="48.72351" lon="7.29">
        <ele>406.6</ele>
        <time>2011-07-10T12:20:06Z</time>
      </trkpt>
      <trkpt lat="48.72353" lon="7.29013">
        <ele>406</ele>
        <time>2011-07-10T12:20:08Z</time>
      </trkpt>
      <trkpt lat="48.72351" lon="7.29026">
        <ele>405.4</ele>
        <time>2011-07-10T12:20:11Z</time>
      </trkpt>
      <trkpt lat="48.72352" lon="7.2904">
        <ele>404.7</ele>
        <time>2011-07-10T12:20:15Z</time>
      </trkpt>
      <trkpt lat="48.72355" lon="7.29058">
        <ele>404.3</ele>
        <time>2011-07-10T12:20:19Z</time>
      </trkpt>
      <trkpt lat="48.72354" lon="7.29075">
        <ele>403.4</ele>
        <time>2011-07-10T12:20:22Z</time>
      </trkpt>
      <trkpt lat="48.72357" lon="7.29088">
        <ele>402.5</ele>
        <time>2011-07-10T12:20:24Z</time>
      </trkpt>
      <trkpt lat="48.7236" lon="7.29102">
        <ele>401.5</ele>
        <time>2011-07-10T12:20:26Z</time>
      </trkpt>
      <trkpt lat="48.72364" lon="7.29115">
        <ele>400.6</ele>
        <time>2011-07-10T12:20:28Z</time>
      </trkpt>
      <trkpt lat="48.72368" lon="7.29127">
        <ele>399.7</ele>
        <time>2011-07-10T12:20:30Z</time>
      </trkpt>
      <trkpt lat="48.72371" lon="7.29144">
        <ele>400.4</ele>
        <time>2011-07-10T12:20:33Z</time>
      </trkpt>
      <trkpt lat="48.72375" lon="7.29162">
        <ele>401</ele>
        <time>2011-07-10T12:20:36Z</time>
      </trkpt>
      <trkpt lat="48.72376" lon="7.29176">
        <ele>401.6</ele>
        <time>2011-07-10T12:20:38Z</time>
      </trkpt>
      <trkpt lat="48.72379" lon="7.29191">
        <ele>402.3</ele>
        <time>2011-07-10T12:20:40Z</time>
      </trkpt>
      <trkpt lat="48.7238" lon="7.29204">
        <ele>402.9</ele>
        <time>2011-07-10T12:20:42Z</time>
      </trkpt>
      <trkpt lat="48.72382" lon="7.29216">
        <ele>403.1</ele>
        <time>2011-07-10T12:20:44Z</time>
      </trkpt>
      <trkpt lat="48.72386" lon="7.2923">
        <ele>403.7</ele>
        <time>2011-07-10T12:20:46Z</time>
      </trkpt>
      <trkpt lat="48.72387" lon="7.29242">
        <ele>404.4</ele>
        <time>2011-07-10T12:20:48Z</time>
      </trkpt>
      <trkpt lat="48.72391" lon="7.29257">
        <ele>405</ele>
        <time>2011-07-10T12:20:50Z</time>
      </trkpt>
      <trkpt lat="48.72397" lon="7.29279">
        <ele>405.6</ele>
        <time>2011-07-10T12:20:52Z</time>
      </trkpt>
      <trkpt lat="48.72401" lon="7.29297">
        <ele>406.3</ele>
        <time>2011-07-10T12:20:54Z</time>
      </trkpt>
      <trkpt lat="48.724" lon="7.29309">
        <ele>404.5</ele>
        <time>2011-07-10T12:20:56Z</time>
      </trkpt>
      <trkpt lat="48.72402" lon="7.29322">
        <ele>402.6</ele>
        <time>2011-07-10T12:20:59Z</time>
      </trkpt>
      <trkpt lat="48.72396" lon="7.29338">
        <ele>400.8</ele>
        <time>2011-07-10T12:21:03Z</time>
      </trkpt>
      <trkpt lat="48.72399" lon="7.29361">
        <ele>399</ele>
        <time>2011-07-10T12:21:05Z</time>
      </trkpt>
      <trkpt lat="48.72399" lon="7.29375">
        <ele>395.4</ele>
        <time>2011-07-10T12:21:06Z</time>
      </trkpt>
      <trkpt lat="48.72398" lon="7.29397">
        <ele>392.2</ele>
        <time>2011-07-10T12:21:08Z</time>
      </trkpt>
      <trkpt lat="48.72398" lon="7.29418">
        <ele>389</ele>
        <time>2011-07-10T12:21:10Z</time>
      </trkpt>
      <trkpt lat="48.724" lon="7.2944">
        <ele>385.8</ele>
        <time>2011-07-10T12:21:12Z</time>
      </trkpt>
      <trkpt lat="48.724" lon="7.29459">
        <ele>382.6</ele>
        <time>2011-07-10T12:21:14Z</time>
      </trkpt>
      <trkpt lat="48.724" lon="7.29474">
        <ele>379.5</ele>
        <time>2011-07-10T12:21:16Z</time>
      </trkpt>
      <trkpt lat="48.72399" lon="7.29488">
        <ele>376.3</ele>
        <time>2011-07-10T12:21:20Z</time>
      </trkpt>
      <trkpt lat="48.72407" lon="7.29483">
        <ele>374.5</ele>
        <time>2011-07-10T12:21:34Z</time>
      </trkpt>
      <trkpt lat="48.72417" lon="7.29478">
        <ele>372.6</ele>
        <time>2011-07-10T12:21:39Z</time>
      </trkpt>
      <trkpt lat="48.72425" lon="7.29484">
        <ele>369.3</ele>
        <time>2011-07-10T12:22:01Z</time>
      </trkpt>
      <trkpt lat="48.72434" lon="7.29484">
        <ele>365.9</ele>
        <time>2011-07-10T12:22:14Z</time>
      </trkpt>
      <trkpt lat="48.72442" lon="7.29483">
        <ele>364.4</ele>
        <time>2011-07-10T12:22:23Z</time>
      </trkpt>
      <trkpt lat="48.72452" lon="7.29481">
        <ele>362.8</ele>
        <time>2011-07-10T12:22:29Z</time>
      </trkpt>
      <trkpt lat="48.72462" lon="7.29479">
        <ele>361.3</ele>
        <time>2011-07-10T12:22:32Z</time>
      </trkpt>
      <trkpt lat="48.72473" lon="7.29474">
        <ele>359.7</ele>
        <time>2011-07-10T12:22:34Z</time>
      </trkpt>
      <trkpt lat="48.72486" lon="7.29473">
        <ele>358.2</ele>
        <time>2011-07-10T12:22:36Z</time>
      </trkpt>
      <trkpt lat="48.72501" lon="7.29468">
        <ele>356.6</ele>
        <time>2011-07-10T12:22:38Z</time>
      </trkpt>
      <trkpt lat="48.72515" lon="7.29464">
        <ele>355.1</ele>
        <time>2011-07-10T12:22:40Z</time>
      </trkpt>
      <trkpt lat="48.72524" lon="7.29463">
        <ele>353.5</ele>
        <time>2011-07-10T12:22:43Z</time>
      </trkpt>
      <trkpt lat="48.72533" lon="7.29464">
        <ele>352</ele>
        <time>2011-07-10T12:22:59Z</time>
      </trkpt>
      <trkpt lat="48.72525" lon="7.29463">
        <ele>352</ele>
        <time>2011-07-10T12:23:21Z</time>
      </trkpt>
      <trkpt lat="48.72514" lon="7.29464">
        <ele>352</ele>
        <time>2011-07-10T12:23:28Z</time>
      </trkpt>
      <trkpt lat="48.72504" lon="7.2947">
        <ele>353.5</ele>
        <time>2011-07-10T12:23:31Z</time>
      </trkpt>
      <trkpt lat="48.72497" lon="7.29478">
        <ele>355.1</ele>
        <time>2011-07-10T12:23:34Z</time>
      </trkpt>
      <trkpt lat="48.72487" lon="7.29485">
        <ele>356.6</ele>
        <time>2011-07-10T12:23:36Z</time>
      </trkpt>
      <trkpt lat="48.72478" lon="7.29493">
        <ele>356.4</ele>
        <time>2011-07-10T12:23:38Z</time>
      </trkpt>
      <trkpt lat="48.7247" lon="7.29503">
        <ele>356.1</ele>
        <time>2011-07-10T12:23:40Z</time>
      </trkpt>
      <trkpt lat="48.72459" lon="7.29515">
        <ele>355.8</ele>
        <time>2011-07-10T12:23:42Z</time>
      </trkpt>
      <trkpt lat="48.7245" lon="7.2953">
        <ele>355.5</ele>
        <time>2011-07-10T12:23:44Z</time>
      </trkpt>
      <trkpt lat="48.72444" lon="7.29549">
        <ele>353.6</ele>
        <time>2011-07-10T12:23:46Z</time>
      </trkpt>
      <trkpt lat="48.72435" lon="7.29567">
        <ele>351.7</ele>
        <time>2011-07-10T12:23:48Z</time>
      </trkpt>
      <trkpt lat="48.72428" lon="7.29588">
        <ele>349.8</ele>
        <time>2011-07-10T12:23:50Z</time>
      </trkpt>
      <trkpt lat="48.7242" lon="7.29606">
        <ele>347.9</ele>
        <time>2011-07-10T12:23:52Z</time>
      </trkpt>
      <trkpt lat="48.72415" lon="7.29619">
        <ele>343</ele>
        <time>2011-07-10T12:23:53Z</time>
      </trkpt>
      <trkpt lat="48.72408" lon="7.29639">
        <ele>338.1</ele>
        <time>2011-07-10T12:23:55Z</time>
      </trkpt>
      <trkpt lat="48.72398" lon="7.29657">
        <ele>333.2</ele>
        <time>2011-07-10T12:23:57Z</time>
      </trkpt>
      <trkpt lat="48.72393" lon="7.29675">
        <ele>330.1</ele>
        <time>2011-07-10T12:23:59Z</time>
      </trkpt>
      <trkpt lat="48.72385" lon="7.29684">
        <ele>328.4</ele>
        <time>2011-07-10T12:24:01Z</time>
      </trkpt>
      <trkpt lat="48.72378" lon="7.29689">
        <ele>326.6</ele>
        <time>2011-07-10T12:24:04Z</time>
      </trkpt>
      <trkpt lat="48.72367" lon="7.29683">
        <ele>324.9</ele>
        <time>2011-07-10T12:24:06Z</time>
      </trkpt>
      <trkpt lat="48.72359" lon="7.2967">
        <ele>324.8</ele>
        <time>2011-07-10T12:24:08Z</time>
      </trkpt>
      <trkpt lat="48.72351" lon="7.29655">
        <ele>324.7</ele>
        <time>2011-07-10T12:24:10Z</time>
      </trkpt>
      <trkpt lat="48.72344" lon="7.29635">
        <ele>326.3</ele>
        <time>2011-07-10T12:24:12Z</time>
      </trkpt>
      <trkpt lat="48.7234" lon="7.29616">
        <ele>327.8</ele>
        <time>2011-07-10T12:24:14Z</time>
      </trkpt>
      <trkpt lat="48.72331" lon="7.29597">
        <ele>327.6</ele>
        <time>2011-07-10T12:24:16Z</time>
      </trkpt>
      <trkpt lat="48.72321" lon="7.29579">
        <ele>327.5</ele>
        <time>2011-07-10T12:24:18Z</time>
      </trkpt>
      <trkpt lat="48.72313" lon="7.29559">
        <ele>327.3</ele>
        <time>2011-07-10T12:24:20Z</time>
      </trkpt>
      <trkpt lat="48.72305" lon="7.29538">
        <ele>327.1</ele>
        <time>2011-07-10T12:24:22Z</time>
      </trkpt>
      <trkpt lat="48.72298" lon="7.2952">
        <ele>327</ele>
        <time>2011-07-10T12:24:24Z</time>
      </trkpt>
      <trkpt lat="48.72287" lon="7.29502">
        <ele>326.9</ele>
        <time>2011-07-10T12:24:26Z</time>
      </trkpt>
      <trkpt lat="48.72282" lon="7.29491">
        <ele>326.8</ele>
        <time>2011-07-10T12:24:27Z</time>
      </trkpt>
      <trkpt lat="48.72276" lon="7.29482">
        <ele>326.7</ele>
        <time>2011-07-10T12:24:28Z</time>
      </trkpt>
      <trkpt lat="48.72265" lon="7.29462">
        <ele>326.6</ele>
        <time>2011-07-10T12:24:30Z</time>
      </trkpt>
      <trkpt lat="48.7226" lon="7.29449">
        <ele>324.9</ele>
        <time>2011-07-10T12:24:31Z</time>
      </trkpt>
      <trkpt lat="48.72252" lon="7.29438">
        <ele>323.2</ele>
        <time>2011-07-10T12:24:32Z</time>
      </trkpt>
      <trkpt lat="48.72244" lon="7.29428">
        <ele>325.5</ele>
        <time>2011-07-10T12:24:33Z</time>
      </trkpt>
      <trkpt lat="48.72238" lon="7.29417">
        <ele>327.7</ele>
        <time>2011-07-10T12:24:34Z</time>
      </trkpt>
      <trkpt lat="48.72231" lon="7.29406">
        <ele>326</ele>
        <time>2011-07-10T12:24:35Z</time>
      </trkpt>
      <trkpt lat="48.72227" lon="7.29395">
        <ele>324.3</ele>
        <time>2011-07-10T12:24:36Z</time>
      </trkpt>
      <trkpt lat="48.72221" lon="7.29383">
        <ele>321.1</ele>
        <time>2011-07-10T12:24:37Z</time>
      </trkpt>
      <trkpt lat="48.72215" lon="7.29371">
        <ele>317.9</ele>
        <time>2011-07-10T12:24:38Z</time>
      </trkpt>
      <trkpt lat="48.7221" lon="7.29359">
        <ele>315</ele>
        <time>2011-07-10T12:24:39Z</time>
      </trkpt>
      <trkpt lat="48.72207" lon="7.29345">
        <ele>312.1</ele>
        <time>2011-07-10T12:24:40Z</time>
      </trkpt>
      <trkpt lat="48.72204" lon="7.29329">
        <ele>309.2</ele>
        <time>2011-07-10T12:24:41Z</time>
      </trkpt>
      <trkpt lat="48.72199" lon="7.29315">
        <ele>306.3</ele>
        <time>2011-07-10T12:24:42Z</time>
      </trkpt>
      <trkpt lat="48.72194" lon="7.29301">
        <ele>303.4</ele>
        <time>2011-07-10T12:24:43Z</time>
      </trkpt>
      <trkpt lat="48.7219" lon="7.29287">
        <ele>299.6</ele>
        <time>2011-07-10T12:24:44Z</time>
      </trkpt>
      <trkpt lat="48.72187" lon="7.29274">
        <ele>296.2</ele>
        <time>2011-07-10T12:24:45Z</time>
      </trkpt>
      <trkpt lat="48.72183" lon="7.2926">
        <ele>296.7</ele>
        <time>2011-07-10T12:24:46Z</time>
      </trkpt>
      <trkpt lat="48.72181" lon="7.29245">
        <ele>297.3</ele>
        <time>2011-07-10T12:24:47Z</time>
      </trkpt>
      <trkpt lat="48.72177" lon="7.2923">
        <ele>297.8</ele>
        <time>2011-07-10T12:24:48Z</time>
      </trkpt>
      <trkpt lat="48.72173" lon="7.29216">
        <ele>298.4</ele>
        <time>2011-07-10T12:24:49Z</time>
      </trkpt>
      <trkpt lat="48.7217" lon="7.29203">
        <ele>298.6</ele>
        <time>2011-07-10T12:24:50Z</time>
      </trkpt>
      <trkpt lat="48.72168" lon="7.2919">
        <ele>299.8</ele>
        <time>2011-07-10T12:24:51Z</time>
      </trkpt>
      <trkpt lat="48.72166" lon="7.29178">
        <ele>301</ele>
        <time>2011-07-10T12:24:52Z</time>
      </trkpt>
      <trkpt lat="48.7216" lon="7.29159">
        <ele>302.2</ele>
        <time>2011-07-10T12:24:54Z</time>
      </trkpt>
      <trkpt lat="48.72153" lon="7.29152">
        <ele>303.4</ele>
        <time>2011-07-10T12:24:57Z</time>
      </trkpt>
      <trkpt lat="48.7215" lon="7.29139">
        <ele>304.5</ele>
        <time>2011-07-10T12:25:48Z</time>
      </trkpt>
      <trkpt lat="48.72146" lon="7.29123">
        <ele>306.2</ele>
        <time>2011-07-10T12:25:53Z</time>
      </trkpt>
      <trkpt lat="48.72144" lon="7.2911">
        <ele>304.5</ele>
        <time>2011-07-10T12:25:56Z</time>
      </trkpt>
      <trkpt lat="48.7214" lon="7.29093">
        <ele>302.9</ele>
        <time>2011-07-10T12:25:59Z</time>
      </trkpt>
      <trkpt lat="48.72137" lon="7.29075">
        <ele>301.3</ele>
        <time>2011-07-10T12:26:01Z</time>
      </trkpt>
      <trkpt lat="48.72133" lon="7.29057">
        <ele>300.7</ele>
        <time>2011-07-10T12:26:03Z</time>
      </trkpt>
      <trkpt lat="48.72128" lon="7.29037">
        <ele>300.2</ele>
        <time>2011-07-10T12:26:05Z</time>
      </trkpt>
      <trkpt lat="48.72122" lon="7.29016">
        <ele>298.7</ele>
        <time>2011-07-10T12:26:07Z</time>
      </trkpt>
      <trkpt lat="48.72117" lon="7.28997">
        <ele>297.3</ele>
        <time>2011-07-10T12:26:09Z</time>
      </trkpt>
      <trkpt lat="48.72111" lon="7.2898">
        <ele>295.8</ele>
        <time>2011-07-10T12:26:11Z</time>
      </trkpt>
      <trkpt lat="48.72108" lon="7.28964">
        <ele>295.1</ele>
        <time>2011-07-10T12:26:13Z</time>
      </trkpt>
      <trkpt lat="48.72104" lon="7.28948">
        <ele>294.4</ele>
        <time>2011-07-10T12:26:15Z</time>
      </trkpt>
      <trkpt lat="48.721" lon="7.28932">
        <ele>292.9</ele>
        <time>2011-07-10T12:26:17Z</time>
      </trkpt>
      <trkpt lat="48.72096" lon="7.28911">
        <ele>294.7</ele>
        <time>2011-07-10T12:26:19Z</time>
      </trkpt>
      <trkpt lat="48.72089" lon="7.28891">
        <ele>296.5</ele>
        <time>2011-07-10T12:26:21Z</time>
      </trkpt>
      <trkpt lat="48.72079" lon="7.28874">
        <ele>298.4</ele>
        <time>2011-07-10T12:26:23Z</time>
      </trkpt>
      <trkpt lat="48.72074" lon="7.28863">
        <ele>297.8</ele>
        <time>2011-07-10T12:26:24Z</time>
      </trkpt>
      <trkpt lat="48.7207" lon="7.28852">
        <ele>297.5</ele>
        <time>2011-07-10T12:26:25Z</time>
      </trkpt>
      <trkpt lat="48.72066" lon="7.28841">
        <ele>297.3</ele>
        <time>2011-07-10T12:26:26Z</time>
      </trkpt>
      <trkpt lat="48.72059" lon="7.2883">
        <ele>297</ele>
        <time>2011-07-10T12:26:27Z</time>
      </trkpt>
      <trkpt lat="48.7205" lon="7.28811">
        <ele>296.7</ele>
        <time>2011-07-10T12:26:29Z</time>
      </trkpt>
      <trkpt lat="48.72044" lon="7.28803">
        <ele>295.7</ele>
        <time>2011-07-10T12:26:30Z</time>
      </trkpt>
      <trkpt lat="48.72034" lon="7.28785">
        <ele>295.4</ele>
        <time>2011-07-10T12:26:32Z</time>
      </trkpt>
      <trkpt lat="48.72023" lon="7.28767">
        <ele>295</ele>
        <time>2011-07-10T12:26:34Z</time>
      </trkpt>
      <trkpt lat="48.72014" lon="7.28758">
        <ele>294.6</ele>
        <time>2011-07-10T12:26:35Z</time>
      </trkpt>
      <trkpt lat="48.72009" lon="7.28747">
        <ele>294.3</ele>
        <time>2011-07-10T12:26:36Z</time>
      </trkpt>
      <trkpt lat="48.72005" lon="7.28736">
        <ele>293.9</ele>
        <time>2011-07-10T12:26:37Z</time>
      </trkpt>
      <trkpt lat="48.71998" lon="7.28714">
        <ele>294.2</ele>
        <time>2011-07-10T12:26:39Z</time>
      </trkpt>
      <trkpt lat="48.71992" lon="7.28705">
        <ele>294.2</ele>
        <time>2011-07-10T12:26:40Z</time>
      </trkpt>
      <trkpt lat="48.71986" lon="7.28694">
        <ele>294.2</ele>
        <time>2011-07-10T12:26:41Z</time>
      </trkpt>
      <trkpt lat="48.71978" lon="7.28681">
        <ele>294.4</ele>
        <time>2011-07-10T12:26:43Z</time>
      </trkpt>
      <trkpt lat="48.7197" lon="7.2867">
        <ele>294.5</ele>
        <time>2011-07-10T12:26:45Z</time>
      </trkpt>
      <trkpt lat="48.71955" lon="7.28668">
        <ele>294.7</ele>
        <time>2011-07-10T12:26:47Z</time>
      </trkpt>
      <trkpt lat="48.71946" lon="7.28679">
        <ele>294.1</ele>
        <time>2011-07-10T12:26:49Z</time>
      </trkpt>
      <trkpt lat="48.71941" lon="7.28693">
        <ele>293.5</ele>
        <time>2011-07-10T12:26:51Z</time>
      </trkpt>
      <trkpt lat="48.7196" lon="7.28722">
        <ele>292.5</ele>
        <time>2011-07-10T12:26:53Z</time>
      </trkpt>
      <trkpt lat="48.71961" lon="7.28735">
        <ele>291.6</ele>
        <time>2011-07-10T12:26:55Z</time>
      </trkpt>
      <trkpt lat="48.71962" lon="7.28752">
        <ele>290.7</ele>
        <time>2011-07-10T12:26:57Z</time>
      </trkpt>
      <trkpt lat="48.71967" lon="7.28774">
        <ele>290.5</ele>
        <time>2011-07-10T12:26:59Z</time>
      </trkpt>
      <trkpt lat="48.71977" lon="7.28798">
        <ele>290.2</ele>
        <time>2011-07-10T12:27:01Z</time>
      </trkpt>
      <trkpt lat="48.71981" lon="7.28809">
        <ele>289.9</ele>
        <time>2011-07-10T12:27:02Z</time>
      </trkpt>
      <trkpt lat="48.71989" lon="7.28823">
        <ele>289.6</ele>
        <time>2011-07-10T12:27:03Z</time>
      </trkpt>
      <trkpt lat="48.71996" lon="7.28836">
        <ele>289.4</ele>
        <time>2011-07-10T12:27:04Z</time>
      </trkpt>
      <trkpt lat="48.72003" lon="7.2885">
        <ele>289.1</ele>
        <time>2011-07-10T12:27:05Z</time>
      </trkpt>
      <trkpt lat="48.72011" lon="7.28862">
        <ele>289</ele>
        <time>2011-07-10T12:27:06Z</time>
      </trkpt>
      <trkpt lat="48.72018" lon="7.28872">
        <ele>288.5</ele>
        <time>2011-07-10T12:27:07Z</time>
      </trkpt>
      <trkpt lat="48.72023" lon="7.28885">
        <ele>288.2</ele>
        <time>2011-07-10T12:27:08Z</time>
      </trkpt>
      <trkpt lat="48.7203" lon="7.28903">
        <ele>287.9</ele>
        <time>2011-07-10T12:27:10Z</time>
      </trkpt>
      <trkpt lat="48.72032" lon="7.28923">
        <ele>287.6</ele>
        <time>2011-07-10T12:27:12Z</time>
      </trkpt>
      <trkpt lat="48.7203" lon="7.28947">
        <ele>287.4</ele>
        <time>2011-07-10T12:27:14Z</time>
      </trkpt>
      <trkpt lat="48.72033" lon="7.2897">
        <ele>287.3</ele>
        <time>2011-07-10T12:27:16Z</time>
      </trkpt>
      <trkpt lat="48.72034" lon="7.28984">
        <ele>286.1</ele>
        <time>2011-07-10T12:27:17Z</time>
      </trkpt>
      <trkpt lat="48.72037" lon="7.29001">
        <ele>284.7</ele>
        <time>2011-07-10T12:27:18Z</time>
      </trkpt>
      <trkpt lat="48.7204" lon="7.29016">
        <ele>283.4</ele>
        <time>2011-07-10T12:27:19Z</time>
      </trkpt>
      <trkpt lat="48.72041" lon="7.29029">
        <ele>282</ele>
        <time>2011-07-10T12:27:20Z</time>
      </trkpt>
      <trkpt lat="48.72043" lon="7.29052">
        <ele>280.3</ele>
        <time>2011-07-10T12:27:22Z</time>
      </trkpt>
      <trkpt lat="48.72047" lon="7.29067">
        <ele>279</ele>
        <time>2011-07-10T12:27:23Z</time>
      </trkpt>
      <trkpt lat="48.72051" lon="7.29081">
        <ele>277.7</ele>
        <time>2011-07-10T12:27:24Z</time>
      </trkpt>
      <trkpt lat="48.72054" lon="7.29095">
        <ele>276.2</ele>
        <time>2011-07-10T12:27:25Z</time>
      </trkpt>
      <trkpt lat="48.72059" lon="7.29117">
        <ele>274.6</ele>
        <time>2011-07-10T12:27:27Z</time>
      </trkpt>
      <trkpt lat="48.72061" lon="7.2914">
        <ele>273.1</ele>
        <time>2011-07-10T12:27:29Z</time>
      </trkpt>
      <trkpt lat="48.72062" lon="7.29162">
        <ele>271.4</ele>
        <time>2011-07-10T12:27:32Z</time>
      </trkpt>
      <trkpt lat="48.72062" lon="7.29187">
        <ele>270.3</ele>
        <time>2011-07-10T12:27:33Z</time>
      </trkpt>
      <trkpt lat="48.7206" lon="7.29215">
        <ele>269.2</ele>
        <time>2011-07-10T12:27:35Z</time>
      </trkpt>
      <trkpt lat="48.72059" lon="7.29232">
        <ele>268.1</ele>
        <time>2011-07-10T12:27:36Z</time>
      </trkpt>
      <trkpt lat="48.72058" lon="7.29261">
        <ele>267</ele>
        <time>2011-07-10T12:27:38Z</time>
      </trkpt>
      <trkpt lat="48.72054" lon="7.29285">
        <ele>266.1</ele>
        <time>2011-07-10T12:27:40Z</time>
      </trkpt>
      <trkpt lat="48.72056" lon="7.29301">
        <ele>265.2</ele>
        <time>2011-07-10T12:27:41Z</time>
      </trkpt>
      <trkpt lat="48.72058" lon="7.29318">
        <ele>264.3</ele>
        <time>2011-07-10T12:27:42Z</time>
      </trkpt>
      <trkpt lat="48.7206" lon="7.29344">
        <ele>263.6</ele>
        <time>2011-07-10T12:27:44Z</time>
      </trkpt>
      <trkpt lat="48.72066" lon="7.29371">
        <ele>263</ele>
        <time>2011-07-10T12:27:46Z</time>
      </trkpt>
      <trkpt lat="48.72072" lon="7.29389">
        <ele>262.3</ele>
        <time>2011-07-10T12:27:47Z</time>
      </trkpt>
      <trkpt lat="48.72072" lon="7.29401">
        <ele>261.5</ele>
        <time>2011-07-10T12:27:48Z</time>
      </trkpt>
      <trkpt lat="48.72074" lon="7.29415">
        <ele>261.3</ele>
        <time>2011-07-10T12:27:49Z</time>
      </trkpt>
      <trkpt lat="48.7208" lon="7.29437">
        <ele>261</ele>
        <time>2011-07-10T12:27:51Z</time>
      </trkpt>
      <trkpt lat="48.72087" lon="7.29454">
        <ele>260.7</ele>
        <time>2011-07-10T12:27:53Z</time>
      </trkpt>
      <trkpt lat="48.72091" lon="7.2947">
        <ele>260.5</ele>
        <time>2011-07-10T12:27:55Z</time>
      </trkpt>
      <trkpt lat="48.72082" lon="7.2947">
        <ele>262</ele>
        <time>2011-07-10T12:27:57Z</time>
      </trkpt>
      <trkpt lat="48.72073" lon="7.29472">
        <ele>263.5</ele>
        <time>2011-07-10T12:28:00Z</time>
      </trkpt>
      <trkpt lat="48.72064" lon="7.29472">
        <ele>265.1</ele>
        <time>2011-07-10T12:28:05Z</time>
      </trkpt>
      <trkpt lat="48.72055" lon="7.29471">
        <ele>266.6</ele>
        <time>2011-07-10T12:28:11Z</time>
      </trkpt>
      <trkpt lat="48.72045" lon="7.29474">
        <ele>268.2</ele>
        <time>2011-07-10T12:28:17Z</time>
      </trkpt>
      <trkpt lat="48.72041" lon="7.29485">
        <ele>269.8</ele>
        <time>2011-07-10T12:28:25Z</time>
      </trkpt>
      <trkpt lat="48.7204" lon="7.295">
        <ele>272</ele>
        <time>2011-07-10T12:28:33Z</time>
      </trkpt>
      <trkpt lat="48.72039" lon="7.29513">
        <ele>274.2</ele>
        <time>2011-07-10T12:28:39Z</time>
      </trkpt>
      <trkpt lat="48.72041" lon="7.29525">
        <ele>276.4</ele>
        <time>2011-07-10T12:28:44Z</time>
      </trkpt>
      <trkpt lat="48.72041" lon="7.29538">
        <ele>278.5</ele>
        <time>2011-07-10T12:28:49Z</time>
      </trkpt>
      <trkpt lat="48.72041" lon="7.2955">
        <ele>280.7</ele>
        <time>2011-07-10T12:28:54Z</time>
      </trkpt>
      <trkpt lat="48.72039" lon="7.29564">
        <ele>281.3</ele>
        <time>2011-07-10T12:29:00Z</time>
      </trkpt>
      <trkpt lat="48.72038" lon="7.29576">
        <ele>282.2</ele>
        <time>2011-07-10T12:29:06Z</time>
      </trkpt>
      <trkpt lat="48.72038" lon="7.29589">
        <ele>283.1</ele>
        <time>2011-07-10T12:29:11Z</time>
      </trkpt>
      <trkpt lat="48.72036" lon="7.29603">
        <ele>284</ele>
        <time>2011-07-10T12:29:17Z</time>
      </trkpt>
      <trkpt lat="48.72037" lon="7.29616">
        <ele>284.9</ele>
        <time>2011-07-10T12:29:24Z</time>
      </trkpt>
      <trkpt lat="48.72038" lon="7.29628">
        <ele>283.3</ele>
        <time>2011-07-10T12:29:29Z</time>
      </trkpt>
      <trkpt lat="48.72041" lon="7.29642">
        <ele>281.1</ele>
        <time>2011-07-10T12:29:34Z</time>
      </trkpt>
      <trkpt lat="48.72042" lon="7.29655">
        <ele>278.7</ele>
        <time>2011-07-10T12:29:38Z</time>
      </trkpt>
      <trkpt lat="48.72043" lon="7.29667">
        <ele>276.4</ele>
        <time>2011-07-10T12:29:42Z</time>
      </trkpt>
      <trkpt lat="48.72044" lon="7.2968">
        <ele>274</ele>
        <time>2011-07-10T12:29:47Z</time>
      </trkpt>
      <trkpt lat="48.72047" lon="7.29694">
        <ele>271.6</ele>
        <time>2011-07-10T12:29:52Z</time>
      </trkpt>
      <trkpt lat="48.7205" lon="7.29709">
        <ele>269.3</ele>
        <time>2011-07-10T12:29:57Z</time>
      </trkpt>
      <trkpt lat="48.72051" lon="7.29724">
        <ele>266.5</ele>
        <time>2011-07-10T12:30:02Z</time>
      </trkpt>
      <trkpt lat="48.72054" lon="7.29738">
        <ele>263.6</ele>
        <time>2011-07-10T12:30:07Z</time>
      </trkpt>
      <trkpt lat="48.72057" lon="7.29753">
        <ele>260.7</ele>
        <time>2011-07-10T12:30:12Z</time>
      </trkpt>
      <trkpt lat="48.72059" lon="7.29766">
        <ele>257.8</ele>
        <time>2011-07-10T12:30:16Z</time>
      </trkpt>
      <trkpt lat="48.72062" lon="7.29778">
        <ele>257.5</ele>
        <time>2011-07-10T12:30:20Z</time>
      </trkpt>
      <trkpt lat="48.72063" lon="7.2979">
        <ele>257.1</ele>
        <time>2011-07-10T12:30:25Z</time>
      </trkpt>
      <trkpt lat="48.72064" lon="7.29803">
        <ele>256.9</ele>
        <time>2011-07-10T12:30:30Z</time>
      </trkpt>
      <trkpt lat="48.72065" lon="7.29817">
        <ele>256.7</ele>
        <time>2011-07-10T12:30:35Z</time>
      </trkpt>
      <trkpt lat="48.72068" lon="7.29832">
        <ele>257.5</ele>
        <time>2011-07-10T12:30:40Z</time>
      </trkpt>
      <trkpt lat="48.7207" lon="7.29845">
        <ele>258.4</ele>
        <time>2011-07-10T12:30:45Z</time>
      </trkpt>
      <trkpt lat="48.72072" lon="7.29858">
        <ele>259.2</ele>
        <time>2011-07-10T12:30:50Z</time>
      </trkpt>
      <trkpt lat="48.72073" lon="7.2987">
        <ele>260</ele>
        <time>2011-07-10T12:30:55Z</time>
      </trkpt>
      <trkpt lat="48.72075" lon="7.29883">
        <ele>261</ele>
        <time>2011-07-10T12:31:00Z</time>
      </trkpt>
      <trkpt lat="48.72079" lon="7.29896">
        <ele>262</ele>
        <time>2011-07-10T12:31:05Z</time>
      </trkpt>
      <trkpt lat="48.72081" lon="7.29909">
        <ele>263.7</ele>
        <time>2011-07-10T12:31:10Z</time>
      </trkpt>
      <trkpt lat="48.72084" lon="7.29923">
        <ele>265.5</ele>
        <time>2011-07-10T12:31:15Z</time>
      </trkpt>
      <trkpt lat="48.72085" lon="7.29938">
        <ele>267.2</ele>
        <time>2011-07-10T12:31:21Z</time>
      </trkpt>
      <trkpt lat="48.72086" lon="7.29951">
        <ele>268.9</ele>
        <time>2011-07-10T12:31:26Z</time>
      </trkpt>
      <trkpt lat="48.72087" lon="7.29965">
        <ele>270.6</ele>
        <time>2011-07-10T12:31:32Z</time>
      </trkpt>
      <trkpt lat="48.72089" lon="7.29979">
        <ele>271.4</ele>
        <time>2011-07-10T12:31:38Z</time>
      </trkpt>
      <trkpt lat="48.72091" lon="7.29993">
        <ele>273.2</ele>
        <time>2011-07-10T12:31:43Z</time>
      </trkpt>
      <trkpt lat="48.72092" lon="7.30005">
        <ele>275</ele>
        <time>2011-07-10T12:31:48Z</time>
      </trkpt>
      <trkpt lat="48.72093" lon="7.30018">
        <ele>276.8</ele>
        <time>2011-07-10T12:31:54Z</time>
      </trkpt>
      <trkpt lat="48.72094" lon="7.30031">
        <ele>278.6</ele>
        <time>2011-07-10T12:31:59Z</time>
      </trkpt>
      <trkpt lat="48.72096" lon="7.30044">
        <ele>280.5</ele>
        <time>2011-07-10T12:32:04Z</time>
      </trkpt>
      <trkpt lat="48.72097" lon="7.30059">
        <ele>281.5</ele>
        <time>2011-07-10T12:32:09Z</time>
      </trkpt>
      <trkpt lat="48.72098" lon="7.30073">
        <ele>283.1</ele>
        <time>2011-07-10T12:32:14Z</time>
      </trkpt>
      <trkpt lat="48.72099" lon="7.30086">
        <ele>284.6</ele>
        <time>2011-07-10T12:32:19Z</time>
      </trkpt>
      <trkpt lat="48.721" lon="7.30101">
        <ele>286.2</ele>
        <time>2011-07-10T12:32:25Z</time>
      </trkpt>
      <trkpt lat="48.72101" lon="7.30115">
        <ele>287.7</ele>
        <time>2011-07-10T12:32:30Z</time>
      </trkpt>
      <trkpt lat="48.72102" lon="7.30128">
        <ele>289.3</ele>
        <time>2011-07-10T12:32:36Z</time>
      </trkpt>
      <trkpt lat="48.72103" lon="7.30141">
        <ele>289.7</ele>
        <time>2011-07-10T12:32:41Z</time>
      </trkpt>
      <trkpt lat="48.72102" lon="7.30155">
        <ele>290.2</ele>
        <time>2011-07-10T12:32:48Z</time>
      </trkpt>
      <trkpt lat="48.72094" lon="7.30168">
        <ele>290.6</ele>
        <time>2011-07-10T12:32:53Z</time>
      </trkpt>
      <trkpt lat="48.72089" lon="7.30178">
        <ele>291.1</ele>
        <time>2011-07-10T12:32:59Z</time>
      </trkpt>
      <trkpt lat="48.72083" lon="7.30186">
        <ele>291.5</ele>
        <time>2011-07-10T12:33:04Z</time>
      </trkpt>
      <trkpt lat="48.72083" lon="7.302">
        <ele>292</ele>
        <time>2011-07-10T12:33:10Z</time>
      </trkpt>
      <trkpt lat="48.72075" lon="7.30204">
        <ele>292</ele>
        <time>2011-07-10T12:33:14Z</time>
      </trkpt>
      <trkpt lat="48.72073" lon="7.30216">
        <ele>292</ele>
        <time>2011-07-10T12:33:19Z</time>
      </trkpt>
      <trkpt lat="48.7207" lon="7.30229">
        <ele>292</ele>
        <time>2011-07-10T12:33:25Z</time>
      </trkpt>
      <trkpt lat="48.72073" lon="7.30241">
        <ele>290.8</ele>
        <time>2011-07-10T12:33:27Z</time>
      </trkpt>
      <trkpt lat="48.72079" lon="7.30255">
        <ele>290.9</ele>
        <time>2011-07-10T12:34:24Z</time>
      </trkpt>
      <trkpt lat="48.72071" lon="7.3026">
        <ele>291</ele>
        <time>2011-07-10T12:34:29Z</time>
      </trkpt>
      <trkpt lat="48.72064" lon="7.30273">
        <ele>291.1</ele>
        <time>2011-07-10T12:34:32Z</time>
      </trkpt>
      <trkpt lat="48.72056" lon="7.30286">
        <ele>291.2</ele>
        <time>2011-07-10T12:34:34Z</time>
      </trkpt>
      <trkpt lat="48.72046" lon="7.30297">
        <ele>291.3</ele>
        <time>2011-07-10T12:34:36Z</time>
      </trkpt>
      <trkpt lat="48.72035" lon="7.30309">
        <ele>291.4</ele>
        <time>2011-07-10T12:34:38Z</time>
      </trkpt>
      <trkpt lat="48.72024" lon="7.30319">
        <ele>291.5</ele>
        <time>2011-07-10T12:34:40Z</time>
      </trkpt>
      <trkpt lat="48.72011" lon="7.30329">
        <ele>291.7</ele>
        <time>2011-07-10T12:34:42Z</time>
      </trkpt>
      <trkpt lat="48.71997" lon="7.30338">
        <ele>292</ele>
        <time>2011-07-10T12:34:44Z</time>
      </trkpt>
      <trkpt lat="48.71989" lon="7.30343">
        <ele>292.3</ele>
        <time>2011-07-10T12:34:45Z</time>
      </trkpt>
      <trkpt lat="48.71979" lon="7.30347">
        <ele>293.7</ele>
        <time>2011-07-10T12:34:46Z</time>
      </trkpt>
      <trkpt lat="48.71971" lon="7.30351">
        <ele>293.9</ele>
        <time>2011-07-10T12:34:47Z</time>
      </trkpt>
      <trkpt lat="48.71962" lon="7.30356">
        <ele>294.1</ele>
        <time>2011-07-10T12:34:48Z</time>
      </trkpt>
      <trkpt lat="48.71953" lon="7.30359">
        <ele>294.3</ele>
        <time>2011-07-10T12:34:49Z</time>
      </trkpt>
      <trkpt lat="48.71934" lon="7.30362">
        <ele>292.1</ele>
        <time>2011-07-10T12:34:51Z</time>
      </trkpt>
      <trkpt lat="48.71924" lon="7.30367">
        <ele>292.2</ele>
        <time>2011-07-10T12:34:52Z</time>
      </trkpt>
      <trkpt lat="48.71913" lon="7.3037">
        <ele>292.3</ele>
        <time>2011-07-10T12:34:53Z</time>
      </trkpt>
      <trkpt lat="48.71903" lon="7.30372">
        <ele>292.4</ele>
        <time>2011-07-10T12:34:54Z</time>
      </trkpt>
      <trkpt lat="48.71891" lon="7.30377">
        <ele>292.3</ele>
        <time>2011-07-10T12:34:55Z</time>
      </trkpt>
      <trkpt lat="48.71881" lon="7.30379">
        <ele>292.2</ele>
        <time>2011-07-10T12:34:56Z</time>
      </trkpt>
      <trkpt lat="48.71872" lon="7.30385">
        <ele>292.1</ele>
        <time>2011-07-10T12:34:57Z</time>
      </trkpt>
      <trkpt lat="48.71864" lon="7.30387">
        <ele>292</ele>
        <time>2011-07-10T12:34:58Z</time>
      </trkpt>
      <trkpt lat="48.71857" lon="7.30393">
        <ele>291.9</ele>
        <time>2011-07-10T12:34:59Z</time>
      </trkpt>
      <trkpt lat="48.71846" lon="7.30397">
        <ele>292.2</ele>
        <time>2011-07-10T12:35:00Z</time>
      </trkpt>
      <trkpt lat="48.71839" lon="7.30403">
        <ele>292.5</ele>
        <time>2011-07-10T12:35:01Z</time>
      </trkpt>
      <trkpt lat="48.71829" lon="7.3042">
        <ele>295.1</ele>
        <time>2011-07-10T12:35:03Z</time>
      </trkpt>
      <trkpt lat="48.71829" lon="7.30437">
        <ele>295.5</ele>
        <time>2011-07-10T12:35:05Z</time>
      </trkpt>
      <trkpt lat="48.71825" lon="7.30452">
        <ele>295.8</ele>
        <time>2011-07-10T12:35:07Z</time>
      </trkpt>
      <trkpt lat="48.71828" lon="7.30471">
        <ele>296.2</ele>
        <time>2011-07-10T12:35:09Z</time>
      </trkpt>
      <trkpt lat="48.71835" lon="7.30485">
        <ele>296.5</ele>
        <time>2011-07-10T12:35:10Z</time>
      </trkpt>
      <trkpt lat="48.71843" lon="7.305">
        <ele>297.3</ele>
        <time>2011-07-10T12:35:11Z</time>
      </trkpt>
      <trkpt lat="48.71849" lon="7.30512">
        <ele>298</ele>
        <time>2011-07-10T12:35:12Z</time>
      </trkpt>
      <trkpt lat="48.71853" lon="7.30523">
        <ele>298.7</ele>
        <time>2011-07-10T12:35:13Z</time>
      </trkpt>
      <trkpt lat="48.71858" lon="7.30533">
        <ele>296.6</ele>
        <time>2011-07-10T12:35:14Z</time>
      </trkpt>
      <trkpt lat="48.71868" lon="7.30555">
        <ele>294.1</ele>
        <time>2011-07-10T12:35:16Z</time>
      </trkpt>
      <trkpt lat="48.71874" lon="7.30575">
        <ele>291.5</ele>
        <time>2011-07-10T12:35:18Z</time>
      </trkpt>
      <trkpt lat="48.71876" lon="7.30593">
        <ele>289</ele>
        <time>2011-07-10T12:35:20Z</time>
      </trkpt>
      <trkpt lat="48.7188" lon="7.3061">
        <ele>286.5</ele>
        <time>2011-07-10T12:35:22Z</time>
      </trkpt>
      <trkpt lat="48.71884" lon="7.30629">
        <ele>283.9</ele>
        <time>2011-07-10T12:35:24Z</time>
      </trkpt>
      <trkpt lat="48.71887" lon="7.30648">
        <ele>281</ele>
        <time>2011-07-10T12:35:26Z</time>
      </trkpt>
      <trkpt lat="48.71889" lon="7.30659">
        <ele>278.1</ele>
        <time>2011-07-10T12:35:27Z</time>
      </trkpt>
      <trkpt lat="48.71891" lon="7.30672">
        <ele>274.8</ele>
        <time>2011-07-10T12:35:28Z</time>
      </trkpt>
      <trkpt lat="48.71894" lon="7.30694">
        <ele>271.5</ele>
        <time>2011-07-10T12:35:30Z</time>
      </trkpt>
      <trkpt lat="48.71894" lon="7.30716">
        <ele>267.8</ele>
        <time>2011-07-10T12:35:32Z</time>
      </trkpt>
      <trkpt lat="48.71895" lon="7.30739">
        <ele>266.9</ele>
        <time>2011-07-10T12:35:34Z</time>
      </trkpt>
      <trkpt lat="48.719" lon="7.30758">
        <ele>266.1</ele>
        <time>2011-07-10T12:35:36Z</time>
      </trkpt>
      <trkpt lat="48.71901" lon="7.30784">
        <ele>265.3</ele>
        <time>2011-07-10T12:35:37Z</time>
      </trkpt>
      <trkpt lat="48.71907" lon="7.30802">
        <ele>264.5</ele>
        <time>2011-07-10T12:35:38Z</time>
      </trkpt>
      <trkpt lat="48.71909" lon="7.30818">
        <ele>263.2</ele>
        <time>2011-07-10T12:35:39Z</time>
      </trkpt>
      <trkpt lat="48.7191" lon="7.30833">
        <ele>261.9</ele>
        <time>2011-07-10T12:35:40Z</time>
      </trkpt>
      <trkpt lat="48.71912" lon="7.30848">
        <ele>261</ele>
        <time>2011-07-10T12:35:41Z</time>
      </trkpt>
      <trkpt lat="48.71914" lon="7.30863">
        <ele>260.1</ele>
        <time>2011-07-10T12:35:42Z</time>
      </trkpt>
      <trkpt lat="48.71917" lon="7.3088">
        <ele>258.8</ele>
        <time>2011-07-10T12:35:43Z</time>
      </trkpt>
      <trkpt lat="48.7192" lon="7.30897">
        <ele>257.5</ele>
        <time>2011-07-10T12:35:44Z</time>
      </trkpt>
      <trkpt lat="48.71922" lon="7.30914">
        <ele>256.7</ele>
        <time>2011-07-10T12:35:45Z</time>
      </trkpt>
      <trkpt lat="48.71924" lon="7.30934">
        <ele>255.9</ele>
        <time>2011-07-10T12:35:46Z</time>
      </trkpt>
      <trkpt lat="48.71924" lon="7.30951">
        <ele>255.1</ele>
        <time>2011-07-10T12:35:47Z</time>
      </trkpt>
      <trkpt lat="48.71925" lon="7.3097">
        <ele>253.6</ele>
        <time>2011-07-10T12:35:48Z</time>
      </trkpt>
      <trkpt lat="48.71927" lon="7.30989">
        <ele>252.2</ele>
        <time>2011-07-10T12:35:49Z</time>
      </trkpt>
      <trkpt lat="48.71929" lon="7.31008">
        <ele>251.2</ele>
        <time>2011-07-10T12:35:50Z</time>
      </trkpt>
      <trkpt lat="48.71927" lon="7.31026">
        <ele>250.2</ele>
        <time>2011-07-10T12:35:51Z</time>
      </trkpt>
      <trkpt lat="48.71926" lon="7.31044">
        <ele>248.3</ele>
        <time>2011-07-10T12:35:52Z</time>
      </trkpt>
      <trkpt lat="48.71929" lon="7.31062">
        <ele>246.4</ele>
        <time>2011-07-10T12:35:53Z</time>
      </trkpt>
      <trkpt lat="48.71931" lon="7.31081">
        <ele>244.8</ele>
        <time>2011-07-10T12:35:54Z</time>
      </trkpt>
      <trkpt lat="48.71932" lon="7.31098">
        <ele>243.3</ele>
        <time>2011-07-10T12:35:55Z</time>
      </trkpt>
      <trkpt lat="48.71932" lon="7.31116">
        <ele>241.7</ele>
        <time>2011-07-10T12:35:56Z</time>
      </trkpt>
      <trkpt lat="48.71931" lon="7.31134">
        <ele>239.1</ele>
        <time>2011-07-10T12:35:57Z</time>
      </trkpt>
      <trkpt lat="48.71933" lon="7.31154">
        <ele>236.5</ele>
        <time>2011-07-10T12:35:58Z</time>
      </trkpt>
      <trkpt lat="48.71933" lon="7.31171">
        <ele>234.5</ele>
        <time>2011-07-10T12:35:59Z</time>
      </trkpt>
      <trkpt lat="48.71933" lon="7.31187">
        <ele>232.5</ele>
        <time>2011-07-10T12:36:00Z</time>
      </trkpt>
      <trkpt lat="48.71934" lon="7.31203">
        <ele>230.5</ele>
        <time>2011-07-10T12:36:01Z</time>
      </trkpt>
      <trkpt lat="48.71936" lon="7.31218">
        <ele>228.5</ele>
        <time>2011-07-10T12:36:02Z</time>
      </trkpt>
      <trkpt lat="48.71933" lon="7.31231">
        <ele>227.4</ele>
        <time>2011-07-10T12:36:03Z</time>
      </trkpt>
      <trkpt lat="48.7193" lon="7.31244">
        <ele>225.5</ele>
        <time>2011-07-10T12:36:04Z</time>
      </trkpt>
      <trkpt lat="48.71927" lon="7.31258">
        <ele>223.5</ele>
        <time>2011-07-10T12:36:05Z</time>
      </trkpt>
      <trkpt lat="48.71922" lon="7.3127">
        <ele>221.6</ele>
        <time>2011-07-10T12:36:06Z</time>
      </trkpt>
      <trkpt lat="48.71915" lon="7.31281">
        <ele>219.7</ele>
        <time>2011-07-10T12:36:07Z</time>
      </trkpt>
      <trkpt lat="48.71907" lon="7.3129">
        <ele>220.8</ele>
        <time>2011-07-10T12:36:08Z</time>
      </trkpt>
      <trkpt lat="48.71898" lon="7.31299">
        <ele>220.9</ele>
        <time>2011-07-10T12:36:09Z</time>
      </trkpt>
      <trkpt lat="48.71891" lon="7.31311">
        <ele>221</ele>
        <time>2011-07-10T12:36:10Z</time>
      </trkpt>
      <trkpt lat="48.71887" lon="7.31325">
        <ele>221.1</ele>
        <time>2011-07-10T12:36:11Z</time>
      </trkpt>
      <trkpt lat="48.71881" lon="7.31338">
        <ele>221.2</ele>
        <time>2011-07-10T12:36:12Z</time>
      </trkpt>
      <trkpt lat="48.71877" lon="7.31353">
        <ele>221.3</ele>
        <time>2011-07-10T12:36:13Z</time>
      </trkpt>
      <trkpt lat="48.71867" lon="7.31381">
        <ele>221.6</ele>
        <time>2011-07-10T12:36:15Z</time>
      </trkpt>
      <trkpt lat="48.71865" lon="7.31398">
        <ele>222.8</ele>
        <time>2011-07-10T12:36:16Z</time>
      </trkpt>
      <trkpt lat="48.71861" lon="7.31412">
        <ele>224</ele>
        <time>2011-07-10T12:36:17Z</time>
      </trkpt>
      <trkpt lat="48.71857" lon="7.31425">
        <ele>225.2</ele>
        <time>2011-07-10T12:36:18Z</time>
      </trkpt>
      <trkpt lat="48.71855" lon="7.31438">
        <ele>226.4</ele>
        <time>2011-07-10T12:36:19Z</time>
      </trkpt>
      <trkpt lat="48.71855" lon="7.31461">
        <ele>225.2</ele>
        <time>2011-07-10T12:36:21Z</time>
      </trkpt>
      <trkpt lat="48.71857" lon="7.31477">
        <ele>224.3</ele>
        <time>2011-07-10T12:36:23Z</time>
      </trkpt>
      <trkpt lat="48.71865" lon="7.31489">
        <ele>223.4</ele>
        <time>2011-07-10T12:36:28Z</time>
      </trkpt>
      <trkpt lat="48.71873" lon="7.31479">
        <ele>222.5</ele>
        <time>2011-07-10T12:36:35Z</time>
      </trkpt>
      <trkpt lat="48.71879" lon="7.3147">
        <ele>221.5</ele>
        <time>2011-07-10T12:36:40Z</time>
      </trkpt>
      <trkpt lat="48.71887" lon="7.31464">
        <ele>220.6</ele>
        <time>2011-07-10T12:36:44Z</time>
      </trkpt>
      <trkpt lat="48.71896" lon="7.31454">
        <ele>219.5</ele>
        <time>2011-07-10T12:36:51Z</time>
      </trkpt>
      <trkpt lat="48.71903" lon="7.31445">
        <ele>218.3</ele>
        <time>2011-07-10T12:36:56Z</time>
      </trkpt>
      <trkpt lat="48.71909" lon="7.31436">
        <ele>217.1</ele>
        <time>2011-07-10T12:37:01Z</time>
      </trkpt>
      <trkpt lat="48.71915" lon="7.31425">
        <ele>215.9</ele>
        <time>2011-07-10T12:37:07Z</time>
      </trkpt>
      <trkpt lat="48.71928" lon="7.31425">
        <ele>213.9</ele>
        <time>2011-07-10T12:37:11Z</time>
      </trkpt>
      <trkpt lat="48.71935" lon="7.31417">
        <ele>212.4</ele>
        <time>2011-07-10T12:37:17Z</time>
      </trkpt>
      <trkpt lat="48.71944" lon="7.31412">
        <ele>211.5</ele>
        <time>2011-07-10T12:37:23Z</time>
      </trkpt>
      <trkpt lat="48.71951" lon="7.31416">
        <ele>211.3</ele>
        <time>2011-07-10T12:37:25Z</time>
      </trkpt>
      <trkpt lat="48.71959" lon="7.31424">
        <ele>211</ele>
        <time>2011-07-10T12:37:28Z</time>
      </trkpt>
      <trkpt lat="48.71969" lon="7.31435">
        <ele>210.7</ele>
        <time>2011-07-10T12:37:31Z</time>
      </trkpt>
      <trkpt lat="48.71974" lon="7.31445">
        <ele>210.5</ele>
        <time>2011-07-10T12:37:36Z</time>
      </trkpt>
      <trkpt lat="48.71978" lon="7.31456">
        <ele>210.2</ele>
        <time>2011-07-10T12:37:40Z</time>
      </trkpt>
      <trkpt lat="48.71982" lon="7.31467">
        <ele>209.9</ele>
        <time>2011-07-10T12:37:44Z</time>
      </trkpt>
      <trkpt lat="48.71978" lon="7.3148">
        <ele>209.6</ele>
        <time>2011-07-10T12:37:48Z</time>
      </trkpt>
      <trkpt lat="48.71985" lon="7.31495">
        <ele>210.5</ele>
        <time>2011-07-10T12:37:51Z</time>
      </trkpt>
      <trkpt lat="48.71985" lon="7.3151">
        <ele>212.3</ele>
        <time>2011-07-10T12:37:55Z</time>
      </trkpt>
      <trkpt lat="48.71988" lon="7.31524">
        <ele>214</ele>
        <time>2011-07-10T12:37:59Z</time>
      </trkpt>
      <trkpt lat="48.71989" lon="7.31537">
        <ele>215.7</ele>
        <time>2011-07-10T12:38:04Z</time>
      </trkpt>
      <trkpt lat="48.71991" lon="7.31548">
        <ele>216.9</ele>
        <time>2011-07-10T12:38:08Z</time>
      </trkpt>
      <trkpt lat="48.71995" lon="7.31562">
        <ele>218.1</ele>
        <time>2011-07-10T12:38:11Z</time>
      </trkpt>
      <trkpt lat="48.71999" lon="7.31575">
        <ele>219.9</ele>
        <time>2011-07-10T12:38:15Z</time>
      </trkpt>
      <trkpt lat="48.72004" lon="7.31587">
        <ele>221.7</ele>
        <time>2011-07-10T12:38:18Z</time>
      </trkpt>
      <trkpt lat="48.72007" lon="7.31601">
        <ele>223.5</ele>
        <time>2011-07-10T12:38:22Z</time>
      </trkpt>
      <trkpt lat="48.72008" lon="7.31615">
        <ele>225.4</ele>
        <time>2011-07-10T12:38:25Z</time>
      </trkpt>
      <trkpt lat="48.72012" lon="7.31627">
        <ele>227.2</ele>
        <time>2011-07-10T12:38:28Z</time>
      </trkpt>
      <trkpt lat="48.72015" lon="7.31641">
        <ele>227.8</ele>
        <time>2011-07-10T12:38:32Z</time>
      </trkpt>
      <trkpt lat="48.72015" lon="7.31655">
        <ele>229.6</ele>
        <time>2011-07-10T12:38:36Z</time>
      </trkpt>
      <trkpt lat="48.72015" lon="7.31669">
        <ele>231.5</ele>
        <time>2011-07-10T12:38:40Z</time>
      </trkpt>
      <trkpt lat="48.72019" lon="7.31683">
        <ele>233.3</ele>
        <time>2011-07-10T12:38:44Z</time>
      </trkpt>
      <trkpt lat="48.72022" lon="7.31694">
        <ele>235.1</ele>
        <time>2011-07-10T12:38:47Z</time>
      </trkpt>
      <trkpt lat="48.72024" lon="7.31711">
        <ele>233.4</ele>
        <time>2011-07-10T12:38:51Z</time>
      </trkpt>
      <trkpt lat="48.7203" lon="7.31726">
        <ele>231.5</ele>
        <time>2011-07-10T12:38:54Z</time>
      </trkpt>
      <trkpt lat="48.72033" lon="7.31739">
        <ele>229.5</ele>
        <time>2011-07-10T12:38:57Z</time>
      </trkpt>
      <trkpt lat="48.72034" lon="7.31752">
        <ele>227.6</ele>
        <time>2011-07-10T12:39:00Z</time>
      </trkpt>
      <trkpt lat="48.7204" lon="7.31771">
        <ele>225.7</ele>
        <time>2011-07-10T12:39:03Z</time>
      </trkpt>
      <trkpt lat="48.72045" lon="7.3179">
        <ele>223.8</ele>
        <time>2011-07-10T12:39:06Z</time>
      </trkpt>
      <trkpt lat="48.7205" lon="7.31811">
        <ele>222.7</ele>
        <time>2011-07-10T12:39:09Z</time>
      </trkpt>
      <trkpt lat="48.72056" lon="7.3183">
        <ele>220.5</ele>
        <time>2011-07-10T12:39:11Z</time>
      </trkpt>
      <trkpt lat="48.72063" lon="7.31849">
        <ele>218.2</ele>
        <time>2011-07-10T12:39:13Z</time>
      </trkpt>
      <trkpt lat="48.7207" lon="7.31865">
        <ele>215.9</ele>
        <time>2011-07-10T12:39:15Z</time>
      </trkpt>
      <trkpt lat="48.72077" lon="7.31878">
        <ele>213.6</ele>
        <time>2011-07-10T12:39:17Z</time>
      </trkpt>
      <trkpt lat="48.72083" lon="7.31887">
        <ele>214.9</ele>
        <time>2011-07-10T12:39:18Z</time>
      </trkpt>
      <trkpt lat="48.72094" lon="7.31905">
        <ele>215.7</ele>
        <time>2011-07-10T12:39:20Z</time>
      </trkpt>
      <trkpt lat="48.72102" lon="7.31919">
        <ele>216.7</ele>
        <time>2011-07-10T12:39:22Z</time>
      </trkpt>
      <trkpt lat="48.72106" lon="7.31929">
        <ele>217.7</ele>
        <time>2011-07-10T12:39:24Z</time>
      </trkpt>
      <trkpt lat="48.72102" lon="7.3194">
        <ele>218.7</ele>
        <time>2011-07-10T12:39:26Z</time>
      </trkpt>
      <trkpt lat="48.72096" lon="7.3195">
        <ele>219.7</ele>
        <time>2011-07-10T12:39:28Z</time>
      </trkpt>
      <trkpt lat="48.72093" lon="7.31961">
        <ele>219.9</ele>
        <time>2011-07-10T12:39:30Z</time>
      </trkpt>
      <trkpt lat="48.72085" lon="7.31972">
        <ele>220.1</ele>
        <time>2011-07-10T12:39:32Z</time>
      </trkpt>
      <trkpt lat="48.7208" lon="7.31983">
        <ele>223.5</ele>
        <time>2011-07-10T12:39:34Z</time>
      </trkpt>
      <trkpt lat="48.72074" lon="7.31994">
        <ele>227</ele>
        <time>2011-07-10T12:39:36Z</time>
      </trkpt>
      <trkpt lat="48.7207" lon="7.32007">
        <ele>230.5</ele>
        <time>2011-07-10T12:39:38Z</time>
      </trkpt>
      <trkpt lat="48.72063" lon="7.32017">
        <ele>230.6</ele>
        <time>2011-07-10T12:39:40Z</time>
      </trkpt>
      <trkpt lat="48.72052" lon="7.32025">
        <ele>230.8</ele>
        <time>2011-07-10T12:39:42Z</time>
      </trkpt>
      <trkpt lat="48.72038" lon="7.32032">
        <ele>230.8</ele>
        <time>2011-07-10T12:39:44Z</time>
      </trkpt>
      <trkpt lat="48.72031" lon="7.3204">
        <ele>230.8</ele>
        <time>2011-07-10T12:39:47Z</time>
      </trkpt>
      <trkpt lat="48.72042" lon="7.32042">
        <ele>230.8</ele>
        <time>2011-07-10T12:39:53Z</time>
      </trkpt>
      <trkpt lat="48.72053" lon="7.32039">
        <ele>231.4</ele>
        <time>2011-07-10T12:39:57Z</time>
      </trkpt>
      <trkpt lat="48.72067" lon="7.32039">
        <ele>231.9</ele>
        <time>2011-07-10T12:40:00Z</time>
      </trkpt>
      <trkpt lat="48.7208" lon="7.32039">
        <ele>231.4</ele>
        <time>2011-07-10T12:40:04Z</time>
      </trkpt>
      <trkpt lat="48.72091" lon="7.32044">
        <ele>227.5</ele>
        <time>2011-07-10T12:40:06Z</time>
      </trkpt>
      <trkpt lat="48.72101" lon="7.32044">
        <ele>223.7</ele>
        <time>2011-07-10T12:40:09Z</time>
      </trkpt>
      <trkpt lat="48.72111" lon="7.32049">
        <ele>219.9</ele>
        <time>2011-07-10T12:40:11Z</time>
      </trkpt>
      <trkpt lat="48.72122" lon="7.32054">
        <ele>219.4</ele>
        <time>2011-07-10T12:40:13Z</time>
      </trkpt>
      <trkpt lat="48.72132" lon="7.32058">
        <ele>218.8</ele>
        <time>2011-07-10T12:40:15Z</time>
      </trkpt>
      <trkpt lat="48.7214" lon="7.32065">
        <ele>218.3</ele>
        <time>2011-07-10T12:40:17Z</time>
      </trkpt>
      <trkpt lat="48.72147" lon="7.3207">
        <ele>219.8</ele>
        <time>2011-07-10T12:40:20Z</time>
      </trkpt>
      <trkpt lat="48.72152" lon="7.32083">
        <ele>221.4</ele>
        <time>2011-07-10T12:40:25Z</time>
      </trkpt>
      <trkpt lat="48.72159" lon="7.32096">
        <ele>222.4</ele>
        <time>2011-07-10T12:40:29Z</time>
      </trkpt>
      <trkpt lat="48.72163" lon="7.32108">
        <ele>223.4</ele>
        <time>2011-07-10T12:40:33Z</time>
      </trkpt>
      <trkpt lat="48.72168" lon="7.32119">
        <ele>225.5</ele>
        <time>2011-07-10T12:40:36Z</time>
      </trkpt>
      <trkpt lat="48.72175" lon="7.32131">
        <ele>227.5</ele>
        <time>2011-07-10T12:40:39Z</time>
      </trkpt>
      <trkpt lat="48.7218" lon="7.32144">
        <ele>229.6</ele>
        <time>2011-07-10T12:40:42Z</time>
      </trkpt>
      <trkpt lat="48.72186" lon="7.3216">
        <ele>233.7</ele>
        <time>2011-07-10T12:40:46Z</time>
      </trkpt>
      <trkpt lat="48.72192" lon="7.3217">
        <ele>233.7</ele>
        <time>2011-07-10T12:40:48Z</time>
      </trkpt>
      <trkpt lat="48.72197" lon="7.3218">
        <ele>233.7</ele>
        <time>2011-07-10T12:40:50Z</time>
      </trkpt>
      <trkpt lat="48.72203" lon="7.3219">
        <ele>233.7</ele>
        <time>2011-07-10T12:40:52Z</time>
      </trkpt>
      <trkpt lat="48.72205" lon="7.32203">
        <ele>231.6</ele>
        <time>2011-07-10T12:40:56Z</time>
      </trkpt>
      <trkpt lat="48.72209" lon="7.32218">
        <ele>229.5</ele>
        <time>2011-07-10T12:40:59Z</time>
      </trkpt>
      <trkpt lat="48.72212" lon="7.3223">
        <ele>227.5</ele>
        <time>2011-07-10T12:41:01Z</time>
      </trkpt>
      <trkpt lat="48.72216" lon="7.32243">
        <ele>227.5</ele>
        <time>2011-07-10T12:41:03Z</time>
      </trkpt>
      <trkpt lat="48.7222" lon="7.32256">
        <ele>227.5</ele>
        <time>2011-07-10T12:41:05Z</time>
      </trkpt>
      <trkpt lat="48.72224" lon="7.32267">
        <ele>227.5</ele>
        <time>2011-07-10T12:41:07Z</time>
      </trkpt>
      <trkpt lat="48.72229" lon="7.3228">
        <ele>227.5</ele>
        <time>2011-07-10T12:41:09Z</time>
      </trkpt>
      <trkpt lat="48.72234" lon="7.3229">
        <ele>225.5</ele>
        <time>2011-07-10T12:41:11Z</time>
      </trkpt>
      <trkpt lat="48.72239" lon="7.32303">
        <ele>227.5</ele>
        <time>2011-07-10T12:41:13Z</time>
      </trkpt>
      <trkpt lat="48.72246" lon="7.32318">
        <ele>229.6</ele>
        <time>2011-07-10T12:41:15Z</time>
      </trkpt>
      <trkpt lat="48.72255" lon="7.32329">
        <ele>233.2</ele>
        <time>2011-07-10T12:41:17Z</time>
      </trkpt>
      <trkpt lat="48.72261" lon="7.32337">
        <ele>236.7</ele>
        <time>2011-07-10T12:41:19Z</time>
      </trkpt>
      <trkpt lat="48.72266" lon="7.32354">
        <ele>240.3</ele>
        <time>2011-07-10T12:41:22Z</time>
      </trkpt>
      <trkpt lat="48.72273" lon="7.32365">
        <ele>240.1</ele>
        <time>2011-07-10T12:41:24Z</time>
      </trkpt>
      <trkpt lat="48.72279" lon="7.32376">
        <ele>237.8</ele>
        <time>2011-07-10T12:41:26Z</time>
      </trkpt>
      <trkpt lat="48.72284" lon="7.32387">
        <ele>235.5</ele>
        <time>2011-07-10T12:41:28Z</time>
      </trkpt>
      <trkpt lat="48.72289" lon="7.32399">
        <ele>233.3</ele>
        <time>2011-07-10T12:41:30Z</time>
      </trkpt>
      <trkpt lat="48.72297" lon="7.3241">
        <ele>232.9</ele>
        <time>2011-07-10T12:41:32Z</time>
      </trkpt>
      <trkpt lat="48.72303" lon="7.32418">
        <ele>232.5</ele>
        <time>2011-07-10T12:41:34Z</time>
      </trkpt>
      <trkpt lat="48.72308" lon="7.32428">
        <ele>232.2</ele>
        <time>2011-07-10T12:41:36Z</time>
      </trkpt>
      <trkpt lat="48.72314" lon="7.32444">
        <ele>231.8</ele>
        <time>2011-07-10T12:41:39Z</time>
      </trkpt>
      <trkpt lat="48.72321" lon="7.32458">
        <ele>230</ele>
        <time>2011-07-10T12:41:42Z</time>
      </trkpt>
      <trkpt lat="48.72328" lon="7.32474">
        <ele>228.2</ele>
        <time>2011-07-10T12:41:45Z</time>
      </trkpt>
      <trkpt lat="48.72334" lon="7.32484">
        <ele>226.4</ele>
        <time>2011-07-10T12:41:47Z</time>
      </trkpt>
      <trkpt lat="48.72339" lon="7.32496">
        <ele>228.3</ele>
        <time>2011-07-10T12:41:49Z</time>
      </trkpt>
      <trkpt lat="48.72345" lon="7.3251">
        <ele>228</ele>
        <time>2011-07-10T12:41:52Z</time>
      </trkpt>
      <trkpt lat="48.72352" lon="7.32524">
        <ele>227.7</ele>
        <time>2011-07-10T12:41:55Z</time>
      </trkpt>
      <trkpt lat="48.7236" lon="7.32532">
        <ele>227.5</ele>
        <time>2011-07-10T12:41:58Z</time>
      </trkpt>
      <trkpt lat="48.72369" lon="7.32541">
        <ele>225.3</ele>
        <time>2011-07-10T12:42:00Z</time>
      </trkpt>
      <trkpt lat="48.72378" lon="7.3255">
        <ele>223.1</ele>
        <time>2011-07-10T12:42:02Z</time>
      </trkpt>
      <trkpt lat="48.72386" lon="7.32565">
        <ele>220.9</ele>
        <time>2011-07-10T12:42:05Z</time>
      </trkpt>
      <trkpt lat="48.72394" lon="7.32578">
        <ele>218.7</ele>
        <time>2011-07-10T12:42:08Z</time>
      </trkpt>
      <trkpt lat="48.72399" lon="7.32587">
        <ele>218</ele>
        <time>2011-07-10T12:42:10Z</time>
      </trkpt>
      <trkpt lat="48.72405" lon="7.32599">
        <ele>217.3</ele>
        <time>2011-07-10T12:42:13Z</time>
      </trkpt>
      <trkpt lat="48.72413" lon="7.32613">
        <ele>216.5</ele>
        <time>2011-07-10T12:42:16Z</time>
      </trkpt>
      <trkpt lat="48.72419" lon="7.32623">
        <ele>215.8</ele>
        <time>2011-07-10T12:42:18Z</time>
      </trkpt>
      <trkpt lat="48.72424" lon="7.32633">
        <ele>217.3</ele>
        <time>2011-07-10T12:42:20Z</time>
      </trkpt>
      <trkpt lat="48.72432" lon="7.32644">
        <ele>218.7</ele>
        <time>2011-07-10T12:42:22Z</time>
      </trkpt>
      <trkpt lat="48.72437" lon="7.32654">
        <ele>218</ele>
        <time>2011-07-10T12:42:24Z</time>
      </trkpt>
      <trkpt lat="48.72443" lon="7.32664">
        <ele>218</ele>
        <time>2011-07-10T12:42:26Z</time>
      </trkpt>
      <trkpt lat="48.72448" lon="7.32678">
        <ele>218</ele>
        <time>2011-07-10T12:42:28Z</time>
      </trkpt>
      <trkpt lat="48.72454" lon="7.32692">
        <ele>218</ele>
        <time>2011-07-10T12:42:30Z</time>
      </trkpt>
      <trkpt lat="48.72459" lon="7.32705">
        <ele>218</ele>
        <time>2011-07-10T12:42:32Z</time>
      </trkpt>
      <trkpt lat="48.72464" lon="7.32718">
        <ele>216.5</ele>
        <time>2011-07-10T12:42:34Z</time>
      </trkpt>
      <trkpt lat="48.7247" lon="7.32733">
        <ele>215.8</ele>
        <time>2011-07-10T12:42:36Z</time>
      </trkpt>
      <trkpt lat="48.72476" lon="7.32747">
        <ele>215.1</ele>
        <time>2011-07-10T12:42:38Z</time>
      </trkpt>
      <trkpt lat="48.72482" lon="7.3276">
        <ele>214.4</ele>
        <time>2011-07-10T12:42:40Z</time>
      </trkpt>
      <trkpt lat="48.72488" lon="7.32777">
        <ele>213.6</ele>
        <time>2011-07-10T12:42:42Z</time>
      </trkpt>
      <trkpt lat="48.72492" lon="7.3279">
        <ele>212.9</ele>
        <time>2011-07-10T12:42:44Z</time>
      </trkpt>
      <trkpt lat="48.72499" lon="7.32803">
        <ele>214.4</ele>
        <time>2011-07-10T12:42:46Z</time>
      </trkpt>
      <trkpt lat="48.72507" lon="7.32814">
        <ele>215.1</ele>
        <time>2011-07-10T12:42:48Z</time>
      </trkpt>
      <trkpt lat="48.72514" lon="7.32825">
        <ele>214.4</ele>
        <time>2011-07-10T12:42:50Z</time>
      </trkpt>
      <trkpt lat="48.72521" lon="7.32835">
        <ele>214</ele>
        <time>2011-07-10T12:42:52Z</time>
      </trkpt>
      <trkpt lat="48.72528" lon="7.32844">
        <ele>213.6</ele>
        <time>2011-07-10T12:42:54Z</time>
      </trkpt>
      <trkpt lat="48.72535" lon="7.32852">
        <ele>213.3</ele>
        <time>2011-07-10T12:42:56Z</time>
      </trkpt>
      <trkpt lat="48.7254" lon="7.32864">
        <ele>212.2</ele>
        <time>2011-07-10T12:42:58Z</time>
      </trkpt>
      <trkpt lat="48.72547" lon="7.32877">
        <ele>211.1</ele>
        <time>2011-07-10T12:43:00Z</time>
      </trkpt>
      <trkpt lat="48.72553" lon="7.32889">
        <ele>210</ele>
        <time>2011-07-10T12:43:02Z</time>
      </trkpt>
      <trkpt lat="48.72559" lon="7.32902">
        <ele>209.4</ele>
        <time>2011-07-10T12:43:04Z</time>
      </trkpt>
      <trkpt lat="48.72563" lon="7.32916">
        <ele>208.7</ele>
        <time>2011-07-10T12:43:06Z</time>
      </trkpt>
      <trkpt lat="48.72567" lon="7.32931">
        <ele>208.1</ele>
        <time>2011-07-10T12:43:08Z</time>
      </trkpt>
      <trkpt lat="48.72572" lon="7.32944">
        <ele>207.5</ele>
        <time>2011-07-10T12:43:10Z</time>
      </trkpt>
      <trkpt lat="48.72571" lon="7.32957">
        <ele>208.3</ele>
        <time>2011-07-10T12:43:12Z</time>
      </trkpt>
      <trkpt lat="48.7257" lon="7.32972">
        <ele>208.7</ele>
        <time>2011-07-10T12:43:14Z</time>
      </trkpt>
      <trkpt lat="48.72567" lon="7.32989">
        <ele>209.7</ele>
        <time>2011-07-10T12:43:17Z</time>
      </trkpt>
      <trkpt lat="48.72566" lon="7.33003">
        <ele>210.7</ele>
        <time>2011-07-10T12:43:20Z</time>
      </trkpt>
      <trkpt lat="48.72567" lon="7.33019">
        <ele>211.7</ele>
        <time>2011-07-10T12:43:22Z</time>
      </trkpt>
      <trkpt lat="48.72566" lon="7.33032">
        <ele>212.7</ele>
        <time>2011-07-10T12:43:24Z</time>
      </trkpt>
      <trkpt lat="48.72567" lon="7.33044">
        <ele>213.7</ele>
        <time>2011-07-10T12:43:26Z</time>
      </trkpt>
      <trkpt lat="48.72568" lon="7.33057">
        <ele>214.3</ele>
        <time>2011-07-10T12:43:28Z</time>
      </trkpt>
      <trkpt lat="48.72574" lon="7.33072">
        <ele>216.7</ele>
        <time>2011-07-10T12:43:30Z</time>
      </trkpt>
      <trkpt lat="48.72582" lon="7.33088">
        <ele>219.2</ele>
        <time>2011-07-10T12:43:32Z</time>
      </trkpt>
      <trkpt lat="48.72586" lon="7.331">
        <ele>221.6</ele>
        <time>2011-07-10T12:43:34Z</time>
      </trkpt>
      <trkpt lat="48.72589" lon="7.33112">
        <ele>224.1</ele>
        <time>2011-07-10T12:43:36Z</time>
      </trkpt>
      <trkpt lat="48.72596" lon="7.33123">
        <ele>223.7</ele>
        <time>2011-07-10T12:43:38Z</time>
      </trkpt>
      <trkpt lat="48.72601" lon="7.33133">
        <ele>222.8</ele>
        <time>2011-07-10T12:43:40Z</time>
      </trkpt>
      <trkpt lat="48.72609" lon="7.33148">
        <ele>221.9</ele>
        <time>2011-07-10T12:43:43Z</time>
      </trkpt>
      <trkpt lat="48.72614" lon="7.33158">
        <ele>221</ele>
        <time>2011-07-10T12:43:45Z</time>
      </trkpt>
      <trkpt lat="48.72619" lon="7.33167">
        <ele>222.7</ele>
        <time>2011-07-10T12:43:47Z</time>
      </trkpt>
      <trkpt lat="48.72627" lon="7.3318">
        <ele>224.5</ele>
        <time>2011-07-10T12:43:50Z</time>
      </trkpt>
      <trkpt lat="48.72635" lon="7.33191">
        <ele>226.2</ele>
        <time>2011-07-10T12:43:53Z</time>
      </trkpt>
      <trkpt lat="48.72643" lon="7.33203">
        <ele>226</ele>
        <time>2011-07-10T12:43:56Z</time>
      </trkpt>
      <trkpt lat="48.7265" lon="7.33211">
        <ele>225.8</ele>
        <time>2011-07-10T12:43:58Z</time>
      </trkpt>
      <trkpt lat="48.72659" lon="7.33222">
        <ele>225.6</ele>
        <time>2011-07-10T12:44:01Z</time>
      </trkpt>
      <trkpt lat="48.72667" lon="7.33229">
        <ele>225.5</ele>
        <time>2011-07-10T12:44:05Z</time>
      </trkpt>
      <trkpt lat="48.72674" lon="7.33235">
        <ele>225.4</ele>
        <time>2011-07-10T12:44:08Z</time>
      </trkpt>
      <trkpt lat="48.72682" lon="7.33243">
        <ele>225.3</ele>
        <time>2011-07-10T12:44:11Z</time>
      </trkpt>
      <trkpt lat="48.72692" lon="7.33253">
        <ele>227.8</ele>
        <time>2011-07-10T12:44:13Z</time>
      </trkpt>
      <trkpt lat="48.72701" lon="7.3326">
        <ele>230.4</ele>
        <time>2011-07-10T12:44:15Z</time>
      </trkpt>
      <trkpt lat="48.72708" lon="7.33268">
        <ele>230.3</ele>
        <time>2011-07-10T12:44:18Z</time>
      </trkpt>
      <trkpt lat="48.72718" lon="7.33278">
        <ele>230.2</ele>
        <time>2011-07-10T12:44:21Z</time>
      </trkpt>
      <trkpt lat="48.72725" lon="7.3329">
        <ele>230.1</ele>
        <time>2011-07-10T12:44:25Z</time>
      </trkpt>
      <trkpt lat="48.72734" lon="7.333">
        <ele>230</ele>
        <time>2011-07-10T12:44:28Z</time>
      </trkpt>
      <trkpt lat="48.72742" lon="7.33307">
        <ele>229.9</ele>
        <time>2011-07-10T12:44:34Z</time>
      </trkpt>
      <trkpt lat="48.7275" lon="7.33315">
        <ele>229.8</ele>
        <time>2011-07-10T12:44:37Z</time>
      </trkpt>
      <trkpt lat="48.72757" lon="7.33324">
        <ele>229.7</ele>
        <time>2011-07-10T12:44:49Z</time>
      </trkpt>
      <trkpt lat="48.72764" lon="7.33332">
        <ele>230</ele>
        <time>2011-07-10T12:44:52Z</time>
      </trkpt>
      <trkpt lat="48.72772" lon="7.33343">
        <ele>233.5</ele>
        <time>2011-07-10T12:44:55Z</time>
      </trkpt>
      <trkpt lat="48.72781" lon="7.33352">
        <ele>234.5</ele>
        <time>2011-07-10T12:44:58Z</time>
      </trkpt>
      <trkpt lat="48.72788" lon="7.33359">
        <ele>235.4</ele>
        <time>2011-07-10T12:45:03Z</time>
      </trkpt>
      <trkpt lat="48.72794" lon="7.33369">
        <ele>236.3</ele>
        <time>2011-07-10T12:45:14Z</time>
      </trkpt>
      <trkpt lat="48.72803" lon="7.33377">
        <ele>237.2</ele>
        <time>2011-07-10T12:45:18Z</time>
      </trkpt>
      <trkpt lat="48.72811" lon="7.33388">
        <ele>238.1</ele>
        <time>2011-07-10T12:45:22Z</time>
      </trkpt>
      <trkpt lat="48.72818" lon="7.33396">
        <ele>239</ele>
        <time>2011-07-10T12:45:25Z</time>
      </trkpt>
      <trkpt lat="48.72827" lon="7.33402">
        <ele>239.9</ele>
        <time>2011-07-10T12:45:29Z</time>
      </trkpt>
      <trkpt lat="48.72833" lon="7.33412">
        <ele>240.8</ele>
        <time>2011-07-10T12:45:36Z</time>
      </trkpt>
      <trkpt lat="48.72842" lon="7.33417">
        <ele>241.7</ele>
        <time>2011-07-10T12:45:40Z</time>
      </trkpt>
      <trkpt lat="48.72849" lon="7.33424">
        <ele>245.2</ele>
        <time>2011-07-10T12:45:44Z</time>
      </trkpt>
      <trkpt lat="48.72857" lon="7.33431">
        <ele>245.4</ele>
        <time>2011-07-10T12:45:50Z</time>
      </trkpt>
      <trkpt lat="48.72866" lon="7.33438">
        <ele>245.5</ele>
        <time>2011-07-10T12:45:54Z</time>
      </trkpt>
      <trkpt lat="48.72873" lon="7.33446">
        <ele>245.7</ele>
        <time>2011-07-10T12:45:59Z</time>
      </trkpt>
      <trkpt lat="48.7288" lon="7.33453">
        <ele>245.9</ele>
        <time>2011-07-10T12:46:03Z</time>
      </trkpt>
      <trkpt lat="48.72888" lon="7.33462">
        <ele>246.1</ele>
        <time>2011-07-10T12:46:07Z</time>
      </trkpt>
      <trkpt lat="48.72896" lon="7.33468">
        <ele>246.3</ele>
        <time>2011-07-10T12:46:11Z</time>
      </trkpt>
      <trkpt lat="48.72903" lon="7.33477">
        <ele>246.5</ele>
        <time>2011-07-10T12:46:13Z</time>
      </trkpt>
      <trkpt lat="48.72912" lon="7.33488">
        <ele>246.6</ele>
        <time>2011-07-10T12:46:16Z</time>
      </trkpt>
      <trkpt lat="48.72919" lon="7.33498">
        <ele>246.8</ele>
        <time>2011-07-10T12:46:19Z</time>
      </trkpt>
      <trkpt lat="48.72926" lon="7.33508">
        <ele>249</ele>
        <time>2011-07-10T12:46:26Z</time>
      </trkpt>
      <trkpt lat="48.72932" lon="7.33517">
        <ele>251</ele>
        <time>2011-07-10T12:46:31Z</time>
      </trkpt>
      <trkpt lat="48.72939" lon="7.33526">
        <ele>253</ele>
        <time>2011-07-10T12:46:38Z</time>
      </trkpt>
      <trkpt lat="48.72943" lon="7.33536">
        <ele>251.8</ele>
        <time>2011-07-10T12:46:43Z</time>
      </trkpt>
      <trkpt lat="48.72946" lon="7.33548">
        <ele>250.6</ele>
        <time>2011-07-10T12:46:49Z</time>
      </trkpt>
      <trkpt lat="48.72949" lon="7.33561">
        <ele>249.5</ele>
        <time>2011-07-10T12:46:54Z</time>
      </trkpt>
      <trkpt lat="48.72955" lon="7.3357">
        <ele>248.3</ele>
        <time>2011-07-10T12:46:58Z</time>
      </trkpt>
      <trkpt lat="48.7296" lon="7.33581">
        <ele>247.1</ele>
        <time>2011-07-10T12:47:01Z</time>
      </trkpt>
      <trkpt lat="48.72966" lon="7.3359">
        <ele>247</ele>
        <time>2011-07-10T12:47:04Z</time>
      </trkpt>
      <trkpt lat="48.7297" lon="7.33602">
        <ele>246.9</ele>
        <time>2011-07-10T12:47:09Z</time>
      </trkpt>
      <trkpt lat="48.72975" lon="7.33612">
        <ele>246.8</ele>
        <time>2011-07-10T12:47:13Z</time>
      </trkpt>
      <trkpt lat="48.72979" lon="7.33624">
        <ele>244.7</ele>
        <time>2011-07-10T12:47:16Z</time>
      </trkpt>
      <trkpt lat="48.72979" lon="7.33637">
        <ele>242.6</ele>
        <time>2011-07-10T12:47:21Z</time>
      </trkpt>
      <trkpt lat="48.72978" lon="7.33651">
        <ele>240.5</ele>
        <time>2011-07-10T12:47:26Z</time>
      </trkpt>
      <trkpt lat="48.72977" lon="7.33664">
        <ele>241.3</ele>
        <time>2011-07-10T12:47:31Z</time>
      </trkpt>
      <trkpt lat="48.72976" lon="7.33678">
        <ele>245.5</ele>
        <time>2011-07-10T12:47:35Z</time>
      </trkpt>
      <trkpt lat="48.7297" lon="7.33687">
        <ele>249.6</ele>
        <time>2011-07-10T12:47:39Z</time>
      </trkpt>
      <trkpt lat="48.72967" lon="7.337">
        <ele>253.8</ele>
        <time>2011-07-10T12:47:43Z</time>
      </trkpt>
      <trkpt lat="48.72964" lon="7.33712">
        <ele>258</ele>
        <time>2011-07-10T12:47:47Z</time>
      </trkpt>
      <trkpt lat="48.72964" lon="7.33725">
        <ele>261.1</ele>
        <time>2011-07-10T12:47:51Z</time>
      </trkpt>
      <trkpt lat="48.72958" lon="7.33736">
        <ele>264.2</ele>
        <time>2011-07-10T12:47:56Z</time>
      </trkpt>
      <trkpt lat="48.72955" lon="7.33748">
        <ele>267.3</ele>
        <time>2011-07-10T12:48:01Z</time>
      </trkpt>
      <trkpt lat="48.7295" lon="7.3376">
        <ele>270.4</ele>
        <time>2011-07-10T12:48:07Z</time>
      </trkpt>
      <trkpt lat="48.72949" lon="7.33774">
        <ele>273.5</ele>
        <time>2011-07-10T12:48:13Z</time>
      </trkpt>
      <trkpt lat="48.72946" lon="7.33786">
        <ele>276.5</ele>
        <time>2011-07-10T12:48:18Z</time>
      </trkpt>
      <trkpt lat="48.72943" lon="7.338">
        <ele>280</ele>
        <time>2011-07-10T12:48:22Z</time>
      </trkpt>
      <trkpt lat="48.72934" lon="7.33806">
        <ele>280</ele>
        <time>2011-07-10T12:48:27Z</time>
      </trkpt>
      <trkpt lat="48.72935" lon="7.3382">
        <ele>280</ele>
        <time>2011-07-10T12:48:32Z</time>
      </trkpt>
      <trkpt lat="48.72936" lon="7.33834">
        <ele>280.7</ele>
        <time>2011-07-10T12:48:37Z</time>
      </trkpt>
      <trkpt lat="48.72932" lon="7.33845">
        <ele>281.5</ele>
        <time>2011-07-10T12:48:42Z</time>
      </trkpt>
      <trkpt lat="48.72936" lon="7.33857">
        <ele>282.2</ele>
        <time>2011-07-10T12:48:46Z</time>
      </trkpt>
      <trkpt lat="48.7294" lon="7.33869">
        <ele>282.9</ele>
        <time>2011-07-10T12:48:49Z</time>
      </trkpt>
      <trkpt lat="48.72941" lon="7.33883">
        <ele>283.6</ele>
        <time>2011-07-10T12:48:54Z</time>
      </trkpt>
      <trkpt lat="48.72943" lon="7.33897">
        <ele>284.4</ele>
        <time>2011-07-10T12:48:59Z</time>
      </trkpt>
      <trkpt lat="48.72946" lon="7.33909">
        <ele>286</ele>
        <time>2011-07-10T12:49:06Z</time>
      </trkpt>
      <trkpt lat="48.72949" lon="7.33921">
        <ele>287.6</ele>
        <time>2011-07-10T12:49:12Z</time>
      </trkpt>
      <trkpt lat="48.72954" lon="7.33932">
        <ele>289.3</ele>
        <time>2011-07-10T12:49:18Z</time>
      </trkpt>
      <trkpt lat="48.72957" lon="7.33944">
        <ele>287.7</ele>
        <time>2011-07-10T12:49:23Z</time>
      </trkpt>
      <trkpt lat="48.72958" lon="7.33958">
        <ele>286.2</ele>
        <time>2011-07-10T12:49:28Z</time>
      </trkpt>
      <trkpt lat="48.72957" lon="7.33971">
        <ele>283.9</ele>
        <time>2011-07-10T12:49:32Z</time>
      </trkpt>
      <trkpt lat="48.72958" lon="7.33984">
        <ele>283.5</ele>
        <time>2011-07-10T12:49:38Z</time>
      </trkpt>
      <trkpt lat="48.72962" lon="7.33998">
        <ele>283</ele>
        <time>2011-07-10T12:49:42Z</time>
      </trkpt>
      <trkpt lat="48.72966" lon="7.34011">
        <ele>282.5</ele>
        <time>2011-07-10T12:49:48Z</time>
      </trkpt>
      <trkpt lat="48.72971" lon="7.34022">
        <ele>282.1</ele>
        <time>2011-07-10T12:49:53Z</time>
      </trkpt>
      <trkpt lat="48.72976" lon="7.34044">
        <ele>281.6</ele>
        <time>2011-07-10T12:50:02Z</time>
      </trkpt>
      <trkpt lat="48.7298" lon="7.34057">
        <ele>280.3</ele>
        <time>2011-07-10T12:50:06Z</time>
      </trkpt>
      <trkpt lat="48.72986" lon="7.34071">
        <ele>279.9</ele>
        <time>2011-07-10T12:50:12Z</time>
      </trkpt>
      <trkpt lat="48.72991" lon="7.34083">
        <ele>279.5</ele>
        <time>2011-07-10T12:50:20Z</time>
      </trkpt>
      <trkpt lat="48.72995" lon="7.34095">
        <ele>282.4</ele>
        <time>2011-07-10T12:50:27Z</time>
      </trkpt>
      <trkpt lat="48.73003" lon="7.34114">
        <ele>285.2</ele>
        <time>2011-07-10T12:50:38Z</time>
      </trkpt>
      <trkpt lat="48.73008" lon="7.34125">
        <ele>288</ele>
        <time>2011-07-10T12:50:42Z</time>
      </trkpt>
      <trkpt lat="48.73012" lon="7.34141">
        <ele>287.3</ele>
        <time>2011-07-10T12:50:47Z</time>
      </trkpt>
      <trkpt lat="48.7302" lon="7.34152">
        <ele>287.8</ele>
        <time>2011-07-10T12:50:52Z</time>
      </trkpt>
      <trkpt lat="48.73023" lon="7.34163">
        <ele>288.4</ele>
        <time>2011-07-10T12:51:00Z</time>
      </trkpt>
      <trkpt lat="48.73034" lon="7.34177">
        <ele>288.9</ele>
        <time>2011-07-10T12:51:07Z</time>
      </trkpt>
      <trkpt lat="48.73042" lon="7.34192">
        <ele>289.5</ele>
        <time>2011-07-10T12:51:14Z</time>
      </trkpt>
      <trkpt lat="48.73051" lon="7.3421">
        <ele>291.2</ele>
        <time>2011-07-10T12:51:23Z</time>
      </trkpt>
      <trkpt lat="48.73063" lon="7.34226">
        <ele>290.8</ele>
        <time>2011-07-10T12:51:32Z</time>
      </trkpt>
      <trkpt lat="48.7308" lon="7.3425">
        <ele>290.5</ele>
        <time>2011-07-10T12:51:50Z</time>
      </trkpt>
      <trkpt lat="48.73099" lon="7.34269">
        <ele>290.1</ele>
        <time>2011-07-10T12:51:57Z</time>
      </trkpt>
      <trkpt lat="48.73115" lon="7.34291">
        <ele>289.7</ele>
        <time>2011-07-10T12:52:07Z</time>
      </trkpt>
      <trkpt lat="48.73124" lon="7.343">
        <ele>289.4</ele>
        <time>2011-07-10T12:52:08Z</time>
      </trkpt>
      <trkpt lat="48.73131" lon="7.34306">
        <ele>290.7</ele>
        <time>2011-07-10T12:52:13Z</time>
      </trkpt>
      <trkpt lat="48.73141" lon="7.34309">
        <ele>290.8</ele>
        <time>2011-07-10T12:52:17Z</time>
      </trkpt>
      <trkpt lat="48.73152" lon="7.34319">
        <ele>291.7</ele>
        <time>2011-07-10T12:52:21Z</time>
      </trkpt>
      <trkpt lat="48.73161" lon="7.34333">
        <ele>292.6</ele>
        <time>2011-07-10T12:52:24Z</time>
      </trkpt>
      <trkpt lat="48.73175" lon="7.34346">
        <ele>293.5</ele>
        <time>2011-07-10T12:52:29Z</time>
      </trkpt>
      <trkpt lat="48.73189" lon="7.34361">
        <ele>292.5</ele>
        <time>2011-07-10T12:52:31Z</time>
      </trkpt>
      <trkpt lat="48.73196" lon="7.34372">
        <ele>289.5</ele>
        <time>2011-07-10T12:52:33Z</time>
      </trkpt>
      <trkpt lat="48.73203" lon="7.34382">
        <ele>288.2</ele>
        <time>2011-07-10T12:52:36Z</time>
      </trkpt>
      <trkpt lat="48.73206" lon="7.34394">
        <ele>286.8</ele>
        <time>2011-07-10T12:52:40Z</time>
      </trkpt>
      <trkpt lat="48.73204" lon="7.34382">
        <ele>285.5</ele>
        <time>2011-07-10T12:53:40Z</time>
      </trkpt>
      <trkpt lat="48.73208" lon="7.3437">
        <ele>284.1</ele>
        <time>2011-07-10T12:53:43Z</time>
      </trkpt>
      <trkpt lat="48.7322" lon="7.34376">
        <ele>282.7</ele>
        <time>2011-07-10T12:53:50Z</time>
      </trkpt>
      <trkpt lat="48.73227" lon="7.34386">
        <ele>281.4</ele>
        <time>2011-07-10T12:53:52Z</time>
      </trkpt>
      <trkpt lat="48.73234" lon="7.34398">
        <ele>279.2</ele>
        <time>2011-07-10T12:53:56Z</time>
      </trkpt>
      <trkpt lat="48.7324" lon="7.3441">
        <ele>277.7</ele>
        <time>2011-07-10T12:53:59Z</time>
      </trkpt>
      <trkpt lat="48.73248" lon="7.34424">
        <ele>276.3</ele>
        <time>2011-07-10T12:54:03Z</time>
      </trkpt>
      <trkpt lat="48.73254" lon="7.34434">
        <ele>275.6</ele>
        <time>2011-07-10T12:54:05Z</time>
      </trkpt>
      <trkpt lat="48.73259" lon="7.34445">
        <ele>277.9</ele>
        <time>2011-07-10T12:54:07Z</time>
      </trkpt>
      <trkpt lat="48.73266" lon="7.34454">
        <ele>278.6</ele>
        <time>2011-07-10T12:54:10Z</time>
      </trkpt>
      <trkpt lat="48.73272" lon="7.34469">
        <ele>279.4</ele>
        <time>2011-07-10T12:54:13Z</time>
      </trkpt>
      <trkpt lat="48.73276" lon="7.34481">
        <ele>279.2</ele>
        <time>2011-07-10T12:54:15Z</time>
      </trkpt>
      <trkpt lat="48.73281" lon="7.34491">
        <ele>279</ele>
        <time>2011-07-10T12:54:16Z</time>
      </trkpt>
      <trkpt lat="48.73286" lon="7.3451">
        <ele>278.8</ele>
        <time>2011-07-10T12:54:18Z</time>
      </trkpt>
      <trkpt lat="48.73291" lon="7.34527">
        <ele>278.6</ele>
        <time>2011-07-10T12:54:20Z</time>
      </trkpt>
      <trkpt lat="48.73294" lon="7.34545">
        <ele>278.7</ele>
        <time>2011-07-10T12:54:22Z</time>
      </trkpt>
      <trkpt lat="48.733" lon="7.34565">
        <ele>278.1</ele>
        <time>2011-07-10T12:54:24Z</time>
      </trkpt>
      <trkpt lat="48.73305" lon="7.34589">
        <ele>277.5</ele>
        <time>2011-07-10T12:54:27Z</time>
      </trkpt>
      <trkpt lat="48.73311" lon="7.34615">
        <ele>276.8</ele>
        <time>2011-07-10T12:54:30Z</time>
      </trkpt>
      <trkpt lat="48.7331" lon="7.34629">
        <ele>276.5</ele>
        <time>2011-07-10T12:54:33Z</time>
      </trkpt>
      <trkpt lat="48.73315" lon="7.34644">
        <ele>276.1</ele>
        <time>2011-07-10T12:54:35Z</time>
      </trkpt>
      <trkpt lat="48.73322" lon="7.34666">
        <ele>275.7</ele>
        <time>2011-07-10T12:54:38Z</time>
      </trkpt>
      <trkpt lat="48.73327" lon="7.34687">
        <ele>276.3</ele>
        <time>2011-07-10T12:54:41Z</time>
      </trkpt>
      <trkpt lat="48.73335" lon="7.34703">
        <ele>276.8</ele>
        <time>2011-07-10T12:54:43Z</time>
      </trkpt>
      <trkpt lat="48.73343" lon="7.3472">
        <ele>277.4</ele>
        <time>2011-07-10T12:54:45Z</time>
      </trkpt>
      <trkpt lat="48.73345" lon="7.34735">
        <ele>278.1</ele>
        <time>2011-07-10T12:54:48Z</time>
      </trkpt>
      <trkpt lat="48.73347" lon="7.34747">
        <ele>278.5</ele>
        <time>2011-07-10T12:54:51Z</time>
      </trkpt>
      <trkpt lat="48.73352" lon="7.3476">
        <ele>279</ele>
        <time>2011-07-10T12:54:55Z</time>
      </trkpt>
      <trkpt lat="48.73354" lon="7.34774">
        <ele>279.5</ele>
        <time>2011-07-10T12:55:00Z</time>
      </trkpt>
      <trkpt lat="48.73359" lon="7.3479">
        <ele>279.9</ele>
        <time>2011-07-10T12:55:03Z</time>
      </trkpt>
      <trkpt lat="48.73359" lon="7.34802">
        <ele>280.1</ele>
        <time>2011-07-10T12:55:05Z</time>
      </trkpt>
      <trkpt lat="48.73354" lon="7.34817">
        <ele>280.3</ele>
        <time>2011-07-10T12:55:08Z</time>
      </trkpt>
      <trkpt lat="48.73347" lon="7.34829">
        <ele>279.7</ele>
        <time>2011-07-10T12:55:10Z</time>
      </trkpt>
      <trkpt lat="48.7334" lon="7.34846">
        <ele>279.2</ele>
        <time>2011-07-10T12:55:12Z</time>
      </trkpt>
      <trkpt lat="48.7333" lon="7.34864">
        <ele>278.5</ele>
        <time>2011-07-10T12:55:14Z</time>
      </trkpt>
      <trkpt lat="48.73321" lon="7.34871">
        <ele>277.7</ele>
        <time>2011-07-10T12:55:15Z</time>
      </trkpt>
      <trkpt lat="48.73316" lon="7.34881">
        <ele>276.8</ele>
        <time>2011-07-10T12:55:16Z</time>
      </trkpt>
      <trkpt lat="48.73309" lon="7.34891">
        <ele>275.9</ele>
        <time>2011-07-10T12:55:17Z</time>
      </trkpt>
      <trkpt lat="48.73303" lon="7.34901">
        <ele>275</ele>
        <time>2011-07-10T12:55:18Z</time>
      </trkpt>
      <trkpt lat="48.73296" lon="7.34909">
        <ele>273.2</ele>
        <time>2011-07-10T12:55:19Z</time>
      </trkpt>
      <trkpt lat="48.73284" lon="7.34924">
        <ele>271.4</ele>
        <time>2011-07-10T12:55:21Z</time>
      </trkpt>
      <trkpt lat="48.73276" lon="7.34934">
        <ele>269.5</ele>
        <time>2011-07-10T12:55:23Z</time>
      </trkpt>
      <trkpt lat="48.73267" lon="7.34941">
        <ele>267.7</ele>
        <time>2011-07-10T12:55:25Z</time>
      </trkpt>
      <trkpt lat="48.7327" lon="7.34959">
        <ele>266</ele>
        <time>2011-07-10T12:55:28Z</time>
      </trkpt>
      <trkpt lat="48.73269" lon="7.34973">
        <ele>264.3</ele>
        <time>2011-07-10T12:55:30Z</time>
      </trkpt>
      <trkpt lat="48.73265" lon="7.3499">
        <ele>262.7</ele>
        <time>2011-07-10T12:55:32Z</time>
      </trkpt>
      <trkpt lat="48.73258" lon="7.35008">
        <ele>261.2</ele>
        <time>2011-07-10T12:55:34Z</time>
      </trkpt>
      <trkpt lat="48.73252" lon="7.35029">
        <ele>259.6</ele>
        <time>2011-07-10T12:55:36Z</time>
      </trkpt>
      <trkpt lat="48.73244" lon="7.3505">
        <ele>258.1</ele>
        <time>2011-07-10T12:55:38Z</time>
      </trkpt>
      <trkpt lat="48.73241" lon="7.35063">
        <ele>255.9</ele>
        <time>2011-07-10T12:55:39Z</time>
      </trkpt>
      <trkpt lat="48.73238" lon="7.35075">
        <ele>254.6</ele>
        <time>2011-07-10T12:55:40Z</time>
      </trkpt>
      <trkpt lat="48.73235" lon="7.35087">
        <ele>253.4</ele>
        <time>2011-07-10T12:55:41Z</time>
      </trkpt>
      <trkpt lat="48.73229" lon="7.35108">
        <ele>252.1</ele>
        <time>2011-07-10T12:55:43Z</time>
      </trkpt>
      <trkpt lat="48.73225" lon="7.35125">
        <ele>250.8</ele>
        <time>2011-07-10T12:55:45Z</time>
      </trkpt>
      <trkpt lat="48.73218" lon="7.35133">
        <ele>250.2</ele>
        <time>2011-07-10T12:55:48Z</time>
      </trkpt>
      <trkpt lat="48.73225" lon="7.35149">
        <ele>249.5</ele>
        <time>2011-07-10T12:56:25Z</time>
      </trkpt>
      <trkpt lat="48.73233" lon="7.35155">
        <ele>248.9</ele>
        <time>2011-07-10T12:56:27Z</time>
      </trkpt>
      <trkpt lat="48.73242" lon="7.35167">
        <ele>247.9</ele>
        <time>2011-07-10T12:56:29Z</time>
      </trkpt>
      <trkpt lat="48.73251" lon="7.35176">
        <ele>247.3</ele>
        <time>2011-07-10T12:56:31Z</time>
      </trkpt>
      <trkpt lat="48.73259" lon="7.35184">
        <ele>246.6</ele>
        <time>2011-07-10T12:56:33Z</time>
      </trkpt>
      <trkpt lat="48.73271" lon="7.35193">
        <ele>246.6</ele>
        <time>2011-07-10T12:56:35Z</time>
      </trkpt>
      <trkpt lat="48.73284" lon="7.35204">
        <ele>246.6</ele>
        <time>2011-07-10T12:56:37Z</time>
      </trkpt>
      <trkpt lat="48.73295" lon="7.35214">
        <ele>246.6</ele>
        <time>2011-07-10T12:56:39Z</time>
      </trkpt>
      <trkpt lat="48.73307" lon="7.35225">
        <ele>246.6</ele>
        <time>2011-07-10T12:56:41Z</time>
      </trkpt>
      <trkpt lat="48.73317" lon="7.35232">
        <ele>246.6</ele>
        <time>2011-07-10T12:56:43Z</time>
      </trkpt>
      <trkpt lat="48.73328" lon="7.3524">
        <ele>246.6</ele>
        <time>2011-07-10T12:56:45Z</time>
      </trkpt>
      <trkpt lat="48.73339" lon="7.35244">
        <ele>246.5</ele>
        <time>2011-07-10T12:56:47Z</time>
      </trkpt>
      <trkpt lat="48.7335" lon="7.35253">
        <ele>246.3</ele>
        <time>2011-07-10T12:56:49Z</time>
      </trkpt>
      <trkpt lat="48.73358" lon="7.35263">
        <ele>246.5</ele>
        <time>2011-07-10T12:56:51Z</time>
      </trkpt>
      <trkpt lat="48.73364" lon="7.35276">
        <ele>246.3</ele>
        <time>2011-07-10T12:56:53Z</time>
      </trkpt>
      <trkpt lat="48.73368" lon="7.35292">
        <ele>246.1</ele>
        <time>2011-07-10T12:56:55Z</time>
      </trkpt>
      <trkpt lat="48.73372" lon="7.35309">
        <ele>246</ele>
        <time>2011-07-10T12:56:57Z</time>
      </trkpt>
      <trkpt lat="48.73375" lon="7.35325">
        <ele>245.9</ele>
        <time>2011-07-10T12:56:59Z</time>
      </trkpt>
      <trkpt lat="48.73379" lon="7.35342">
        <ele>245.8</ele>
        <time>2011-07-10T12:57:01Z</time>
      </trkpt>
      <trkpt lat="48.73383" lon="7.35358">
        <ele>245.7</ele>
        <time>2011-07-10T12:57:03Z</time>
      </trkpt>
      <trkpt lat="48.73387" lon="7.35373">
        <ele>245.6</ele>
        <time>2011-07-10T12:57:05Z</time>
      </trkpt>
      <trkpt lat="48.73391" lon="7.35388">
        <ele>245.5</ele>
        <time>2011-07-10T12:57:07Z</time>
      </trkpt>
      <trkpt lat="48.73395" lon="7.35404">
        <ele>245.6</ele>
        <time>2011-07-10T12:57:09Z</time>
      </trkpt>
      <trkpt lat="48.73399" lon="7.35419">
        <ele>245.7</ele>
        <time>2011-07-10T12:57:11Z</time>
      </trkpt>
      <trkpt lat="48.73405" lon="7.35434">
        <ele>245.8</ele>
        <time>2011-07-10T12:57:13Z</time>
      </trkpt>
      <trkpt lat="48.7341" lon="7.35449">
        <ele>245.9</ele>
        <time>2011-07-10T12:57:15Z</time>
      </trkpt>
      <trkpt lat="48.73416" lon="7.35464">
        <ele>246</ele>
        <time>2011-07-10T12:57:17Z</time>
      </trkpt>
      <trkpt lat="48.73421" lon="7.3548">
        <ele>245.8</ele>
        <time>2011-07-10T12:57:19Z</time>
      </trkpt>
      <trkpt lat="48.73427" lon="7.35495">
        <ele>245.6</ele>
        <time>2011-07-10T12:57:21Z</time>
      </trkpt>
      <trkpt lat="48.73432" lon="7.35511">
        <ele>245.5</ele>
        <time>2011-07-10T12:57:23Z</time>
      </trkpt>
      <trkpt lat="48.73438" lon="7.35527">
        <ele>245.2</ele>
        <time>2011-07-10T12:57:25Z</time>
      </trkpt>
      <trkpt lat="48.73443" lon="7.35543">
        <ele>244.9</ele>
        <time>2011-07-10T12:57:27Z</time>
      </trkpt>
      <trkpt lat="48.73449" lon="7.35559">
        <ele>244.9</ele>
        <time>2011-07-10T12:57:29Z</time>
      </trkpt>
      <trkpt lat="48.73454" lon="7.35576">
        <ele>244.9</ele>
        <time>2011-07-10T12:57:31Z</time>
      </trkpt>
      <trkpt lat="48.7346" lon="7.35594">
        <ele>244.9</ele>
        <time>2011-07-10T12:57:33Z</time>
      </trkpt>
      <trkpt lat="48.73465" lon="7.35611">
        <ele>244.9</ele>
        <time>2011-07-10T12:57:35Z</time>
      </trkpt>
      <trkpt lat="48.73472" lon="7.3563">
        <ele>244.7</ele>
        <time>2011-07-10T12:57:37Z</time>
      </trkpt>
      <trkpt lat="48.73478" lon="7.35648">
        <ele>244.5</ele>
        <time>2011-07-10T12:57:39Z</time>
      </trkpt>
      <trkpt lat="48.73484" lon="7.35667">
        <ele>244.5</ele>
        <time>2011-07-10T12:57:41Z</time>
      </trkpt>
      <trkpt lat="48.73491" lon="7.35685">
        <ele>244.5</ele>
        <time>2011-07-10T12:57:43Z</time>
      </trkpt>
      <trkpt lat="48.73497" lon="7.35703">
        <ele>244.5</ele>
        <time>2011-07-10T12:57:45Z</time>
      </trkpt>
      <trkpt lat="48.73503" lon="7.35721">
        <ele>244.6</ele>
        <time>2011-07-10T12:57:47Z</time>
      </trkpt>
      <trkpt lat="48.7351" lon="7.35738">
        <ele>244.5</ele>
        <time>2011-07-10T12:57:49Z</time>
      </trkpt>
      <trkpt lat="48.73517" lon="7.35754">
        <ele>244</ele>
        <time>2011-07-10T12:57:51Z</time>
      </trkpt>
      <trkpt lat="48.73526" lon="7.3577">
        <ele>243.5</ele>
        <time>2011-07-10T12:57:53Z</time>
      </trkpt>
      <trkpt lat="48.73535" lon="7.35785">
        <ele>243.1</ele>
        <time>2011-07-10T12:57:55Z</time>
      </trkpt>
      <trkpt lat="48.73543" lon="7.35798">
        <ele>242.6</ele>
        <time>2011-07-10T12:57:57Z</time>
      </trkpt>
      <trkpt lat="48.73553" lon="7.35813">
        <ele>242.4</ele>
        <time>2011-07-10T12:57:59Z</time>
      </trkpt>
      <trkpt lat="48.73563" lon="7.35827">
        <ele>242.1</ele>
        <time>2011-07-10T12:58:01Z</time>
      </trkpt>
      <trkpt lat="48.73573" lon="7.3584">
        <ele>241.2</ele>
        <time>2011-07-10T12:58:03Z</time>
      </trkpt>
      <trkpt lat="48.73587" lon="7.3585">
        <ele>240.3</ele>
        <time>2011-07-10T12:58:05Z</time>
      </trkpt>
      <trkpt lat="48.736" lon="7.35859">
        <ele>239.4</ele>
        <time>2011-07-10T12:58:07Z</time>
      </trkpt>
      <trkpt lat="48.73615" lon="7.35861">
        <ele>238.5</ele>
        <time>2011-07-10T12:58:09Z</time>
      </trkpt>
      <trkpt lat="48.73623" lon="7.35861">
        <ele>237.8</ele>
        <time>2011-07-10T12:58:10Z</time>
      </trkpt>
      <trkpt lat="48.7364" lon="7.35859">
        <ele>237.2</ele>
        <time>2011-07-10T12:58:12Z</time>
      </trkpt>
      <trkpt lat="48.73647" lon="7.35854">
        <ele>236.5</ele>
        <time>2011-07-10T12:58:13Z</time>
      </trkpt>
      <trkpt lat="48.73655" lon="7.3585">
        <ele>235.9</ele>
        <time>2011-07-10T12:58:14Z</time>
      </trkpt>
      <trkpt lat="48.73663" lon="7.35844">
        <ele>235.3</ele>
        <time>2011-07-10T12:58:15Z</time>
      </trkpt>
      <trkpt lat="48.7367" lon="7.35837">
        <ele>234.9</ele>
        <time>2011-07-10T12:58:16Z</time>
      </trkpt>
      <trkpt lat="48.73677" lon="7.3583">
        <ele>233.9</ele>
        <time>2011-07-10T12:58:17Z</time>
      </trkpt>
      <trkpt lat="48.73684" lon="7.35823">
        <ele>233.5</ele>
        <time>2011-07-10T12:58:18Z</time>
      </trkpt>
      <trkpt lat="48.73691" lon="7.35815">
        <ele>233.2</ele>
        <time>2011-07-10T12:58:19Z</time>
      </trkpt>
      <trkpt lat="48.73699" lon="7.35806">
        <ele>232.8</ele>
        <time>2011-07-10T12:58:20Z</time>
      </trkpt>
      <trkpt lat="48.73705" lon="7.35797">
        <ele>232.5</ele>
        <time>2011-07-10T12:58:21Z</time>
      </trkpt>
      <trkpt lat="48.73712" lon="7.35788">
        <ele>232.1</ele>
        <time>2011-07-10T12:58:22Z</time>
      </trkpt>
      <trkpt lat="48.7372" lon="7.35781">
        <ele>231.7</ele>
        <time>2011-07-10T12:58:23Z</time>
      </trkpt>
      <trkpt lat="48.73728" lon="7.35774">
        <ele>231.4</ele>
        <time>2011-07-10T12:58:24Z</time>
      </trkpt>
      <trkpt lat="48.73737" lon="7.35769">
        <ele>231</ele>
        <time>2011-07-10T12:58:25Z</time>
      </trkpt>
      <trkpt lat="48.73746" lon="7.35766">
        <ele>230.4</ele>
        <time>2011-07-10T12:58:26Z</time>
      </trkpt>
      <trkpt lat="48.73755" lon="7.35765">
        <ele>229.5</ele>
        <time>2011-07-10T12:58:27Z</time>
      </trkpt>
      <trkpt lat="48.73763" lon="7.35771">
        <ele>229.2</ele>
        <time>2011-07-10T12:58:28Z</time>
      </trkpt>
      <trkpt lat="48.73771" lon="7.35784">
        <ele>228.9</ele>
        <time>2011-07-10T12:58:29Z</time>
      </trkpt>
      <trkpt lat="48.73777" lon="7.35797">
        <ele>228.6</ele>
        <time>2011-07-10T12:58:30Z</time>
      </trkpt>
      <trkpt lat="48.73784" lon="7.35818">
        <ele>228</ele>
        <time>2011-07-10T12:58:31Z</time>
      </trkpt>
      <trkpt lat="48.73782" lon="7.35835">
        <ele>227.1</ele>
        <time>2011-07-10T12:58:32Z</time>
      </trkpt>
      <trkpt lat="48.73784" lon="7.35851">
        <ele>226.2</ele>
        <time>2011-07-10T12:58:33Z</time>
      </trkpt>
      <trkpt lat="48.73786" lon="7.35866">
        <ele>225.3</ele>
        <time>2011-07-10T12:58:34Z</time>
      </trkpt>
      <trkpt lat="48.73789" lon="7.3588">
        <ele>224.4</ele>
        <time>2011-07-10T12:58:35Z</time>
      </trkpt>
      <trkpt lat="48.73795" lon="7.35903">
        <ele>223.5</ele>
        <time>2011-07-10T12:58:37Z</time>
      </trkpt>
      <trkpt lat="48.73802" lon="7.35917">
        <ele>222.7</ele>
        <time>2011-07-10T12:58:38Z</time>
      </trkpt>
      <trkpt lat="48.73808" lon="7.35928">
        <ele>222</ele>
        <time>2011-07-10T12:58:39Z</time>
      </trkpt>
      <trkpt lat="48.73815" lon="7.35939">
        <ele>221.3</ele>
        <time>2011-07-10T12:58:40Z</time>
      </trkpt>
      <trkpt lat="48.73823" lon="7.35949">
        <ele>220.5</ele>
        <time>2011-07-10T12:58:41Z</time>
      </trkpt>
      <trkpt lat="48.7383" lon="7.35958">
        <ele>219.8</ele>
        <time>2011-07-10T12:58:42Z</time>
      </trkpt>
      <trkpt lat="48.73839" lon="7.35968">
        <ele>219.5</ele>
        <time>2011-07-10T12:58:43Z</time>
      </trkpt>
      <trkpt lat="48.73847" lon="7.35978">
        <ele>219.1</ele>
        <time>2011-07-10T12:58:44Z</time>
      </trkpt>
      <trkpt lat="48.73855" lon="7.35987">
        <ele>218.7</ele>
        <time>2011-07-10T12:58:45Z</time>
      </trkpt>
      <trkpt lat="48.73862" lon="7.35996">
        <ele>218.4</ele>
        <time>2011-07-10T12:58:46Z</time>
      </trkpt>
      <trkpt lat="48.7387" lon="7.36006">
        <ele>218</ele>
        <time>2011-07-10T12:58:47Z</time>
      </trkpt>
      <trkpt lat="48.73878" lon="7.36015">
        <ele>217.6</ele>
        <time>2011-07-10T12:58:48Z</time>
      </trkpt>
      <trkpt lat="48.73887" lon="7.36024">
        <ele>217.4</ele>
        <time>2011-07-10T12:58:49Z</time>
      </trkpt>
      <trkpt lat="48.73895" lon="7.36034">
        <ele>217.1</ele>
        <time>2011-07-10T12:58:50Z</time>
      </trkpt>
      <trkpt lat="48.73902" lon="7.36042">
        <ele>216.8</ele>
        <time>2011-07-10T12:58:51Z</time>
      </trkpt>
      <trkpt lat="48.7391" lon="7.3605">
        <ele>216.5</ele>
        <time>2011-07-10T12:58:52Z</time>
      </trkpt>
      <trkpt lat="48.73918" lon="7.36058">
        <ele>216.3</ele>
        <time>2011-07-10T12:58:53Z</time>
      </trkpt>
      <trkpt lat="48.73926" lon="7.36066">
        <ele>215.5</ele>
        <time>2011-07-10T12:58:54Z</time>
      </trkpt>
      <trkpt lat="48.73934" lon="7.36074">
        <ele>215.1</ele>
        <time>2011-07-10T12:58:55Z</time>
      </trkpt>
      <trkpt lat="48.73942" lon="7.36082">
        <ele>214.6</ele>
        <time>2011-07-10T12:58:56Z</time>
      </trkpt>
      <trkpt lat="48.73949" lon="7.36091">
        <ele>214.2</ele>
        <time>2011-07-10T12:58:57Z</time>
      </trkpt>
      <trkpt lat="48.73956" lon="7.36098">
        <ele>213.7</ele>
        <time>2011-07-10T12:58:58Z</time>
      </trkpt>
      <trkpt lat="48.73968" lon="7.3611">
        <ele>213.3</ele>
        <time>2011-07-10T12:59:00Z</time>
      </trkpt>
      <trkpt lat="48.73975" lon="7.36117">
        <ele>212.8</ele>
        <time>2011-07-10T12:59:02Z</time>
      </trkpt>
      <trkpt lat="48.73984" lon="7.36125">
        <ele>212.2</ele>
        <time>2011-07-10T12:59:09Z</time>
      </trkpt>
      <trkpt lat="48.73992" lon="7.36118">
        <ele>211.5</ele>
        <time>2011-07-10T12:59:11Z</time>
      </trkpt>
      <trkpt lat="48.73999" lon="7.361">
        <ele>210.3</ele>
        <time>2011-07-10T12:59:13Z</time>
      </trkpt>
      <trkpt lat="48.74008" lon="7.36081">
        <ele>209</ele>
        <time>2011-07-10T12:59:15Z</time>
      </trkpt>
      <trkpt lat="48.74018" lon="7.36064">
        <ele>208.6</ele>
        <time>2011-07-10T12:59:17Z</time>
      </trkpt>
      <trkpt lat="48.7403" lon="7.36046">
        <ele>208.3</ele>
        <time>2011-07-10T12:59:19Z</time>
      </trkpt>
      <trkpt lat="48.74037" lon="7.36038">
        <ele>207.9</ele>
        <time>2011-07-10T12:59:20Z</time>
      </trkpt>
      <trkpt lat="48.74052" lon="7.36033">
        <ele>207.5</ele>
        <time>2011-07-10T12:59:22Z</time>
      </trkpt>
      <trkpt lat="48.74074" lon="7.36045">
        <ele>207.2</ele>
        <time>2011-07-10T12:59:25Z</time>
      </trkpt>
      <trkpt lat="48.7408" lon="7.36066">
        <ele>207</ele>
        <time>2011-07-10T12:59:27Z</time>
      </trkpt>
      <trkpt lat="48.74089" lon="7.36086">
        <ele>206.2</ele>
        <time>2011-07-10T12:59:29Z</time>
      </trkpt>
      <trkpt lat="48.74098" lon="7.36103">
        <ele>205.5</ele>
        <time>2011-07-10T12:59:31Z</time>
      </trkpt>
      <trkpt lat="48.74107" lon="7.36119">
        <ele>204.9</ele>
        <time>2011-07-10T12:59:33Z</time>
      </trkpt>
      <trkpt lat="48.74116" lon="7.36128">
        <ele>204.9</ele>
        <time>2011-07-10T12:59:35Z</time>
      </trkpt>
      <trkpt lat="48.74123" lon="7.36139">
        <ele>204.9</ele>
        <time>2011-07-10T12:59:37Z</time>
      </trkpt>
      <trkpt lat="48.74131" lon="7.36151">
        <ele>204.5</ele>
        <time>2011-07-10T12:59:39Z</time>
      </trkpt>
      <trkpt lat="48.74141" lon="7.36164">
        <ele>204</ele>
        <time>2011-07-10T12:59:41Z</time>
      </trkpt>
      <trkpt lat="48.7415" lon="7.36176">
        <ele>203.5</ele>
        <time>2011-07-10T12:59:43Z</time>
      </trkpt>
      <trkpt lat="48.7416" lon="7.36188">
        <ele>203.1</ele>
        <time>2011-07-10T12:59:45Z</time>
      </trkpt>
      <trkpt lat="48.7417" lon="7.36191">
        <ele>201.5</ele>
        <time>2011-07-10T12:59:47Z</time>
      </trkpt>
      <trkpt lat="48.74179" lon="7.36181">
        <ele>199.6</ele>
        <time>2011-07-10T12:59:49Z</time>
      </trkpt>
      <trkpt lat="48.74186" lon="7.36167">
        <ele>198.5</ele>
        <time>2011-07-10T12:59:51Z</time>
      </trkpt>
      <trkpt lat="48.74194" lon="7.36152">
        <ele>197.3</ele>
        <time>2011-07-10T12:59:53Z</time>
      </trkpt>
      <trkpt lat="48.74202" lon="7.36135">
        <ele>196.1</ele>
        <time>2011-07-10T12:59:55Z</time>
      </trkpt>
      <trkpt lat="48.74211" lon="7.36117">
        <ele>194.9</ele>
        <time>2011-07-10T12:59:57Z</time>
      </trkpt>
      <trkpt lat="48.7422" lon="7.36098">
        <ele>193.7</ele>
        <time>2011-07-10T12:59:59Z</time>
      </trkpt>
      <trkpt lat="48.74229" lon="7.36081">
        <ele>192.5</ele>
        <time>2011-07-10T13:00:01Z</time>
      </trkpt>
      <trkpt lat="48.74234" lon="7.36068">
        <ele>191.6</ele>
        <time>2011-07-10T13:00:03Z</time>
      </trkpt>
      <trkpt lat="48.74245" lon="7.36073">
        <ele>190.4</ele>
        <time>2011-07-10T13:00:12Z</time>
      </trkpt>
      <trkpt lat="48.74251" lon="7.36082">
        <ele>189</ele>
        <time>2011-07-10T13:00:18Z</time>
      </trkpt>
      <trkpt lat="48.74258" lon="7.36089">
        <ele>189</ele>
        <time>2011-07-10T13:01:30Z</time>
      </trkpt>
      <trkpt lat="48.74258" lon="7.36089">
        <ele>189</ele>
        <time>2011-07-10T13:01:31Z</time>
      </trkpt>
    </trkseg>
  </trk>
</gpx>